<?xml version="1.0" encoding="UTF-8" standalone="no" ?>
<gpx xmlns="http://www.topografix.com/GPX/1/1" xmlns:xsi="http://www.w3.org/2001/XMLSchema-instance" xsi:schemaLocation="http://www.topografix.com/GPX/1/1 http://www.topografix.com/GPX/1/1/gpx.xsd" version="1.1" creator="VisuGPX - https://www.visugpx.com">
  <metadata>
    <name>Move</name>
  </metadata>
  <trk>
    <name><![CDATA[Move]]></name>
    <trkseg>
      <trkpt lat="45.12567" lon="5.87969">
        <ele>1670</ele>
        <time>2015-04-12T02:11:31.010Z</time>
      </trkpt>
      <trkpt lat="45.12567" lon="5.87978">
        <ele>1670</ele>
        <time>2015-04-12T02:11:33.540Z</time>
      </trkpt>
      <trkpt lat="45.12566" lon="5.87988">
        <ele>1670</ele>
        <time>2015-04-12T02:11:38.580Z</time>
      </trkpt>
      <trkpt lat="45.12566" lon="5.87998">
        <ele>1670</ele>
        <time>2015-04-12T02:11:43.590Z</time>
      </trkpt>
      <trkpt lat="45.12564" lon="5.88007">
        <ele>1670</ele>
        <time>2015-04-12T02:11:48.590Z</time>
      </trkpt>
      <trkpt lat="45.12561" lon="5.88025">
        <ele>1675.66398976</ele>
        <time>2015-04-12T02:11:56.580Z</time>
      </trkpt>
      <trkpt lat="45.12554" lon="5.8804">
        <ele>1678</ele>
        <time>2015-04-12T02:12:06.580Z</time>
      </trkpt>
      <trkpt lat="45.12548" lon="5.88048">
        <ele>1678.416416283</ele>
        <time>2015-04-12T02:12:11.590Z</time>
      </trkpt>
      <trkpt lat="45.12538" lon="5.88058">
        <ele>1680.208</ele>
        <time>2015-04-12T02:12:21.580Z</time>
      </trkpt>
      <trkpt lat="45.12532" lon="5.88062">
        <ele>1680.70799872</ele>
        <time>2015-04-12T02:12:26.580Z</time>
      </trkpt>
      <trkpt lat="45.12527" lon="5.88065">
        <ele>1681.416</ele>
        <time>2015-04-12T02:12:31.580Z</time>
      </trkpt>
      <trkpt lat="45.12515" lon="5.88071">
        <ele>1683.416</ele>
        <time>2015-04-12T02:12:41.580Z</time>
      </trkpt>
      <trkpt lat="45.12505" lon="5.88074">
        <ele>1684.81599744</ele>
        <time>2015-04-12T02:12:48.580Z</time>
      </trkpt>
      <trkpt lat="45.12494" lon="5.88078">
        <ele>1686.616</ele>
        <time>2015-04-12T02:12:57.580Z</time>
      </trkpt>
      <trkpt lat="45.12488" lon="5.8808">
        <ele>1687.30799872</ele>
        <time>2015-04-12T02:13:02.580Z</time>
      </trkpt>
      <trkpt lat="45.12482" lon="5.88082">
        <ele>1687.90799872</ele>
        <time>2015-04-12T02:13:08.580Z</time>
      </trkpt>
      <trkpt lat="45.12471" lon="5.88086">
        <ele>1689.81599744</ele>
        <time>2015-04-12T02:13:18.580Z</time>
      </trkpt>
      <trkpt lat="45.12466" lon="5.88088">
        <ele>1692.0449984</ele>
        <time>2015-04-12T02:13:23.590Z</time>
      </trkpt>
      <trkpt lat="45.12461" lon="5.88089">
        <ele>1694.5449984</ele>
        <time>2015-04-12T02:13:28.590Z</time>
      </trkpt>
      <trkpt lat="45.12456" lon="5.88091">
        <ele>1695.816</ele>
        <time>2015-04-12T02:13:33.580Z</time>
      </trkpt>
      <trkpt lat="45.12451" lon="5.88094">
        <ele>1696.81599744</ele>
        <time>2015-04-12T02:13:38.580Z</time>
      </trkpt>
      <trkpt lat="45.12445" lon="5.88097">
        <ele>1698.52399616</ele>
        <time>2015-04-12T02:13:44.580Z</time>
      </trkpt>
      <trkpt lat="45.1244" lon="5.88102">
        <ele>1700.21599744</ele>
        <time>2015-04-12T02:13:50.580Z</time>
      </trkpt>
      <trkpt lat="45.12435" lon="5.88107">
        <ele>1701.61799936</ele>
        <time>2015-04-12T02:13:57.590Z</time>
      </trkpt>
      <trkpt lat="45.12426" lon="5.88115">
        <ele>1705.232</ele>
        <time>2015-04-12T02:14:07.580Z</time>
      </trkpt>
      <trkpt lat="45.12419" lon="5.88126">
        <ele>1709.63199488</ele>
        <time>2015-04-12T02:14:18.580Z</time>
      </trkpt>
      <trkpt lat="45.12416" lon="5.88132">
        <ele>1712.03199488</ele>
        <time>2015-04-12T02:14:24.580Z</time>
      </trkpt>
      <trkpt lat="45.12411" lon="5.88145">
        <ele>1714</ele>
        <time>2015-04-12T02:14:34.590Z</time>
      </trkpt>
      <trkpt lat="45.12404" lon="5.88156">
        <ele>1715.216</ele>
        <time>2015-04-12T02:14:45.580Z</time>
      </trkpt>
      <trkpt lat="45.12397" lon="5.88166">
        <ele>1720.95599104</ele>
        <time>2015-04-12T02:14:56.580Z</time>
      </trkpt>
      <trkpt lat="45.12389" lon="5.88174">
        <ele>1724.616</ele>
        <time>2015-04-12T02:15:07.580Z</time>
      </trkpt>
      <trkpt lat="45.12383" lon="5.88181">
        <ele>1726.9400586422</ele>
        <time>2015-04-12T02:15:19.210Z</time>
      </trkpt>
      <trkpt lat="45.12375" lon="5.88191">
        <ele>1733.78799872</ele>
        <time>2015-04-12T02:15:31.480Z</time>
      </trkpt>
      <trkpt lat="45.12368" lon="5.88201">
        <ele>1737</ele>
        <time>2015-04-12T02:15:43.480Z</time>
      </trkpt>
      <trkpt lat="45.1236" lon="5.8821">
        <ele>1739.07899776</ele>
        <time>2015-04-12T02:15:52.480Z</time>
      </trkpt>
      <trkpt lat="45.12353" lon="5.88218">
        <ele>1744.39399936</ele>
        <time>2015-04-12T02:16:01.480Z</time>
      </trkpt>
      <trkpt lat="45.12346" lon="5.88227">
        <ele>1746.59099904</ele>
        <time>2015-04-12T02:16:11.480Z</time>
      </trkpt>
      <trkpt lat="45.12338" lon="5.88234">
        <ele>1749.59399808</ele>
        <time>2015-04-12T02:16:21.490Z</time>
      </trkpt>
      <trkpt lat="45.12332" lon="5.88243">
        <ele>1752.89099904</ele>
        <time>2015-04-12T02:16:32.480Z</time>
      </trkpt>
      <trkpt lat="45.12325" lon="5.88251">
        <ele>1755.78799872</ele>
        <time>2015-04-12T02:16:41.480Z</time>
      </trkpt>
      <trkpt lat="45.12317" lon="5.88259">
        <ele>1759</ele>
        <time>2015-04-12T02:16:53.480Z</time>
      </trkpt>
      <trkpt lat="45.12308" lon="5.88269">
        <ele>1764.19399936</ele>
        <time>2015-04-12T02:17:10.480Z</time>
      </trkpt>
      <trkpt lat="45.12301" lon="5.88278">
        <ele>1766.58199808</ele>
        <time>2015-04-12T02:17:20.480Z</time>
      </trkpt>
      <trkpt lat="45.12295" lon="5.88286">
        <ele>1772.59099904</ele>
        <time>2015-04-12T02:17:31.480Z</time>
      </trkpt>
      <trkpt lat="45.12288" lon="5.88295">
        <ele>1776.19099904</ele>
        <time>2015-04-12T02:17:43.480Z</time>
      </trkpt>
      <trkpt lat="45.1228" lon="5.88305">
        <ele>1780.78799872</ele>
        <time>2015-04-12T02:17:56.480Z</time>
      </trkpt>
      <trkpt lat="45.12273" lon="5.88317">
        <ele>1786.59099904</ele>
        <time>2015-04-12T02:18:11.480Z</time>
      </trkpt>
      <trkpt lat="45.12266" lon="5.88328">
        <ele>1790.58799872</ele>
        <time>2015-04-12T02:18:23.480Z</time>
      </trkpt>
      <trkpt lat="45.1226" lon="5.88339">
        <ele>1793.99399936</ele>
        <time>2015-04-12T02:18:34.480Z</time>
      </trkpt>
      <trkpt lat="45.12257" lon="5.88345">
        <ele>1796.49099904</ele>
        <time>2015-04-12T02:18:44.480Z</time>
      </trkpt>
      <trkpt lat="45.12253" lon="5.88352">
        <ele>1798.4849984</ele>
        <time>2015-04-12T02:18:50.480Z</time>
      </trkpt>
      <trkpt lat="45.1225" lon="5.88359">
        <ele>1801.4849984</ele>
        <time>2015-04-12T02:18:56.480Z</time>
      </trkpt>
      <trkpt lat="45.12246" lon="5.88367">
        <ele>1803.89099904</ele>
        <time>2015-04-12T02:19:02.480Z</time>
      </trkpt>
      <trkpt lat="45.12243" lon="5.88374">
        <ele>1805.45099904</ele>
        <time>2015-04-12T02:19:07.680Z</time>
      </trkpt>
      <trkpt lat="45.12237" lon="5.88388">
        <ele>1806</ele>
        <time>2015-04-12T02:19:17.480Z</time>
      </trkpt>
      <trkpt lat="45.12233" lon="5.88396">
        <ele>1806.5988020127</ele>
        <time>2015-04-12T02:19:22.490Z</time>
      </trkpt>
      <trkpt lat="45.12226" lon="5.88415">
        <ele>1809.58799872</ele>
        <time>2015-04-12T02:19:33.480Z</time>
      </trkpt>
      <trkpt lat="45.12222" lon="5.88425">
        <ele>1811.98799872</ele>
        <time>2015-04-12T02:19:39.480Z</time>
      </trkpt>
      <trkpt lat="45.12218" lon="5.88433">
        <ele>1812</ele>
        <time>2015-04-12T02:19:44.480Z</time>
      </trkpt>
      <trkpt lat="45.1221" lon="5.88439">
        <ele>1812.1958029797</ele>
        <time>2015-04-12T02:19:50.480Z</time>
      </trkpt>
      <trkpt lat="45.12206" lon="5.88445">
        <ele>1813.194804298</ele>
        <time>2015-04-12T02:19:55.480Z</time>
      </trkpt>
      <trkpt lat="45.12201" lon="5.88452">
        <ele>1814.59099904</ele>
        <time>2015-04-12T02:20:01.480Z</time>
      </trkpt>
      <trkpt lat="45.12196" lon="5.88459">
        <ele>1816.39399808</ele>
        <time>2015-04-12T02:20:07.490Z</time>
      </trkpt>
      <trkpt lat="45.12192" lon="5.88465">
        <ele>1817.59599872</ele>
        <time>2015-04-12T02:20:12.490Z</time>
      </trkpt>
      <trkpt lat="45.12188" lon="5.88472">
        <ele>1818.79399936</ele>
        <time>2015-04-12T02:20:18.480Z</time>
      </trkpt>
      <trkpt lat="45.12183" lon="5.8848">
        <ele>1820.19599872</ele>
        <time>2015-04-12T02:20:25.490Z</time>
      </trkpt>
      <trkpt lat="45.12178" lon="5.88488">
        <ele>1823.38799616</ele>
        <time>2015-04-12T02:20:33.490Z</time>
      </trkpt>
      <trkpt lat="45.12174" lon="5.88497">
        <ele>1827.59399808</ele>
        <time>2015-04-12T02:20:41.490Z</time>
      </trkpt>
      <trkpt lat="45.1217" lon="5.88506">
        <ele>1829.99399808</ele>
        <time>2015-04-12T02:20:49.490Z</time>
      </trkpt>
      <trkpt lat="45.12166" lon="5.88516">
        <ele>1832.69099904</ele>
        <time>2015-04-12T02:20:58.480Z</time>
      </trkpt>
      <trkpt lat="45.12162" lon="5.88528">
        <ele>1836.18799872</ele>
        <time>2015-04-12T02:21:07.480Z</time>
      </trkpt>
      <trkpt lat="45.12161" lon="5.88536">
        <ele>1837.79599872</ele>
        <time>2015-04-12T02:21:13.490Z</time>
      </trkpt>
      <trkpt lat="45.1216" lon="5.88543">
        <ele>1838.79599872</ele>
        <time>2015-04-12T02:21:18.490Z</time>
      </trkpt>
      <trkpt lat="45.12158" lon="5.88555">
        <ele>1840.59399936</ele>
        <time>2015-04-12T02:21:27.480Z</time>
      </trkpt>
      <trkpt lat="45.12157" lon="5.88567">
        <ele>1842.39399936</ele>
        <time>2015-04-12T02:21:36.480Z</time>
      </trkpt>
      <trkpt lat="45.12156" lon="5.88574">
        <ele>1844.37899776</ele>
        <time>2015-04-12T02:21:41.480Z</time>
      </trkpt>
      <trkpt lat="45.12157" lon="5.88583">
        <ele>1848.58599552</ele>
        <time>2015-04-12T02:21:47.490Z</time>
      </trkpt>
      <trkpt lat="45.12157" lon="5.88593">
        <ele>1852.39199744</ele>
        <time>2015-04-12T02:21:55.490Z</time>
      </trkpt>
      <trkpt lat="45.12158" lon="5.88604">
        <ele>1854.29699968</ele>
        <time>2015-04-12T02:22:02.480Z</time>
      </trkpt>
      <trkpt lat="45.12158" lon="5.88618">
        <ele>1855.09699968</ele>
        <time>2015-04-12T02:22:10.480Z</time>
      </trkpt>
      <trkpt lat="45.12159" lon="5.88626">
        <ele>1855.59699968</ele>
        <time>2015-04-12T02:22:15.480Z</time>
      </trkpt>
      <trkpt lat="45.12158" lon="5.88639">
        <ele>1856.79399936</ele>
        <time>2015-04-12T02:22:23.480Z</time>
      </trkpt>
      <trkpt lat="45.12161" lon="5.88654">
        <ele>1858.78799872</ele>
        <time>2015-04-12T02:22:31.480Z</time>
      </trkpt>
      <trkpt lat="45.12165" lon="5.88671">
        <ele>1861.86800128</ele>
        <time>2015-04-12T02:22:39.180Z</time>
      </trkpt>
      <trkpt lat="45.12172" lon="5.88683">
        <ele>1862</ele>
        <time>2015-04-12T02:22:47.380Z</time>
      </trkpt>
      <trkpt lat="45.12169" lon="5.88711">
        <ele>1862.58699904</ele>
        <time>2015-04-12T02:22:55.380Z</time>
      </trkpt>
      <trkpt lat="45.12172" lon="5.88729">
        <ele>1862.61300096</ele>
        <time>2015-04-12T02:23:03.380Z</time>
      </trkpt>
      <trkpt lat="45.12177" lon="5.88743">
        <ele>1862.37399808</ele>
        <time>2015-04-12T02:23:11.380Z</time>
      </trkpt>
      <trkpt lat="45.1218" lon="5.88763">
        <ele>1863.97399808</ele>
        <time>2015-04-12T02:23:19.380Z</time>
      </trkpt>
      <trkpt lat="45.12184" lon="5.88788">
        <ele>1866.3763762558</ele>
        <time>2015-04-12T02:23:31.390Z</time>
      </trkpt>
      <trkpt lat="45.12184" lon="5.88806">
        <ele>1867.9779773444</ele>
        <time>2015-04-12T02:23:39.390Z</time>
      </trkpt>
      <trkpt lat="45.12178" lon="5.88823">
        <ele>1871.9360588007</ele>
        <time>2015-04-12T02:23:47.380Z</time>
      </trkpt>
      <trkpt lat="45.12174" lon="5.88839">
        <ele>1873</ele>
        <time>2015-04-12T02:23:55.380Z</time>
      </trkpt>
      <trkpt lat="45.12183" lon="5.88855">
        <ele>1876.97399808</ele>
        <time>2015-04-12T02:24:19.380Z</time>
      </trkpt>
      <trkpt lat="45.12179" lon="5.88882">
        <ele>1881.72199424</ele>
        <time>2015-04-12T02:24:27.380Z</time>
      </trkpt>
      <trkpt lat="45.12176" lon="5.88897">
        <ele>1883</ele>
        <time>2015-04-12T02:24:35.380Z</time>
      </trkpt>
      <trkpt lat="45.12178" lon="5.88917">
        <ele>1884.5748506666</ele>
        <time>2015-04-12T02:24:47.390Z</time>
      </trkpt>
      <trkpt lat="45.12178" lon="5.88932">
        <ele>1886.9739720604</ele>
        <time>2015-04-12T02:24:59.380Z</time>
      </trkpt>
      <trkpt lat="45.12173" lon="5.88947">
        <ele>1892.18699904</ele>
        <time>2015-04-12T02:25:11.380Z</time>
      </trkpt>
      <trkpt lat="45.12168" lon="5.8896">
        <ele>1892.98699904</ele>
        <time>2015-04-12T02:25:19.380Z</time>
      </trkpt>
      <trkpt lat="45.12163" lon="5.88976">
        <ele>1894.57399808</ele>
        <time>2015-04-12T02:25:27.380Z</time>
      </trkpt>
      <trkpt lat="45.12156" lon="5.88992">
        <ele>1896.1771768001</ele>
        <time>2015-04-12T02:25:35.390Z</time>
      </trkpt>
      <trkpt lat="45.12149" lon="5.89014">
        <ele>1898.9430559658</ele>
        <time>2015-04-12T02:25:43.390Z</time>
      </trkpt>
      <trkpt lat="45.12152" lon="5.8903">
        <ele>1904.964</ele>
        <time>2015-04-12T02:25:59.390Z</time>
      </trkpt>
      <trkpt lat="45.12149" lon="5.89048">
        <ele>1908.5604368625</ele>
        <time>2015-04-12T02:26:11.380Z</time>
      </trkpt>
      <trkpt lat="45.12142" lon="5.89059">
        <ele>1910.9580400265</ele>
        <time>2015-04-12T02:26:19.380Z</time>
      </trkpt>
      <trkpt lat="45.1214" lon="5.89074">
        <ele>1914.7487446651</ele>
        <time>2015-04-12T02:26:31.380Z</time>
      </trkpt>
      <trkpt lat="45.12131" lon="5.89084">
        <ele>1919.1628336984</ele>
        <time>2015-04-12T02:26:43.380Z</time>
      </trkpt>
      <trkpt lat="45.12131" lon="5.89099">
        <ele>1923.34799616</ele>
        <time>2015-04-12T02:26:55.380Z</time>
      </trkpt>
      <trkpt lat="45.12125" lon="5.89117">
        <ele>1927.27700096</ele>
        <time>2015-04-12T02:27:07.100Z</time>
      </trkpt>
      <trkpt lat="45.12114" lon="5.89124">
        <ele>1930.34799616</ele>
        <time>2015-04-12T02:27:15.380Z</time>
      </trkpt>
      <trkpt lat="45.1211" lon="5.89137">
        <ele>1932</ele>
        <time>2015-04-12T02:27:27.380Z</time>
      </trkpt>
      <trkpt lat="45.12102" lon="5.89152">
        <ele>1941.74799616</ele>
        <time>2015-04-12T02:27:51.380Z</time>
      </trkpt>
      <trkpt lat="45.12097" lon="5.89166">
        <ele>1944.94799616</ele>
        <time>2015-04-12T02:27:59.380Z</time>
      </trkpt>
      <trkpt lat="45.12089" lon="5.89182">
        <ele>1945.78699904</ele>
        <time>2015-04-12T02:28:07.380Z</time>
      </trkpt>
      <trkpt lat="45.12086" lon="5.89198">
        <ele>1950.9349952</ele>
        <time>2015-04-12T02:28:19.380Z</time>
      </trkpt>
      <trkpt lat="45.12088" lon="5.89213">
        <ele>1954.3743723325</ele>
        <time>2015-04-12T02:28:31.380Z</time>
      </trkpt>
      <trkpt lat="45.12078" lon="5.89221">
        <ele>1957.1628336984</ele>
        <time>2015-04-12T02:28:43.380Z</time>
      </trkpt>
      <trkpt lat="45.12077" lon="5.89239">
        <ele>1959.18699904</ele>
        <time>2015-04-12T02:28:51.380Z</time>
      </trkpt>
      <trkpt lat="45.12071" lon="5.89258">
        <ele>1959.98699904</ele>
        <time>2015-04-12T02:28:59.380Z</time>
      </trkpt>
      <trkpt lat="45.12068" lon="5.89272">
        <ele>1964.18699904</ele>
        <time>2015-04-12T02:29:11.380Z</time>
      </trkpt>
      <trkpt lat="45.12072" lon="5.89285">
        <ele>1964.98699904</ele>
        <time>2015-04-12T02:29:19.380Z</time>
      </trkpt>
      <trkpt lat="45.12078" lon="5.89297">
        <ele>1970.50899328</ele>
        <time>2015-04-12T02:29:27.380Z</time>
      </trkpt>
      <trkpt lat="45.12079" lon="5.89311">
        <ele>1975.9519468422</ele>
        <time>2015-04-12T02:29:39.380Z</time>
      </trkpt>
      <trkpt lat="45.12076" lon="5.89327">
        <ele>1981.34799616</ele>
        <time>2015-04-12T02:29:55.380Z</time>
      </trkpt>
      <trkpt lat="45.12082" lon="5.89346">
        <ele>1986.18699904</ele>
        <time>2015-04-12T02:30:11.380Z</time>
      </trkpt>
      <trkpt lat="45.12094" lon="5.8936">
        <ele>1986.98699904</ele>
        <time>2015-04-12T02:30:19.380Z</time>
      </trkpt>
      <trkpt lat="45.12091" lon="5.89375">
        <ele>1993.5645643837</ele>
        <time>2015-04-12T02:30:31.390Z</time>
      </trkpt>
      <trkpt lat="45.12093" lon="5.89391">
        <ele>1999.56099712</ele>
        <time>2015-04-12T02:30:51.380Z</time>
      </trkpt>
      <trkpt lat="45.12095" lon="5.89405">
        <ele>2005.9349952</ele>
        <time>2015-04-12T02:31:07.380Z</time>
      </trkpt>
      <trkpt lat="45.12101" lon="5.89419">
        <ele>2009.96099712</ele>
        <time>2015-04-12T02:31:19.380Z</time>
      </trkpt>
      <trkpt lat="45.12108" lon="5.89438">
        <ele>2011.57399808</ele>
        <time>2015-04-12T02:31:27.380Z</time>
      </trkpt>
      <trkpt lat="45.12113" lon="5.89458">
        <ele>2014.9699680577</ele>
        <time>2015-04-12T02:31:39.400Z</time>
      </trkpt>
      <trkpt lat="45.12116" lon="5.89475">
        <ele>2017.3646351615</ele>
        <time>2015-04-12T02:31:47.390Z</time>
      </trkpt>
      <trkpt lat="45.12122" lon="5.89493">
        <ele>2018.588</ele>
        <time>2015-04-12T02:31:55.390Z</time>
      </trkpt>
      <trkpt lat="45.12123" lon="5.89511">
        <ele>2018.612</ele>
        <time>2015-04-12T02:32:03.390Z</time>
      </trkpt>
      <trkpt lat="45.1213" lon="5.89526">
        <ele>2022.94</ele>
        <time>2015-04-12T02:32:19.390Z</time>
      </trkpt>
      <trkpt lat="45.12131" lon="5.89542">
        <ele>2028.1728256297</ele>
        <time>2015-04-12T02:32:35.380Z</time>
      </trkpt>
      <trkpt lat="45.12141" lon="5.89565">
        <ele>2032.1471435765</ele>
        <time>2015-04-12T02:32:47.380Z</time>
      </trkpt>
      <trkpt lat="45.12145" lon="5.89579">
        <ele>2036.94799616</ele>
        <time>2015-04-12T02:32:59.380Z</time>
      </trkpt>
      <trkpt lat="45.1215" lon="5.89595">
        <ele>2044.1598376535</ele>
        <time>2015-04-12T02:33:23.380Z</time>
      </trkpt>
      <trkpt lat="45.1215" lon="5.89612">
        <ele>2046.7454879388</ele>
        <time>2015-04-12T02:33:31.380Z</time>
      </trkpt>
      <trkpt lat="45.1216" lon="5.89633">
        <ele>2051.5544447727</ele>
        <time>2015-04-12T02:33:43.390Z</time>
      </trkpt>
      <trkpt lat="45.12173" lon="5.89638">
        <ele>2055.97399808</ele>
        <time>2015-04-12T02:33:59.380Z</time>
      </trkpt>
      <trkpt lat="45.12176" lon="5.89657">
        <ele>2060.5604368625</ele>
        <time>2015-04-12T02:34:11.380Z</time>
      </trkpt>
      <trkpt lat="45.12178" lon="5.89674">
        <ele>2065.3603576824</ele>
        <time>2015-04-12T02:34:27.380Z</time>
      </trkpt>
      <trkpt lat="45.12181" lon="5.8969">
        <ele>2069.9519468422</ele>
        <time>2015-04-12T02:34:39.380Z</time>
      </trkpt>
      <trkpt lat="45.12185" lon="5.89704">
        <ele>2074.76099712</ele>
        <time>2015-04-12T02:34:55.380Z</time>
      </trkpt>
      <trkpt lat="45.12185" lon="5.89727">
        <ele>2079.565866944</ele>
        <time>2015-04-12T02:35:11.380Z</time>
      </trkpt>
      <trkpt lat="45.1219" lon="5.89741">
        <ele>2081.9610749949</ele>
        <time>2015-04-12T02:35:19.380Z</time>
      </trkpt>
      <trkpt lat="45.12192" lon="5.89756">
        <ele>2090.1628336984</ele>
        <time>2015-04-12T02:35:43.380Z</time>
      </trkpt>
      <trkpt lat="45.12191" lon="5.89773">
        <ele>2092.74799616</ele>
        <time>2015-04-12T02:35:51.380Z</time>
      </trkpt>
      <trkpt lat="45.12193" lon="5.89788">
        <ele>2097.94</ele>
        <time>2015-04-12T02:36:03.390Z</time>
      </trkpt>
      <trkpt lat="45.12189" lon="5.89802">
        <ele>2101.188</ele>
        <time>2015-04-12T02:36:11.390Z</time>
      </trkpt>
      <trkpt lat="45.122" lon="5.89805">
        <ele>2103.54799616</ele>
        <time>2015-04-12T02:36:23.380Z</time>
      </trkpt>
      <trkpt lat="45.12202" lon="5.89823">
        <ele>2108.9639601317</ele>
        <time>2015-04-12T02:36:39.380Z</time>
      </trkpt>
      <trkpt lat="45.12199" lon="5.89839">
        <ele>2115.96099712</ele>
        <time>2015-04-12T02:36:59.380Z</time>
      </trkpt>
      <trkpt lat="45.12201" lon="5.89854">
        <ele>2121.77399808</ele>
        <time>2015-04-12T02:37:23.380Z</time>
      </trkpt>
      <trkpt lat="45.12187" lon="5.89855">
        <ele>2127.1658335795</ele>
        <time>2015-04-12T02:37:43.390Z</time>
      </trkpt>
      <trkpt lat="45.12174" lon="5.89853">
        <ele>2129.564</ele>
        <time>2015-04-12T02:37:51.390Z</time>
      </trkpt>
      <trkpt lat="45.12167" lon="5.89868">
        <ele>2134.36099712</ele>
        <time>2015-04-12T02:38:07.380Z</time>
      </trkpt>
      <trkpt lat="45.12163" lon="5.89882">
        <ele>2142.14799616</ele>
        <time>2015-04-12T02:38:27.380Z</time>
      </trkpt>
      <trkpt lat="45.12161" lon="5.89898">
        <ele>2145.9639601317</ele>
        <time>2015-04-12T02:38:39.380Z</time>
      </trkpt>
      <trkpt lat="45.12159" lon="5.89915">
        <ele>2149.1488470406</ele>
        <time>2015-04-12T02:38:47.380Z</time>
      </trkpt>
      <trkpt lat="45.12158" lon="5.89932">
        <ele>2152.9144551943</ele>
        <time>2015-04-12T02:38:59.390Z</time>
      </trkpt>
      <trkpt lat="45.12168" lon="5.89943">
        <ele>2155.3530012279</ele>
        <time>2015-04-12T02:39:07.390Z</time>
      </trkpt>
      <trkpt lat="45.12179" lon="5.89944">
        <ele>2162.9349952</ele>
        <time>2015-04-12T02:39:27.380Z</time>
      </trkpt>
      <trkpt lat="45.12185" lon="5.89957">
        <ele>2166.9639601317</ele>
        <time>2015-04-12T02:39:39.380Z</time>
      </trkpt>
      <trkpt lat="45.12197" lon="5.89958">
        <ele>2169.3616352804</ele>
        <time>2015-04-12T02:39:47.380Z</time>
      </trkpt>
      <trkpt lat="45.12208" lon="5.8995">
        <ele>2171.76099712</ele>
        <time>2015-04-12T02:39:55.380Z</time>
      </trkpt>
      <trkpt lat="45.12219" lon="5.89947">
        <ele>2173.77399808</ele>
        <time>2015-04-12T02:40:03.380Z</time>
      </trkpt>
      <trkpt lat="45.1223" lon="5.89951">
        <ele>2176.97399808</ele>
        <time>2015-04-12T02:40:19.380Z</time>
      </trkpt>
      <trkpt lat="45.12236" lon="5.89964">
        <ele>2177</ele>
        <time>2015-04-12T02:40:27.380Z</time>
      </trkpt>
      <trkpt lat="45.12242" lon="5.8998">
        <ele>2179.9379321921</ele>
        <time>2015-04-12T02:40:35.380Z</time>
      </trkpt>
      <trkpt lat="45.12252" lon="5.89986">
        <ele>2183.5504449312</ele>
        <time>2015-04-12T02:40:43.380Z</time>
      </trkpt>
      <trkpt lat="45.12261" lon="5.9">
        <ele>2188.352</ele>
        <time>2015-04-12T02:40:55.390Z</time>
      </trkpt>
      <trkpt lat="45.12267" lon="5.90019">
        <ele>2190.776</ele>
        <time>2015-04-12T02:41:03.390Z</time>
      </trkpt>
      <trkpt lat="45.12278" lon="5.90036">
        <ele>2192.564</ele>
        <time>2015-04-12T02:41:11.390Z</time>
      </trkpt>
      <trkpt lat="45.1229" lon="5.90047">
        <ele>2194.964</ele>
        <time>2015-04-12T02:41:19.390Z</time>
      </trkpt>
      <trkpt lat="45.123" lon="5.90048">
        <ele>2198.17399808</ele>
        <time>2015-04-12T02:41:35.380Z</time>
      </trkpt>
      <trkpt lat="45.12312" lon="5.90056">
        <ele>2199.78699904</ele>
        <time>2015-04-12T02:41:47.380Z</time>
      </trkpt>
      <trkpt lat="45.12325" lon="5.9007">
        <ele>2202.34799616</ele>
        <time>2015-04-12T02:41:55.380Z</time>
      </trkpt>
      <trkpt lat="45.12347" lon="5.9009">
        <ele>2205.57399808</ele>
        <time>2015-04-12T02:42:07.380Z</time>
      </trkpt>
      <trkpt lat="45.12358" lon="5.90095">
        <ele>2207.76099712</ele>
        <time>2015-04-12T02:42:15.380Z</time>
      </trkpt>
      <trkpt lat="45.12366" lon="5.90104">
        <ele>2209.77399808</ele>
        <time>2015-04-12T02:42:23.380Z</time>
      </trkpt>
      <trkpt lat="45.12374" lon="5.90121">
        <ele>2213.3503457536</ele>
        <time>2015-04-12T02:42:35.380Z</time>
      </trkpt>
      <trkpt lat="45.12382" lon="5.90131">
        <ele>2215.7752224656</ele>
        <time>2015-04-12T02:42:43.380Z</time>
      </trkpt>
      <trkpt lat="45.12395" lon="5.90143">
        <ele>2218.17399808</ele>
        <time>2015-04-12T02:42:55.380Z</time>
      </trkpt>
      <trkpt lat="45.12405" lon="5.90152">
        <ele>2221.36099712</ele>
        <time>2015-04-12T02:43:07.380Z</time>
      </trkpt>
      <trkpt lat="45.12419" lon="5.90161">
        <ele>2222.98699904</ele>
        <time>2015-04-12T02:43:19.380Z</time>
      </trkpt>
      <trkpt lat="45.1243" lon="5.90176">
        <ele>2223.78699904</ele>
        <time>2015-04-12T02:43:27.380Z</time>
      </trkpt>
      <trkpt lat="45.1244" lon="5.90189">
        <ele>2225.1751728768</ele>
        <time>2015-04-12T02:43:35.380Z</time>
      </trkpt>
      <trkpt lat="45.12447" lon="5.90199">
        <ele>2227.1628336984</ele>
        <time>2015-04-12T02:43:43.380Z</time>
      </trkpt>
      <trkpt lat="45.12453" lon="5.90215">
        <ele>2229.373624575</ele>
        <time>2015-04-12T02:43:51.380Z</time>
      </trkpt>
      <trkpt lat="45.12464" lon="5.90232">
        <ele>2231.7867858941</ele>
        <time>2015-04-12T02:44:07.380Z</time>
      </trkpt>
      <trkpt lat="45.12471" lon="5.90245">
        <ele>2234.9349952</ele>
        <time>2015-04-12T02:44:15.380Z</time>
      </trkpt>
      <trkpt lat="45.12477" lon="5.90263">
        <ele>2237.78699904</ele>
        <time>2015-04-12T02:44:27.380Z</time>
      </trkpt>
      <trkpt lat="45.12489" lon="5.90273">
        <ele>2240.34799616</ele>
        <time>2015-04-12T02:44:35.380Z</time>
      </trkpt>
      <trkpt lat="45.12498" lon="5.90289">
        <ele>2242</ele>
        <time>2015-04-12T02:44:43.380Z</time>
      </trkpt>
      <trkpt lat="45.12503" lon="5.90304">
        <ele>2242.74799616</ele>
        <time>2015-04-12T02:44:51.380Z</time>
      </trkpt>
      <trkpt lat="45.12512" lon="5.90315">
        <ele>2247.57399808</ele>
        <time>2015-04-12T02:45:07.380Z</time>
      </trkpt>
      <trkpt lat="45.12525" lon="5.90325">
        <ele>2249.17399808</ele>
        <time>2015-04-12T02:45:15.380Z</time>
      </trkpt>
      <trkpt lat="45.12534" lon="5.9034">
        <ele>2251.16099712</ele>
        <time>2015-04-12T02:45:23.380Z</time>
      </trkpt>
      <trkpt lat="45.12539" lon="5.90354">
        <ele>2253.3743723325</ele>
        <time>2015-04-12T02:45:31.380Z</time>
      </trkpt>
      <trkpt lat="45.12543" lon="5.90371">
        <ele>2254.9759734211</ele>
        <time>2015-04-12T02:45:39.380Z</time>
      </trkpt>
      <trkpt lat="45.12544" lon="5.9039">
        <ele>2255</ele>
        <time>2015-04-12T02:45:47.380Z</time>
      </trkpt>
      <trkpt lat="45.12553" lon="5.90402">
        <ele>2255</ele>
        <time>2015-04-12T02:45:55.380Z</time>
      </trkpt>
      <trkpt lat="45.12563" lon="5.90416">
        <ele>2258</ele>
        <time>2015-04-12T02:46:11.380Z</time>
      </trkpt>
      <trkpt lat="45.12569" lon="5.90429">
        <ele>2258.77399808</ele>
        <time>2015-04-12T02:46:23.380Z</time>
      </trkpt>
      <trkpt lat="45.1258" lon="5.9042">
        <ele>2260</ele>
        <time>2015-04-12T02:47:51.380Z</time>
      </trkpt>
      <trkpt lat="45.12605" lon="5.90479">
        <ele>2260</ele>
        <time>2015-04-12T02:47:59.380Z</time>
      </trkpt>
      <trkpt lat="45.12612" lon="5.90568">
        <ele>2255.27800576</ele>
        <time>2015-04-12T02:48:07.380Z</time>
      </trkpt>
      <trkpt lat="45.1262" lon="5.90704">
        <ele>2235.21603072</ele>
        <time>2015-04-12T02:48:15.380Z</time>
      </trkpt>
      <trkpt lat="45.12594" lon="5.90834">
        <ele>2213.09902208</ele>
        <time>2015-04-12T02:48:23.380Z</time>
      </trkpt>
      <trkpt lat="45.12601" lon="5.90952">
        <ele>2194.8819043421</ele>
        <time>2015-04-12T02:48:31.380Z</time>
      </trkpt>
      <trkpt lat="45.12665" lon="5.90903">
        <ele>2177.2642923678</ele>
        <time>2015-04-12T02:48:39.380Z</time>
      </trkpt>
      <trkpt lat="45.12779" lon="5.91015">
        <ele>2140.0010472731</ele>
        <time>2015-04-12T02:48:47.380Z</time>
      </trkpt>
      <trkpt lat="45.12872" lon="5.91151">
        <ele>2115.325024</ele>
        <time>2015-04-12T02:48:55.380Z</time>
      </trkpt>
      <trkpt lat="45.12931" lon="5.91304">
        <ele>2091.4550336</ele>
        <time>2015-04-12T02:49:03.380Z</time>
      </trkpt>
      <trkpt lat="45.12985" lon="5.91447">
        <ele>2062.33303936</ele>
        <time>2015-04-12T02:49:11.380Z</time>
      </trkpt>
      <trkpt lat="45.13037" lon="5.91593">
        <ele>2029.53303936</ele>
        <time>2015-04-12T02:49:19.380Z</time>
      </trkpt>
      <trkpt lat="45.13076" lon="5.91673">
        <ele>2009.325024</ele>
        <time>2015-04-12T02:49:27.380Z</time>
      </trkpt>
      <trkpt lat="45.13109" lon="5.91749">
        <ele>2002.82600192</ele>
        <time>2015-04-12T02:49:35.380Z</time>
      </trkpt>
      <trkpt lat="45.1314" lon="5.91817">
        <ele>2002</ele>
        <time>2015-04-12T02:49:43.380Z</time>
      </trkpt>
      <trkpt lat="45.13152" lon="5.91867">
        <ele>2002.18699904</ele>
        <time>2015-04-12T02:49:51.380Z</time>
      </trkpt>
      <trkpt lat="45.13171" lon="5.9189">
        <ele>2002.98699904</ele>
        <time>2015-04-12T02:49:59.380Z</time>
      </trkpt>
      <trkpt lat="45.13205" lon="5.91916">
        <ele>2003</ele>
        <time>2015-04-12T02:50:07.390Z</time>
      </trkpt>
      <trkpt lat="45.1324" lon="5.91951">
        <ele>2003</ele>
        <time>2015-04-12T02:50:15.380Z</time>
      </trkpt>
      <trkpt lat="45.13256" lon="5.92001">
        <ele>2002.612</ele>
        <time>2015-04-12T02:50:23.390Z</time>
      </trkpt>
      <trkpt lat="45.13278" lon="5.92032">
        <ele>2002.5875864384</ele>
        <time>2015-04-12T02:50:35.380Z</time>
      </trkpt>
      <trkpt lat="45.13315" lon="5.92053">
        <ele>2001.9180825313</ele>
        <time>2015-04-12T02:50:43.110Z</time>
      </trkpt>
      <trkpt lat="45.13364" lon="5.92094">
        <ele>1995.13802496</ele>
        <time>2015-04-12T02:50:51.380Z</time>
      </trkpt>
      <trkpt lat="45.1345" lon="5.92147">
        <ele>1974.33802496</ele>
        <time>2015-04-12T02:50:59.380Z</time>
      </trkpt>
      <trkpt lat="45.13522" lon="5.92166">
        <ele>1964.232</ele>
        <time>2015-04-12T02:51:08.390Z</time>
      </trkpt>
      <trkpt lat="45.13572" lon="5.92187">
        <ele>1960.25199872</ele>
        <time>2015-04-12T02:51:16.380Z</time>
      </trkpt>
      <trkpt lat="45.13605" lon="5.92207">
        <ele>1957.536</ele>
        <time>2015-04-12T02:51:24.390Z</time>
      </trkpt>
      <trkpt lat="45.13669" lon="5.92232">
        <ele>1954.272</ele>
        <time>2015-04-12T02:51:32.390Z</time>
      </trkpt>
      <trkpt lat="45.13717" lon="5.9224">
        <ele>1949.296</ele>
        <time>2015-04-12T02:51:40.390Z</time>
      </trkpt>
      <trkpt lat="45.13785" lon="5.92251">
        <ele>1942.896</ele>
        <time>2015-04-12T02:51:48.390Z</time>
      </trkpt>
      <trkpt lat="45.13835" lon="5.92272">
        <ele>1934.432</ele>
        <time>2015-04-12T02:51:56.390Z</time>
      </trkpt>
      <trkpt lat="45.13858" lon="5.92311">
        <ele>1930.28700032</ele>
        <time>2015-04-12T02:52:12.380Z</time>
      </trkpt>
      <trkpt lat="45.1387" lon="5.92321">
        <ele>1930.0159840211</ele>
        <time>2015-04-12T02:53:49.580Z</time>
      </trkpt>
      <trkpt lat="45.13875" lon="5.9234">
        <ele>1931.7742263414</ele>
        <time>2015-04-12T02:53:58.380Z</time>
      </trkpt>
      <trkpt lat="45.13878" lon="5.92354">
        <ele>1939.94800128</ele>
        <time>2015-04-12T02:54:14.380Z</time>
      </trkpt>
      <trkpt lat="45.13877" lon="5.92372">
        <ele>1946.174174759</ele>
        <time>2015-04-12T02:54:30.380Z</time>
      </trkpt>
      <trkpt lat="45.1388" lon="5.92392">
        <ele>1947.7757758476</ele>
        <time>2015-04-12T02:54:38.380Z</time>
      </trkpt>
      <trkpt lat="45.1389" lon="5.92406">
        <ele>1950.0619387211</ele>
        <time>2015-04-12T02:54:46.380Z</time>
      </trkpt>
      <trkpt lat="45.13902" lon="5.92409">
        <ele>1956.176</ele>
        <time>2015-04-12T02:55:10.390Z</time>
      </trkpt>
      <trkpt lat="45.13915" lon="5.9242">
        <ele>1957.776</ele>
        <time>2015-04-12T02:55:18.390Z</time>
      </trkpt>
      <trkpt lat="45.13926" lon="5.92416">
        <ele>1959.4354368976</ele>
        <time>2015-04-12T02:55:30.380Z</time>
      </trkpt>
      <trkpt lat="45.13942" lon="5.9242">
        <ele>1963.439439619</ele>
        <time>2015-04-12T02:55:38.380Z</time>
      </trkpt>
      <trkpt lat="45.1393" lon="5.92421">
        <ele>1972.06100096</ele>
        <time>2015-04-12T02:56:06.380Z</time>
      </trkpt>
      <trkpt lat="45.13937" lon="5.92439">
        <ele>1974.77400064</ele>
        <time>2015-04-12T02:56:18.380Z</time>
      </trkpt>
      <trkpt lat="45.13944" lon="5.92454">
        <ele>1977.06100096</ele>
        <time>2015-04-12T02:56:26.380Z</time>
      </trkpt>
      <trkpt lat="45.1394" lon="5.92467">
        <ele>1982.439439619</ele>
        <time>2015-04-12T02:56:38.380Z</time>
      </trkpt>
      <trkpt lat="45.1395" lon="5.92458">
        <ele>1991.88700032</ele>
        <time>2015-04-12T02:57:18.380Z</time>
      </trkpt>
      <trkpt lat="45.1395" lon="5.92474">
        <ele>2002.464</ele>
        <time>2015-04-12T02:57:54.390Z</time>
      </trkpt>
      <trkpt lat="45.13953" lon="5.92495">
        <ele>2006.888</ele>
        <time>2015-04-12T02:58:18.390Z</time>
      </trkpt>
      <trkpt lat="45.13962" lon="5.92489">
        <ele>2012.174174759</ele>
        <time>2015-04-12T02:58:30.380Z</time>
      </trkpt>
      <trkpt lat="45.13973" lon="5.92492">
        <ele>2015.4385618984</ele>
        <time>2015-04-12T02:58:42.380Z</time>
      </trkpt>
      <trkpt lat="45.13965" lon="5.92508">
        <ele>2020.7722289781</ele>
        <time>2015-04-12T02:58:58.380Z</time>
      </trkpt>
      <trkpt lat="45.13975" lon="5.92517">
        <ele>2023.88700032</ele>
        <time>2015-04-12T02:59:18.380Z</time>
      </trkpt>
      <trkpt lat="45.13987" lon="5.92515">
        <ele>2026.74800128</ele>
        <time>2015-04-12T02:59:26.380Z</time>
      </trkpt>
      <trkpt lat="45.13977" lon="5.92524">
        <ele>2031.54800128</ele>
        <time>2015-04-12T02:59:38.380Z</time>
      </trkpt>
      <trkpt lat="45.13968" lon="5.92542">
        <ele>2036.46100096</ele>
        <time>2015-04-12T02:59:54.380Z</time>
      </trkpt>
      <trkpt lat="45.13976" lon="5.92576">
        <ele>2038</ele>
        <time>2015-04-12T03:00:06.380Z</time>
      </trkpt>
      <trkpt lat="45.13986" lon="5.926">
        <ele>2041.14800128</ele>
        <time>2015-04-12T03:00:22.380Z</time>
      </trkpt>
      <trkpt lat="45.13988" lon="5.9262">
        <ele>2045.46100096</ele>
        <time>2015-04-12T03:00:34.380Z</time>
      </trkpt>
      <trkpt lat="45.13986" lon="5.92653">
        <ele>2049.94800128</ele>
        <time>2015-04-12T03:00:54.380Z</time>
      </trkpt>
      <trkpt lat="45.13991" lon="5.92671">
        <ele>2053.376</ele>
        <time>2015-04-12T03:01:06.390Z</time>
      </trkpt>
      <trkpt lat="45.13999" lon="5.92683">
        <ele>2058.4350016</ele>
        <time>2015-04-12T03:01:18.380Z</time>
      </trkpt>
      <trkpt lat="45.13994" lon="5.92696">
        <ele>2063.9499506066</ele>
        <time>2015-04-12T03:01:34.380Z</time>
      </trkpt>
      <trkpt lat="45.14002" lon="5.92707">
        <ele>2068.34800128</ele>
        <time>2015-04-12T03:01:50.380Z</time>
      </trkpt>
      <trkpt lat="45.14012" lon="5.92724">
        <ele>2072.8618625468</ele>
        <time>2015-04-12T03:02:02.380Z</time>
      </trkpt>
      <trkpt lat="45.14022" lon="5.92737">
        <ele>2075.0239521111</ele>
        <time>2015-04-12T03:02:09.580Z</time>
      </trkpt>
      <trkpt lat="45.14016" lon="5.92754">
        <ele>2080.4228460615</ele>
        <time>2015-04-12T03:02:27.580Z</time>
      </trkpt>
      <trkpt lat="45.14027" lon="5.92766">
        <ele>2084.04</ele>
        <time>2015-04-12T03:02:35.580Z</time>
      </trkpt>
      <trkpt lat="45.14029" lon="5.92783">
        <ele>2089.016</ele>
        <time>2015-04-12T03:02:49.580Z</time>
      </trkpt>
      <trkpt lat="45.1404" lon="5.92804">
        <ele>2090.81799936</ele>
        <time>2015-04-12T03:02:58.590Z</time>
      </trkpt>
      <trkpt lat="45.14054" lon="5.92824">
        <ele>2090.2127882398</ele>
        <time>2015-04-12T03:03:07.380Z</time>
      </trkpt>
      <trkpt lat="45.14054" lon="5.9284">
        <ele>2090.58699904</ele>
        <time>2015-04-12T03:03:15.380Z</time>
      </trkpt>
      <trkpt lat="45.14053" lon="5.92858">
        <ele>2091.38699904</ele>
        <time>2015-04-12T03:03:23.380Z</time>
      </trkpt>
      <trkpt lat="45.14063" lon="5.92863">
        <ele>2092.5745750312</ele>
        <time>2015-04-12T03:03:32.380Z</time>
      </trkpt>
      <trkpt lat="45.14067" lon="5.92879">
        <ele>2096.3496459859</ele>
        <time>2015-04-12T03:03:45.380Z</time>
      </trkpt>
      <trkpt lat="45.14085" lon="5.92892">
        <ele>2099.54799616</ele>
        <time>2015-04-12T03:03:53.380Z</time>
      </trkpt>
      <trkpt lat="45.14092" lon="5.92901">
        <ele>2102.832</ele>
        <time>2015-04-12T03:04:01.590Z</time>
      </trkpt>
      <trkpt lat="45.14082" lon="5.92898">
        <ele>2106.174174759</ele>
        <time>2015-04-12T03:04:10.380Z</time>
      </trkpt>
      <trkpt lat="45.14074" lon="5.92914">
        <ele>2116.2257736586</ele>
        <time>2015-04-12T03:04:43.590Z</time>
      </trkpt>
      <trkpt lat="45.14091" lon="5.92915">
        <ele>2118.5754247594</ele>
        <time>2015-04-12T03:04:52.390Z</time>
      </trkpt>
      <trkpt lat="45.14102" lon="5.92919">
        <ele>2120.3183162944</ele>
        <time>2015-04-12T03:05:00.580Z</time>
      </trkpt>
      <trkpt lat="45.14112" lon="5.9294">
        <ele>2123.8148151945</ele>
        <time>2015-04-12T03:05:13.580Z</time>
      </trkpt>
      <trkpt lat="45.1412" lon="5.92952">
        <ele>2125</ele>
        <time>2015-04-12T03:05:21.580Z</time>
      </trkpt>
      <trkpt lat="45.1413" lon="5.92974">
        <ele>2125</ele>
        <time>2015-04-12T03:05:30.380Z</time>
      </trkpt>
      <trkpt lat="45.14138" lon="5.9299">
        <ele>2125.20899968</ele>
        <time>2015-04-12T03:05:41.590Z</time>
      </trkpt>
      <trkpt lat="45.14152" lon="5.93001">
        <ele>2126.5399936</ele>
        <time>2015-04-12T03:05:50.580Z</time>
      </trkpt>
      <trkpt lat="45.14162" lon="5.93008">
        <ele>2133.42699904</ele>
        <time>2015-04-12T03:06:07.590Z</time>
      </trkpt>
      <trkpt lat="45.14173" lon="5.93017">
        <ele>2136.4295712063</ele>
        <time>2015-04-12T03:06:15.580Z</time>
      </trkpt>
      <trkpt lat="45.1418" lon="5.93031">
        <ele>2139.5225191519</ele>
        <time>2015-04-12T03:06:24.580Z</time>
      </trkpt>
      <trkpt lat="45.1419" lon="5.93048">
        <ele>2142.41599744</ele>
        <time>2015-04-12T03:06:36.580Z</time>
      </trkpt>
      <trkpt lat="45.14198" lon="5.93056">
        <ele>2144.01599744</ele>
        <time>2015-04-12T03:06:44.580Z</time>
      </trkpt>
      <trkpt lat="45.14201" lon="5.93072">
        <ele>2146.41599744</ele>
        <time>2015-04-12T03:06:56.580Z</time>
      </trkpt>
      <trkpt lat="45.1421" lon="5.93103">
        <ele>2146.09100032</ele>
        <time>2015-04-12T03:07:08.590Z</time>
      </trkpt>
      <trkpt lat="45.14223" lon="5.9312">
        <ele>2147.616</ele>
        <time>2015-04-12T03:07:17.580Z</time>
      </trkpt>
      <trkpt lat="45.14234" lon="5.93154">
        <ele>2148</ele>
        <time>2015-04-12T03:07:29.590Z</time>
      </trkpt>
      <trkpt lat="45.1424" lon="5.93169">
        <ele>2148</ele>
        <time>2015-04-12T03:07:37.590Z</time>
      </trkpt>
      <trkpt lat="45.14252" lon="5.93178">
        <ele>2148</ele>
        <time>2015-04-12T03:07:45.580Z</time>
      </trkpt>
      <trkpt lat="45.14258" lon="5.93196">
        <ele>2148</ele>
        <time>2015-04-12T03:07:50.590Z</time>
      </trkpt>
      <trkpt lat="45.1426" lon="5.93211">
        <ele>2148</ele>
        <time>2015-04-12T03:07:55.580Z</time>
      </trkpt>
      <trkpt lat="45.14275" lon="5.93231">
        <ele>2147.5928141112</ele>
        <time>2015-04-12T03:08:03.580Z</time>
      </trkpt>
      <trkpt lat="45.14297" lon="5.93259">
        <ele>2148.024</ele>
        <time>2015-04-12T03:08:19.580Z</time>
      </trkpt>
      <trkpt lat="45.14305" lon="5.93275">
        <ele>2151</ele>
        <time>2015-04-12T03:08:32.580Z</time>
      </trkpt>
      <trkpt lat="45.14312" lon="5.93286">
        <ele>2151.21599744</ele>
        <time>2015-04-12T03:08:40.580Z</time>
      </trkpt>
      <trkpt lat="45.14321" lon="5.93301">
        <ele>2152.81799936</ele>
        <time>2015-04-12T03:08:48.590Z</time>
      </trkpt>
      <trkpt lat="45.14335" lon="5.93321">
        <ele>2153</ele>
        <time>2015-04-12T03:08:56.590Z</time>
      </trkpt>
      <trkpt lat="45.14345" lon="5.9333">
        <ele>2153</ele>
        <time>2015-04-12T03:09:04.480Z</time>
      </trkpt>
      <trkpt lat="45.1435" lon="5.93345">
        <ele>2153.8901092156</ele>
        <time>2015-04-12T03:09:12.480Z</time>
      </trkpt>
      <trkpt lat="45.14357" lon="5.9336">
        <ele>2157.4894890124</ele>
        <time>2015-04-12T03:09:24.480Z</time>
      </trkpt>
      <trkpt lat="45.14364" lon="5.93374">
        <ele>2161.78799872</ele>
        <time>2015-04-12T03:09:36.480Z</time>
      </trkpt>
      <trkpt lat="45.14368" lon="5.93387">
        <ele>2163.99399936</ele>
        <time>2015-04-12T03:09:44.480Z</time>
      </trkpt>
      <trkpt lat="45.14372" lon="5.93399">
        <ele>2165.89099904</ele>
        <time>2015-04-12T03:09:52.480Z</time>
      </trkpt>
      <trkpt lat="45.14376" lon="5.93409">
        <ele>2168.29099904</ele>
        <time>2015-04-12T03:10:00.480Z</time>
      </trkpt>
      <trkpt lat="45.14382" lon="5.9342">
        <ele>2170.69099904</ele>
        <time>2015-04-12T03:10:08.480Z</time>
      </trkpt>
      <trkpt lat="45.14385" lon="5.93429">
        <ele>2172.39399936</ele>
        <time>2015-04-12T03:10:16.480Z</time>
      </trkpt>
      <trkpt lat="45.1439" lon="5.93436">
        <ele>2174.49099904</ele>
        <time>2015-04-12T03:10:24.480Z</time>
      </trkpt>
      <trkpt lat="45.14399" lon="5.93442">
        <ele>2176.89399808</ele>
        <time>2015-04-12T03:10:32.490Z</time>
      </trkpt>
      <trkpt lat="45.14403" lon="5.93448">
        <ele>2179.29099904</ele>
        <time>2015-04-12T03:10:40.480Z</time>
      </trkpt>
      <trkpt lat="45.14409" lon="5.93455">
        <ele>2181.69099904</ele>
        <time>2015-04-12T03:10:48.480Z</time>
      </trkpt>
      <trkpt lat="45.14404" lon="5.93468">
        <ele>2184.09099904</ele>
        <time>2015-04-12T03:10:56.480Z</time>
      </trkpt>
      <trkpt lat="45.14398" lon="5.93485">
        <ele>2185.49699968</ele>
        <time>2015-04-12T03:11:04.480Z</time>
      </trkpt>
      <trkpt lat="45.14397" lon="5.93498">
        <ele>2187.39399936</ele>
        <time>2015-04-12T03:11:16.480Z</time>
      </trkpt>
      <trkpt lat="45.14404" lon="5.93517">
        <ele>2188</ele>
        <time>2015-04-12T03:12:16.490Z</time>
      </trkpt>
      <trkpt lat="45.14414" lon="5.93545">
        <ele>2188.5</ele>
        <time>2015-04-12T03:12:24.490Z</time>
      </trkpt>
      <trkpt lat="45.14425" lon="5.93576">
        <ele>2187.8</ele>
        <time>2015-04-12T03:12:32.490Z</time>
      </trkpt>
      <trkpt lat="45.14436" lon="5.93609">
        <ele>2185</ele>
        <time>2015-04-12T03:12:40.490Z</time>
      </trkpt>
      <trkpt lat="45.1445" lon="5.93644">
        <ele>2185</ele>
        <time>2015-04-12T03:12:48.490Z</time>
      </trkpt>
      <trkpt lat="45.14466" lon="5.93686">
        <ele>2181.5</ele>
        <time>2015-04-12T03:12:56.490Z</time>
      </trkpt>
      <trkpt lat="45.14486" lon="5.93739">
        <ele>2178.9830185977</ele>
        <time>2015-04-12T03:13:04.580Z</time>
      </trkpt>
      <trkpt lat="45.14498" lon="5.93795">
        <ele>2176.4584633835</ele>
        <time>2015-04-12T03:13:12.580Z</time>
      </trkpt>
      <trkpt lat="45.14519" lon="5.93829">
        <ele>2173</ele>
        <time>2015-04-12T03:13:20.580Z</time>
      </trkpt>
      <trkpt lat="45.14552" lon="5.93872">
        <ele>2173</ele>
        <time>2015-04-12T03:13:28.580Z</time>
      </trkpt>
      <trkpt lat="45.14579" lon="5.93912">
        <ele>2168.74600192</ele>
        <time>2015-04-12T03:13:36.580Z</time>
      </trkpt>
      <trkpt lat="45.14592" lon="5.93952">
        <ele>2163.43700224</ele>
        <time>2015-04-12T03:13:44.580Z</time>
      </trkpt>
      <trkpt lat="45.1462" lon="5.93999">
        <ele>2159.38200064</ele>
        <time>2015-04-12T03:13:52.580Z</time>
      </trkpt>
      <trkpt lat="45.14633" lon="5.94024">
        <ele>2158</ele>
        <time>2015-04-12T03:14:08.580Z</time>
      </trkpt>
      <trkpt lat="45.14642" lon="5.9403">
        <ele>2158.70899968</ele>
        <time>2015-04-12T03:14:16.580Z</time>
      </trkpt>
      <trkpt lat="45.14635" lon="5.94051">
        <ele>2164</ele>
        <time>2015-04-12T03:15:20.580Z</time>
      </trkpt>
      <trkpt lat="45.14632" lon="5.94069">
        <ele>2170.44000256</ele>
        <time>2015-04-12T03:15:40.590Z</time>
      </trkpt>
      <trkpt lat="45.14635" lon="5.94085">
        <ele>2174.92699904</ele>
        <time>2015-04-12T03:15:52.580Z</time>
      </trkpt>
      <trkpt lat="45.14637" lon="5.94105">
        <ele>2178.53000192</ele>
        <time>2015-04-12T03:16:04.590Z</time>
      </trkpt>
      <trkpt lat="45.14632" lon="5.94121">
        <ele>2181.41799936</ele>
        <time>2015-04-12T03:16:16.580Z</time>
      </trkpt>
      <trkpt lat="45.14621" lon="5.94126">
        <ele>2183.52699904</ele>
        <time>2015-04-12T03:16:24.580Z</time>
      </trkpt>
      <trkpt lat="45.1462" lon="5.94144">
        <ele>2185.61799936</ele>
        <time>2015-04-12T03:16:32.580Z</time>
      </trkpt>
      <trkpt lat="45.14624" lon="5.94164">
        <ele>2188.01799936</ele>
        <time>2015-04-12T03:16:44.580Z</time>
      </trkpt>
      <trkpt lat="45.14623" lon="5.9418">
        <ele>2191.12699904</ele>
        <time>2015-04-12T03:16:56.580Z</time>
      </trkpt>
      <trkpt lat="45.14622" lon="5.94198">
        <ele>2196.5449984</ele>
        <time>2015-04-12T03:17:08.580Z</time>
      </trkpt>
      <trkpt lat="45.1462" lon="5.94212">
        <ele>2198.41799936</ele>
        <time>2015-04-12T03:17:16.580Z</time>
      </trkpt>
      <trkpt lat="45.14608" lon="5.94218">
        <ele>2200.52699904</ele>
        <time>2015-04-12T03:17:24.580Z</time>
      </trkpt>
      <trkpt lat="45.14606" lon="5.94237">
        <ele>2202.61799936</ele>
        <time>2015-04-12T03:17:32.580Z</time>
      </trkpt>
      <trkpt lat="45.1461" lon="5.94264">
        <ele>2204</ele>
        <time>2015-04-12T03:17:44.590Z</time>
      </trkpt>
      <trkpt lat="45.14624" lon="5.94286">
        <ele>2204.30899968</ele>
        <time>2015-04-12T03:17:52.580Z</time>
      </trkpt>
      <trkpt lat="45.1463" lon="5.943">
        <ele>2205.43599872</ele>
        <time>2015-04-12T03:18:00.580Z</time>
      </trkpt>
      <trkpt lat="45.14628" lon="5.94316">
        <ele>2209.61799936</ele>
        <time>2015-04-12T03:18:12.580Z</time>
      </trkpt>
      <trkpt lat="45.14632" lon="5.94334">
        <ele>2214.63599872</ele>
        <time>2015-04-12T03:18:28.580Z</time>
      </trkpt>
      <trkpt lat="45.14622" lon="5.94344">
        <ele>2217.12699904</ele>
        <time>2015-04-12T03:18:36.580Z</time>
      </trkpt>
      <trkpt lat="45.1463" lon="5.94365">
        <ele>2219.52699904</ele>
        <time>2015-04-12T03:18:44.580Z</time>
      </trkpt>
      <trkpt lat="45.14638" lon="5.9438">
        <ele>2221</ele>
        <time>2015-04-12T03:18:52.590Z</time>
      </trkpt>
      <trkpt lat="45.14636" lon="5.94397">
        <ele>2221.11000064</ele>
        <time>2015-04-12T03:19:00.590Z</time>
      </trkpt>
      <trkpt lat="45.14632" lon="5.94413">
        <ele>2223.23599872</ele>
        <time>2015-04-12T03:19:12.580Z</time>
      </trkpt>
      <trkpt lat="45.14624" lon="5.94432">
        <ele>2230.19700096</ele>
        <time>2015-04-12T03:19:33.480Z</time>
      </trkpt>
      <trkpt lat="45.14634" lon="5.94447">
        <ele>2232.43599872</ele>
        <time>2015-04-12T03:19:40.580Z</time>
      </trkpt>
      <trkpt lat="45.14639" lon="5.94476">
        <ele>2238.12699904</ele>
        <time>2015-04-12T03:19:56.580Z</time>
      </trkpt>
      <trkpt lat="45.14646" lon="5.94492">
        <ele>2247.90899968</ele>
        <time>2015-04-12T03:20:28.580Z</time>
      </trkpt>
      <trkpt lat="45.14641" lon="5.94507">
        <ele>2250.21799936</ele>
        <time>2015-04-12T03:20:40.580Z</time>
      </trkpt>
      <trkpt lat="45.14636" lon="5.94519">
        <ele>2260.92699904</ele>
        <time>2015-04-12T03:21:12.580Z</time>
      </trkpt>
      <trkpt lat="45.14644" lon="5.94536">
        <ele>2265.72699904</ele>
        <time>2015-04-12T03:21:28.580Z</time>
      </trkpt>
      <trkpt lat="45.14637" lon="5.94548">
        <ele>2270.81799936</ele>
        <time>2015-04-12T03:21:48.580Z</time>
      </trkpt>
      <trkpt lat="45.14645" lon="5.9456">
        <ele>2275.32699904</ele>
        <time>2015-04-12T03:22:00.580Z</time>
      </trkpt>
      <trkpt lat="45.14652" lon="5.94577">
        <ele>2278.93000192</ele>
        <time>2015-04-12T03:22:12.590Z</time>
      </trkpt>
      <trkpt lat="45.14662" lon="5.94586">
        <ele>2283.03599872</ele>
        <time>2015-04-12T03:22:24.580Z</time>
      </trkpt>
      <trkpt lat="45.14656" lon="5.94601">
        <ele>2285.30899968</ele>
        <time>2015-04-12T03:22:32.580Z</time>
      </trkpt>
      <trkpt lat="45.14659" lon="5.94629">
        <ele>2286.59900032</ele>
        <time>2015-04-12T03:22:45.480Z</time>
      </trkpt>
      <trkpt lat="45.14667" lon="5.94645">
        <ele>2287.39900032</ele>
        <time>2015-04-12T03:22:53.480Z</time>
      </trkpt>
      <trkpt lat="45.14679" lon="5.94658">
        <ele>2289.52699904</ele>
        <time>2015-04-12T03:23:04.580Z</time>
      </trkpt>
      <trkpt lat="45.14683" lon="5.94672">
        <ele>2291.61799936</ele>
        <time>2015-04-12T03:23:12.580Z</time>
      </trkpt>
      <trkpt lat="45.14694" lon="5.94685">
        <ele>2296</ele>
        <time>2015-04-12T03:23:29.490Z</time>
      </trkpt>
      <trkpt lat="45.14705" lon="5.94694">
        <ele>2297.42000128</ele>
        <time>2015-04-12T03:23:36.590Z</time>
      </trkpt>
      <trkpt lat="45.14713" lon="5.94708">
        <ele>2299.01799936</ele>
        <time>2015-04-12T03:23:44.580Z</time>
      </trkpt>
      <trkpt lat="45.14719" lon="5.94721">
        <ele>2300.70899968</ele>
        <time>2015-04-12T03:23:56.580Z</time>
      </trkpt>
      <trkpt lat="45.14725" lon="5.94736">
        <ele>2303.9950016</ele>
        <time>2015-04-12T03:24:05.480Z</time>
      </trkpt>
      <trkpt lat="45.14732" lon="5.94759">
        <ele>2305.20099968</ele>
        <time>2015-04-12T03:24:17.480Z</time>
      </trkpt>
      <trkpt lat="45.14741" lon="5.94772">
        <ele>2305.59900032</ele>
        <time>2015-04-12T03:24:25.480Z</time>
      </trkpt>
      <trkpt lat="45.14745" lon="5.94787">
        <ele>2307.63600384</ele>
        <time>2015-04-12T03:24:33.580Z</time>
      </trkpt>
      <trkpt lat="45.1475" lon="5.94808">
        <ele>2310.60900096</ele>
        <time>2015-04-12T03:24:45.580Z</time>
      </trkpt>
      <trkpt lat="45.1474" lon="5.94821">
        <ele>2314.59600128</ele>
        <time>2015-04-12T03:24:58.480Z</time>
      </trkpt>
      <trkpt lat="45.14736" lon="5.94836">
        <ele>2317.39600128</ele>
        <time>2015-04-12T03:25:10.480Z</time>
      </trkpt>
      <trkpt lat="45.14736" lon="5.94852">
        <ele>2321.6</ele>
        <time>2015-04-12T03:25:22.490Z</time>
      </trkpt>
      <trkpt lat="45.14749" lon="5.94859">
        <ele>2328.1</ele>
        <time>2015-04-12T03:25:46.490Z</time>
      </trkpt>
      <trkpt lat="45.14756" lon="5.94877">
        <ele>2334.39600128</ele>
        <time>2015-04-12T03:26:10.480Z</time>
      </trkpt>
      <trkpt lat="45.14768" lon="5.94875">
        <ele>2340.29700096</ele>
        <time>2015-04-12T03:26:30.480Z</time>
      </trkpt>
      <trkpt lat="45.14764" lon="5.94891">
        <ele>2348.09900032</ele>
        <time>2015-04-12T03:26:50.480Z</time>
      </trkpt>
      <trkpt lat="45.14763" lon="5.94909">
        <ele>2349.79800064</ele>
        <time>2015-04-12T03:27:03.480Z</time>
      </trkpt>
      <trkpt lat="45.14774" lon="5.94902">
        <ele>2355.61800192</ele>
        <time>2015-04-12T03:27:27.580Z</time>
      </trkpt>
      <trkpt lat="45.14786" lon="5.949">
        <ele>2358.79600128</ele>
        <time>2015-04-12T03:27:36.480Z</time>
      </trkpt>
      <trkpt lat="45.14794" lon="5.94917">
        <ele>2362.72699904</ele>
        <time>2015-04-12T03:27:48.580Z</time>
      </trkpt>
      <trkpt lat="45.14789" lon="5.94931">
        <ele>2366.59700096</ele>
        <time>2015-04-12T03:28:01.480Z</time>
      </trkpt>
      <trkpt lat="45.14797" lon="5.94939">
        <ele>2372.19600128</ele>
        <time>2015-04-12T03:28:17.480Z</time>
      </trkpt>
      <trkpt lat="45.14803" lon="5.94952">
        <ele>2378</ele>
        <time>2015-04-12T03:28:29.490Z</time>
      </trkpt>
      <trkpt lat="45.14813" lon="5.94961">
        <ele>2381.2</ele>
        <time>2015-04-12T03:28:45.490Z</time>
      </trkpt>
      <trkpt lat="45.14821" lon="5.94973">
        <ele>2386.79700096</ele>
        <time>2015-04-12T03:29:05.480Z</time>
      </trkpt>
      <trkpt lat="45.14829" lon="5.94983">
        <ele>2391.59700096</ele>
        <time>2015-04-12T03:29:21.480Z</time>
      </trkpt>
      <trkpt lat="45.14845" lon="5.94989">
        <ele>2403.39700096</ele>
        <time>2015-04-12T03:29:57.480Z</time>
      </trkpt>
      <trkpt lat="45.14855" lon="5.94993">
        <ele>2408.59600128</ele>
        <time>2015-04-12T03:30:13.480Z</time>
      </trkpt>
      <trkpt lat="45.14856" lon="5.94975">
        <ele>2412.79900032</ele>
        <time>2015-04-12T03:30:37.480Z</time>
      </trkpt>
      <trkpt lat="45.1487" lon="5.94979">
        <ele>2416.99600128</ele>
        <time>2015-04-12T03:30:49.480Z</time>
      </trkpt>
      <trkpt lat="45.1488" lon="5.94976">
        <ele>2423.00400384</ele>
        <time>2015-04-12T03:31:09.500Z</time>
      </trkpt>
      <trkpt lat="45.14881" lon="5.94992">
        <ele>2427.89700096</ele>
        <time>2015-04-12T03:31:22.480Z</time>
      </trkpt>
      <trkpt lat="45.14882" lon="5.95009">
        <ele>2430.59700096</ele>
        <time>2015-04-12T03:31:31.480Z</time>
      </trkpt>
      <trkpt lat="45.14882" lon="5.95023">
        <ele>2433</ele>
        <time>2015-04-12T03:31:43.480Z</time>
      </trkpt>
      <trkpt lat="45.14888" lon="5.95011">
        <ele>2437</ele>
        <time>2015-04-12T03:31:59.490Z</time>
      </trkpt>
      <trkpt lat="45.14898" lon="5.95021">
        <ele>2440.2</ele>
        <time>2015-04-12T03:32:23.490Z</time>
      </trkpt>
      <trkpt lat="45.14906" lon="5.95035">
        <ele>2453.9950016</ele>
        <time>2015-04-12T03:32:59.480Z</time>
      </trkpt>
      <trkpt lat="45.14916" lon="5.95042">
        <ele>2456.39800064</ele>
        <time>2015-04-12T03:33:11.480Z</time>
      </trkpt>
      <trkpt lat="45.14912" lon="5.95059">
        <ele>2461.79700096</ele>
        <time>2015-04-12T03:33:35.480Z</time>
      </trkpt>
      <trkpt lat="45.14916" lon="5.95072">
        <ele>2465.19900032</ele>
        <time>2015-04-12T03:33:51.480Z</time>
      </trkpt>
      <trkpt lat="45.14924" lon="5.95085">
        <ele>2465.9950016</ele>
        <time>2015-04-12T03:34:11.480Z</time>
      </trkpt>
      <trkpt lat="45.14926" lon="5.95104">
        <ele>2471.59600128</ele>
        <time>2015-04-12T03:34:23.480Z</time>
      </trkpt>
      <trkpt lat="45.14933" lon="5.95119">
        <ele>2478</ele>
        <time>2015-04-12T03:34:39.500Z</time>
      </trkpt>
      <trkpt lat="45.14941" lon="5.95133">
        <ele>2481.89700096</ele>
        <time>2015-04-12T03:34:52.480Z</time>
      </trkpt>
      <trkpt lat="45.14943" lon="5.95152">
        <ele>2487.59800064</ele>
        <time>2015-04-12T03:35:12.480Z</time>
      </trkpt>
      <trkpt lat="45.14948" lon="5.95164">
        <ele>2490</ele>
        <time>2015-04-12T03:35:24.490Z</time>
      </trkpt>
      <trkpt lat="45.14956" lon="5.95177">
        <ele>2493.79600128</ele>
        <time>2015-04-12T03:35:36.480Z</time>
      </trkpt>
      <trkpt lat="45.14967" lon="5.95187">
        <ele>2496.89700096</ele>
        <time>2015-04-12T03:35:52.480Z</time>
      </trkpt>
      <trkpt lat="45.14977" lon="5.95198">
        <ele>2500.99600128</ele>
        <time>2015-04-12T03:36:04.480Z</time>
      </trkpt>
      <trkpt lat="45.1499" lon="5.95204">
        <ele>2503</ele>
        <time>2015-04-12T03:36:16.480Z</time>
      </trkpt>
      <trkpt lat="45.14999" lon="5.95211">
        <ele>2504.99600128</ele>
        <time>2015-04-12T03:36:24.480Z</time>
      </trkpt>
      <trkpt lat="45.15009" lon="5.9522">
        <ele>2508.19600128</ele>
        <time>2015-04-12T03:36:32.480Z</time>
      </trkpt>
      <trkpt lat="45.15016" lon="5.95232">
        <ele>2515.1</ele>
        <time>2015-04-12T03:36:56.490Z</time>
      </trkpt>
      <trkpt lat="45.15027" lon="5.95237">
        <ele>2518</ele>
        <time>2015-04-12T03:37:04.490Z</time>
      </trkpt>
      <trkpt lat="45.15037" lon="5.95239">
        <ele>2520.6</ele>
        <time>2015-04-12T03:37:12.490Z</time>
      </trkpt>
      <trkpt lat="45.15047" lon="5.95255">
        <ele>2522</ele>
        <time>2015-04-12T03:37:20.490Z</time>
      </trkpt>
      <trkpt lat="45.15059" lon="5.95262">
        <ele>2528.19800064</ele>
        <time>2015-04-12T03:37:40.480Z</time>
      </trkpt>
      <trkpt lat="45.1508" lon="5.95264">
        <ele>2529.79800064</ele>
        <time>2015-04-12T03:37:48.480Z</time>
      </trkpt>
      <trkpt lat="45.15109" lon="5.95282">
        <ele>2529.90099968</ele>
        <time>2015-04-12T03:38:00.480Z</time>
      </trkpt>
      <trkpt lat="45.15117" lon="5.95294">
        <ele>2529.10099968</ele>
        <time>2015-04-12T03:38:08.480Z</time>
      </trkpt>
      <trkpt lat="45.15128" lon="5.95307">
        <ele>2529</ele>
        <time>2015-04-12T03:38:24.480Z</time>
      </trkpt>
      <trkpt lat="45.15135" lon="5.95319">
        <ele>2532.39600128</ele>
        <time>2015-04-12T03:38:40.480Z</time>
      </trkpt>
      <trkpt lat="45.15143" lon="5.9533">
        <ele>2535.59600128</ele>
        <time>2015-04-12T03:38:48.480Z</time>
      </trkpt>
      <trkpt lat="45.15147" lon="5.95343">
        <ele>2539.1</ele>
        <time>2015-04-12T03:39:00.490Z</time>
      </trkpt>
      <trkpt lat="45.1516" lon="5.95349">
        <ele>2539.9</ele>
        <time>2015-04-12T03:39:08.490Z</time>
      </trkpt>
      <trkpt lat="45.15172" lon="5.95365">
        <ele>2546.59600128</ele>
        <time>2015-04-12T03:39:28.480Z</time>
      </trkpt>
      <trkpt lat="45.1518" lon="5.9538">
        <ele>2548.39800064</ele>
        <time>2015-04-12T03:39:36.480Z</time>
      </trkpt>
      <trkpt lat="45.1519" lon="5.95389">
        <ele>2553.69900032</ele>
        <time>2015-04-12T03:39:56.480Z</time>
      </trkpt>
      <trkpt lat="45.15199" lon="5.95402">
        <ele>2557.59600128</ele>
        <time>2015-04-12T03:40:08.480Z</time>
      </trkpt>
      <trkpt lat="45.15205" lon="5.95418">
        <ele>2561.99800064</ele>
        <time>2015-04-12T03:40:24.480Z</time>
      </trkpt>
      <trkpt lat="45.15214" lon="5.95433">
        <ele>2565.1</ele>
        <time>2015-04-12T03:40:36.490Z</time>
      </trkpt>
      <trkpt lat="45.15219" lon="5.95446">
        <ele>2570.1971945038</ele>
        <time>2015-04-12T03:40:52.490Z</time>
      </trkpt>
      <trkpt lat="45.15226" lon="5.95459">
        <ele>2574.8</ele>
        <time>2015-04-12T03:41:08.490Z</time>
      </trkpt>
      <trkpt lat="45.15238" lon="5.95464">
        <ele>2577.09700096</ele>
        <time>2015-04-12T03:41:16.480Z</time>
      </trkpt>
      <trkpt lat="45.1525" lon="5.95469">
        <ele>2578.99800064</ele>
        <time>2015-04-12T03:41:24.480Z</time>
      </trkpt>
      <trkpt lat="45.1526" lon="5.95476">
        <ele>2580.5974026638</ele>
        <time>2015-04-12T03:41:32.480Z</time>
      </trkpt>
      <trkpt lat="45.15271" lon="5.95491">
        <ele>2582.9969966738</ele>
        <time>2015-04-12T03:41:44.480Z</time>
      </trkpt>
      <trkpt lat="45.15286" lon="5.95494">
        <ele>2584.69900032</ele>
        <time>2015-04-12T03:41:56.480Z</time>
      </trkpt>
      <trkpt lat="45.15299" lon="5.95504">
        <ele>2590.89700096</ele>
        <time>2015-04-12T03:42:12.480Z</time>
      </trkpt>
      <trkpt lat="45.15306" lon="5.95519">
        <ele>2594.5</ele>
        <time>2015-04-12T03:42:24.490Z</time>
      </trkpt>
      <trkpt lat="45.15315" lon="5.95536">
        <ele>2598.79600128</ele>
        <time>2015-04-12T03:42:36.480Z</time>
      </trkpt>
      <trkpt lat="45.15327" lon="5.95542">
        <ele>2601.8</ele>
        <time>2015-04-12T03:42:48.490Z</time>
      </trkpt>
      <trkpt lat="45.15338" lon="5.95546">
        <ele>2605.99600128</ele>
        <time>2015-04-12T03:43:04.480Z</time>
      </trkpt>
      <trkpt lat="45.15342" lon="5.95561">
        <ele>2608.89700096</ele>
        <time>2015-04-12T03:43:12.480Z</time>
      </trkpt>
      <trkpt lat="45.15348" lon="5.95575">
        <ele>2611.29700096</ele>
        <time>2015-04-12T03:43:20.480Z</time>
      </trkpt>
      <trkpt lat="45.15361" lon="5.95581">
        <ele>2614.59400192</ele>
        <time>2015-04-12T03:43:40.480Z</time>
      </trkpt>
      <trkpt lat="45.15371" lon="5.95593">
        <ele>2619.40599808</ele>
        <time>2015-04-12T03:43:48.500Z</time>
      </trkpt>
      <trkpt lat="45.15386" lon="5.95603">
        <ele>2621.59800064</ele>
        <time>2015-04-12T03:43:57.480Z</time>
      </trkpt>
      <trkpt lat="45.15397" lon="5.95604">
        <ele>2627.6966973662</ele>
        <time>2015-04-12T03:44:18.480Z</time>
      </trkpt>
      <trkpt lat="45.1541" lon="5.9561">
        <ele>2629.39800064</ele>
        <time>2015-04-12T03:44:26.480Z</time>
      </trkpt>
      <trkpt lat="45.15422" lon="5.95615">
        <ele>2630.99800064</ele>
        <time>2015-04-12T03:44:34.480Z</time>
      </trkpt>
      <trkpt lat="45.15436" lon="5.95622">
        <ele>2634.09700096</ele>
        <time>2015-04-12T03:44:46.480Z</time>
      </trkpt>
      <trkpt lat="45.15447" lon="5.95622">
        <ele>2635.4995000205</ele>
        <time>2015-04-12T03:44:54.490Z</time>
      </trkpt>
      <trkpt lat="45.15459" lon="5.95621">
        <ele>2636.5965958886</ele>
        <time>2015-04-12T03:45:02.480Z</time>
      </trkpt>
      <trkpt lat="45.15471" lon="5.95629">
        <ele>2638.1</ele>
        <time>2015-04-12T03:45:10.490Z</time>
      </trkpt>
      <trkpt lat="45.15483" lon="5.95646">
        <ele>2640.4950016</ele>
        <time>2015-04-12T03:45:22.480Z</time>
      </trkpt>
      <trkpt lat="45.15492" lon="5.95652">
        <ele>2644.19800064</ele>
        <time>2015-04-12T03:45:30.480Z</time>
      </trkpt>
      <trkpt lat="45.15503" lon="5.95661">
        <ele>2645.79800064</ele>
        <time>2015-04-12T03:45:38.480Z</time>
      </trkpt>
      <trkpt lat="45.15515" lon="5.95666">
        <ele>2647.49900032</ele>
        <time>2015-04-12T03:45:54.480Z</time>
      </trkpt>
      <trkpt lat="45.15527" lon="5.95675">
        <ele>2650.79600128</ele>
        <time>2015-04-12T03:46:06.480Z</time>
      </trkpt>
      <trkpt lat="45.15537" lon="5.95683">
        <ele>2653.99600128</ele>
        <time>2015-04-12T03:46:14.480Z</time>
      </trkpt>
      <trkpt lat="45.15548" lon="5.95686">
        <ele>2658.1</ele>
        <time>2015-04-12T03:46:26.490Z</time>
      </trkpt>
      <trkpt lat="45.15557" lon="5.95693">
        <ele>2660</ele>
        <time>2015-04-12T03:46:34.490Z</time>
      </trkpt>
      <trkpt lat="45.15564" lon="5.95711">
        <ele>2661.69900032</ele>
        <time>2015-04-12T03:46:46.480Z</time>
      </trkpt>
      <trkpt lat="45.15576" lon="5.95725">
        <ele>2662</ele>
        <time>2015-04-12T03:46:54.480Z</time>
      </trkpt>
      <trkpt lat="45.15584" lon="5.95736">
        <ele>2663.19600128</ele>
        <time>2015-04-12T03:47:02.480Z</time>
      </trkpt>
      <trkpt lat="45.1559" lon="5.95748">
        <ele>2667.20300288</ele>
        <time>2015-04-12T03:47:13.500Z</time>
      </trkpt>
      <trkpt lat="45.15592" lon="5.95765">
        <ele>2669.59800064</ele>
        <time>2015-04-12T03:47:22.480Z</time>
      </trkpt>
      <trkpt lat="45.15598" lon="5.95784">
        <ele>2672.00199936</ele>
        <time>2015-04-12T03:47:34.500Z</time>
      </trkpt>
      <trkpt lat="45.15605" lon="5.95795">
        <ele>2672.99800064</ele>
        <time>2015-04-12T03:47:39.480Z</time>
      </trkpt>
      <trkpt lat="45.15606" lon="5.95808">
        <ele>2674.39800064</ele>
        <time>2015-04-12T03:47:51.480Z</time>
      </trkpt>
      <trkpt lat="45.15615" lon="5.95825">
        <ele>2676</ele>
        <time>2015-04-12T03:48:00.480Z</time>
      </trkpt>
      <trkpt lat="45.15616" lon="5.95841">
        <ele>2676</ele>
        <time>2015-04-12T03:48:08.480Z</time>
      </trkpt>
      <trkpt lat="45.15619" lon="5.95874">
        <ele>2681.79800064</ele>
        <time>2015-04-12T03:48:28.480Z</time>
      </trkpt>
      <trkpt lat="45.15621" lon="5.95892">
        <ele>2686.99600128</ele>
        <time>2015-04-12T03:48:44.480Z</time>
      </trkpt>
      <trkpt lat="45.15628" lon="5.95901">
        <ele>2690.4950016</ele>
        <time>2015-04-12T03:49:20.480Z</time>
      </trkpt>
      <trkpt lat="45.15638" lon="5.95903">
        <ele>2694.4950016</ele>
        <time>2015-04-12T03:49:28.480Z</time>
      </trkpt>
      <trkpt lat="45.15646" lon="5.95897">
        <ele>2704.59700096</ele>
        <time>2015-04-12T03:50:01.480Z</time>
      </trkpt>
      <trkpt lat="45.15649" lon="5.95885">
        <ele>2713.79600128</ele>
        <time>2015-04-12T03:50:26.480Z</time>
      </trkpt>
      <trkpt lat="45.15657" lon="5.95876">
        <ele>2718</ele>
        <time>2015-04-12T03:50:43.480Z</time>
      </trkpt>
      <trkpt lat="45.15669" lon="5.95872">
        <ele>2734.59600128</ele>
        <time>2015-04-12T03:51:43.480Z</time>
      </trkpt>
      <trkpt lat="45.15681" lon="5.95873">
        <ele>2738.11300096</ele>
        <time>2015-04-12T03:52:03.200Z</time>
      </trkpt>
      <trkpt lat="45.15688" lon="5.9588">
        <ele>2740.19900032</ele>
        <time>2015-04-12T03:52:11.480Z</time>
      </trkpt>
      <trkpt lat="45.15695" lon="5.95885">
        <ele>2742.59600128</ele>
        <time>2015-04-12T03:52:23.480Z</time>
      </trkpt>
      <trkpt lat="45.15705" lon="5.95887">
        <ele>2746.99800064</ele>
        <time>2015-04-12T03:52:39.480Z</time>
      </trkpt>
      <trkpt lat="45.15715" lon="5.95892">
        <ele>2752.7932053931</ele>
        <time>2015-04-12T03:52:56.480Z</time>
      </trkpt>
      <trkpt lat="45.15725" lon="5.95888">
        <ele>2755.9</ele>
        <time>2015-04-12T03:55:00.490Z</time>
      </trkpt>
      <trkpt lat="45.15719" lon="5.9589">
        <ele>2755.78099968</ele>
        <time>2015-04-12T03:55:51.680Z</time>
      </trkpt>
      <trkpt lat="45.15726" lon="5.95904">
        <ele>2754</ele>
        <time>2015-04-12T03:57:36.480Z</time>
      </trkpt>
      <trkpt lat="45.15759" lon="5.95922">
        <ele>2740.52699136</ele>
        <time>2015-04-12T03:57:44.480Z</time>
      </trkpt>
      <trkpt lat="45.15774" lon="5.95999">
        <ele>2720.72099328</ele>
        <time>2015-04-12T03:57:52.480Z</time>
      </trkpt>
      <trkpt lat="45.15809" lon="5.96114">
        <ele>2705.20799744</ele>
        <time>2015-04-12T03:58:00.480Z</time>
      </trkpt>
      <trkpt lat="45.15835" lon="5.96172">
        <ele>2698.80799744</ele>
        <time>2015-04-12T03:58:08.480Z</time>
      </trkpt>
      <trkpt lat="45.15853" lon="5.96198">
        <ele>2692.40799744</ele>
        <time>2015-04-12T03:58:16.480Z</time>
      </trkpt>
      <trkpt lat="45.15866" lon="5.96213">
        <ele>2681.01799424</ele>
        <time>2015-04-12T03:58:24.480Z</time>
      </trkpt>
      <trkpt lat="45.15872" lon="5.96242">
        <ele>2663.5</ele>
        <time>2015-04-12T03:58:44.490Z</time>
      </trkpt>
      <trkpt lat="45.15882" lon="5.96264">
        <ele>2655.5149952</ele>
        <time>2015-04-12T03:58:52.480Z</time>
      </trkpt>
      <trkpt lat="45.15891" lon="5.96276">
        <ele>2642.62399232</ele>
        <time>2015-04-12T03:59:00.480Z</time>
      </trkpt>
      <trkpt lat="45.15921" lon="5.96292">
        <ele>2623.42399232</ele>
        <time>2015-04-12T03:59:08.480Z</time>
      </trkpt>
      <trkpt lat="45.15961" lon="5.96347">
        <ele>2608.41799424</ele>
        <time>2015-04-12T03:59:16.480Z</time>
      </trkpt>
      <trkpt lat="45.16021" lon="5.96395">
        <ele>2600.5049984</ele>
        <time>2015-04-12T03:59:24.480Z</time>
      </trkpt>
      <trkpt lat="45.16036" lon="5.96409">
        <ele>2597.70099968</ele>
        <time>2015-04-12T03:59:32.480Z</time>
      </trkpt>
      <trkpt lat="45.16059" lon="5.96446">
        <ele>2596.70299904</ele>
        <time>2015-04-12T03:59:40.480Z</time>
      </trkpt>
      <trkpt lat="45.16049" lon="5.96454">
        <ele>2593.4995000205</ele>
        <time>2015-04-12T04:00:04.490Z</time>
      </trkpt>
      <trkpt lat="45.16053" lon="5.9648">
        <ele>2594.2911385779</ele>
        <time>2015-04-12T04:00:12.490Z</time>
      </trkpt>
      <trkpt lat="45.16075" lon="5.96519">
        <ele>2593.9999986831</ele>
        <time>2015-04-12T04:00:22.200Z</time>
      </trkpt>
      <trkpt lat="45.16102" lon="5.96566">
        <ele>2590.43199744</ele>
        <time>2015-04-12T04:00:30.200Z</time>
      </trkpt>
      <trkpt lat="45.16127" lon="5.96591">
        <ele>2585</ele>
        <time>2015-04-12T04:02:16.480Z</time>
      </trkpt>
      <trkpt lat="45.16133" lon="5.96609">
        <ele>2591.59800064</ele>
        <time>2015-04-12T04:02:32.480Z</time>
      </trkpt>
      <trkpt lat="45.16132" lon="5.96625">
        <ele>2594.79800064</ele>
        <time>2015-04-12T04:02:48.480Z</time>
      </trkpt>
      <trkpt lat="45.16137" lon="5.96638">
        <ele>2595.7</ele>
        <time>2015-04-12T04:02:56.490Z</time>
      </trkpt>
      <trkpt lat="45.16138" lon="5.96653">
        <ele>2596.89900032</ele>
        <time>2015-04-12T04:03:08.480Z</time>
      </trkpt>
      <trkpt lat="45.1614" lon="5.96668">
        <ele>2601.19400192</ele>
        <time>2015-04-12T04:03:16.480Z</time>
      </trkpt>
      <trkpt lat="45.16138" lon="5.96685">
        <ele>2605.7</ele>
        <time>2015-04-12T04:03:28.490Z</time>
      </trkpt>
      <trkpt lat="45.16144" lon="5.96697">
        <ele>2614.79600128</ele>
        <time>2015-04-12T04:03:56.480Z</time>
      </trkpt>
      <trkpt lat="45.16149" lon="5.96712">
        <ele>2617.79800064</ele>
        <time>2015-04-12T04:04:08.480Z</time>
      </trkpt>
      <trkpt lat="45.16151" lon="5.96727">
        <ele>2621.19800064</ele>
        <time>2015-04-12T04:04:20.480Z</time>
      </trkpt>
      <trkpt lat="45.16158" lon="5.96744">
        <ele>2628</ele>
        <time>2015-04-12T04:04:40.480Z</time>
      </trkpt>
      <trkpt lat="45.16168" lon="5.96748">
        <ele>2632.4</ele>
        <time>2015-04-12T04:05:00.490Z</time>
      </trkpt>
      <trkpt lat="45.16166" lon="5.96763">
        <ele>2636.59800064</ele>
        <time>2015-04-12T04:05:12.480Z</time>
      </trkpt>
      <trkpt lat="45.16164" lon="5.96778">
        <ele>2639</ele>
        <time>2015-04-12T04:05:24.490Z</time>
      </trkpt>
      <trkpt lat="45.16159" lon="5.96787">
        <ele>2642.09700096</ele>
        <time>2015-04-12T04:05:36.480Z</time>
      </trkpt>
      <trkpt lat="45.16155" lon="5.96802">
        <ele>2646.59800064</ele>
        <time>2015-04-12T04:05:52.480Z</time>
      </trkpt>
      <trkpt lat="45.16148" lon="5.96814">
        <ele>2648</ele>
        <time>2015-04-12T04:06:00.480Z</time>
      </trkpt>
      <trkpt lat="45.16154" lon="5.96827">
        <ele>2652.33300224</ele>
        <time>2015-04-12T04:06:15.680Z</time>
      </trkpt>
      <trkpt lat="45.16162" lon="5.96839">
        <ele>2659.43800064</ele>
        <time>2015-04-12T04:06:31.680Z</time>
      </trkpt>
      <trkpt lat="45.16169" lon="5.96852">
        <ele>2664.4384369378</ele>
        <time>2015-04-12T04:06:51.690Z</time>
      </trkpt>
      <trkpt lat="45.16175" lon="5.96862">
        <ele>2667.67600128</ele>
        <time>2015-04-12T04:07:03.680Z</time>
      </trkpt>
      <trkpt lat="45.1618" lon="5.96875">
        <ele>2672.02700288</ele>
        <time>2015-04-12T04:07:19.580Z</time>
      </trkpt>
      <trkpt lat="45.16191" lon="5.96878">
        <ele>2676.21800192</ele>
        <time>2015-04-12T04:07:35.580Z</time>
      </trkpt>
      <trkpt lat="45.162" lon="5.96883">
        <ele>2682.62700288</ele>
        <time>2015-04-12T04:07:51.580Z</time>
      </trkpt>
      <trkpt lat="45.162" lon="5.96904">
        <ele>2687.83600384</ele>
        <time>2015-04-12T04:08:11.580Z</time>
      </trkpt>
      <trkpt lat="45.1621" lon="5.96911">
        <ele>2692.6246252249</ele>
        <time>2015-04-12T04:08:31.580Z</time>
      </trkpt>
      <trkpt lat="45.16223" lon="5.9691">
        <ele>2699.21800192</ele>
        <time>2015-04-12T04:08:55.580Z</time>
      </trkpt>
      <trkpt lat="45.16222" lon="5.96927">
        <ele>2703.23600384</ele>
        <time>2015-04-12T04:09:07.580Z</time>
      </trkpt>
      <trkpt lat="45.16234" lon="5.96926">
        <ele>2709.82700288</ele>
        <time>2015-04-12T04:09:35.580Z</time>
      </trkpt>
      <trkpt lat="45.16241" lon="5.96935">
        <ele>2714.21800192</ele>
        <time>2015-04-12T04:09:55.580Z</time>
      </trkpt>
      <trkpt lat="45.16243" lon="5.96958">
        <ele>2717</ele>
        <time>2015-04-12T04:10:27.580Z</time>
      </trkpt>
      <trkpt lat="45.16245" lon="5.96972">
        <ele>2719.22700288</ele>
        <time>2015-04-12T04:10:43.580Z</time>
      </trkpt>
      <trkpt lat="45.1625" lon="5.96986">
        <ele>2721.20900096</ele>
        <time>2015-04-12T04:10:51.580Z</time>
      </trkpt>
      <trkpt lat="45.16239" lon="5.96985">
        <ele>2721</ele>
        <time>2015-04-12T04:11:15.580Z</time>
      </trkpt>
      <trkpt lat="45.16256" lon="5.96984">
        <ele>2722</ele>
        <time>2015-04-12T04:12:33.580Z</time>
      </trkpt>
      <trkpt lat="45.16255" lon="5.97">
        <ele>2721.39099904</ele>
        <time>2015-04-12T04:12:45.580Z</time>
      </trkpt>
      <trkpt lat="45.16258" lon="5.97016">
        <ele>2721</ele>
        <time>2015-04-12T04:12:55.580Z</time>
      </trkpt>
      <trkpt lat="45.16257" lon="5.97031">
        <ele>2721.2802805496</ele>
        <time>2015-04-12T04:13:12.300Z</time>
      </trkpt>
      <trkpt lat="45.16259" lon="5.97041">
        <ele>2723.31000064</ele>
        <time>2015-04-12T04:13:32.590Z</time>
      </trkpt>
      <trkpt lat="45.16258" lon="5.97052">
        <ele>2724.90899968</ele>
        <time>2015-04-12T04:13:48.580Z</time>
      </trkpt>
      <trkpt lat="45.16257" lon="5.97064">
        <ele>2733.41799936</ele>
        <time>2015-04-12T04:14:16.580Z</time>
      </trkpt>
      <trkpt lat="45.16249" lon="5.97067">
        <ele>2738.5239501643</ele>
        <time>2015-04-12T04:14:44.580Z</time>
      </trkpt>
      <trkpt lat="45.16243" lon="5.97072">
        <ele>2744.41799936</ele>
        <time>2015-04-12T04:15:16.580Z</time>
      </trkpt>
      <trkpt lat="45.16235" lon="5.97079">
        <ele>2752.90899968</ele>
        <time>2015-04-12T04:16:08.580Z</time>
      </trkpt>
      <trkpt lat="45.16225" lon="5.97082">
        <ele>2766.43599872</ele>
        <time>2015-04-12T04:17:20.580Z</time>
      </trkpt>
      <trkpt lat="45.16223" lon="5.97095">
        <ele>2778</ele>
        <time>2015-04-12T04:17:59.530Z</time>
      </trkpt>
      <trkpt lat="45.16221" lon="5.9711">
        <ele>2789.61800192</ele>
        <time>2015-04-12T04:18:57.580Z</time>
      </trkpt>
      <trkpt lat="45.16211" lon="5.97106">
        <ele>2806.30899968</ele>
        <time>2015-04-12T04:20:12.580Z</time>
      </trkpt>
      <trkpt lat="45.16205" lon="5.97116">
        <ele>2806.29100032</ele>
        <time>2015-04-12T04:21:36.580Z</time>
      </trkpt>
      <trkpt lat="45.16206" lon="5.97137">
        <ele>2804.70899968</ele>
        <time>2015-04-12T04:24:36.580Z</time>
      </trkpt>
      <trkpt lat="45.162" lon="5.97169">
        <ele>2785.65801216</ele>
        <time>2015-04-12T04:24:44.580Z</time>
      </trkpt>
      <trkpt lat="45.16209" lon="5.97219">
        <ele>2758.03900928</ele>
        <time>2015-04-12T04:24:52.580Z</time>
      </trkpt>
      <trkpt lat="45.16228" lon="5.97296">
        <ele>2735.275008</ele>
        <time>2015-04-12T04:25:00.580Z</time>
      </trkpt>
      <trkpt lat="45.16244" lon="5.97349">
        <ele>2715.275008</ele>
        <time>2015-04-12T04:25:08.580Z</time>
      </trkpt>
      <trkpt lat="45.16261" lon="5.97386">
        <ele>2695.275008</ele>
        <time>2015-04-12T04:25:16.580Z</time>
      </trkpt>
      <trkpt lat="45.16274" lon="5.97482">
        <ele>2677.8200064</ele>
        <time>2015-04-12T04:25:24.580Z</time>
      </trkpt>
      <trkpt lat="45.16303" lon="5.97516">
        <ele>2669.85399808</ele>
        <time>2015-04-12T04:25:32.580Z</time>
      </trkpt>
      <trkpt lat="45.16304" lon="5.97504">
        <ele>2674</ele>
        <time>2015-04-12T04:26:08.580Z</time>
      </trkpt>
      <trkpt lat="45.16297" lon="5.97498">
        <ele>2674</ele>
        <time>2015-04-12T04:26:36.580Z</time>
      </trkpt>
      <trkpt lat="45.16305" lon="5.97508">
        <ele>2675</ele>
        <time>2015-04-12T04:27:00.580Z</time>
      </trkpt>
      <trkpt lat="45.1631" lon="5.97529">
        <ele>2675</ele>
        <time>2015-04-12T04:27:08.580Z</time>
      </trkpt>
      <trkpt lat="45.16314" lon="5.97544">
        <ele>2675.71000064</ele>
        <time>2015-04-12T04:27:16.590Z</time>
      </trkpt>
      <trkpt lat="45.16318" lon="5.97561">
        <ele>2676</ele>
        <time>2015-04-12T04:27:24.580Z</time>
      </trkpt>
      <trkpt lat="45.16321" lon="5.97578">
        <ele>2676.30899968</ele>
        <time>2015-04-12T04:27:32.580Z</time>
      </trkpt>
      <trkpt lat="45.16325" lon="5.97594">
        <ele>2682.45399808</ele>
        <time>2015-04-12T04:27:48.580Z</time>
      </trkpt>
      <trkpt lat="45.1633" lon="5.97611">
        <ele>2684.41799936</ele>
        <time>2015-04-12T04:27:56.580Z</time>
      </trkpt>
      <trkpt lat="45.16333" lon="5.97627">
        <ele>2685</ele>
        <time>2015-04-12T04:28:04.590Z</time>
      </trkpt>
      <trkpt lat="45.16339" lon="5.97663">
        <ele>2685</ele>
        <time>2015-04-12T04:28:16.580Z</time>
      </trkpt>
      <trkpt lat="45.16348" lon="5.97671">
        <ele>2688.63599872</ele>
        <time>2015-04-12T04:28:28.580Z</time>
      </trkpt>
      <trkpt lat="45.16355" lon="5.97689">
        <ele>2692.5449984</ele>
        <time>2015-04-12T04:28:36.580Z</time>
      </trkpt>
      <trkpt lat="45.16364" lon="5.97701">
        <ele>2695.81799936</ele>
        <time>2015-04-12T04:28:48.580Z</time>
      </trkpt>
      <trkpt lat="45.16367" lon="5.97717">
        <ele>2698.21799936</ele>
        <time>2015-04-12T04:29:00.580Z</time>
      </trkpt>
      <trkpt lat="45.16376" lon="5.9773">
        <ele>2699.81799936</ele>
        <time>2015-04-12T04:29:08.580Z</time>
      </trkpt>
      <trkpt lat="45.16386" lon="5.97745">
        <ele>2700</ele>
        <time>2015-04-12T04:29:16.580Z</time>
      </trkpt>
      <trkpt lat="45.16396" lon="5.97754">
        <ele>2701.52699904</ele>
        <time>2015-04-12T04:29:24.580Z</time>
      </trkpt>
      <trkpt lat="45.16403" lon="5.97766">
        <ele>2704.23599872</ele>
        <time>2015-04-12T04:29:32.580Z</time>
      </trkpt>
      <trkpt lat="45.16408" lon="5.9778">
        <ele>2707.51000064</ele>
        <time>2015-04-12T04:29:44.590Z</time>
      </trkpt>
      <trkpt lat="45.16415" lon="5.9779">
        <ele>2709.5500032</ele>
        <time>2015-04-12T04:29:52.590Z</time>
      </trkpt>
      <trkpt lat="45.16426" lon="5.978">
        <ele>2713</ele>
        <time>2015-04-12T04:30:00.580Z</time>
      </trkpt>
      <trkpt lat="45.16437" lon="5.97817">
        <ele>2713</ele>
        <time>2015-04-12T04:30:08.580Z</time>
      </trkpt>
      <trkpt lat="45.16446" lon="5.97829">
        <ele>2712.29100032</ele>
        <time>2015-04-12T04:30:16.580Z</time>
      </trkpt>
      <trkpt lat="45.16452" lon="5.97845">
        <ele>2716.5449984</ele>
        <time>2015-04-12T04:30:28.580Z</time>
      </trkpt>
      <trkpt lat="45.16461" lon="5.97857">
        <ele>2717</ele>
        <time>2015-04-12T04:30:36.580Z</time>
      </trkpt>
      <trkpt lat="45.16467" lon="5.97877">
        <ele>2717.90899968</ele>
        <time>2015-04-12T04:30:48.580Z</time>
      </trkpt>
      <trkpt lat="45.16472" lon="5.97892">
        <ele>2718.70899968</ele>
        <time>2015-04-12T04:30:56.580Z</time>
      </trkpt>
      <trkpt lat="45.16475" lon="5.97909">
        <ele>2719.50899968</ele>
        <time>2015-04-12T04:31:04.580Z</time>
      </trkpt>
      <trkpt lat="45.16483" lon="5.97924">
        <ele>2719.69100032</ele>
        <time>2015-04-12T04:31:12.580Z</time>
      </trkpt>
      <trkpt lat="45.16493" lon="5.97941">
        <ele>2719.43599872</ele>
        <time>2015-04-12T04:31:20.580Z</time>
      </trkpt>
      <trkpt lat="45.165" lon="5.97959">
        <ele>2723.61799936</ele>
        <time>2015-04-12T04:31:32.580Z</time>
      </trkpt>
      <trkpt lat="45.16503" lon="5.97979">
        <ele>2726.01799936</ele>
        <time>2015-04-12T04:31:44.580Z</time>
      </trkpt>
      <trkpt lat="45.16509" lon="5.97994">
        <ele>2727</ele>
        <time>2015-04-12T04:31:52.580Z</time>
      </trkpt>
      <trkpt lat="45.16518" lon="5.98007">
        <ele>2727.10899968</ele>
        <time>2015-04-12T04:32:00.580Z</time>
      </trkpt>
      <trkpt lat="45.16524" lon="5.9802">
        <ele>2727.91000064</ele>
        <time>2015-04-12T04:32:08.590Z</time>
      </trkpt>
      <trkpt lat="45.16529" lon="5.98035">
        <ele>2730.13000192</ele>
        <time>2015-04-12T04:32:16.590Z</time>
      </trkpt>
      <trkpt lat="45.16534" lon="5.98051">
        <ele>2732.81799936</ele>
        <time>2015-04-12T04:32:28.580Z</time>
      </trkpt>
      <trkpt lat="45.16532" lon="5.98065">
        <ele>2736.44000256</ele>
        <time>2015-04-12T04:32:40.590Z</time>
      </trkpt>
      <trkpt lat="45.16535" lon="5.98083">
        <ele>2741.23599872</ele>
        <time>2015-04-12T04:32:52.580Z</time>
      </trkpt>
      <trkpt lat="45.16529" lon="5.98096">
        <ele>2744.21799936</ele>
        <time>2015-04-12T04:33:00.580Z</time>
      </trkpt>
      <trkpt lat="45.1652" lon="5.9811">
        <ele>2747.23599872</ele>
        <time>2015-04-12T04:33:12.580Z</time>
      </trkpt>
      <trkpt lat="45.16527" lon="5.98126">
        <ele>2753.84300288</ele>
        <time>2015-04-12T04:33:32.300Z</time>
      </trkpt>
      <trkpt lat="45.16528" lon="5.98141">
        <ele>2757.52699904</ele>
        <time>2015-04-12T04:33:44.580Z</time>
      </trkpt>
      <trkpt lat="45.16534" lon="5.98161">
        <ele>2761.83599872</ele>
        <time>2015-04-12T04:33:56.580Z</time>
      </trkpt>
      <trkpt lat="45.16541" lon="5.98172">
        <ele>2761.98200064</ele>
        <time>2015-04-12T04:34:04.580Z</time>
      </trkpt>
      <trkpt lat="45.16544" lon="5.98188">
        <ele>2761.92699904</ele>
        <time>2015-04-12T04:34:12.580Z</time>
      </trkpt>
      <trkpt lat="45.16552" lon="5.98204">
        <ele>2764</ele>
        <time>2015-04-12T04:34:24.580Z</time>
      </trkpt>
      <trkpt lat="45.16556" lon="5.98219">
        <ele>2764.92699904</ele>
        <time>2015-04-12T04:34:32.580Z</time>
      </trkpt>
      <trkpt lat="45.16564" lon="5.98233">
        <ele>2768.53000192</ele>
        <time>2015-04-12T04:34:44.590Z</time>
      </trkpt>
      <trkpt lat="45.1657" lon="5.98251">
        <ele>2772.83599872</ele>
        <time>2015-04-12T04:34:56.580Z</time>
      </trkpt>
      <trkpt lat="45.16573" lon="5.98274">
        <ele>2777.63599872</ele>
        <time>2015-04-12T04:35:08.580Z</time>
      </trkpt>
      <trkpt lat="45.16577" lon="5.98289">
        <ele>2779.41799936</ele>
        <time>2015-04-12T04:35:16.580Z</time>
      </trkpt>
      <trkpt lat="45.16581" lon="5.98306">
        <ele>2781.01799936</ele>
        <time>2015-04-12T04:35:24.580Z</time>
      </trkpt>
      <trkpt lat="45.16587" lon="5.9832">
        <ele>2782</ele>
        <time>2015-04-12T04:35:32.580Z</time>
      </trkpt>
      <trkpt lat="45.16597" lon="5.98338">
        <ele>2782</ele>
        <time>2015-04-12T04:35:40.580Z</time>
      </trkpt>
      <trkpt lat="45.16606" lon="5.98358">
        <ele>2782</ele>
        <time>2015-04-12T04:35:52.590Z</time>
      </trkpt>
      <trkpt lat="45.16618" lon="5.98371">
        <ele>2782.5500032</ele>
        <time>2015-04-12T04:36:00.590Z</time>
      </trkpt>
      <trkpt lat="45.16621" lon="5.98389">
        <ele>2787</ele>
        <time>2015-04-12T04:36:12.580Z</time>
      </trkpt>
      <trkpt lat="45.16629" lon="5.98399">
        <ele>2787.43599872</ele>
        <time>2015-04-12T04:36:20.580Z</time>
      </trkpt>
      <trkpt lat="45.16638" lon="5.98407">
        <ele>2791.30899968</ele>
        <time>2015-04-12T04:36:32.580Z</time>
      </trkpt>
      <trkpt lat="45.16644" lon="5.9842">
        <ele>2794.03599872</ele>
        <time>2015-04-12T04:36:44.580Z</time>
      </trkpt>
      <trkpt lat="45.16648" lon="5.98434">
        <ele>2798.83599872</ele>
        <time>2015-04-12T04:36:56.580Z</time>
      </trkpt>
      <trkpt lat="45.1665" lon="5.9845">
        <ele>2802.73000192</ele>
        <time>2015-04-12T04:37:08.590Z</time>
      </trkpt>
      <trkpt lat="45.16649" lon="5.98467">
        <ele>2806.02000128</ele>
        <time>2015-04-12T04:37:24.590Z</time>
      </trkpt>
      <trkpt lat="45.1665" lon="5.98482">
        <ele>2807.92699904</ele>
        <time>2015-04-12T04:37:32.580Z</time>
      </trkpt>
      <trkpt lat="45.16656" lon="5.98494">
        <ele>2810.43599872</ele>
        <time>2015-04-12T04:37:40.580Z</time>
      </trkpt>
      <trkpt lat="45.16656" lon="5.98513">
        <ele>2816.12699904</ele>
        <time>2015-04-12T04:37:56.580Z</time>
      </trkpt>
      <trkpt lat="45.16666" lon="5.98521">
        <ele>2821.4185813368</ele>
        <time>2015-04-12T04:38:16.590Z</time>
      </trkpt>
      <trkpt lat="45.16664" lon="5.98534">
        <ele>2824.7267255032</ele>
        <time>2015-04-12T04:38:28.580Z</time>
      </trkpt>
      <trkpt lat="45.16667" lon="5.98555">
        <ele>2827.03599872</ele>
        <time>2015-04-12T04:38:44.580Z</time>
      </trkpt>
      <trkpt lat="45.16672" lon="5.98573">
        <ele>2831.83599872</ele>
        <time>2015-04-12T04:38:56.580Z</time>
      </trkpt>
      <trkpt lat="45.16675" lon="5.98586">
        <ele>2834.01799936</ele>
        <time>2015-04-12T04:39:04.580Z</time>
      </trkpt>
      <trkpt lat="45.16682" lon="5.98597">
        <ele>2837.12699904</ele>
        <time>2015-04-12T04:39:16.580Z</time>
      </trkpt>
      <trkpt lat="45.16684" lon="5.98615">
        <ele>2839.81799936</ele>
        <time>2015-04-12T04:39:28.580Z</time>
      </trkpt>
      <trkpt lat="45.16692" lon="5.98643">
        <ele>2843.5449984</ele>
        <time>2015-04-12T04:39:44.580Z</time>
      </trkpt>
      <trkpt lat="45.16692" lon="5.98661">
        <ele>2847.42000128</ele>
        <time>2015-04-12T04:39:56.590Z</time>
      </trkpt>
      <trkpt lat="45.16693" lon="5.98679">
        <ele>2851.63599872</ele>
        <time>2015-04-12T04:40:08.580Z</time>
      </trkpt>
      <trkpt lat="45.16697" lon="5.98695">
        <ele>2854.21799936</ele>
        <time>2015-04-12T04:40:20.580Z</time>
      </trkpt>
      <trkpt lat="45.16698" lon="5.98711">
        <ele>2855.81799936</ele>
        <time>2015-04-12T04:40:28.580Z</time>
      </trkpt>
      <trkpt lat="45.16704" lon="5.98731">
        <ele>2861.01799936</ele>
        <time>2015-04-12T04:40:44.580Z</time>
      </trkpt>
      <trkpt lat="45.16706" lon="5.98761">
        <ele>2867.30899968</ele>
        <time>2015-04-12T04:41:12.580Z</time>
      </trkpt>
      <trkpt lat="45.16708" lon="5.98777">
        <ele>2871.63599872</ele>
        <time>2015-04-12T04:41:28.580Z</time>
      </trkpt>
      <trkpt lat="45.16718" lon="5.9878">
        <ele>2874.44000256</ele>
        <time>2015-04-12T04:42:20.590Z</time>
      </trkpt>
      <trkpt lat="45.16728" lon="5.98778">
        <ele>2879.85399808</ele>
        <time>2015-04-12T04:42:32.580Z</time>
      </trkpt>
      <trkpt lat="45.16743" lon="5.98787">
        <ele>2885.816181435</ele>
        <time>2015-04-12T04:42:48.580Z</time>
      </trkpt>
      <trkpt lat="45.16757" lon="5.98791">
        <ele>2888.1261243254</ele>
        <time>2015-04-12T04:42:56.580Z</time>
      </trkpt>
      <trkpt lat="45.16765" lon="5.98802">
        <ele>2892.5449984</ele>
        <time>2015-04-12T04:43:12.580Z</time>
      </trkpt>
      <trkpt lat="45.16775" lon="5.98798">
        <ele>2897.81799936</ele>
        <time>2015-04-12T04:43:28.580Z</time>
      </trkpt>
      <trkpt lat="45.16784" lon="5.98795">
        <ele>2900.13000192</ele>
        <time>2015-04-12T04:43:36.590Z</time>
      </trkpt>
      <trkpt lat="45.16795" lon="5.98792">
        <ele>2903.72699904</ele>
        <time>2015-04-12T04:43:48.580Z</time>
      </trkpt>
      <trkpt lat="45.16806" lon="5.98791">
        <ele>2909.33000192</ele>
        <time>2015-04-12T04:44:00.590Z</time>
      </trkpt>
      <trkpt lat="45.16815" lon="5.98803">
        <ele>2912.92699904</ele>
        <time>2015-04-12T04:44:12.580Z</time>
      </trkpt>
      <trkpt lat="45.16825" lon="5.98802">
        <ele>2915.32699904</ele>
        <time>2015-04-12T04:44:20.580Z</time>
      </trkpt>
      <trkpt lat="45.16833" lon="5.98809">
        <ele>2919.23599872</ele>
        <time>2015-04-12T04:44:32.580Z</time>
      </trkpt>
      <trkpt lat="45.16845" lon="5.98805">
        <ele>2922.32699904</ele>
        <time>2015-04-12T04:44:40.580Z</time>
      </trkpt>
      <trkpt lat="45.16855" lon="5.98808">
        <ele>2925.62000128</ele>
        <time>2015-04-12T04:44:52.590Z</time>
      </trkpt>
      <trkpt lat="45.16845" lon="5.98801">
        <ele>2926</ele>
        <time>2015-04-12T04:48:36.580Z</time>
      </trkpt>
      <trkpt lat="45.16803" lon="5.98776">
        <ele>2915.7999872</ele>
        <time>2015-04-12T04:48:44.590Z</time>
      </trkpt>
      <trkpt lat="45.16774" lon="5.98714">
        <ele>2893.90997504</ele>
        <time>2015-04-12T04:48:52.590Z</time>
      </trkpt>
      <trkpt lat="45.16734" lon="5.98658">
        <ele>2863.58998016</ele>
        <time>2015-04-12T04:49:00.590Z</time>
      </trkpt>
      <trkpt lat="45.16686" lon="5.98558">
        <ele>2838.78998016</ele>
        <time>2015-04-12T04:49:08.590Z</time>
      </trkpt>
      <trkpt lat="45.16681" lon="5.98443">
        <ele>2816.82998272</ele>
        <time>2015-04-12T04:49:16.590Z</time>
      </trkpt>
      <trkpt lat="45.16704" lon="5.98339">
        <ele>2806.4499968</ele>
        <time>2015-04-12T04:49:24.590Z</time>
      </trkpt>
      <trkpt lat="45.16678" lon="5.98287">
        <ele>2803.68999936</ele>
        <time>2015-04-12T04:49:32.590Z</time>
      </trkpt>
      <trkpt lat="45.16662" lon="5.98238">
        <ele>2802.78200064</ele>
        <time>2015-04-12T04:49:40.580Z</time>
      </trkpt>
      <trkpt lat="45.16661" lon="5.98189">
        <ele>2801.18200064</ele>
        <time>2015-04-12T04:49:48.580Z</time>
      </trkpt>
      <trkpt lat="45.16679" lon="5.9815">
        <ele>2801</ele>
        <time>2015-04-12T04:49:56.580Z</time>
      </trkpt>
      <trkpt lat="45.16694" lon="5.98122">
        <ele>2801</ele>
        <time>2015-04-12T04:50:04.580Z</time>
      </trkpt>
      <trkpt lat="45.16727" lon="5.98092">
        <ele>2801</ele>
        <time>2015-04-12T04:50:12.580Z</time>
      </trkpt>
      <trkpt lat="45.16739" lon="5.98093">
        <ele>2801</ele>
        <time>2015-04-12T04:50:24.580Z</time>
      </trkpt>
      <trkpt lat="45.16758" lon="5.98108">
        <ele>2799.4499968</ele>
        <time>2015-04-12T04:50:40.590Z</time>
      </trkpt>
      <trkpt lat="45.16769" lon="5.98099">
        <ele>2792.7837861386</ele>
        <time>2015-04-12T04:51:00.580Z</time>
      </trkpt>
      <trkpt lat="45.16773" lon="5.98115">
        <ele>2785.7142802341</ele>
        <time>2015-04-12T04:51:24.300Z</time>
      </trkpt>
      <trkpt lat="45.16781" lon="5.98128">
        <ele>2770.7292677656</ele>
        <time>2015-04-12T04:51:38.780Z</time>
      </trkpt>
      <trkpt lat="45.168" lon="5.98125">
        <ele>2753.59799808</ele>
        <time>2015-04-12T04:52:01.500Z</time>
      </trkpt>
      <trkpt lat="45.16812" lon="5.9813">
        <ele>2745.87099136</ele>
        <time>2015-04-12T04:52:26.300Z</time>
      </trkpt>
      <trkpt lat="45.16814" lon="5.98149">
        <ele>2737.40698368</ele>
        <time>2015-04-12T04:52:32.780Z</time>
      </trkpt>
      <trkpt lat="45.16827" lon="5.98158">
        <ele>2723.5949952</ele>
        <time>2015-04-12T04:52:44.300Z</time>
      </trkpt>
      <trkpt lat="45.16831" lon="5.98141">
        <ele>2710.95399168</ele>
        <time>2015-04-12T04:53:02.200Z</time>
      </trkpt>
      <trkpt lat="45.16849" lon="5.98168">
        <ele>2684.76100608</ele>
        <time>2015-04-12T04:53:13.300Z</time>
      </trkpt>
      <trkpt lat="45.16859" lon="5.98185">
        <ele>2670.99799296</ele>
        <time>2015-04-12T04:53:20.400Z</time>
      </trkpt>
      <trkpt lat="45.16863" lon="5.98233">
        <ele>2653.61797888</ele>
        <time>2015-04-12T04:53:28.300Z</time>
      </trkpt>
      <trkpt lat="45.16857" lon="5.98279">
        <ele>2640.79398656</ele>
        <time>2015-04-12T04:53:36.780Z</time>
      </trkpt>
      <trkpt lat="45.16899" lon="5.9829">
        <ele>2625.89097984</ele>
        <time>2015-04-12T04:53:44.780Z</time>
      </trkpt>
      <trkpt lat="45.16926" lon="5.98209">
        <ele>2607.96600832</ele>
        <time>2015-04-12T04:53:52.580Z</time>
      </trkpt>
      <trkpt lat="45.16957" lon="5.98192">
        <ele>2587.05700864</ele>
        <time>2015-04-12T04:54:00.580Z</time>
      </trkpt>
      <trkpt lat="45.16994" lon="5.98215">
        <ele>2565.45700864</ele>
        <time>2015-04-12T04:54:08.580Z</time>
      </trkpt>
      <trkpt lat="45.17044" lon="5.98258">
        <ele>2536.05801216</ele>
        <time>2015-04-12T04:54:16.580Z</time>
      </trkpt>
      <trkpt lat="45.17135" lon="5.98301">
        <ele>2502.60401408</ele>
        <time>2015-04-12T04:54:24.580Z</time>
      </trkpt>
      <trkpt lat="45.1722" lon="5.9839">
        <ele>2476.05600512</ele>
        <time>2015-04-12T04:54:32.580Z</time>
      </trkpt>
      <trkpt lat="45.17294" lon="5.98412">
        <ele>2461.29401088</ele>
        <time>2015-04-12T04:54:40.580Z</time>
      </trkpt>
      <trkpt lat="45.17367" lon="5.98419">
        <ele>2433.41396736</ele>
        <time>2015-04-12T04:54:48.780Z</time>
      </trkpt>
      <trkpt lat="45.17445" lon="5.98461">
        <ele>2421.07400448</ele>
        <time>2015-04-12T04:54:56.580Z</time>
      </trkpt>
      <trkpt lat="45.17505" lon="5.98386">
        <ele>2413.43700224</ele>
        <time>2015-04-12T04:55:04.580Z</time>
      </trkpt>
      <trkpt lat="45.17556" lon="5.98333">
        <ele>2408.4550016</ele>
        <time>2015-04-12T04:55:12.580Z</time>
      </trkpt>
      <trkpt lat="45.17596" lon="5.98331">
        <ele>2399.9100032</ele>
        <time>2015-04-12T04:55:24.580Z</time>
      </trkpt>
      <trkpt lat="45.17639" lon="5.98338">
        <ele>2393.68399616</ele>
        <time>2015-04-12T04:55:32.780Z</time>
      </trkpt>
      <trkpt lat="45.17669" lon="5.98323">
        <ele>2389.97999872</ele>
        <time>2015-04-12T04:55:44.590Z</time>
      </trkpt>
      <trkpt lat="45.17693" lon="5.98323">
        <ele>2388.68999936</ele>
        <time>2015-04-12T04:55:52.590Z</time>
      </trkpt>
      <trkpt lat="45.17717" lon="5.98334">
        <ele>2387.09699328</ele>
        <time>2015-04-12T04:56:00.780Z</time>
      </trkpt>
      <trkpt lat="45.17741" lon="5.98337">
        <ele>2381.49699328</ele>
        <time>2015-04-12T04:56:08.780Z</time>
      </trkpt>
      <trkpt lat="45.17751" lon="5.98331">
        <ele>2381</ele>
        <time>2015-04-12T04:56:16.580Z</time>
      </trkpt>
      <trkpt lat="45.17757" lon="5.98346">
        <ele>2385.32699904</ele>
        <time>2015-04-12T04:57:20.580Z</time>
      </trkpt>
      <trkpt lat="45.17765" lon="5.98358">
        <ele>2387.72699904</ele>
        <time>2015-04-12T04:57:28.580Z</time>
      </trkpt>
      <trkpt lat="45.17776" lon="5.98364">
        <ele>2397.52699904</ele>
        <time>2015-04-12T04:58:04.580Z</time>
      </trkpt>
      <trkpt lat="45.17787" lon="5.98371">
        <ele>2403.01799936</ele>
        <time>2015-04-12T04:58:24.580Z</time>
      </trkpt>
      <trkpt lat="45.17798" lon="5.98368">
        <ele>2407.03599872</ele>
        <time>2015-04-12T04:58:44.580Z</time>
      </trkpt>
      <trkpt lat="45.1781" lon="5.98378">
        <ele>2412.53000192</ele>
        <time>2015-04-12T04:59:04.590Z</time>
      </trkpt>
      <trkpt lat="45.17822" lon="5.98371">
        <ele>2418.70599936</ele>
        <time>2015-04-12T04:59:28.020Z</time>
      </trkpt>
      <trkpt lat="45.17834" lon="5.98368">
        <ele>2421.50899968</ele>
        <time>2015-04-12T04:59:44.580Z</time>
      </trkpt>
      <trkpt lat="45.17844" lon="5.98366">
        <ele>2428.5254721034</ele>
        <time>2015-04-12T05:00:04.580Z</time>
      </trkpt>
      <trkpt lat="45.17855" lon="5.98365">
        <ele>2432.23599872</ele>
        <time>2015-04-12T05:00:32.580Z</time>
      </trkpt>
      <trkpt lat="45.17864" lon="5.98361">
        <ele>2435.90899968</ele>
        <time>2015-04-12T05:00:48.580Z</time>
      </trkpt>
      <trkpt lat="45.17874" lon="5.98373">
        <ele>2438.13000192</ele>
        <time>2015-04-12T05:00:56.590Z</time>
      </trkpt>
      <trkpt lat="45.17889" lon="5.98374">
        <ele>2448.61799936</ele>
        <time>2015-04-12T05:01:32.580Z</time>
      </trkpt>
      <trkpt lat="45.17902" lon="5.98378">
        <ele>2454.41799936</ele>
        <time>2015-04-12T05:01:56.580Z</time>
      </trkpt>
      <trkpt lat="45.17913" lon="5.98383">
        <ele>2455</ele>
        <time>2015-04-12T05:02:04.580Z</time>
      </trkpt>
      <trkpt lat="45.17927" lon="5.98393">
        <ele>2455</ele>
        <time>2015-04-12T05:02:16.580Z</time>
      </trkpt>
      <trkpt lat="45.17939" lon="5.98394">
        <ele>2454.49100032</ele>
        <time>2015-04-12T05:02:24.580Z</time>
      </trkpt>
      <trkpt lat="45.17949" lon="5.98395">
        <ele>2454.30899968</ele>
        <time>2015-04-12T05:02:32.580Z</time>
      </trkpt>
      <trkpt lat="45.17961" lon="5.98394">
        <ele>2456.53000192</ele>
        <time>2015-04-12T05:02:44.590Z</time>
      </trkpt>
      <trkpt lat="45.17972" lon="5.98388">
        <ele>2458</ele>
        <time>2015-04-12T05:02:52.590Z</time>
      </trkpt>
      <trkpt lat="45.17988" lon="5.98383">
        <ele>2459.01799936</ele>
        <time>2015-04-12T05:03:04.580Z</time>
      </trkpt>
      <trkpt lat="45.18002" lon="5.98391">
        <ele>2462.13000192</ele>
        <time>2015-04-12T05:03:16.590Z</time>
      </trkpt>
      <trkpt lat="45.18015" lon="5.9839">
        <ele>2463</ele>
        <time>2015-04-12T05:03:32.590Z</time>
      </trkpt>
      <trkpt lat="45.18027" lon="5.98383">
        <ele>2468.92699904</ele>
        <time>2015-04-12T05:03:52.580Z</time>
      </trkpt>
      <trkpt lat="45.18036" lon="5.98374">
        <ele>2472.92699904</ele>
        <time>2015-04-12T05:04:12.580Z</time>
      </trkpt>
      <trkpt lat="45.1805" lon="5.98365">
        <ele>2479.83599872</ele>
        <time>2015-04-12T05:04:36.580Z</time>
      </trkpt>
      <trkpt lat="45.18061" lon="5.98366">
        <ele>2485.42000128</ele>
        <time>2015-04-12T05:04:56.590Z</time>
      </trkpt>
      <trkpt lat="45.18071" lon="5.98362">
        <ele>2490.12699904</ele>
        <time>2015-04-12T05:05:16.580Z</time>
      </trkpt>
      <trkpt lat="45.1808" lon="5.98367">
        <ele>2492.01799936</ele>
        <time>2015-04-12T05:05:24.580Z</time>
      </trkpt>
      <trkpt lat="45.1809" lon="5.98361">
        <ele>2495.83599872</ele>
        <time>2015-04-12T05:05:36.580Z</time>
      </trkpt>
      <trkpt lat="45.18101" lon="5.98355">
        <ele>2501.89100032</ele>
        <time>2015-04-12T05:06:00.580Z</time>
      </trkpt>
      <trkpt lat="45.18113" lon="5.98356">
        <ele>2501.09100032</ele>
        <time>2015-04-12T05:06:08.580Z</time>
      </trkpt>
      <trkpt lat="45.18124" lon="5.98367">
        <ele>2506.10899968</ele>
        <time>2015-04-12T05:08:00.580Z</time>
      </trkpt>
      <trkpt lat="45.18133" lon="5.98381">
        <ele>2506.90899968</ele>
        <time>2015-04-12T05:08:08.580Z</time>
      </trkpt>
      <trkpt lat="45.18141" lon="5.98391">
        <ele>2509.83599872</ele>
        <time>2015-04-12T05:08:16.580Z</time>
      </trkpt>
      <trkpt lat="45.18153" lon="5.984">
        <ele>2511</ele>
        <time>2015-04-12T05:08:24.590Z</time>
      </trkpt>
      <trkpt lat="45.18166" lon="5.98409">
        <ele>2510.68999936</ele>
        <time>2015-04-12T05:08:32.590Z</time>
      </trkpt>
      <trkpt lat="45.18177" lon="5.98413">
        <ele>2509.88999936</ele>
        <time>2015-04-12T05:08:40.590Z</time>
      </trkpt>
      <trkpt lat="45.18188" lon="5.98418">
        <ele>2509.08999936</ele>
        <time>2015-04-12T05:08:48.590Z</time>
      </trkpt>
      <trkpt lat="45.18203" lon="5.98423">
        <ele>2511.13000192</ele>
        <time>2015-04-12T05:08:56.590Z</time>
      </trkpt>
      <trkpt lat="45.18217" lon="5.9843">
        <ele>2515.37999872</ele>
        <time>2015-04-12T05:09:12.590Z</time>
      </trkpt>
      <trkpt lat="45.18251" lon="5.98448">
        <ele>2512.56999168</ele>
        <time>2015-04-12T05:09:20.590Z</time>
      </trkpt>
      <trkpt lat="45.18292" lon="5.98469">
        <ele>2502.16999168</ele>
        <time>2015-04-12T05:09:28.590Z</time>
      </trkpt>
      <trkpt lat="45.18327" lon="5.98486">
        <ele>2496.74600192</ele>
        <time>2015-04-12T05:09:36.580Z</time>
      </trkpt>
      <trkpt lat="45.18363" lon="5.98511">
        <ele>2491.43700224</ele>
        <time>2015-04-12T05:09:44.580Z</time>
      </trkpt>
      <trkpt lat="45.18393" lon="5.98527">
        <ele>2488</ele>
        <time>2015-04-12T05:09:56.580Z</time>
      </trkpt>
      <trkpt lat="45.18405" lon="5.98535">
        <ele>2487.49100032</ele>
        <time>2015-04-12T05:10:04.580Z</time>
      </trkpt>
      <trkpt lat="45.18411" lon="5.9855">
        <ele>2487.30899968</ele>
        <time>2015-04-12T05:10:12.580Z</time>
      </trkpt>
      <trkpt lat="45.18419" lon="5.98568">
        <ele>2488.50899968</ele>
        <time>2015-04-12T05:10:24.580Z</time>
      </trkpt>
      <trkpt lat="45.18428" lon="5.98576">
        <ele>2493.10899968</ele>
        <time>2015-04-12T05:10:40.580Z</time>
      </trkpt>
      <trkpt lat="45.18437" lon="5.98587">
        <ele>2493.90899968</ele>
        <time>2015-04-12T05:10:48.580Z</time>
      </trkpt>
      <trkpt lat="45.18453" lon="5.98616">
        <ele>2496.33000192</ele>
        <time>2015-04-12T05:11:00.590Z</time>
      </trkpt>
      <trkpt lat="45.18465" lon="5.98617">
        <ele>2503.53000192</ele>
        <time>2015-04-12T05:11:24.590Z</time>
      </trkpt>
      <trkpt lat="45.18473" lon="5.98603">
        <ele>2505.93000192</ele>
        <time>2015-04-12T05:11:32.590Z</time>
      </trkpt>
      <trkpt lat="45.18482" lon="5.98596">
        <ele>2508.32699904</ele>
        <time>2015-04-12T05:11:40.580Z</time>
      </trkpt>
      <trkpt lat="45.18485" lon="5.98581">
        <ele>2513.12699904</ele>
        <time>2015-04-12T05:11:56.580Z</time>
      </trkpt>
      <trkpt lat="45.18491" lon="5.98569">
        <ele>2515.5254721034</ele>
        <time>2015-04-12T05:12:04.580Z</time>
      </trkpt>
      <trkpt lat="45.18499" lon="5.9856">
        <ele>2518.4174162169</ele>
        <time>2015-04-12T05:12:16.580Z</time>
      </trkpt>
      <trkpt lat="45.1851" lon="5.98567">
        <ele>2527.01799936</ele>
        <time>2015-04-12T05:12:44.580Z</time>
      </trkpt>
      <trkpt lat="45.18519" lon="5.98556">
        <ele>2529.32699904</ele>
        <time>2015-04-12T05:13:00.580Z</time>
      </trkpt>
      <trkpt lat="45.18529" lon="5.9855">
        <ele>2535.33000192</ele>
        <time>2015-04-12T05:13:20.590Z</time>
      </trkpt>
      <trkpt lat="45.1854" lon="5.98546">
        <ele>2538</ele>
        <time>2015-04-12T05:13:36.590Z</time>
      </trkpt>
      <trkpt lat="45.18549" lon="5.98541">
        <ele>2539.52699904</ele>
        <time>2015-04-12T05:13:44.580Z</time>
      </trkpt>
      <trkpt lat="45.18558" lon="5.98532">
        <ele>2541.92699904</ele>
        <time>2015-04-12T05:13:52.580Z</time>
      </trkpt>
      <trkpt lat="45.18568" lon="5.98519">
        <ele>2545.01799936</ele>
        <time>2015-04-12T05:14:04.580Z</time>
      </trkpt>
      <trkpt lat="45.18577" lon="5.98514">
        <ele>2548.12699904</ele>
        <time>2015-04-12T05:14:16.580Z</time>
      </trkpt>
      <trkpt lat="45.18587" lon="5.98518">
        <ele>2550.52699904</ele>
        <time>2015-04-12T05:14:24.580Z</time>
      </trkpt>
      <trkpt lat="45.18597" lon="5.98521">
        <ele>2552.61799936</ele>
        <time>2015-04-12T05:14:32.580Z</time>
      </trkpt>
      <trkpt lat="45.18605" lon="5.98505">
        <ele>2557.63599872</ele>
        <time>2015-04-12T05:14:48.580Z</time>
      </trkpt>
      <trkpt lat="45.18615" lon="5.98511">
        <ele>2562.52699904</ele>
        <time>2015-04-12T05:15:04.580Z</time>
      </trkpt>
      <trkpt lat="45.18626" lon="5.9851">
        <ele>2566.32699904</ele>
        <time>2015-04-12T05:15:20.580Z</time>
      </trkpt>
      <trkpt lat="45.18634" lon="5.985">
        <ele>2574.03599872</ele>
        <time>2015-04-12T05:15:44.580Z</time>
      </trkpt>
      <trkpt lat="45.18648" lon="5.98507">
        <ele>2578.12699904</ele>
        <time>2015-04-12T05:15:56.580Z</time>
      </trkpt>
      <trkpt lat="45.18659" lon="5.98505">
        <ele>2580.01799936</ele>
        <time>2015-04-12T05:16:04.580Z</time>
      </trkpt>
      <trkpt lat="45.18671" lon="5.985">
        <ele>2581.30899968</ele>
        <time>2015-04-12T05:16:12.580Z</time>
      </trkpt>
      <trkpt lat="45.1868" lon="5.98507">
        <ele>2583.52699904</ele>
        <time>2015-04-12T05:16:24.580Z</time>
      </trkpt>
      <trkpt lat="45.1869" lon="5.98517">
        <ele>2587.32699904</ele>
        <time>2015-04-12T05:16:40.580Z</time>
      </trkpt>
      <trkpt lat="45.18702" lon="5.98519">
        <ele>2592.84000256</ele>
        <time>2015-04-12T05:16:56.590Z</time>
      </trkpt>
      <trkpt lat="45.1872" lon="5.98517">
        <ele>2595.58700288</ele>
        <time>2015-04-12T05:17:04.780Z</time>
      </trkpt>
      <trkpt lat="45.18733" lon="5.98521">
        <ele>2600.05800192</ele>
        <time>2015-04-12T05:17:24.780Z</time>
      </trkpt>
      <trkpt lat="45.1874" lon="5.98531">
        <ele>2603.18700288</ele>
        <time>2015-04-12T05:17:36.780Z</time>
      </trkpt>
      <trkpt lat="45.18742" lon="5.98545">
        <ele>2605.85800192</ele>
        <time>2015-04-12T05:17:48.780Z</time>
      </trkpt>
      <trkpt lat="45.18744" lon="5.98555">
        <ele>2609.38700288</ele>
        <time>2015-04-12T05:18:00.780Z</time>
      </trkpt>
      <trkpt lat="45.18745" lon="5.98566">
        <ele>2612.65800192</ele>
        <time>2015-04-12T05:18:12.780Z</time>
      </trkpt>
      <trkpt lat="45.18741" lon="5.98579">
        <ele>2614</ele>
        <time>2015-04-12T05:18:28.790Z</time>
      </trkpt>
      <trkpt lat="45.18746" lon="5.98585">
        <ele>2618.11600384</ele>
        <time>2015-04-12T05:19:04.780Z</time>
      </trkpt>
      <trkpt lat="45.18748" lon="5.98597">
        <ele>2624.25800192</ele>
        <time>2015-04-12T05:19:20.780Z</time>
      </trkpt>
      <trkpt lat="45.18751" lon="5.98605">
        <ele>2627.6450048</ele>
        <time>2015-04-12T05:19:32.780Z</time>
      </trkpt>
      <trkpt lat="45.18754" lon="5.98614">
        <ele>2633.98700288</ele>
        <time>2015-04-12T05:19:52.780Z</time>
      </trkpt>
      <trkpt lat="45.18757" lon="5.98622">
        <ele>2639.72000256</ele>
        <time>2015-04-12T05:20:08.790Z</time>
      </trkpt>
      <trkpt lat="45.18759" lon="5.98631">
        <ele>2644.99000192</ele>
        <time>2015-04-12T05:20:32.790Z</time>
      </trkpt>
      <trkpt lat="45.18767" lon="5.98639">
        <ele>2654.11600384</ele>
        <time>2015-04-12T05:21:04.780Z</time>
      </trkpt>
      <trkpt lat="45.18769" lon="5.98658">
        <ele>2659.90899968</ele>
        <time>2015-04-12T05:21:28.580Z</time>
      </trkpt>
      <trkpt lat="45.18778" lon="5.98667">
        <ele>2668.33000192</ele>
        <time>2015-04-12T05:22:00.590Z</time>
      </trkpt>
      <trkpt lat="45.18788" lon="5.98676">
        <ele>2676.72699904</ele>
        <time>2015-04-12T05:22:28.580Z</time>
      </trkpt>
      <trkpt lat="45.18789" lon="5.9869">
        <ele>2687.98700288</ele>
        <time>2015-04-12T05:23:12.780Z</time>
      </trkpt>
      <trkpt lat="45.18793" lon="5.98703">
        <ele>2693.5449984</ele>
        <time>2015-04-12T05:24:30.580Z</time>
      </trkpt>
      <trkpt lat="45.18797" lon="5.98718">
        <ele>2708.64000256</ele>
        <time>2015-04-12T05:25:18.590Z</time>
      </trkpt>
      <trkpt lat="45.18807" lon="5.98723">
        <ele>2716.50899968</ele>
        <time>2015-04-12T05:25:54.580Z</time>
      </trkpt>
      <trkpt lat="45.18799" lon="5.98736">
        <ele>2721.21799936</ele>
        <time>2015-04-12T05:26:10.580Z</time>
      </trkpt>
      <trkpt lat="45.1881" lon="5.98742">
        <ele>2727.81799936</ele>
        <time>2015-04-12T05:26:38.580Z</time>
      </trkpt>
      <trkpt lat="45.18811" lon="5.98757">
        <ele>2737.53000192</ele>
        <time>2015-04-12T05:27:14.590Z</time>
      </trkpt>
      <trkpt lat="45.18807" lon="5.98765">
        <ele>2750.38700288</ele>
        <time>2015-04-12T05:28:10.780Z</time>
      </trkpt>
      <trkpt lat="45.18807" lon="5.98773">
        <ele>2757.25800192</ele>
        <time>2015-04-12T05:28:30.780Z</time>
      </trkpt>
      <trkpt lat="45.18807" lon="5.98779">
        <ele>2760</ele>
        <time>2015-04-12T05:29:10.780Z</time>
      </trkpt>
      <trkpt lat="45.18811" lon="5.98782">
        <ele>2761.51600384</ele>
        <time>2015-04-12T05:29:30.780Z</time>
      </trkpt>
      <trkpt lat="45.18814" lon="5.98785">
        <ele>2766.45800192</ele>
        <time>2015-04-12T05:29:46.780Z</time>
      </trkpt>
      <trkpt lat="45.18816" lon="5.98789">
        <ele>2767</ele>
        <time>2015-04-12T05:30:18.780Z</time>
      </trkpt>
      <trkpt lat="45.1882" lon="5.98792">
        <ele>2767</ele>
        <time>2015-04-12T05:31:02.790Z</time>
      </trkpt>
      <trkpt lat="45.18823" lon="5.98796">
        <ele>2768.05800192</ele>
        <time>2015-04-12T05:31:14.780Z</time>
      </trkpt>
      <trkpt lat="45.18817" lon="5.98792">
        <ele>2768.54199808</ele>
        <time>2015-04-12T05:32:06.780Z</time>
      </trkpt>
      <trkpt lat="45.18812" lon="5.98784">
        <ele>2768.52900096</ele>
        <time>2015-04-12T05:32:14.780Z</time>
      </trkpt>
      <trkpt lat="45.18805" lon="5.98781">
        <ele>2768.01299712</ele>
        <time>2015-04-12T05:32:22.780Z</time>
      </trkpt>
      <trkpt lat="45.18804" lon="5.98772">
        <ele>2766.21999616</ele>
        <time>2015-04-12T05:32:50.790Z</time>
      </trkpt>
      <trkpt lat="45.18805" lon="5.98764">
        <ele>2761.41999616</ele>
        <time>2015-04-12T05:32:58.790Z</time>
      </trkpt>
      <trkpt lat="45.18809" lon="5.98756">
        <ele>2755.88999552</ele>
        <time>2015-04-12T05:33:06.790Z</time>
      </trkpt>
      <trkpt lat="45.18819" lon="5.9876">
        <ele>2753</ele>
        <time>2015-04-12T05:37:24.780Z</time>
      </trkpt>
      <trkpt lat="45.1883" lon="5.98764">
        <ele>2744.0449984</ele>
        <time>2015-04-12T05:38:21.400Z</time>
      </trkpt>
      <trkpt lat="45.1884" lon="5.9876">
        <ele>2728.59799808</ele>
        <time>2015-04-12T05:38:51.500Z</time>
      </trkpt>
      <trkpt lat="45.18854" lon="5.98761">
        <ele>2721.82600192</ele>
        <time>2015-04-12T05:39:19.780Z</time>
      </trkpt>
      <trkpt lat="45.18883" lon="5.98752">
        <ele>2699.98400512</ele>
        <time>2015-04-12T05:39:44.500Z</time>
      </trkpt>
      <trkpt lat="45.18906" lon="5.9876">
        <ele>2687.4850048</ele>
        <time>2015-04-12T05:39:52.500Z</time>
      </trkpt>
      <trkpt lat="45.18902" lon="5.98772">
        <ele>2674.78998912</ele>
        <time>2015-04-12T05:40:00.790Z</time>
      </trkpt>
      <trkpt lat="45.18907" lon="5.98793">
        <ele>2655.83997952</ele>
        <time>2015-04-12T05:40:40.790Z</time>
      </trkpt>
      <trkpt lat="45.18956" lon="5.98813">
        <ele>2630.27196928</ele>
        <time>2015-04-12T05:40:48.780Z</time>
      </trkpt>
      <trkpt lat="45.18998" lon="5.98824">
        <ele>2606.85897216</ele>
        <time>2015-04-12T05:40:56.780Z</time>
      </trkpt>
      <trkpt lat="45.19033" lon="5.98822">
        <ele>2581.01396736</ele>
        <time>2015-04-12T05:41:04.780Z</time>
      </trkpt>
      <trkpt lat="45.19074" lon="5.98796">
        <ele>2556.774976</ele>
        <time>2015-04-12T05:41:12.780Z</time>
      </trkpt>
      <trkpt lat="45.19109" lon="5.98806">
        <ele>2527.30397696</ele>
        <time>2015-04-12T05:41:24.780Z</time>
      </trkpt>
      <trkpt lat="45.19135" lon="5.98845">
        <ele>2506.78797312</ele>
        <time>2015-04-12T05:41:32.780Z</time>
      </trkpt>
      <trkpt lat="45.19173" lon="5.98882">
        <ele>2486.82099712</ele>
        <time>2015-04-12T05:41:40.800Z</time>
      </trkpt>
      <trkpt lat="45.19236" lon="5.98942">
        <ele>2479.62999424</ele>
        <time>2015-04-12T05:41:48.790Z</time>
      </trkpt>
      <trkpt lat="45.193" lon="5.98935">
        <ele>2470.96999296</ele>
        <time>2015-04-12T05:41:56.790Z</time>
      </trkpt>
      <trkpt lat="45.19349" lon="5.98924">
        <ele>2465.87999744</ele>
        <time>2015-04-12T05:42:04.790Z</time>
      </trkpt>
      <trkpt lat="45.19418" lon="5.98925">
        <ele>2461.35999488</ele>
        <time>2015-04-12T05:42:12.790Z</time>
      </trkpt>
      <trkpt lat="45.1945" lon="5.98902">
        <ele>2444.11697408</ele>
        <time>2015-04-12T05:42:32.780Z</time>
      </trkpt>
      <trkpt lat="45.19461" lon="5.98891">
        <ele>2424.45198848</ele>
        <time>2015-04-12T05:42:40.780Z</time>
      </trkpt>
      <trkpt lat="45.19499" lon="5.98879">
        <ele>2414.85198848</ele>
        <time>2015-04-12T05:42:48.780Z</time>
      </trkpt>
      <trkpt lat="45.19543" lon="5.98874">
        <ele>2410.61299712</ele>
        <time>2015-04-12T05:43:00.780Z</time>
      </trkpt>
      <trkpt lat="45.19568" lon="5.9888">
        <ele>2408.21299712</ele>
        <time>2015-04-12T05:43:08.780Z</time>
      </trkpt>
      <trkpt lat="45.19599" lon="5.9887">
        <ele>2405.81299712</ele>
        <time>2015-04-12T05:43:16.780Z</time>
      </trkpt>
      <trkpt lat="45.19631" lon="5.98844">
        <ele>2403.41299712</ele>
        <time>2015-04-12T05:43:24.780Z</time>
      </trkpt>
      <trkpt lat="45.19644" lon="5.98839">
        <ele>2402</ele>
        <time>2015-04-12T05:43:36.790Z</time>
      </trkpt>
      <trkpt lat="45.19655" lon="5.98849">
        <ele>2404.97400576</ele>
        <time>2015-04-12T05:44:12.780Z</time>
      </trkpt>
      <trkpt lat="45.19666" lon="5.98865">
        <ele>2417.78700288</ele>
        <time>2015-04-12T05:44:48.780Z</time>
      </trkpt>
      <trkpt lat="45.1968" lon="5.98863">
        <ele>2420.39000192</ele>
        <time>2015-04-12T05:45:00.790Z</time>
      </trkpt>
      <trkpt lat="45.19699" lon="5.98859">
        <ele>2425</ele>
        <time>2015-04-12T05:45:44.780Z</time>
      </trkpt>
      <trkpt lat="45.19722" lon="5.98901">
        <ele>2421.7099904</ele>
        <time>2015-04-12T05:45:52.780Z</time>
      </trkpt>
      <trkpt lat="45.19769" lon="5.99019">
        <ele>2412.29097984</ele>
        <time>2015-04-12T05:46:00.780Z</time>
      </trkpt>
      <trkpt lat="45.1979" lon="5.9912">
        <ele>2395.49097984</ele>
        <time>2015-04-12T05:46:08.780Z</time>
      </trkpt>
      <trkpt lat="45.19806" lon="5.99172">
        <ele>2389.68599808</ele>
        <time>2015-04-12T05:46:16.680Z</time>
      </trkpt>
      <trkpt lat="45.19814" lon="5.9922">
        <ele>2386.68299904</ele>
        <time>2015-04-12T05:46:23.880Z</time>
      </trkpt>
      <trkpt lat="45.19826" lon="5.99278">
        <ele>2383.79399424</ele>
        <time>2015-04-12T05:46:31.500Z</time>
      </trkpt>
      <trkpt lat="45.19839" lon="5.99361">
        <ele>2378.04301056</ele>
        <time>2015-04-12T05:46:39.780Z</time>
      </trkpt>
      <trkpt lat="45.19868" lon="5.9944">
        <ele>2354.94296832</ele>
        <time>2015-04-12T05:46:46.780Z</time>
      </trkpt>
      <trkpt lat="45.19876" lon="5.99464">
        <ele>2346.67099904</ele>
        <time>2015-04-12T05:47:22.780Z</time>
      </trkpt>
      <trkpt lat="45.19864" lon="5.99465">
        <ele>2346</ele>
        <time>2015-04-12T05:47:38.680Z</time>
      </trkpt>
      <trkpt lat="45.1987" lon="5.99483">
        <ele>2346</ele>
        <time>2015-04-12T05:47:58.690Z</time>
      </trkpt>
      <trkpt lat="45.19882" lon="5.99489">
        <ele>2346</ele>
        <time>2015-04-12T05:48:22.780Z</time>
      </trkpt>
      <trkpt lat="45.19893" lon="5.99491">
        <ele>2346.24</ele>
        <time>2015-04-12T05:48:30.690Z</time>
      </trkpt>
      <trkpt lat="45.19906" lon="5.99499">
        <ele>2348</ele>
        <time>2015-04-12T05:48:42.680Z</time>
      </trkpt>
      <trkpt lat="45.19904" lon="5.9952">
        <ele>2348.35700096</ele>
        <time>2015-04-12T05:48:50.680Z</time>
      </trkpt>
      <trkpt lat="45.1991" lon="5.99535">
        <ele>2351</ele>
        <time>2015-04-12T05:49:02.680Z</time>
      </trkpt>
      <trkpt lat="45.19924" lon="5.99545">
        <ele>2356.32000256</ele>
        <time>2015-04-12T05:49:22.790Z</time>
      </trkpt>
      <trkpt lat="45.19927" lon="5.99562">
        <ele>2359.38700288</ele>
        <time>2015-04-12T05:49:30.780Z</time>
      </trkpt>
      <trkpt lat="45.19933" lon="5.99573">
        <ele>2361.75700096</ele>
        <time>2015-04-12T05:49:38.680Z</time>
      </trkpt>
      <trkpt lat="45.19945" lon="5.99577">
        <ele>2365.5950016</ele>
        <time>2015-04-12T05:49:50.680Z</time>
      </trkpt>
      <trkpt lat="45.1996" lon="5.99571">
        <ele>2370.31900032</ele>
        <time>2015-04-12T05:50:02.680Z</time>
      </trkpt>
      <trkpt lat="45.19965" lon="5.99584">
        <ele>2372.56</ele>
        <time>2015-04-12T05:50:14.690Z</time>
      </trkpt>
      <trkpt lat="45.19972" lon="5.99598">
        <ele>2374.96</ele>
        <time>2015-04-12T05:50:22.690Z</time>
      </trkpt>
      <trkpt lat="45.19982" lon="5.99603">
        <ele>2377.36</ele>
        <time>2015-04-12T05:50:30.690Z</time>
      </trkpt>
      <trkpt lat="45.19994" lon="5.99609">
        <ele>2380.71900032</ele>
        <time>2015-04-12T05:50:46.680Z</time>
      </trkpt>
      <trkpt lat="45.1999" lon="5.99623">
        <ele>2385.5950016</ele>
        <time>2015-04-12T05:50:58.680Z</time>
      </trkpt>
      <trkpt lat="45.20003" lon="5.99634">
        <ele>2389.35700096</ele>
        <time>2015-04-12T05:51:10.680Z</time>
      </trkpt>
      <trkpt lat="45.20012" lon="5.99639">
        <ele>2393.27600128</ele>
        <time>2015-04-12T05:51:22.680Z</time>
      </trkpt>
      <trkpt lat="45.20018" lon="5.99654">
        <ele>2398.76</ele>
        <time>2015-04-12T05:51:38.690Z</time>
      </trkpt>
      <trkpt lat="45.20018" lon="5.99668">
        <ele>2405.01700096</ele>
        <time>2015-04-12T05:52:02.880Z</time>
      </trkpt>
      <trkpt lat="45.20032" lon="5.99669">
        <ele>2409.5950016</ele>
        <time>2015-04-12T05:52:14.680Z</time>
      </trkpt>
      <trkpt lat="45.20041" lon="5.99682">
        <ele>2414.1548440473</ele>
        <time>2015-04-12T05:52:26.680Z</time>
      </trkpt>
      <trkpt lat="45.20043" lon="5.99697">
        <ele>2416.8378383226</ele>
        <time>2015-04-12T05:52:38.680Z</time>
      </trkpt>
      <trkpt lat="45.20053" lon="5.99718">
        <ele>2420</ele>
        <time>2015-04-12T05:52:50.680Z</time>
      </trkpt>
      <trkpt lat="45.20064" lon="5.99728">
        <ele>2420</ele>
        <time>2015-04-12T05:52:58.690Z</time>
      </trkpt>
      <trkpt lat="45.20073" lon="5.99739">
        <ele>2423.6</ele>
        <time>2015-04-12T05:53:06.690Z</time>
      </trkpt>
      <trkpt lat="45.20081" lon="5.99752">
        <ele>2426.56</ele>
        <time>2015-04-12T05:53:14.690Z</time>
      </trkpt>
      <trkpt lat="45.20091" lon="5.99765">
        <ele>2430.15700096</ele>
        <time>2015-04-12T05:53:26.680Z</time>
      </trkpt>
      <trkpt lat="45.20096" lon="5.99779">
        <ele>2434.27600128</ele>
        <time>2015-04-12T05:53:37.680Z</time>
      </trkpt>
      <trkpt lat="45.20103" lon="5.99792">
        <ele>2436.85700096</ele>
        <time>2015-04-12T05:53:45.680Z</time>
      </trkpt>
      <trkpt lat="45.2011" lon="5.9981">
        <ele>2442.65700096</ele>
        <time>2015-04-12T05:54:01.680Z</time>
      </trkpt>
      <trkpt lat="45.20115" lon="5.99823">
        <ele>2445.07600128</ele>
        <time>2015-04-12T05:54:09.680Z</time>
      </trkpt>
      <trkpt lat="45.20116" lon="5.99842">
        <ele>2450.23800064</ele>
        <time>2015-04-12T05:54:25.680Z</time>
      </trkpt>
      <trkpt lat="45.2012" lon="5.99856">
        <ele>2452.25700096</ele>
        <time>2015-04-12T05:54:33.680Z</time>
      </trkpt>
      <trkpt lat="45.20117" lon="5.99873">
        <ele>2455.86</ele>
        <time>2015-04-12T05:54:45.690Z</time>
      </trkpt>
      <trkpt lat="45.20124" lon="5.99889">
        <ele>2460.65700096</ele>
        <time>2015-04-12T05:55:01.680Z</time>
      </trkpt>
      <trkpt lat="45.20126" lon="5.99908">
        <ele>2463.83800064</ele>
        <time>2015-04-12T05:55:13.680Z</time>
      </trkpt>
      <trkpt lat="45.20137" lon="5.99924">
        <ele>2465.65700096</ele>
        <time>2015-04-12T05:55:21.680Z</time>
      </trkpt>
      <trkpt lat="45.20142" lon="5.99937">
        <ele>2471.27600128</ele>
        <time>2015-04-12T05:55:37.680Z</time>
      </trkpt>
      <trkpt lat="45.20152" lon="5.99939">
        <ele>2473</ele>
        <time>2015-04-12T05:56:19.680Z</time>
      </trkpt>
      <trkpt lat="45.20129" lon="5.99935">
        <ele>2473</ele>
        <time>2015-04-12T05:57:23.680Z</time>
      </trkpt>
      <trkpt lat="45.2014" lon="5.99941">
        <ele>2473</ele>
        <time>2015-04-12T05:57:47.680Z</time>
      </trkpt>
      <trkpt lat="45.2013" lon="5.9993">
        <ele>2474</ele>
        <time>2015-04-12T05:58:47.680Z</time>
      </trkpt>
      <trkpt lat="45.20142" lon="5.99933">
        <ele>2473</ele>
        <time>2015-04-12T05:58:59.680Z</time>
      </trkpt>
      <trkpt lat="45.20145" lon="5.9995">
        <ele>2473</ele>
        <time>2015-04-12T05:59:21.680Z</time>
      </trkpt>
      <trkpt lat="45.20177" lon="5.99995">
        <ele>2472.44899072</ele>
        <time>2015-04-12T05:59:29.680Z</time>
      </trkpt>
      <trkpt lat="45.202" lon="6.00064">
        <ele>2449.24899072</ele>
        <time>2015-04-12T05:59:37.680Z</time>
      </trkpt>
      <trkpt lat="45.2025" lon="6.00115">
        <ele>2419.85898752</ele>
        <time>2015-04-12T05:59:45.680Z</time>
      </trkpt>
      <trkpt lat="45.2026" lon="6.00196">
        <ele>2383.4399872</ele>
        <time>2015-04-12T05:59:54.880Z</time>
      </trkpt>
      <trkpt lat="45.20238" lon="6.00299">
        <ele>2355.656</ele>
        <time>2015-04-12T06:00:02.410Z</time>
      </trkpt>
      <trkpt lat="45.20249" lon="6.00375">
        <ele>2329.31099008</ele>
        <time>2015-04-12T06:00:10.680Z</time>
      </trkpt>
      <trkpt lat="45.20273" lon="6.00465">
        <ele>2304.51099008</ele>
        <time>2015-04-12T06:00:18.680Z</time>
      </trkpt>
      <trkpt lat="45.20282" lon="6.00553">
        <ele>2272.9200978988</ele>
        <time>2015-04-12T06:00:28.880Z</time>
      </trkpt>
      <trkpt lat="45.20327" lon="6.00656">
        <ele>2248.2072064454</ele>
        <time>2015-04-12T06:00:36.400Z</time>
      </trkpt>
      <trkpt lat="45.20323" lon="6.00742">
        <ele>2221.30598912</ele>
        <time>2015-04-12T06:00:44.400Z</time>
      </trkpt>
      <trkpt lat="45.20338" lon="6.00847">
        <ele>2192.24</ele>
        <time>2015-04-12T06:00:53.410Z</time>
      </trkpt>
      <trkpt lat="45.20412" lon="6.00908">
        <ele>2167.21099008</ele>
        <time>2015-04-12T06:01:01.680Z</time>
      </trkpt>
      <trkpt lat="45.20454" lon="6.01051">
        <ele>2142.67699456</ele>
        <time>2015-04-12T06:01:09.680Z</time>
      </trkpt>
      <trkpt lat="45.20457" lon="6.0116">
        <ele>2129.07699456</ele>
        <time>2015-04-12T06:01:17.680Z</time>
      </trkpt>
      <trkpt lat="45.20496" lon="6.01273">
        <ele>2116.09599488</ele>
        <time>2015-04-12T06:01:25.680Z</time>
      </trkpt>
      <trkpt lat="45.20525" lon="6.01409">
        <ele>2087.4865274055</ele>
        <time>2015-04-12T06:01:38.880Z</time>
      </trkpt>
      <trkpt lat="45.20608" lon="6.01413">
        <ele>2074.9329376733</ele>
        <time>2015-04-12T06:01:46.410Z</time>
      </trkpt>
      <trkpt lat="45.20669" lon="6.01484">
        <ele>2067.4049984</ele>
        <time>2015-04-12T06:01:54.680Z</time>
      </trkpt>
      <trkpt lat="45.20661" lon="6.01553">
        <ele>2064.68099968</ele>
        <time>2015-04-12T06:02:02.680Z</time>
      </trkpt>
      <trkpt lat="45.20632" lon="6.0158">
        <ele>2064</ele>
        <time>2015-04-12T06:02:10.680Z</time>
      </trkpt>
      <trkpt lat="45.20624" lon="6.01623">
        <ele>2064</ele>
        <time>2015-04-12T06:02:18.680Z</time>
      </trkpt>
      <trkpt lat="45.20606" lon="6.01651">
        <ele>2064.71900032</ele>
        <time>2015-04-12T06:02:26.680Z</time>
      </trkpt>
      <trkpt lat="45.20611" lon="6.01676">
        <ele>2066.03800064</ele>
        <time>2015-04-12T06:02:34.680Z</time>
      </trkpt>
      <trkpt lat="45.20616" lon="6.01718">
        <ele>2067</ele>
        <time>2015-04-12T06:02:42.680Z</time>
      </trkpt>
      <trkpt lat="45.20623" lon="6.01757">
        <ele>2067</ele>
        <time>2015-04-12T06:02:50.680Z</time>
      </trkpt>
      <trkpt lat="45.20621" lon="6.01798">
        <ele>2067</ele>
        <time>2015-04-12T06:02:58.680Z</time>
      </trkpt>
      <trkpt lat="45.20632" lon="6.0185">
        <ele>2063.4049984</ele>
        <time>2015-04-12T06:03:06.680Z</time>
      </trkpt>
      <trkpt lat="45.20666" lon="6.0189">
        <ele>2057.32899712</ele>
        <time>2015-04-12T06:03:14.680Z</time>
      </trkpt>
      <trkpt lat="45.20701" lon="6.01914">
        <ele>2048.848</ele>
        <time>2015-04-12T06:03:26.410Z</time>
      </trkpt>
      <trkpt lat="45.20728" lon="6.01979">
        <ele>2044.3049984</ele>
        <time>2015-04-12T06:03:34.880Z</time>
      </trkpt>
      <trkpt lat="45.20772" lon="6.02021">
        <ele>2039.44799744</ele>
        <time>2015-04-12T06:03:42.680Z</time>
      </trkpt>
      <trkpt lat="45.20821" lon="6.02014">
        <ele>2033.16699776</ele>
        <time>2015-04-12T06:03:50.680Z</time>
      </trkpt>
      <trkpt lat="45.20864" lon="6.01993">
        <ele>2027.56699776</ele>
        <time>2015-04-12T06:03:58.680Z</time>
      </trkpt>
      <trkpt lat="45.2091" lon="6.01994">
        <ele>2024.12399872</ele>
        <time>2015-04-12T06:04:06.680Z</time>
      </trkpt>
      <trkpt lat="45.20975" lon="6.02005">
        <ele>2019.88599808</ele>
        <time>2015-04-12T06:04:14.680Z</time>
      </trkpt>
      <trkpt lat="45.21037" lon="6.02065">
        <ele>2012.25399552</ele>
        <time>2015-04-12T06:04:22.880Z</time>
      </trkpt>
      <trkpt lat="45.211" lon="6.0221">
        <ele>1997.7099904</ele>
        <time>2015-04-12T06:04:34.780Z</time>
      </trkpt>
      <trkpt lat="45.21115" lon="6.02311">
        <ele>1991.5449984</ele>
        <time>2015-04-12T06:04:42.400Z</time>
      </trkpt>
      <trkpt lat="45.2113" lon="6.02386">
        <ele>1987.02699776</ele>
        <time>2015-04-12T06:04:50.880Z</time>
      </trkpt>
      <trkpt lat="45.21156" lon="6.02458">
        <ele>1981.56699776</ele>
        <time>2015-04-12T06:04:58.680Z</time>
      </trkpt>
      <trkpt lat="45.21163" lon="6.02543">
        <ele>1983.88</ele>
        <time>2015-04-12T06:05:06.690Z</time>
      </trkpt>
      <trkpt lat="45.21158" lon="6.02598">
        <ele>1980.84</ele>
        <time>2015-04-12T06:05:14.690Z</time>
      </trkpt>
      <trkpt lat="45.21161" lon="6.02644">
        <ele>1976.68</ele>
        <time>2015-04-12T06:05:22.690Z</time>
      </trkpt>
      <trkpt lat="45.21177" lon="6.02689">
        <ele>1975.64</ele>
        <time>2015-04-12T06:05:30.690Z</time>
      </trkpt>
      <trkpt lat="45.21207" lon="6.02739">
        <ele>1973.24</ele>
        <time>2015-04-12T06:05:38.690Z</time>
      </trkpt>
      <trkpt lat="45.21236" lon="6.02767">
        <ele>1973</ele>
        <time>2015-04-12T06:05:46.690Z</time>
      </trkpt>
      <trkpt lat="45.21269" lon="6.02789">
        <ele>1971.44</ele>
        <time>2015-04-12T06:05:54.690Z</time>
      </trkpt>
      <trkpt lat="45.21337" lon="6.02819">
        <ele>1967.52399872</ele>
        <time>2015-04-12T06:06:05.680Z</time>
      </trkpt>
      <trkpt lat="45.21377" lon="6.02847">
        <ele>1963.53399808</ele>
        <time>2015-04-12T06:06:13.600Z</time>
      </trkpt>
      <trkpt lat="45.21405" lon="6.02878">
        <ele>1961.27800064</ele>
        <time>2015-04-12T06:06:25.880Z</time>
      </trkpt>
      <trkpt lat="45.21417" lon="6.02891">
        <ele>1961.18099968</ele>
        <time>2015-04-12T06:06:37.680Z</time>
      </trkpt>
      <trkpt lat="45.21428" lon="6.02889">
        <ele>1961.81900032</ele>
        <time>2015-04-12T06:06:57.680Z</time>
      </trkpt>
      <trkpt lat="45.21437" lon="6.02897">
        <ele>1966.16400128</ele>
        <time>2015-04-12T06:07:12.400Z</time>
      </trkpt>
      <trkpt lat="45.21449" lon="6.02901">
        <ele>1974.15700096</ele>
        <time>2015-04-12T06:07:36.680Z</time>
      </trkpt>
      <trkpt lat="45.21462" lon="6.02912">
        <ele>1975.91900032</ele>
        <time>2015-04-12T06:07:48.680Z</time>
      </trkpt>
      <trkpt lat="45.21472" lon="6.02909">
        <ele>1981.95700096</ele>
        <time>2015-04-12T06:08:12.680Z</time>
      </trkpt>
      <trkpt lat="45.21481" lon="6.02904">
        <ele>1984</ele>
        <time>2015-04-12T06:08:24.680Z</time>
      </trkpt>
      <trkpt lat="45.21493" lon="6.02915">
        <ele>1985.83800064</ele>
        <time>2015-04-12T06:08:48.680Z</time>
      </trkpt>
      <trkpt lat="45.21509" lon="6.02931">
        <ele>1986.71900032</ele>
        <time>2015-04-12T06:08:56.680Z</time>
      </trkpt>
      <trkpt lat="45.2153" lon="6.02934">
        <ele>1983.88599808</ele>
        <time>2015-04-12T06:09:04.680Z</time>
      </trkpt>
      <trkpt lat="45.21578" lon="6.02961">
        <ele>1969.19698816</ele>
        <time>2015-04-12T06:09:12.680Z</time>
      </trkpt>
      <trkpt lat="45.21662" lon="6.03004">
        <ele>1944.5950016</ele>
        <time>2015-04-12T06:09:20.680Z</time>
      </trkpt>
      <trkpt lat="45.21669" lon="6.0301">
        <ele>1949.32</ele>
        <time>2015-04-12T06:09:32.690Z</time>
      </trkpt>
      <trkpt lat="45.21681" lon="6.03022">
        <ele>1949.7917915917</ele>
        <time>2015-04-12T06:09:57.410Z</time>
      </trkpt>
      <trkpt lat="45.21692" lon="6.03022">
        <ele>1951.23800064</ele>
        <time>2015-04-12T06:10:05.680Z</time>
      </trkpt>
      <trkpt lat="45.21702" lon="6.03031">
        <ele>1952.87600128</ele>
        <time>2015-04-12T06:10:21.680Z</time>
      </trkpt>
      <trkpt lat="45.21709" lon="6.03044">
        <ele>1956.41900032</ele>
        <time>2015-04-12T06:10:33.680Z</time>
      </trkpt>
      <trkpt lat="45.21723" lon="6.03046">
        <ele>1957.61900032</ele>
        <time>2015-04-12T06:10:45.680Z</time>
      </trkpt>
      <trkpt lat="45.21731" lon="6.03073">
        <ele>1961.68</ele>
        <time>2015-04-12T06:11:13.690Z</time>
      </trkpt>
      <trkpt lat="45.21729" lon="6.03087">
        <ele>1966.02</ele>
        <time>2015-04-12T06:11:29.690Z</time>
      </trkpt>
      <trkpt lat="45.21735" lon="6.031">
        <ele>1969.87600128</ele>
        <time>2015-04-12T06:12:21.680Z</time>
      </trkpt>
      <trkpt lat="45.21744" lon="6.03107">
        <ele>1973.81900032</ele>
        <time>2015-04-12T06:12:37.680Z</time>
      </trkpt>
      <trkpt lat="45.21759" lon="6.03121">
        <ele>1975.67600128</ele>
        <time>2015-04-12T06:12:53.680Z</time>
      </trkpt>
      <trkpt lat="45.21768" lon="6.03125">
        <ele>1978.65700096</ele>
        <time>2015-04-12T06:13:01.680Z</time>
      </trkpt>
      <trkpt lat="45.21778" lon="6.03138">
        <ele>1981.05700096</ele>
        <time>2015-04-12T06:13:09.680Z</time>
      </trkpt>
      <trkpt lat="45.2178" lon="6.03156">
        <ele>1989.63800064</ele>
        <time>2015-04-12T06:13:37.680Z</time>
      </trkpt>
      <trkpt lat="45.21785" lon="6.03171">
        <ele>1991</ele>
        <time>2015-04-12T06:13:49.690Z</time>
      </trkpt>
      <trkpt lat="45.2179" lon="6.03191">
        <ele>1991</ele>
        <time>2015-04-12T06:13:57.690Z</time>
      </trkpt>
      <trkpt lat="45.21793" lon="6.0321">
        <ele>1992.24</ele>
        <time>2015-04-12T06:14:05.690Z</time>
      </trkpt>
      <trkpt lat="45.21796" lon="6.03231">
        <ele>1996.22</ele>
        <time>2015-04-12T06:14:21.690Z</time>
      </trkpt>
      <trkpt lat="45.21798" lon="6.03246">
        <ele>1998.25700096</ele>
        <time>2015-04-12T06:14:33.680Z</time>
      </trkpt>
      <trkpt lat="45.218" lon="6.03262">
        <ele>2000.61900032</ele>
        <time>2015-04-12T06:14:45.680Z</time>
      </trkpt>
      <trkpt lat="45.21806" lon="6.03278">
        <ele>2001.83800064</ele>
        <time>2015-04-12T06:14:53.680Z</time>
      </trkpt>
      <trkpt lat="45.21815" lon="6.03286">
        <ele>2003.65700096</ele>
        <time>2015-04-12T06:15:01.680Z</time>
      </trkpt>
      <trkpt lat="45.21824" lon="6.033">
        <ele>2007.63800064</ele>
        <time>2015-04-12T06:15:17.680Z</time>
      </trkpt>
      <trkpt lat="45.21817" lon="6.03284">
        <ele>2007</ele>
        <time>2015-04-12T06:15:33.680Z</time>
      </trkpt>
      <trkpt lat="45.21823" lon="6.03299">
        <ele>2007.21900032</ele>
        <time>2015-04-12T06:15:41.680Z</time>
      </trkpt>
      <trkpt lat="45.21866" lon="6.03364">
        <ele>2007.75299584</ele>
        <time>2015-04-12T06:15:49.680Z</time>
      </trkpt>
      <trkpt lat="45.21925" lon="6.03414">
        <ele>1997.35299584</ele>
        <time>2015-04-12T06:15:57.680Z</time>
      </trkpt>
      <trkpt lat="45.21987" lon="6.03444">
        <ele>1974.48796928</ele>
        <time>2015-04-12T06:16:05.900Z</time>
      </trkpt>
      <trkpt lat="45.22071" lon="6.03462">
        <ele>1956.7149952</ele>
        <time>2015-04-12T06:16:13.680Z</time>
      </trkpt>
      <trkpt lat="45.22144" lon="6.03486">
        <ele>1947.12399872</ele>
        <time>2015-04-12T06:16:21.680Z</time>
      </trkpt>
      <trkpt lat="45.22182" lon="6.03504">
        <ele>1943.96199936</ele>
        <time>2015-04-12T06:16:29.680Z</time>
      </trkpt>
      <trkpt lat="45.22226" lon="6.03529">
        <ele>1942.52199936</ele>
        <time>2015-04-12T06:16:36.880Z</time>
      </trkpt>
      <trkpt lat="45.22235" lon="6.03537">
        <ele>1942</ele>
        <time>2015-04-12T06:16:44.130Z</time>
      </trkpt>
      <trkpt lat="45.22266" lon="6.03546">
        <ele>1941.04</ele>
        <time>2015-04-12T06:16:52.690Z</time>
      </trkpt>
      <trkpt lat="45.22284" lon="6.03558">
        <ele>1938.28</ele>
        <time>2015-04-12T06:17:00.690Z</time>
      </trkpt>
      <trkpt lat="45.22319" lon="6.03571">
        <ele>1933.48</ele>
        <time>2015-04-12T06:17:08.690Z</time>
      </trkpt>
      <trkpt lat="45.22334" lon="6.03599">
        <ele>1932.288</ele>
        <time>2015-04-12T06:17:36.610Z</time>
      </trkpt>
      <trkpt lat="45.22356" lon="6.03667">
        <ele>1920.192</ele>
        <time>2015-04-12T06:17:44.410Z</time>
      </trkpt>
      <trkpt lat="45.22393" lon="6.03697">
        <ele>1907.28</ele>
        <time>2015-04-12T06:17:56.690Z</time>
      </trkpt>
      <trkpt lat="45.2238" lon="6.03714">
        <ele>1906.36199936</ele>
        <time>2015-04-12T06:18:12.680Z</time>
      </trkpt>
      <trkpt lat="45.22395" lon="6.03751">
        <ele>1904.4049984</ele>
        <time>2015-04-12T06:18:20.680Z</time>
      </trkpt>
      <trkpt lat="45.22405" lon="6.03765">
        <ele>1900</ele>
        <time>2015-04-12T06:18:36.680Z</time>
      </trkpt>
      <trkpt lat="45.22421" lon="6.03782">
        <ele>1898.96199936</ele>
        <time>2015-04-12T06:18:44.680Z</time>
      </trkpt>
      <trkpt lat="45.22435" lon="6.038">
        <ele>1897.28099968</ele>
        <time>2015-04-12T06:18:56.680Z</time>
      </trkpt>
      <trkpt lat="45.2244" lon="6.03814">
        <ele>1895.96199936</ele>
        <time>2015-04-12T06:19:04.680Z</time>
      </trkpt>
      <trkpt lat="45.22448" lon="6.03831">
        <ele>1895</ele>
        <time>2015-04-12T06:19:12.680Z</time>
      </trkpt>
      <trkpt lat="45.22462" lon="6.0386">
        <ele>1893.96199936</ele>
        <time>2015-04-12T06:19:24.680Z</time>
      </trkpt>
      <trkpt lat="45.22452" lon="6.03855">
        <ele>1891</ele>
        <time>2015-04-12T06:20:06.680Z</time>
      </trkpt>
      <trkpt lat="45.22461" lon="6.0386">
        <ele>1891.47099904</ele>
        <time>2015-04-12T06:22:04.780Z</time>
      </trkpt>
      <trkpt lat="45.22469" lon="6.03853">
        <ele>1896.17400576</ele>
        <time>2015-04-12T06:22:24.780Z</time>
      </trkpt>
      <trkpt lat="45.2247" lon="6.03841">
        <ele>1901</ele>
        <time>2015-04-12T06:22:44.780Z</time>
      </trkpt>
      <trkpt lat="45.22483" lon="6.0384">
        <ele>1909.31600384</ele>
        <time>2015-04-12T06:23:12.780Z</time>
      </trkpt>
      <trkpt lat="45.22495" lon="6.03846">
        <ele>1912.53000064</ele>
        <time>2015-04-12T06:23:24.790Z</time>
      </trkpt>
      <trkpt lat="45.22503" lon="6.03858">
        <ele>1913.6593413057</ele>
        <time>2015-04-12T06:23:32.790Z</time>
      </trkpt>
      <trkpt lat="45.22514" lon="6.0387">
        <ele>1916.0570580728</ele>
        <time>2015-04-12T06:23:44.780Z</time>
      </trkpt>
      <trkpt lat="45.22518" lon="6.03883">
        <ele>1917.65800192</ele>
        <time>2015-04-12T06:23:52.780Z</time>
      </trkpt>
      <trkpt lat="45.22522" lon="6.03892">
        <ele>1919.38700288</ele>
        <time>2015-04-12T06:24:00.780Z</time>
      </trkpt>
      <trkpt lat="45.22523" lon="6.03883">
        <ele>1922</ele>
        <time>2015-04-12T06:24:16.780Z</time>
      </trkpt>
      <trkpt lat="45.22535" lon="6.03883">
        <ele>1926</ele>
        <time>2015-04-12T06:25:18.610Z</time>
      </trkpt>
      <trkpt lat="45.22525" lon="6.03883">
        <ele>1925</ele>
        <time>2015-04-12T06:25:41.410Z</time>
      </trkpt>
      <trkpt lat="45.22537" lon="6.03887">
        <ele>1925.108</ele>
        <time>2015-04-12T06:26:18.410Z</time>
      </trkpt>
      <trkpt lat="45.22529" lon="6.03878">
        <ele>1926.64</ele>
        <time>2015-04-12T06:26:42.690Z</time>
      </trkpt>
      <trkpt lat="45.22538" lon="6.03882">
        <ele>1929.84</ele>
        <time>2015-04-12T06:26:58.690Z</time>
      </trkpt>
      <trkpt lat="45.22548" lon="6.03888">
        <ele>1939.67600128</ele>
        <time>2015-04-12T06:27:18.680Z</time>
      </trkpt>
      <trkpt lat="45.22558" lon="6.03888">
        <ele>1942.83800064</ele>
        <time>2015-04-12T06:27:38.680Z</time>
      </trkpt>
      <trkpt lat="45.22567" lon="6.03896">
        <ele>1949.03800064</ele>
        <time>2015-04-12T06:27:54.680Z</time>
      </trkpt>
      <trkpt lat="45.22574" lon="6.03909">
        <ele>1950.95700096</ele>
        <time>2015-04-12T06:28:02.680Z</time>
      </trkpt>
      <trkpt lat="45.22587" lon="6.03916">
        <ele>1954.56</ele>
        <time>2015-04-12T06:28:14.690Z</time>
      </trkpt>
      <trkpt lat="45.22597" lon="6.03907">
        <ele>1965</ele>
        <time>2015-04-12T06:28:58.680Z</time>
      </trkpt>
      <trkpt lat="45.22609" lon="6.03918">
        <ele>1969.47600128</ele>
        <time>2015-04-12T06:29:10.680Z</time>
      </trkpt>
      <trkpt lat="45.22617" lon="6.03907">
        <ele>1982.15700096</ele>
        <time>2015-04-12T06:29:46.680Z</time>
      </trkpt>
      <trkpt lat="45.22623" lon="6.03918">
        <ele>1986.67600128</ele>
        <time>2015-04-12T06:29:58.680Z</time>
      </trkpt>
      <trkpt lat="45.22634" lon="6.03922">
        <ele>1992.76</ele>
        <time>2015-04-12T06:30:18.690Z</time>
      </trkpt>
      <trkpt lat="45.22647" lon="6.03913">
        <ele>1995.23800064</ele>
        <time>2015-04-12T06:30:30.680Z</time>
      </trkpt>
      <trkpt lat="45.22655" lon="6.03905">
        <ele>1997.96</ele>
        <time>2015-04-12T06:30:42.690Z</time>
      </trkpt>
      <trkpt lat="45.22668" lon="6.03913">
        <ele>2001.03800064</ele>
        <time>2015-04-12T06:30:54.680Z</time>
      </trkpt>
      <trkpt lat="45.22681" lon="6.03924">
        <ele>2017.15700096</ele>
        <time>2015-04-12T06:31:46.680Z</time>
      </trkpt>
      <trkpt lat="45.22691" lon="6.03932">
        <ele>2019.83800064</ele>
        <time>2015-04-12T06:31:58.680Z</time>
      </trkpt>
      <trkpt lat="45.22701" lon="6.03938">
        <ele>2026.64</ele>
        <time>2015-04-12T06:32:22.690Z</time>
      </trkpt>
      <trkpt lat="45.2271" lon="6.03943">
        <ele>2031.68</ele>
        <time>2015-04-12T06:32:38.690Z</time>
      </trkpt>
      <trkpt lat="45.2272" lon="6.0395">
        <ele>2033.35700096</ele>
        <time>2015-04-12T06:32:50.680Z</time>
      </trkpt>
      <trkpt lat="45.22729" lon="6.03956">
        <ele>2035.75700096</ele>
        <time>2015-04-12T06:32:58.680Z</time>
      </trkpt>
      <trkpt lat="45.22736" lon="6.03964">
        <ele>2043.6773226671</ele>
        <time>2015-04-12T06:33:22.880Z</time>
      </trkpt>
      <trkpt lat="45.22747" lon="6.0397">
        <ele>2045.236235182</ele>
        <time>2015-04-12T06:33:30.680Z</time>
      </trkpt>
      <trkpt lat="45.22749" lon="6.03988">
        <ele>2047</ele>
        <time>2015-04-12T06:33:42.880Z</time>
      </trkpt>
      <trkpt lat="45.22751" lon="6.04003">
        <ele>2049.5950016</ele>
        <time>2015-04-12T06:33:54.680Z</time>
      </trkpt>
      <trkpt lat="45.22761" lon="6.0401">
        <ele>2056</ele>
        <time>2015-04-12T06:34:22.680Z</time>
      </trkpt>
      <trkpt lat="45.22772" lon="6.0402">
        <ele>2058.15600128</ele>
        <time>2015-04-12T06:34:34.880Z</time>
      </trkpt>
      <trkpt lat="45.22783" lon="6.04028">
        <ele>2060.67800064</ele>
        <time>2015-04-12T06:34:42.880Z</time>
      </trkpt>
      <trkpt lat="45.22796" lon="6.04034">
        <ele>2063.55700096</ele>
        <time>2015-04-12T06:34:54.680Z</time>
      </trkpt>
      <trkpt lat="45.22808" lon="6.04033">
        <ele>2067.15700096</ele>
        <time>2015-04-12T06:35:06.680Z</time>
      </trkpt>
      <trkpt lat="45.22819" lon="6.04043">
        <ele>2070.81700096</ele>
        <time>2015-04-12T06:35:18.880Z</time>
      </trkpt>
      <trkpt lat="45.22829" lon="6.04047">
        <ele>2072.43800064</ele>
        <time>2015-04-12T06:35:26.680Z</time>
      </trkpt>
      <trkpt lat="45.22841" lon="6.04065">
        <ele>2073.93900032</ele>
        <time>2015-04-12T06:35:38.880Z</time>
      </trkpt>
      <trkpt lat="45.22848" lon="6.04081">
        <ele>2078.48</ele>
        <time>2015-04-12T06:35:50.690Z</time>
      </trkpt>
      <trkpt lat="45.22856" lon="6.04089">
        <ele>2081.75600128</ele>
        <time>2015-04-12T06:35:58.880Z</time>
      </trkpt>
      <trkpt lat="45.22865" lon="6.04099">
        <ele>2085.35700096</ele>
        <time>2015-04-12T06:36:10.680Z</time>
      </trkpt>
      <trkpt lat="45.22874" lon="6.04107">
        <ele>2087.75700096</ele>
        <time>2015-04-12T06:36:18.680Z</time>
      </trkpt>
      <trkpt lat="45.22883" lon="6.04112">
        <ele>2090.5950016</ele>
        <time>2015-04-12T06:36:34.680Z</time>
      </trkpt>
      <trkpt lat="45.22895" lon="6.04118">
        <ele>2098.07600128</ele>
        <time>2015-04-12T06:36:54.680Z</time>
      </trkpt>
      <trkpt lat="45.22908" lon="6.04133">
        <ele>2101.43800064</ele>
        <time>2015-04-12T06:37:06.680Z</time>
      </trkpt>
      <trkpt lat="45.2292" lon="6.04139">
        <ele>2104.81700096</ele>
        <time>2015-04-12T06:37:18.880Z</time>
      </trkpt>
      <trkpt lat="45.22929" lon="6.04151">
        <ele>2110.55700096</ele>
        <time>2015-04-12T06:37:34.680Z</time>
      </trkpt>
      <trkpt lat="45.22931" lon="6.04167">
        <ele>2112.95700096</ele>
        <time>2015-04-12T06:37:42.680Z</time>
      </trkpt>
      <trkpt lat="45.22943" lon="6.04166">
        <ele>2115.35700096</ele>
        <time>2015-04-12T06:37:50.680Z</time>
      </trkpt>
      <trkpt lat="45.2295" lon="6.04177">
        <ele>2118.95700096</ele>
        <time>2015-04-12T06:38:02.680Z</time>
      </trkpt>
      <trkpt lat="45.22964" lon="6.04182">
        <ele>2123.95700096</ele>
        <time>2015-04-12T06:38:22.680Z</time>
      </trkpt>
      <trkpt lat="45.22971" lon="6.04194">
        <ele>2127.56</ele>
        <time>2015-04-12T06:38:34.690Z</time>
      </trkpt>
      <trkpt lat="45.22985" lon="6.04188">
        <ele>2132.55600128</ele>
        <time>2015-04-12T06:38:50.880Z</time>
      </trkpt>
      <trkpt lat="45.22997" lon="6.04193">
        <ele>2137.02</ele>
        <time>2015-04-12T06:39:02.890Z</time>
      </trkpt>
      <trkpt lat="45.23012" lon="6.04199">
        <ele>2139.23800064</ele>
        <time>2015-04-12T06:39:10.680Z</time>
      </trkpt>
      <trkpt lat="45.23019" lon="6.04214">
        <ele>2142.01700096</ele>
        <time>2015-04-12T06:39:22.880Z</time>
      </trkpt>
      <trkpt lat="45.23033" lon="6.04222">
        <ele>2144.23800064</ele>
        <time>2015-04-12T06:39:30.680Z</time>
      </trkpt>
      <trkpt lat="45.23047" lon="6.04221">
        <ele>2147.35600128</ele>
        <time>2015-04-12T06:39:42.880Z</time>
      </trkpt>
      <trkpt lat="45.23058" lon="6.04222">
        <ele>2151.84</ele>
        <time>2015-04-12T06:39:58.690Z</time>
      </trkpt>
      <trkpt lat="45.23072" lon="6.04234">
        <ele>2156.04</ele>
        <time>2015-04-12T06:40:14.690Z</time>
      </trkpt>
      <trkpt lat="45.23085" lon="6.0423">
        <ele>2162.776</ele>
        <time>2015-04-12T06:40:35.410Z</time>
      </trkpt>
      <trkpt lat="45.23096" lon="6.0424">
        <ele>2168.92</ele>
        <time>2015-04-12T06:40:55.890Z</time>
      </trkpt>
      <trkpt lat="45.23109" lon="6.04263">
        <ele>2171.67800064</ele>
        <time>2015-04-12T06:41:07.880Z</time>
      </trkpt>
      <trkpt lat="45.23114" lon="6.04282">
        <ele>2181.1950016</ele>
        <time>2015-04-12T06:41:39.880Z</time>
      </trkpt>
      <trkpt lat="45.23114" lon="6.04299">
        <ele>2187.27800064</ele>
        <time>2015-04-12T06:41:55.880Z</time>
      </trkpt>
      <trkpt lat="45.23103" lon="6.043">
        <ele>2189.31700096</ele>
        <time>2015-04-12T06:42:03.880Z</time>
      </trkpt>
      <trkpt lat="45.23097" lon="6.04311">
        <ele>2191.7162839884</ele>
        <time>2015-04-12T06:42:11.880Z</time>
      </trkpt>
      <trkpt lat="45.2309" lon="6.04323">
        <ele>2195.2552545396</ele>
        <time>2015-04-12T06:42:23.680Z</time>
      </trkpt>
      <trkpt lat="45.23083" lon="6.04338">
        <ele>2200.16600064</ele>
        <time>2015-04-12T06:42:40.320Z</time>
      </trkpt>
      <trkpt lat="45.23083" lon="6.04357">
        <ele>2202.848</ele>
        <time>2015-04-12T06:42:51.610Z</time>
      </trkpt>
      <trkpt lat="45.23093" lon="6.04369">
        <ele>2213.76</ele>
        <time>2015-04-12T06:43:23.890Z</time>
      </trkpt>
      <trkpt lat="45.23102" lon="6.04381">
        <ele>2220.31700096</ele>
        <time>2015-04-12T06:43:43.880Z</time>
      </trkpt>
      <trkpt lat="45.23113" lon="6.04385">
        <ele>2225.15600128</ele>
        <time>2015-04-12T06:43:59.880Z</time>
      </trkpt>
      <trkpt lat="45.23126" lon="6.04391">
        <ele>2229.47800064</ele>
        <time>2015-04-12T06:44:11.880Z</time>
      </trkpt>
      <trkpt lat="45.23117" lon="6.04406">
        <ele>2232.31700096</ele>
        <time>2015-04-12T06:44:23.880Z</time>
      </trkpt>
      <trkpt lat="45.23113" lon="6.04422">
        <ele>2239.31700096</ele>
        <time>2015-04-12T06:44:43.880Z</time>
      </trkpt>
      <trkpt lat="45.23103" lon="6.04428">
        <ele>2245.11700096</ele>
        <time>2015-04-12T06:44:59.880Z</time>
      </trkpt>
      <trkpt lat="45.2311" lon="6.0444">
        <ele>2248.72</ele>
        <time>2015-04-12T06:45:11.890Z</time>
      </trkpt>
      <trkpt lat="45.23119" lon="6.04445">
        <ele>2257.11700096</ele>
        <time>2015-04-12T06:45:39.880Z</time>
      </trkpt>
      <trkpt lat="45.23128" lon="6.04453">
        <ele>2260.47800064</ele>
        <time>2015-04-12T06:45:51.880Z</time>
      </trkpt>
      <trkpt lat="45.23128" lon="6.04469">
        <ele>2264.63400192</ele>
        <time>2015-04-12T06:46:03.880Z</time>
      </trkpt>
      <trkpt lat="45.23117" lon="6.04478">
        <ele>2270.11700096</ele>
        <time>2015-04-12T06:46:19.880Z</time>
      </trkpt>
      <trkpt lat="45.23127" lon="6.04492">
        <ele>2281.55600128</ele>
        <time>2015-04-12T06:46:55.880Z</time>
      </trkpt>
      <trkpt lat="45.2314" lon="6.04497">
        <ele>2283.84</ele>
        <time>2015-04-12T06:47:07.890Z</time>
      </trkpt>
      <trkpt lat="45.23131" lon="6.04506">
        <ele>2290</ele>
        <time>2015-04-12T06:47:31.890Z</time>
      </trkpt>
      <trkpt lat="45.23138" lon="6.04518">
        <ele>2295.11700096</ele>
        <time>2015-04-12T06:47:59.880Z</time>
      </trkpt>
      <trkpt lat="45.23144" lon="6.0453">
        <ele>2305.91700096</ele>
        <time>2015-04-12T06:48:35.880Z</time>
      </trkpt>
      <trkpt lat="45.2315" lon="6.04545">
        <ele>2308.67800064</ele>
        <time>2015-04-12T06:48:47.880Z</time>
      </trkpt>
      <trkpt lat="45.23155" lon="6.04558">
        <ele>2318.1198800049</ele>
        <time>2015-04-12T06:49:19.890Z</time>
      </trkpt>
      <trkpt lat="45.23165" lon="6.04563">
        <ele>2329.07800064</ele>
        <time>2015-04-12T06:49:59.880Z</time>
      </trkpt>
      <trkpt lat="45.23167" lon="6.0458">
        <ele>2331.1901871698</ele>
        <time>2015-04-12T06:50:19.880Z</time>
      </trkpt>
      <trkpt lat="45.23172" lon="6.04594">
        <ele>2336.71700096</ele>
        <time>2015-04-12T06:50:31.880Z</time>
      </trkpt>
      <trkpt lat="45.23169" lon="6.04607">
        <ele>2340.67800064</ele>
        <time>2015-04-12T06:50:47.880Z</time>
      </trkpt>
      <trkpt lat="45.23178" lon="6.04617">
        <ele>2348.36</ele>
        <time>2015-04-12T06:51:07.890Z</time>
      </trkpt>
      <trkpt lat="45.23186" lon="6.0463">
        <ele>2352.44</ele>
        <time>2015-04-12T06:51:23.890Z</time>
      </trkpt>
      <trkpt lat="45.23197" lon="6.04638">
        <ele>2356.47800064</ele>
        <time>2015-04-12T06:52:11.880Z</time>
      </trkpt>
      <trkpt lat="45.23211" lon="6.04652">
        <ele>2365.07800064</ele>
        <time>2015-04-12T06:52:39.880Z</time>
      </trkpt>
      <trkpt lat="45.23218" lon="6.04667">
        <ele>2367.92000256</ele>
        <time>2015-04-12T06:52:51.790Z</time>
      </trkpt>
      <trkpt lat="45.23227" lon="6.04685">
        <ele>2374.91599872</ele>
        <time>2015-04-12T06:53:11.780Z</time>
      </trkpt>
      <trkpt lat="45.23229" lon="6.04703">
        <ele>2380.1950016</ele>
        <time>2015-04-12T06:53:23.880Z</time>
      </trkpt>
      <trkpt lat="45.23235" lon="6.04715">
        <ele>2383.47800064</ele>
        <time>2015-04-12T06:53:31.880Z</time>
      </trkpt>
      <trkpt lat="45.23243" lon="6.04727">
        <ele>2389.1950016</ele>
        <time>2015-04-12T06:53:47.880Z</time>
      </trkpt>
      <trkpt lat="45.23244" lon="6.04743">
        <ele>2395.35600128</ele>
        <time>2015-04-12T06:54:07.880Z</time>
      </trkpt>
      <trkpt lat="45.23249" lon="6.04762">
        <ele>2399.15600128</ele>
        <time>2015-04-12T06:54:19.880Z</time>
      </trkpt>
      <trkpt lat="45.23252" lon="6.04778">
        <ele>2407.1449984</ele>
        <time>2015-04-12T06:54:51.780Z</time>
      </trkpt>
      <trkpt lat="45.23259" lon="6.04788">
        <ele>2412.68</ele>
        <time>2015-04-12T06:55:07.890Z</time>
      </trkpt>
      <trkpt lat="45.23268" lon="6.04799">
        <ele>2414.92</ele>
        <time>2015-04-12T06:55:15.890Z</time>
      </trkpt>
      <trkpt lat="45.23277" lon="6.04808">
        <ele>2417.28699904</ele>
        <time>2015-04-12T06:55:23.780Z</time>
      </trkpt>
      <trkpt lat="45.23271" lon="6.04823">
        <ele>2424.03900032</ele>
        <time>2015-04-12T06:55:39.880Z</time>
      </trkpt>
      <trkpt lat="45.23277" lon="6.04838">
        <ele>2428.12000256</ele>
        <time>2015-04-12T06:55:59.790Z</time>
      </trkpt>
      <trkpt lat="45.23276" lon="6.04856">
        <ele>2431.32000256</ele>
        <time>2015-04-12T06:56:07.790Z</time>
      </trkpt>
      <trkpt lat="45.23279" lon="6.04873">
        <ele>2436.65799936</ele>
        <time>2015-04-12T06:56:27.780Z</time>
      </trkpt>
      <trkpt lat="45.23288" lon="6.04882">
        <ele>2440</ele>
        <time>2015-04-12T06:56:39.780Z</time>
      </trkpt>
      <trkpt lat="45.233" lon="6.04889">
        <ele>2440</ele>
        <time>2015-04-12T06:56:47.880Z</time>
      </trkpt>
      <trkpt lat="45.2331" lon="6.04903">
        <ele>2440.62899968</ele>
        <time>2015-04-12T06:56:55.780Z</time>
      </trkpt>
      <trkpt lat="45.23318" lon="6.04913">
        <ele>2441</ele>
        <time>2015-04-12T06:57:07.780Z</time>
      </trkpt>
      <trkpt lat="45.23323" lon="6.04927">
        <ele>2441.23000064</ele>
        <time>2015-04-12T06:57:31.790Z</time>
      </trkpt>
      <trkpt lat="45.23338" lon="6.04943">
        <ele>2442.06000128</ele>
        <time>2015-04-12T06:57:39.790Z</time>
      </trkpt>
      <trkpt lat="45.23344" lon="6.04958">
        <ele>2443.66000128</ele>
        <time>2015-04-12T06:57:47.790Z</time>
      </trkpt>
      <trkpt lat="45.23349" lon="6.04976">
        <ele>2446.52000256</ele>
        <time>2015-04-12T06:57:55.790Z</time>
      </trkpt>
      <trkpt lat="45.23357" lon="6.04988">
        <ele>2448.82899968</ele>
        <time>2015-04-12T06:58:07.780Z</time>
      </trkpt>
      <trkpt lat="45.23369" lon="6.04997">
        <ele>2453.12000256</ele>
        <time>2015-04-12T06:58:19.790Z</time>
      </trkpt>
      <trkpt lat="45.23375" lon="6.05011">
        <ele>2457.45799936</ele>
        <time>2015-04-12T06:58:31.780Z</time>
      </trkpt>
      <trkpt lat="45.23384" lon="6.05018">
        <ele>2459.08699904</ele>
        <time>2015-04-12T06:58:39.780Z</time>
      </trkpt>
      <trkpt lat="45.23398" lon="6.05027">
        <ele>2462.68699904</ele>
        <time>2015-04-12T06:58:51.780Z</time>
      </trkpt>
      <trkpt lat="45.23407" lon="6.05047">
        <ele>2466.28699904</ele>
        <time>2015-04-12T06:59:03.780Z</time>
      </trkpt>
      <trkpt lat="45.23412" lon="6.05061">
        <ele>2472.71599872</ele>
        <time>2015-04-12T06:59:23.780Z</time>
      </trkpt>
      <trkpt lat="45.23424" lon="6.05068">
        <ele>2478.05799936</ele>
        <time>2015-04-12T06:59:39.780Z</time>
      </trkpt>
      <trkpt lat="45.23431" lon="6.05084">
        <ele>2480.68699904</ele>
        <time>2015-04-12T06:59:51.780Z</time>
      </trkpt>
      <trkpt lat="45.23441" lon="6.0509">
        <ele>2484.28699904</ele>
        <time>2015-04-12T07:00:03.780Z</time>
      </trkpt>
      <trkpt lat="45.23445" lon="6.05106">
        <ele>2490.71599872</ele>
        <time>2015-04-12T07:00:23.780Z</time>
      </trkpt>
      <trkpt lat="45.23452" lon="6.05119">
        <ele>2494.25799936</ele>
        <time>2015-04-12T07:00:35.780Z</time>
      </trkpt>
      <trkpt lat="45.23461" lon="6.0513">
        <ele>2500.2287706897</ele>
        <time>2015-04-12T07:00:51.780Z</time>
      </trkpt>
      <trkpt lat="45.23467" lon="6.05142">
        <ele>2502.7177180871</ele>
        <time>2015-04-12T07:01:03.790Z</time>
      </trkpt>
      <trkpt lat="45.23473" lon="6.05158">
        <ele>2507.51599872</ele>
        <time>2015-04-12T07:01:15.780Z</time>
      </trkpt>
      <trkpt lat="45.23484" lon="6.05159">
        <ele>2510.65799936</ele>
        <time>2015-04-12T07:01:27.780Z</time>
      </trkpt>
      <trkpt lat="45.23491" lon="6.05169">
        <ele>2517.31599872</ele>
        <time>2015-04-12T07:01:47.780Z</time>
      </trkpt>
      <trkpt lat="45.235" lon="6.05178">
        <ele>2521.11700096</ele>
        <time>2015-04-12T07:01:59.880Z</time>
      </trkpt>
      <trkpt lat="45.23511" lon="6.05179">
        <ele>2532.26000128</ele>
        <time>2015-04-12T07:02:35.790Z</time>
      </trkpt>
      <trkpt lat="45.23517" lon="6.05196">
        <ele>2535.48699904</ele>
        <time>2015-04-12T07:02:47.780Z</time>
      </trkpt>
      <trkpt lat="45.23519" lon="6.05212">
        <ele>2539.11599872</ele>
        <time>2015-04-12T07:02:59.780Z</time>
      </trkpt>
      <trkpt lat="45.23532" lon="6.05208">
        <ele>2543</ele>
        <time>2015-04-12T07:03:15.780Z</time>
      </trkpt>
      <trkpt lat="45.23543" lon="6.05211">
        <ele>2548.88699904</ele>
        <time>2015-04-12T07:03:35.780Z</time>
      </trkpt>
      <trkpt lat="45.23549" lon="6.05225">
        <ele>2556.06000128</ele>
        <time>2015-04-12T07:03:59.790Z</time>
      </trkpt>
      <trkpt lat="45.2356" lon="6.05225">
        <ele>2562.69000192</ele>
        <time>2015-04-12T07:04:31.790Z</time>
      </trkpt>
      <trkpt lat="45.23571" lon="6.05218">
        <ele>2571.97100032</ele>
        <time>2015-04-12T07:04:59.780Z</time>
      </trkpt>
      <trkpt lat="45.23578" lon="6.05235">
        <ele>2577.02899968</ele>
        <time>2015-04-12T07:05:19.780Z</time>
      </trkpt>
      <trkpt lat="45.23589" lon="6.05225">
        <ele>2580.51599872</ele>
        <time>2015-04-12T07:05:35.780Z</time>
      </trkpt>
      <trkpt lat="45.23597" lon="6.05215">
        <ele>2582.8571413958</ele>
        <time>2015-04-12T07:05:43.780Z</time>
      </trkpt>
      <trkpt lat="45.23604" lon="6.05228">
        <ele>2590.25799936</ele>
        <time>2015-04-12T07:06:15.780Z</time>
      </trkpt>
      <trkpt lat="45.23613" lon="6.05232">
        <ele>2592.66000128</ele>
        <time>2015-04-12T07:06:27.790Z</time>
      </trkpt>
      <trkpt lat="45.23603" lon="6.05242">
        <ele>2594.26000128</ele>
        <time>2015-04-12T07:06:35.790Z</time>
      </trkpt>
      <trkpt lat="45.23606" lon="6.05256">
        <ele>2595.42899968</ele>
        <time>2015-04-12T07:06:43.780Z</time>
      </trkpt>
      <trkpt lat="45.23607" lon="6.05275">
        <ele>2602.28699904</ele>
        <time>2015-04-12T07:07:03.780Z</time>
      </trkpt>
      <trkpt lat="45.23596" lon="6.05268">
        <ele>2605</ele>
        <time>2015-04-12T07:07:27.790Z</time>
      </trkpt>
      <trkpt lat="45.23601" lon="6.05284">
        <ele>2605.20100096</ele>
        <time>2015-04-12T07:07:41.500Z</time>
      </trkpt>
      <trkpt lat="45.2361" lon="6.05278">
        <ele>2606.62899968</ele>
        <time>2015-04-12T07:08:25.780Z</time>
      </trkpt>
      <trkpt lat="45.23609" lon="6.05264">
        <ele>2607</ele>
        <time>2015-04-12T07:08:33.780Z</time>
      </trkpt>
      <trkpt lat="45.23619" lon="6.05276">
        <ele>2606</ele>
        <time>2015-04-12T07:08:58.500Z</time>
      </trkpt>
      <trkpt lat="45.2363" lon="6.05281">
        <ele>2626.25800192</ele>
        <time>2015-04-12T07:09:50.780Z</time>
      </trkpt>
      <trkpt lat="45.23632" lon="6.05295">
        <ele>2630.91600384</ele>
        <time>2015-04-12T07:10:06.780Z</time>
      </trkpt>
      <trkpt lat="45.23644" lon="6.05298">
        <ele>2638.04699904</ele>
        <time>2015-04-12T07:10:32.980Z</time>
      </trkpt>
      <trkpt lat="45.23645" lon="6.05313">
        <ele>2641.97400576</ele>
        <time>2015-04-12T07:10:52.780Z</time>
      </trkpt>
      <trkpt lat="45.23655" lon="6.05314">
        <ele>2648.78700288</ele>
        <time>2015-04-12T07:11:08.780Z</time>
      </trkpt>
      <trkpt lat="45.23663" lon="6.05302">
        <ele>2654.11600384</ele>
        <time>2015-04-12T07:11:24.780Z</time>
      </trkpt>
      <trkpt lat="45.23669" lon="6.05317">
        <ele>2657.38700288</ele>
        <time>2015-04-12T07:11:40.780Z</time>
      </trkpt>
      <trkpt lat="45.23682" lon="6.05304">
        <ele>2666.70299904</ele>
        <time>2015-04-12T07:12:08.500Z</time>
      </trkpt>
      <trkpt lat="45.23686" lon="6.05321">
        <ele>2674.51600384</ele>
        <time>2015-04-12T07:12:40.780Z</time>
      </trkpt>
      <trkpt lat="45.23691" lon="6.05335">
        <ele>2683.98700288</ele>
        <time>2015-04-12T07:13:12.780Z</time>
      </trkpt>
      <trkpt lat="45.23701" lon="6.05342">
        <ele>2697</ele>
        <time>2015-04-12T07:14:00.780Z</time>
      </trkpt>
      <trkpt lat="45.2371" lon="6.05351">
        <ele>2705.91600384</ele>
        <time>2015-04-12T07:14:36.780Z</time>
      </trkpt>
      <trkpt lat="45.23699" lon="6.0536">
        <ele>2710.72000256</ele>
        <time>2015-04-12T07:14:48.790Z</time>
      </trkpt>
      <trkpt lat="45.23688" lon="6.05364">
        <ele>2719.72900096</ele>
        <time>2015-04-12T07:15:36.780Z</time>
      </trkpt>
      <trkpt lat="45.23692" lon="6.05375">
        <ele>2720</ele>
        <time>2015-04-12T07:15:52.780Z</time>
      </trkpt>
      <trkpt lat="45.2369" lon="6.05384">
        <ele>2722.45800192</ele>
        <time>2015-04-12T07:16:16.780Z</time>
      </trkpt>
      <trkpt lat="45.23681" lon="6.05389">
        <ele>2725</ele>
        <time>2015-04-12T07:17:12.780Z</time>
      </trkpt>
      <trkpt lat="45.2369" lon="6.05385">
        <ele>2725</ele>
        <time>2015-04-12T07:18:48.780Z</time>
      </trkpt>
      <trkpt lat="45.23679" lon="6.05382">
        <ele>2724.72900096</ele>
        <time>2015-04-12T07:19:56.780Z</time>
      </trkpt>
      <trkpt lat="45.2369" lon="6.05386">
        <ele>2726.26999936</ele>
        <time>2015-04-12T07:21:16.790Z</time>
      </trkpt>
      <trkpt lat="45.23681" lon="6.054">
        <ele>2726.16599808</ele>
        <time>2015-04-12T07:26:20.880Z</time>
      </trkpt>
      <trkpt lat="45.2369" lon="6.0543">
        <ele>2721.36599808</ele>
        <time>2015-04-12T07:26:28.880Z</time>
      </trkpt>
      <trkpt lat="45.23692" lon="6.05515">
        <ele>2673.70397952</ele>
        <time>2015-04-12T07:26:36.880Z</time>
      </trkpt>
      <trkpt lat="45.23689" lon="6.05634">
        <ele>2625.73798144</ele>
        <time>2015-04-12T07:26:44.880Z</time>
      </trkpt>
      <trkpt lat="45.2367" lon="6.05731">
        <ele>2584.08398592</ele>
        <time>2015-04-12T07:26:52.880Z</time>
      </trkpt>
      <trkpt lat="45.23709" lon="6.05836">
        <ele>2550.1349888</ele>
        <time>2015-04-12T07:27:00.880Z</time>
      </trkpt>
      <trkpt lat="45.23745" lon="6.05977">
        <ele>2522.1349888</ele>
        <time>2015-04-12T07:27:08.880Z</time>
      </trkpt>
      <trkpt lat="45.23777" lon="6.06064">
        <ele>2512.6099968</ele>
        <time>2015-04-12T07:27:16.880Z</time>
      </trkpt>
      <trkpt lat="45.23835" lon="6.06143">
        <ele>2498.14199296</ele>
        <time>2015-04-12T07:27:24.880Z</time>
      </trkpt>
      <trkpt lat="45.23863" lon="6.06284">
        <ele>2482.9</ele>
        <time>2015-04-12T07:27:32.890Z</time>
      </trkpt>
      <trkpt lat="45.23889" lon="6.064">
        <ele>2470.77599488</ele>
        <time>2015-04-12T07:27:40.880Z</time>
      </trkpt>
      <trkpt lat="45.23905" lon="6.06541">
        <ele>2457.97599488</ele>
        <time>2015-04-12T07:27:48.880Z</time>
      </trkpt>
      <trkpt lat="45.2389" lon="6.06683">
        <ele>2445.17599488</ele>
        <time>2015-04-12T07:27:56.880Z</time>
      </trkpt>
      <trkpt lat="45.2386" lon="6.06786">
        <ele>2434.53199616</ele>
        <time>2015-04-12T07:28:04.880Z</time>
      </trkpt>
      <trkpt lat="45.23835" lon="6.06863">
        <ele>2427.64399872</ele>
        <time>2015-04-12T07:28:12.880Z</time>
      </trkpt>
      <trkpt lat="45.23838" lon="6.06937">
        <ele>2424.3049984</ele>
        <time>2015-04-12T07:28:20.880Z</time>
      </trkpt>
      <trkpt lat="45.23839" lon="6.07036">
        <ele>2420.3049984</ele>
        <time>2015-04-12T07:28:28.880Z</time>
      </trkpt>
      <trkpt lat="45.23818" lon="6.07172">
        <ele>2405.95899392</ele>
        <time>2015-04-12T07:28:36.880Z</time>
      </trkpt>
      <trkpt lat="45.23828" lon="6.07289">
        <ele>2388.60299264</ele>
        <time>2015-04-12T07:28:44.880Z</time>
      </trkpt>
      <trkpt lat="45.23847" lon="6.07394">
        <ele>2374.27099648</ele>
        <time>2015-04-12T07:28:52.880Z</time>
      </trkpt>
      <trkpt lat="45.23873" lon="6.07513">
        <ele>2363.87100672</ele>
        <time>2015-04-12T07:29:00.980Z</time>
      </trkpt>
      <trkpt lat="45.23881" lon="6.07618">
        <ele>2347.49097984</ele>
        <time>2015-04-12T07:29:08.780Z</time>
      </trkpt>
      <trkpt lat="45.23875" lon="6.07693">
        <ele>2327.04597504</ele>
        <time>2015-04-12T07:29:16.780Z</time>
      </trkpt>
      <trkpt lat="45.2386" lon="6.07745">
        <ele>2304.6743125601</ele>
        <time>2015-04-12T07:29:24.780Z</time>
      </trkpt>
      <trkpt lat="45.23834" lon="6.07821">
        <ele>2282.4634552602</ele>
        <time>2015-04-12T07:29:32.780Z</time>
      </trkpt>
      <trkpt lat="45.23828" lon="6.07918">
        <ele>2264.22599424</ele>
        <time>2015-04-12T07:29:40.780Z</time>
      </trkpt>
      <trkpt lat="45.23817" lon="6.07954">
        <ele>2254.74296832</ele>
        <time>2015-04-12T07:30:00.780Z</time>
      </trkpt>
      <trkpt lat="45.23776" lon="6.08026">
        <ele>2228.34296832</ele>
        <time>2015-04-12T07:30:08.780Z</time>
      </trkpt>
      <trkpt lat="45.23749" lon="6.08129">
        <ele>2193.04401408</ele>
        <time>2015-04-12T07:30:16.980Z</time>
      </trkpt>
      <trkpt lat="45.23749" lon="6.08256">
        <ele>2178.29699328</ele>
        <time>2015-04-12T07:30:24.780Z</time>
      </trkpt>
      <trkpt lat="45.23763" lon="6.0831">
        <ele>2175.32900096</ele>
        <time>2015-04-12T07:30:32.780Z</time>
      </trkpt>
      <trkpt lat="45.23794" lon="6.08338">
        <ele>2176</ele>
        <time>2015-04-12T07:30:40.780Z</time>
      </trkpt>
      <trkpt lat="45.23833" lon="6.08348">
        <ele>2176.32900096</ele>
        <time>2015-04-12T07:30:52.780Z</time>
      </trkpt>
      <trkpt lat="45.23862" lon="6.08358">
        <ele>2177.12900096</ele>
        <time>2015-04-12T07:31:00.780Z</time>
      </trkpt>
      <trkpt lat="45.23886" lon="6.08392">
        <ele>2178.32900096</ele>
        <time>2015-04-12T07:31:12.780Z</time>
      </trkpt>
      <trkpt lat="45.23894" lon="6.08441">
        <ele>2179.52900096</ele>
        <time>2015-04-12T07:31:24.780Z</time>
      </trkpt>
      <trkpt lat="45.23902" lon="6.08462">
        <ele>2180.26200064</ele>
        <time>2015-04-12T07:31:40.800Z</time>
      </trkpt>
      <trkpt lat="45.23912" lon="6.08498">
        <ele>2181.86000128</ele>
        <time>2015-04-12T07:31:48.790Z</time>
      </trkpt>
      <trkpt lat="45.23917" lon="6.08511">
        <ele>2182</ele>
        <time>2015-04-12T07:31:56.790Z</time>
      </trkpt>
      <trkpt lat="45.23907" lon="6.08517">
        <ele>2182.92900096</ele>
        <time>2015-04-12T07:32:08.780Z</time>
      </trkpt>
      <trkpt lat="45.23922" lon="6.08517">
        <ele>2181.67099904</ele>
        <time>2015-04-12T07:32:32.780Z</time>
      </trkpt>
      <trkpt lat="45.23926" lon="6.08533">
        <ele>2182.38700288</ele>
        <time>2015-04-12T07:33:20.780Z</time>
      </trkpt>
      <trkpt lat="45.23927" lon="6.08555">
        <ele>2184.78700288</ele>
        <time>2015-04-12T07:33:28.780Z</time>
      </trkpt>
      <trkpt lat="45.23923" lon="6.0857">
        <ele>2189.12900096</ele>
        <time>2015-04-12T07:33:40.780Z</time>
      </trkpt>
      <trkpt lat="45.23924" lon="6.08589">
        <ele>2192.18700288</ele>
        <time>2015-04-12T07:33:56.780Z</time>
      </trkpt>
      <trkpt lat="45.23934" lon="6.08604">
        <ele>2194.58700288</ele>
        <time>2015-04-12T07:34:04.780Z</time>
      </trkpt>
      <trkpt lat="45.23939" lon="6.08619">
        <ele>2196.72900096</ele>
        <time>2015-04-12T07:34:16.780Z</time>
      </trkpt>
      <trkpt lat="45.23939" lon="6.08635">
        <ele>2198.58700288</ele>
        <time>2015-04-12T07:34:24.780Z</time>
      </trkpt>
      <trkpt lat="45.23947" lon="6.08645">
        <ele>2203.26000128</ele>
        <time>2015-04-12T07:34:40.790Z</time>
      </trkpt>
      <trkpt lat="45.23945" lon="6.0866">
        <ele>2205.98700288</ele>
        <time>2015-04-12T07:34:52.780Z</time>
      </trkpt>
      <trkpt lat="45.23948" lon="6.08677">
        <ele>2210.78700288</ele>
        <time>2015-04-12T07:35:08.780Z</time>
      </trkpt>
      <trkpt lat="45.23958" lon="6.08692">
        <ele>2213.59599872</ele>
        <time>2015-04-12T07:35:20.980Z</time>
      </trkpt>
      <trkpt lat="45.23973" lon="6.08706">
        <ele>2217.65800192</ele>
        <time>2015-04-12T07:35:32.780Z</time>
      </trkpt>
      <trkpt lat="45.23969" lon="6.0872">
        <ele>2221.78700288</ele>
        <time>2015-04-12T07:35:48.780Z</time>
      </trkpt>
      <trkpt lat="45.23973" lon="6.08735">
        <ele>2226.44699904</ele>
        <time>2015-04-12T07:36:00.980Z</time>
      </trkpt>
      <trkpt lat="45.23982" lon="6.08749">
        <ele>2229.98700288</ele>
        <time>2015-04-12T07:36:12.780Z</time>
      </trkpt>
      <trkpt lat="45.23995" lon="6.08761">
        <ele>2233.05800192</ele>
        <time>2015-04-12T07:36:24.780Z</time>
      </trkpt>
      <trkpt lat="45.24005" lon="6.08775">
        <ele>2241.98700288</ele>
        <time>2015-04-12T07:36:52.780Z</time>
      </trkpt>
      <trkpt lat="45.24019" lon="6.08788">
        <ele>2247.71600384</ele>
        <time>2015-04-12T07:37:08.780Z</time>
      </trkpt>
      <trkpt lat="45.24027" lon="6.088">
        <ele>2250.18700288</ele>
        <time>2015-04-12T07:37:16.780Z</time>
      </trkpt>
      <trkpt lat="45.2404" lon="6.08814">
        <ele>2252.58700288</ele>
        <time>2015-04-12T07:37:24.780Z</time>
      </trkpt>
      <trkpt lat="45.24045" lon="6.0883">
        <ele>2254</ele>
        <time>2015-04-12T07:37:32.780Z</time>
      </trkpt>
      <trkpt lat="45.24048" lon="6.08846">
        <ele>2260.49799936</ele>
        <time>2015-04-12T07:37:56.980Z</time>
      </trkpt>
      <trkpt lat="45.24058" lon="6.08854">
        <ele>2261</ele>
        <time>2015-04-12T07:38:04.980Z</time>
      </trkpt>
      <trkpt lat="45.24068" lon="6.08873">
        <ele>2261.3283286438</ele>
        <time>2015-04-12T07:38:12.780Z</time>
      </trkpt>
      <trkpt lat="45.24076" lon="6.0889">
        <ele>2262</ele>
        <time>2015-04-12T07:38:20.980Z</time>
      </trkpt>
      <trkpt lat="45.24085" lon="6.08913">
        <ele>2262</ele>
        <time>2015-04-12T07:38:28.780Z</time>
      </trkpt>
      <trkpt lat="45.24093" lon="6.08944">
        <ele>2259</ele>
        <time>2015-04-12T07:38:40.780Z</time>
      </trkpt>
      <trkpt lat="45.2409" lon="6.08975">
        <ele>2259.72900096</ele>
        <time>2015-04-12T07:38:56.780Z</time>
      </trkpt>
      <trkpt lat="45.24085" lon="6.09004">
        <ele>2260</ele>
        <time>2015-04-12T07:39:08.790Z</time>
      </trkpt>
      <trkpt lat="45.24079" lon="6.09032">
        <ele>2260</ele>
        <time>2015-04-12T07:39:16.980Z</time>
      </trkpt>
      <trkpt lat="45.24083" lon="6.09045">
        <ele>2260</ele>
        <time>2015-04-12T07:39:24.790Z</time>
      </trkpt>
      <trkpt lat="45.24076" lon="6.09071">
        <ele>2260</ele>
        <time>2015-04-12T07:39:36.990Z</time>
      </trkpt>
      <trkpt lat="45.24074" lon="6.09087">
        <ele>2260.55000064</ele>
        <time>2015-04-12T07:39:44.990Z</time>
      </trkpt>
      <trkpt lat="45.24073" lon="6.09102">
        <ele>2262.40000256</ele>
        <time>2015-04-12T07:39:52.990Z</time>
      </trkpt>
      <trkpt lat="45.24072" lon="6.09118">
        <ele>2265.45000192</ele>
        <time>2015-04-12T07:40:00.990Z</time>
      </trkpt>
      <trkpt lat="45.2407" lon="6.09135">
        <ele>2269.04699904</ele>
        <time>2015-04-12T07:40:12.980Z</time>
      </trkpt>
      <trkpt lat="45.24069" lon="6.09153">
        <ele>2272.10000128</ele>
        <time>2015-04-12T07:40:24.990Z</time>
      </trkpt>
      <trkpt lat="45.24065" lon="6.09171">
        <ele>2275.99599872</ele>
        <time>2015-04-12T07:40:36.980Z</time>
      </trkpt>
      <trkpt lat="45.24062" lon="6.09186">
        <ele>2279.84699904</ele>
        <time>2015-04-12T07:40:48.980Z</time>
      </trkpt>
      <trkpt lat="45.24058" lon="6.09202">
        <ele>2283.44699904</ele>
        <time>2015-04-12T07:41:00.980Z</time>
      </trkpt>
      <trkpt lat="45.24055" lon="6.09217">
        <ele>2286.34899968</ele>
        <time>2015-04-12T07:41:12.980Z</time>
      </trkpt>
      <trkpt lat="45.24051" lon="6.09232">
        <ele>2288.09799936</ele>
        <time>2015-04-12T07:41:24.980Z</time>
      </trkpt>
      <trkpt lat="45.24047" lon="6.09246">
        <ele>2292.7449984</ele>
        <time>2015-04-12T07:41:36.980Z</time>
      </trkpt>
      <trkpt lat="45.24043" lon="6.0926">
        <ele>2296.84699904</ele>
        <time>2015-04-12T07:41:48.980Z</time>
      </trkpt>
      <trkpt lat="45.24045" lon="6.09278">
        <ele>2301.64699904</ele>
        <time>2015-04-12T07:42:04.980Z</time>
      </trkpt>
      <trkpt lat="45.24039" lon="6.09289">
        <ele>2305.59599872</ele>
        <time>2015-04-12T07:42:20.980Z</time>
      </trkpt>
      <trkpt lat="45.24039" lon="6.09304">
        <ele>2313.09799936</ele>
        <time>2015-04-12T07:42:44.980Z</time>
      </trkpt>
      <trkpt lat="45.24048" lon="6.09307">
        <ele>2316.24699904</ele>
        <time>2015-04-12T07:42:56.980Z</time>
      </trkpt>
      <trkpt lat="45.24058" lon="6.09304">
        <ele>2320.80000256</ele>
        <time>2015-04-12T07:43:08.990Z</time>
      </trkpt>
      <trkpt lat="45.24068" lon="6.09304">
        <ele>2324.29799936</ele>
        <time>2015-04-12T07:43:20.980Z</time>
      </trkpt>
      <trkpt lat="45.2408" lon="6.09315">
        <ele>2328.24699904</ele>
        <time>2015-04-12T07:43:36.980Z</time>
      </trkpt>
      <trkpt lat="45.24076" lon="6.09329">
        <ele>2333.29799936</ele>
        <time>2015-04-12T07:44:00.980Z</time>
      </trkpt>
      <trkpt lat="45.2407" lon="6.09335">
        <ele>2334.89799936</ele>
        <time>2015-04-12T07:44:08.980Z</time>
      </trkpt>
      <trkpt lat="45.24067" lon="6.09343">
        <ele>2338</ele>
        <time>2015-04-12T07:44:20.990Z</time>
      </trkpt>
      <trkpt lat="45.24075" lon="6.09349">
        <ele>2340.44299776</ele>
        <time>2015-04-12T07:44:32.980Z</time>
      </trkpt>
      <trkpt lat="45.2408" lon="6.09364">
        <ele>2346.64699904</ele>
        <time>2015-04-12T07:44:44.980Z</time>
      </trkpt>
      <trkpt lat="45.24082" lon="6.09378">
        <ele>2349.49799936</ele>
        <time>2015-04-12T07:44:56.980Z</time>
      </trkpt>
      <trkpt lat="45.24081" lon="6.09392">
        <ele>2353.04699904</ele>
        <time>2015-04-12T07:45:12.980Z</time>
      </trkpt>
      <trkpt lat="45.2407" lon="6.09387">
        <ele>2356.65000192</ele>
        <time>2015-04-12T07:45:24.990Z</time>
      </trkpt>
      <trkpt lat="45.24061" lon="6.09387">
        <ele>2360.24699904</ele>
        <time>2015-04-12T07:45:36.980Z</time>
      </trkpt>
      <trkpt lat="45.24064" lon="6.09404">
        <ele>2367.64699904</ele>
        <time>2015-04-12T07:46:04.980Z</time>
      </trkpt>
      <trkpt lat="45.24067" lon="6.09418">
        <ele>2370.50200064</ele>
        <time>2015-04-12T07:46:17.000Z</time>
      </trkpt>
      <trkpt lat="45.24072" lon="6.09432">
        <ele>2373.84699904</ele>
        <time>2015-04-12T07:46:28.980Z</time>
      </trkpt>
      <trkpt lat="45.24079" lon="6.09447">
        <ele>2378.09799936</ele>
        <time>2015-04-12T07:46:44.980Z</time>
      </trkpt>
      <trkpt lat="45.24084" lon="6.09459">
        <ele>2380.50000128</ele>
        <time>2015-04-12T07:46:56.990Z</time>
      </trkpt>
      <trkpt lat="45.2409" lon="6.0947">
        <ele>2383.84699904</ele>
        <time>2015-04-12T07:47:08.980Z</time>
      </trkpt>
      <trkpt lat="45.24097" lon="6.09484">
        <ele>2386.30000128</ele>
        <time>2015-04-12T07:47:20.990Z</time>
      </trkpt>
      <trkpt lat="45.24087" lon="6.09487">
        <ele>2390.59599872</ele>
        <time>2015-04-12T07:47:40.980Z</time>
      </trkpt>
      <trkpt lat="45.24077" lon="6.09492">
        <ele>2394</ele>
        <time>2015-04-12T07:47:56.980Z</time>
      </trkpt>
      <trkpt lat="45.24078" lon="6.09509">
        <ele>2399.69799936</ele>
        <time>2015-04-12T07:48:12.980Z</time>
      </trkpt>
      <trkpt lat="45.24077" lon="6.09525">
        <ele>2404.79599872</ele>
        <time>2015-04-12T07:48:28.980Z</time>
      </trkpt>
      <trkpt lat="45.2407" lon="6.09539">
        <ele>2408.64699904</ele>
        <time>2015-04-12T07:48:44.980Z</time>
      </trkpt>
      <trkpt lat="45.24066" lon="6.09557">
        <ele>2410</ele>
        <time>2015-04-12T07:48:56.980Z</time>
      </trkpt>
      <trkpt lat="45.24064" lon="6.09571">
        <ele>2410.94899968</ele>
        <time>2015-04-12T07:49:08.980Z</time>
      </trkpt>
      <trkpt lat="45.24063" lon="6.0959">
        <ele>2417.64699904</ele>
        <time>2015-04-12T07:49:24.980Z</time>
      </trkpt>
      <trkpt lat="45.24067" lon="6.09612">
        <ele>2422.16400128</ele>
        <time>2015-04-12T07:49:42.400Z</time>
      </trkpt>
      <trkpt lat="45.24057" lon="6.09618">
        <ele>2425.36300288</ele>
        <time>2015-04-12T07:49:50.700Z</time>
      </trkpt>
      <trkpt lat="45.24047" lon="6.09616">
        <ele>2430.44699904</ele>
        <time>2015-04-12T07:50:10.980Z</time>
      </trkpt>
      <trkpt lat="45.24037" lon="6.09626">
        <ele>2432.84699904</ele>
        <time>2015-04-12T07:50:18.980Z</time>
      </trkpt>
      <trkpt lat="45.24032" lon="6.09647">
        <ele>2435.59599872</ele>
        <time>2015-04-12T07:50:30.980Z</time>
      </trkpt>
      <trkpt lat="45.24028" lon="6.09663">
        <ele>2439.69799936</ele>
        <time>2015-04-12T07:50:42.980Z</time>
      </trkpt>
      <trkpt lat="45.2403" lon="6.09677">
        <ele>2441.29799936</ele>
        <time>2015-04-12T07:50:50.980Z</time>
      </trkpt>
      <trkpt lat="45.24038" lon="6.09686">
        <ele>2451.34899968</ele>
        <time>2015-04-12T07:51:22.980Z</time>
      </trkpt>
      <trkpt lat="45.24044" lon="6.09706">
        <ele>2454.84699904</ele>
        <time>2015-04-12T07:51:38.980Z</time>
      </trkpt>
      <trkpt lat="45.24047" lon="6.0972">
        <ele>2459.19599872</ele>
        <time>2015-04-12T07:51:54.980Z</time>
      </trkpt>
      <trkpt lat="45.24036" lon="6.09732">
        <ele>2463.64699904</ele>
        <time>2015-04-12T07:52:14.980Z</time>
      </trkpt>
      <trkpt lat="45.24026" lon="6.09738">
        <ele>2465.44199936</ele>
        <time>2015-04-12T07:52:21.700Z</time>
      </trkpt>
      <trkpt lat="45.24016" lon="6.09731">
        <ele>2471.49800192</ele>
        <time>2015-04-12T07:52:41.980Z</time>
      </trkpt>
      <trkpt lat="45.24009" lon="6.09752">
        <ele>2474.34700288</ele>
        <time>2015-04-12T07:52:53.980Z</time>
      </trkpt>
      <trkpt lat="45.2401" lon="6.09766">
        <ele>2476</ele>
        <time>2015-04-12T07:53:01.980Z</time>
      </trkpt>
      <trkpt lat="45.24002" lon="6.09777">
        <ele>2476.2450048</ele>
        <time>2015-04-12T07:53:09.980Z</time>
      </trkpt>
      <trkpt lat="45.23991" lon="6.09787">
        <ele>2482.94700288</ele>
        <time>2015-04-12T07:53:25.980Z</time>
      </trkpt>
      <trkpt lat="45.23989" lon="6.09805">
        <ele>2488.29800192</ele>
        <time>2015-04-12T07:53:45.980Z</time>
      </trkpt>
      <trkpt lat="45.23999" lon="6.09813">
        <ele>2491.5444559813</ele>
        <time>2015-04-12T07:53:57.980Z</time>
      </trkpt>
      <trkpt lat="45.24" lon="6.09828">
        <ele>2498.49800192</ele>
        <time>2015-04-12T07:54:21.980Z</time>
      </trkpt>
      <trkpt lat="45.23991" lon="6.09834">
        <ele>2500.14700288</ele>
        <time>2015-04-12T07:54:29.980Z</time>
      </trkpt>
      <trkpt lat="45.23979" lon="6.09841">
        <ele>2503.50000128</ele>
        <time>2015-04-12T07:54:41.990Z</time>
      </trkpt>
      <trkpt lat="45.23971" lon="6.09849">
        <ele>2506.70000128</ele>
        <time>2015-04-12T07:54:57.990Z</time>
      </trkpt>
      <trkpt lat="45.2396" lon="6.09859">
        <ele>2512</ele>
        <time>2015-04-12T07:55:21.990Z</time>
      </trkpt>
      <trkpt lat="45.23972" lon="6.09866">
        <ele>2512.2500032</ele>
        <time>2015-04-12T07:55:29.990Z</time>
      </trkpt>
      <trkpt lat="45.23982" lon="6.09871">
        <ele>2521.95600128</ele>
        <time>2015-04-12T07:56:01.880Z</time>
      </trkpt>
      <trkpt lat="45.23996" lon="6.09873">
        <ele>2525.89800192</ele>
        <time>2015-04-12T07:56:13.980Z</time>
      </trkpt>
      <trkpt lat="45.2401" lon="6.09882">
        <ele>2528.30000128</ele>
        <time>2015-04-12T07:56:25.990Z</time>
      </trkpt>
      <trkpt lat="45.24" lon="6.09893">
        <ele>2533.64900096</ele>
        <time>2015-04-12T07:56:45.980Z</time>
      </trkpt>
      <trkpt lat="45.23999" lon="6.0991">
        <ele>2536.99200768</ele>
        <time>2015-04-12T07:57:01.980Z</time>
      </trkpt>
      <trkpt lat="45.24003" lon="6.09925">
        <ele>2543.88</ele>
        <time>2015-04-12T07:57:13.890Z</time>
      </trkpt>
      <trkpt lat="45.24003" lon="6.09944">
        <ele>2548.54700288</ele>
        <time>2015-04-12T07:57:37.980Z</time>
      </trkpt>
      <trkpt lat="45.23996" lon="6.09959">
        <ele>2551.1950016</ele>
        <time>2015-04-12T07:57:49.880Z</time>
      </trkpt>
      <trkpt lat="45.23991" lon="6.09974">
        <ele>2556.63900032</ele>
        <time>2015-04-12T07:58:05.880Z</time>
      </trkpt>
      <trkpt lat="45.23995" lon="6.09991">
        <ele>2560.71700096</ele>
        <time>2015-04-12T07:58:21.880Z</time>
      </trkpt>
      <trkpt lat="45.23982" lon="6.1">
        <ele>2563.88</ele>
        <time>2015-04-12T07:58:33.890Z</time>
      </trkpt>
      <trkpt lat="45.23973" lon="6.10007">
        <ele>2565.74700288</ele>
        <time>2015-04-12T07:58:41.980Z</time>
      </trkpt>
      <trkpt lat="45.23973" lon="6.10023">
        <ele>2568.0399600016</ele>
        <time>2015-04-12T07:58:49.890Z</time>
      </trkpt>
      <trkpt lat="45.23973" lon="6.1004">
        <ele>2569.9529513061</ele>
        <time>2015-04-12T07:59:01.880Z</time>
      </trkpt>
      <trkpt lat="45.23964" lon="6.10053">
        <ele>2574.32</ele>
        <time>2015-04-12T07:59:13.890Z</time>
      </trkpt>
      <trkpt lat="45.23962" lon="6.1007">
        <ele>2577.27800064</ele>
        <time>2015-04-12T07:59:25.880Z</time>
      </trkpt>
      <trkpt lat="45.23958" lon="6.10085">
        <ele>2582.47800064</ele>
        <time>2015-04-12T07:59:41.880Z</time>
      </trkpt>
      <trkpt lat="45.23952" lon="6.10102">
        <ele>2586.23900032</ele>
        <time>2015-04-12T08:00:01.880Z</time>
      </trkpt>
      <trkpt lat="45.23952" lon="6.10116">
        <ele>2587.03900032</ele>
        <time>2015-04-12T08:00:09.880Z</time>
      </trkpt>
      <trkpt lat="45.2395" lon="6.10134">
        <ele>2591.1950016</ele>
        <time>2015-04-12T08:00:25.880Z</time>
      </trkpt>
      <trkpt lat="45.23949" lon="6.1015">
        <ele>2595.71700096</ele>
        <time>2015-04-12T08:00:41.880Z</time>
      </trkpt>
      <trkpt lat="45.23955" lon="6.10165">
        <ele>2598.07800064</ele>
        <time>2015-04-12T08:00:49.880Z</time>
      </trkpt>
      <trkpt lat="45.2395" lon="6.10179">
        <ele>2600.95600128</ele>
        <time>2015-04-12T08:01:01.880Z</time>
      </trkpt>
      <trkpt lat="45.2395" lon="6.10196">
        <ele>2605.95600128</ele>
        <time>2015-04-12T08:01:21.880Z</time>
      </trkpt>
      <trkpt lat="45.2395" lon="6.10213">
        <ele>2609.87800064</ele>
        <time>2015-04-12T08:01:33.880Z</time>
      </trkpt>
      <trkpt lat="45.23944" lon="6.10229">
        <ele>2611.47800064</ele>
        <time>2015-04-12T08:01:41.880Z</time>
      </trkpt>
      <trkpt lat="45.23943" lon="6.10245">
        <ele>2613.15600128</ele>
        <time>2015-04-12T08:01:49.880Z</time>
      </trkpt>
      <trkpt lat="45.23949" lon="6.1026">
        <ele>2617.47800064</ele>
        <time>2015-04-12T08:02:01.880Z</time>
      </trkpt>
      <trkpt lat="45.23947" lon="6.10274">
        <ele>2624.15600128</ele>
        <time>2015-04-12T08:02:29.880Z</time>
      </trkpt>
      <trkpt lat="45.2395" lon="6.10295">
        <ele>2628.48</ele>
        <time>2015-04-12T08:02:41.890Z</time>
      </trkpt>
      <trkpt lat="45.23949" lon="6.10311">
        <ele>2631.68</ele>
        <time>2015-04-12T08:02:57.890Z</time>
      </trkpt>
      <trkpt lat="45.23942" lon="6.10326">
        <ele>2632.64</ele>
        <time>2015-04-12T08:03:05.890Z</time>
      </trkpt>
      <trkpt lat="45.2393" lon="6.10342">
        <ele>2635.51700096</ele>
        <time>2015-04-12T08:03:17.880Z</time>
      </trkpt>
      <trkpt lat="45.23928" lon="6.10356">
        <ele>2641.3566401375</ele>
        <time>2015-04-12T08:03:37.890Z</time>
      </trkpt>
      <trkpt lat="45.2393" lon="6.10371">
        <ele>2643.2792785867</ele>
        <time>2015-04-12T08:03:45.890Z</time>
      </trkpt>
      <trkpt lat="45.23934" lon="6.10389">
        <ele>2644</ele>
        <time>2015-04-12T08:03:57.880Z</time>
      </trkpt>
      <trkpt lat="45.23936" lon="6.10403">
        <ele>2649.12</ele>
        <time>2015-04-12T08:04:09.890Z</time>
      </trkpt>
      <trkpt lat="45.23929" lon="6.10418">
        <ele>2652.47800064</ele>
        <time>2015-04-12T08:04:21.880Z</time>
      </trkpt>
      <trkpt lat="45.23921" lon="6.10428">
        <ele>2659</ele>
        <time>2015-04-12T08:04:53.880Z</time>
      </trkpt>
      <trkpt lat="45.23925" lon="6.10449">
        <ele>2662.1950016</ele>
        <time>2015-04-12T08:05:13.880Z</time>
      </trkpt>
      <trkpt lat="45.23923" lon="6.10468">
        <ele>2665.47800064</ele>
        <time>2015-04-12T08:05:21.880Z</time>
      </trkpt>
      <trkpt lat="45.23915" lon="6.10482">
        <ele>2669.51700096</ele>
        <time>2015-04-12T08:05:37.880Z</time>
      </trkpt>
      <trkpt lat="45.23906" lon="6.10492">
        <ele>2676.35600128</ele>
        <time>2015-04-12T08:05:57.880Z</time>
      </trkpt>
      <trkpt lat="45.23903" lon="6.10509">
        <ele>2680.67800064</ele>
        <time>2015-04-12T08:06:17.880Z</time>
      </trkpt>
      <trkpt lat="45.23904" lon="6.10523">
        <ele>2682.27800064</ele>
        <time>2015-04-12T08:06:25.880Z</time>
      </trkpt>
      <trkpt lat="45.23905" lon="6.10539">
        <ele>2684.31700096</ele>
        <time>2015-04-12T08:06:33.880Z</time>
      </trkpt>
      <trkpt lat="45.23908" lon="6.10556">
        <ele>2690.88</ele>
        <time>2015-04-12T08:06:53.890Z</time>
      </trkpt>
      <trkpt lat="45.23914" lon="6.1057">
        <ele>2694.75600128</ele>
        <time>2015-04-12T08:07:13.880Z</time>
      </trkpt>
      <trkpt lat="45.23914" lon="6.10591">
        <ele>2702.35600128</ele>
        <time>2015-04-12T08:07:37.880Z</time>
      </trkpt>
      <trkpt lat="45.23914" lon="6.10607">
        <ele>2703.63900032</ele>
        <time>2015-04-12T08:07:45.880Z</time>
      </trkpt>
      <trkpt lat="45.23921" lon="6.10621">
        <ele>2707.36</ele>
        <time>2015-04-12T08:07:57.890Z</time>
      </trkpt>
      <trkpt lat="45.23917" lon="6.10635">
        <ele>2711.76</ele>
        <time>2015-04-12T08:08:13.890Z</time>
      </trkpt>
      <trkpt lat="45.23903" lon="6.10641">
        <ele>2718.68</ele>
        <time>2015-04-12T08:08:37.890Z</time>
      </trkpt>
      <trkpt lat="45.23894" lon="6.10634">
        <ele>2719</ele>
        <time>2015-04-12T08:08:45.890Z</time>
      </trkpt>
      <trkpt lat="45.23883" lon="6.10634">
        <ele>2723.72</ele>
        <time>2015-04-12T08:09:01.890Z</time>
      </trkpt>
      <trkpt lat="45.23873" lon="6.10631">
        <ele>2728.64</ele>
        <time>2015-04-12T08:09:25.890Z</time>
      </trkpt>
      <trkpt lat="45.23865" lon="6.10619">
        <ele>2729.84</ele>
        <time>2015-04-12T08:09:37.890Z</time>
      </trkpt>
      <trkpt lat="45.23856" lon="6.10628">
        <ele>2733.16</ele>
        <time>2015-04-12T08:09:49.890Z</time>
      </trkpt>
      <trkpt lat="45.23864" lon="6.10642">
        <ele>2737.64</ele>
        <time>2015-04-12T08:10:05.890Z</time>
      </trkpt>
      <trkpt lat="45.23873" lon="6.10655">
        <ele>2740.51700096</ele>
        <time>2015-04-12T08:10:17.880Z</time>
      </trkpt>
      <trkpt lat="45.23871" lon="6.10673">
        <ele>2742.12</ele>
        <time>2015-04-12T08:10:29.890Z</time>
      </trkpt>
      <trkpt lat="45.23869" lon="6.10688">
        <ele>2745</ele>
        <time>2015-04-12T08:10:45.880Z</time>
      </trkpt>
      <trkpt lat="45.23874" lon="6.10704">
        <ele>2750.23900032</ele>
        <time>2015-04-12T08:11:01.880Z</time>
      </trkpt>
      <trkpt lat="45.23878" lon="6.10719">
        <ele>2757.27800064</ele>
        <time>2015-04-12T08:12:05.880Z</time>
      </trkpt>
      <trkpt lat="45.2387" lon="6.10733">
        <ele>2765.67800064</ele>
        <time>2015-04-12T08:12:37.880Z</time>
      </trkpt>
      <trkpt lat="45.23875" lon="6.10747">
        <ele>2773.07800064</ele>
        <time>2015-04-12T08:13:09.880Z</time>
      </trkpt>
      <trkpt lat="45.23866" lon="6.10754">
        <ele>2784</ele>
        <time>2015-04-12T08:14:01.610Z</time>
      </trkpt>
      <trkpt lat="45.23859" lon="6.10765">
        <ele>2788.2</ele>
        <time>2015-04-12T08:14:17.890Z</time>
      </trkpt>
      <trkpt lat="45.23847" lon="6.10766">
        <ele>2794.63900032</ele>
        <time>2015-04-12T08:14:45.880Z</time>
      </trkpt>
      <trkpt lat="45.23851" lon="6.10782">
        <ele>2803.63900032</ele>
        <time>2015-04-12T08:15:25.880Z</time>
      </trkpt>
      <trkpt lat="45.23862" lon="6.10789">
        <ele>2813.03900032</ele>
        <time>2015-04-12T08:16:09.880Z</time>
      </trkpt>
      <trkpt lat="45.2387" lon="6.108">
        <ele>2817</ele>
        <time>2015-04-12T08:16:33.880Z</time>
      </trkpt>
      <trkpt lat="45.23876" lon="6.1079">
        <ele>2817.23900032</ele>
        <time>2015-04-12T08:17:01.880Z</time>
      </trkpt>
      <trkpt lat="45.23888" lon="6.10792">
        <ele>2818</ele>
        <time>2015-04-12T08:17:13.880Z</time>
      </trkpt>
      <trkpt lat="45.23903" lon="6.10795">
        <ele>2818</ele>
        <time>2015-04-12T08:17:41.880Z</time>
      </trkpt>
      <trkpt lat="45.23927" lon="6.10787">
        <ele>2818</ele>
        <time>2015-04-12T08:17:53.880Z</time>
      </trkpt>
      <trkpt lat="45.23938" lon="6.10788">
        <ele>2818</ele>
        <time>2015-04-12T08:18:05.890Z</time>
      </trkpt>
      <trkpt lat="45.23948" lon="6.10792">
        <ele>2819.96</ele>
        <time>2015-04-12T08:18:21.890Z</time>
      </trkpt>
      <trkpt lat="45.23959" lon="6.10794">
        <ele>2823</ele>
        <time>2015-04-12T08:18:37.890Z</time>
      </trkpt>
      <trkpt lat="45.23968" lon="6.10782">
        <ele>2826.07800064</ele>
        <time>2015-04-12T08:18:49.880Z</time>
      </trkpt>
      <trkpt lat="45.23982" lon="6.10779">
        <ele>2830.55600128</ele>
        <time>2015-04-12T08:19:05.880Z</time>
      </trkpt>
      <trkpt lat="45.23992" lon="6.10784">
        <ele>2834.47800064</ele>
        <time>2015-04-12T08:19:21.880Z</time>
      </trkpt>
      <trkpt lat="45.24004" lon="6.10783">
        <ele>2836</ele>
        <time>2015-04-12T08:19:33.880Z</time>
      </trkpt>
      <trkpt lat="45.24011" lon="6.10766">
        <ele>2840.1950016</ele>
        <time>2015-04-12T08:19:49.880Z</time>
      </trkpt>
      <trkpt lat="45.24021" lon="6.10762">
        <ele>2846.07800064</ele>
        <time>2015-04-12T08:20:09.880Z</time>
      </trkpt>
      <trkpt lat="45.24032" lon="6.1077">
        <ele>2848.23900032</ele>
        <time>2015-04-12T08:20:21.880Z</time>
      </trkpt>
      <trkpt lat="45.24041" lon="6.10778">
        <ele>2852.35600128</ele>
        <time>2015-04-12T08:20:37.880Z</time>
      </trkpt>
      <trkpt lat="45.24052" lon="6.10786">
        <ele>2857.87800064</ele>
        <time>2015-04-12T08:20:53.880Z</time>
      </trkpt>
      <trkpt lat="45.24063" lon="6.10786">
        <ele>2860.27800064</ele>
        <time>2015-04-12T08:21:05.880Z</time>
      </trkpt>
      <trkpt lat="45.24059" lon="6.1077">
        <ele>2870.92</ele>
        <time>2015-04-12T08:21:45.890Z</time>
      </trkpt>
      <trkpt lat="45.24061" lon="6.10755">
        <ele>2872.83900032</ele>
        <time>2015-04-12T08:21:57.880Z</time>
      </trkpt>
      <trkpt lat="45.24066" lon="6.1074">
        <ele>2876.07800064</ele>
        <time>2015-04-12T08:22:09.880Z</time>
      </trkpt>
      <trkpt lat="45.24069" lon="6.10756">
        <ele>2883.83900032</ele>
        <time>2015-04-12T08:22:37.880Z</time>
      </trkpt>
      <trkpt lat="45.24081" lon="6.10748">
        <ele>2888.64</ele>
        <time>2015-04-12T08:23:05.890Z</time>
      </trkpt>
      <trkpt lat="45.24088" lon="6.10734">
        <ele>2891.2</ele>
        <time>2015-04-12T08:23:13.890Z</time>
      </trkpt>
      <trkpt lat="45.24093" lon="6.10721">
        <ele>2901.11700096</ele>
        <time>2015-04-12T08:23:49.880Z</time>
      </trkpt>
      <trkpt lat="45.24105" lon="6.1072">
        <ele>2907.31700096</ele>
        <time>2015-04-12T08:24:13.880Z</time>
      </trkpt>
      <trkpt lat="45.24114" lon="6.10728">
        <ele>2918.52</ele>
        <time>2015-04-12T08:24:57.890Z</time>
      </trkpt>
      <trkpt lat="45.24116" lon="6.10743">
        <ele>2921.07800064</ele>
        <time>2015-04-12T08:25:09.880Z</time>
      </trkpt>
      <trkpt lat="45.24127" lon="6.10744">
        <ele>2923.24</ele>
        <time>2015-04-12T08:25:21.890Z</time>
      </trkpt>
      <trkpt lat="45.24131" lon="6.1076">
        <ele>2926.52</ele>
        <time>2015-04-12T08:25:37.890Z</time>
      </trkpt>
      <trkpt lat="45.24141" lon="6.10757">
        <ele>2936</ele>
        <time>2015-04-12T08:26:17.890Z</time>
      </trkpt>
      <trkpt lat="45.24145" lon="6.10761">
        <ele>2936</ele>
        <time>2015-04-12T08:32:18.990Z</time>
      </trkpt>
      <trkpt lat="45.24156" lon="6.10782">
        <ele>2934.46099968</ele>
        <time>2015-04-12T08:40:14.880Z</time>
      </trkpt>
      <trkpt lat="45.24171" lon="6.10812">
        <ele>2932.98599168</ele>
        <time>2015-04-12T08:40:19.880Z</time>
      </trkpt>
      <trkpt lat="45.24185" lon="6.10837">
        <ele>2919.96</ele>
        <time>2015-04-12T08:40:24.890Z</time>
      </trkpt>
      <trkpt lat="45.24202" lon="6.10852">
        <ele>2907.36</ele>
        <time>2015-04-12T08:40:29.890Z</time>
      </trkpt>
      <trkpt lat="45.24218" lon="6.10869">
        <ele>2899.37599488</ele>
        <time>2015-04-12T08:40:34.880Z</time>
      </trkpt>
      <trkpt lat="45.24215" lon="6.10895">
        <ele>2891.16099968</ele>
        <time>2015-04-12T08:40:47.880Z</time>
      </trkpt>
      <trkpt lat="45.24216" lon="6.10953">
        <ele>2884.44</ele>
        <time>2015-04-12T08:41:01.090Z</time>
      </trkpt>
      <trkpt lat="45.24228" lon="6.11035">
        <ele>2851.64</ele>
        <time>2015-04-12T08:41:09.090Z</time>
      </trkpt>
      <trkpt lat="45.24246" lon="6.11126">
        <ele>2832.52</ele>
        <time>2015-04-12T08:41:17.090Z</time>
      </trkpt>
      <trkpt lat="45.24263" lon="6.11204">
        <ele>2810.76</ele>
        <time>2015-04-12T08:41:25.090Z</time>
      </trkpt>
      <trkpt lat="45.24286" lon="6.11278">
        <ele>2786.48</ele>
        <time>2015-04-12T08:41:33.090Z</time>
      </trkpt>
      <trkpt lat="45.24307" lon="6.11368">
        <ele>2762.16</ele>
        <time>2015-04-12T08:41:41.090Z</time>
      </trkpt>
      <trkpt lat="45.24334" lon="6.11455">
        <ele>2742.96</ele>
        <time>2015-04-12T08:41:49.090Z</time>
      </trkpt>
      <trkpt lat="45.24362" lon="6.11527">
        <ele>2723.76</ele>
        <time>2015-04-12T08:41:57.090Z</time>
      </trkpt>
      <trkpt lat="45.24398" lon="6.11641">
        <ele>2703.44</ele>
        <time>2015-04-12T08:42:05.090Z</time>
      </trkpt>
      <trkpt lat="45.24459" lon="6.11695">
        <ele>2680.84</ele>
        <time>2015-04-12T08:42:13.090Z</time>
      </trkpt>
      <trkpt lat="45.24516" lon="6.11762">
        <ele>2655.88</ele>
        <time>2015-04-12T08:42:21.090Z</time>
      </trkpt>
      <trkpt lat="45.24578" lon="6.11851">
        <ele>2630.28</ele>
        <time>2015-04-12T08:42:29.090Z</time>
      </trkpt>
      <trkpt lat="45.24631" lon="6.11913">
        <ele>2610</ele>
        <time>2015-04-12T08:42:37.090Z</time>
      </trkpt>
      <trkpt lat="45.24688" lon="6.11954">
        <ele>2587.8299904</ele>
        <time>2015-04-12T08:42:44.880Z</time>
      </trkpt>
      <trkpt lat="45.24712" lon="6.12052">
        <ele>2563.15198976</ele>
        <time>2015-04-12T08:42:52.880Z</time>
      </trkpt>
      <trkpt lat="45.24748" lon="6.12121">
        <ele>2538.10799104</ele>
        <time>2015-04-12T08:43:00.880Z</time>
      </trkpt>
      <trkpt lat="45.24788" lon="6.12218">
        <ele>2515.70799104</ele>
        <time>2015-04-12T08:43:08.880Z</time>
      </trkpt>
      <trkpt lat="45.24839" lon="6.12303">
        <ele>2494.524992</ele>
        <time>2015-04-12T08:43:17.280Z</time>
      </trkpt>
      <trkpt lat="45.24872" lon="6.12291">
        <ele>2476.26199296</ele>
        <time>2015-04-12T08:43:25.280Z</time>
      </trkpt>
      <trkpt lat="45.24938" lon="6.12257">
        <ele>2460.2199936</ele>
        <time>2015-04-12T08:43:32.880Z</time>
      </trkpt>
      <trkpt lat="45.25024" lon="6.12322">
        <ele>2441.75298944</ele>
        <time>2015-04-12T08:43:41.080Z</time>
      </trkpt>
      <trkpt lat="45.25083" lon="6.12429">
        <ele>2416.01298944</ele>
        <time>2015-04-12T08:43:48.880Z</time>
      </trkpt>
      <trkpt lat="45.25163" lon="6.12548">
        <ele>2396.54299264</ele>
        <time>2015-04-12T08:43:57.080Z</time>
      </trkpt>
      <trkpt lat="45.25223" lon="6.12618">
        <ele>2380.37899392</ele>
        <time>2015-04-12T08:44:05.080Z</time>
      </trkpt>
      <trkpt lat="45.25267" lon="6.12674">
        <ele>2362.30699136</ele>
        <time>2015-04-12T08:44:13.080Z</time>
      </trkpt>
      <trkpt lat="45.25315" lon="6.12702">
        <ele>2344.2049984</ele>
        <time>2015-04-12T08:44:21.080Z</time>
      </trkpt>
      <trkpt lat="45.25305" lon="6.12699">
        <ele>2340.2049984</ele>
        <time>2015-04-12T08:44:29.080Z</time>
      </trkpt>
      <trkpt lat="45.25306" lon="6.12717">
        <ele>2340</ele>
        <time>2015-04-12T08:44:37.080Z</time>
      </trkpt>
      <trkpt lat="45.25332" lon="6.12744">
        <ele>2318.3600128</ele>
        <time>2015-04-12T08:44:44.900Z</time>
      </trkpt>
      <trkpt lat="45.25394" lon="6.1281">
        <ele>2281.69098368</ele>
        <time>2015-04-12T08:44:53.080Z</time>
      </trkpt>
      <trkpt lat="45.25462" lon="6.12863">
        <ele>2245.024992</ele>
        <time>2015-04-12T08:45:01.080Z</time>
      </trkpt>
      <trkpt lat="45.25511" lon="6.12944">
        <ele>2225.024992</ele>
        <time>2015-04-12T08:45:09.080Z</time>
      </trkpt>
      <trkpt lat="45.2558" lon="6.12986">
        <ele>2209.57899392</ele>
        <time>2015-04-12T08:45:17.080Z</time>
      </trkpt>
      <trkpt lat="45.25646" lon="6.13016">
        <ele>2193.26099328</ele>
        <time>2015-04-12T08:45:25.080Z</time>
      </trkpt>
      <trkpt lat="45.25655" lon="6.12988">
        <ele>2181.95900032</ele>
        <time>2015-04-12T08:45:49.080Z</time>
      </trkpt>
      <trkpt lat="45.25649" lon="6.12975">
        <ele>2182</ele>
        <time>2015-04-12T08:45:57.080Z</time>
      </trkpt>
      <trkpt lat="45.25639" lon="6.12966">
        <ele>2182</ele>
        <time>2015-04-12T08:46:13.080Z</time>
      </trkpt>
      <trkpt lat="45.2563" lon="6.12974">
        <ele>2182</ele>
        <time>2015-04-12T08:46:29.080Z</time>
      </trkpt>
      <trkpt lat="45.25644" lon="6.12977">
        <ele>2182</ele>
        <time>2015-04-12T08:47:25.080Z</time>
      </trkpt>
      <trkpt lat="45.25696" lon="6.12994">
        <ele>2173.72</ele>
        <time>2015-04-12T08:47:33.090Z</time>
      </trkpt>
      <trkpt lat="45.25719" lon="6.12958">
        <ele>2158.68</ele>
        <time>2015-04-12T08:47:41.090Z</time>
      </trkpt>
      <trkpt lat="45.25729" lon="6.12959">
        <ele>2157</ele>
        <time>2015-04-12T08:47:57.090Z</time>
      </trkpt>
      <trkpt lat="45.25719" lon="6.12966">
        <ele>2157</ele>
        <time>2015-04-12T08:48:17.080Z</time>
      </trkpt>
      <trkpt lat="45.25729" lon="6.12965">
        <ele>2156</ele>
        <time>2015-04-12T08:48:53.080Z</time>
      </trkpt>
      <trkpt lat="45.25715" lon="6.1297">
        <ele>2156.75900032</ele>
        <time>2015-04-12T08:49:17.080Z</time>
      </trkpt>
      <trkpt lat="45.25727" lon="6.1297">
        <ele>2156.75900032</ele>
        <time>2015-04-12T08:49:57.080Z</time>
      </trkpt>
      <trkpt lat="45.25717" lon="6.1297">
        <ele>2157</ele>
        <time>2015-04-12T08:50:09.090Z</time>
      </trkpt>
      <trkpt lat="45.25729" lon="6.12972">
        <ele>2156</ele>
        <time>2015-04-12T08:51:21.080Z</time>
      </trkpt>
      <trkpt lat="45.25717" lon="6.12975">
        <ele>2156</ele>
        <time>2015-04-12T08:51:41.080Z</time>
      </trkpt>
      <trkpt lat="45.25708" lon="6.1298">
        <ele>2156</ele>
        <time>2015-04-12T08:52:37.090Z</time>
      </trkpt>
      <trkpt lat="45.2572" lon="6.12975">
        <ele>2156.84</ele>
        <time>2015-04-12T08:53:01.090Z</time>
      </trkpt>
      <trkpt lat="45.25709" lon="6.1297">
        <ele>2156.07799936</ele>
        <time>2015-04-12T08:53:48.710Z</time>
      </trkpt>
      <trkpt lat="45.2572" lon="6.12967">
        <ele>2157</ele>
        <time>2015-04-12T08:54:01.080Z</time>
      </trkpt>
      <trkpt lat="45.2571" lon="6.12973">
        <ele>2157</ele>
        <time>2015-04-12T08:54:29.080Z</time>
      </trkpt>
      <trkpt lat="45.25721" lon="6.12972">
        <ele>2156</ele>
        <time>2015-04-12T08:57:32.980Z</time>
      </trkpt>
      <trkpt lat="45.25712" lon="6.12982">
        <ele>2155.54899968</ele>
        <time>2015-04-12T08:58:04.980Z</time>
      </trkpt>
      <trkpt lat="45.25716" lon="6.12968">
        <ele>2156</ele>
        <time>2015-04-12T08:58:17.180Z</time>
      </trkpt>
      <trkpt lat="45.25726" lon="6.12976">
        <ele>2155</ele>
        <time>2015-04-12T09:00:08.980Z</time>
      </trkpt>
      <trkpt lat="45.25715" lon="6.12976">
        <ele>2155</ele>
        <time>2015-04-12T09:00:16.980Z</time>
      </trkpt>
      <trkpt lat="45.25723" lon="6.12966">
        <ele>2158</ele>
        <time>2015-04-12T09:00:53.710Z</time>
      </trkpt>
      <trkpt lat="45.2571" lon="6.12965">
        <ele>2155</ele>
        <time>2015-04-12T09:01:41.700Z</time>
      </trkpt>
      <trkpt lat="45.25722" lon="6.1297">
        <ele>2155</ele>
        <time>2015-04-12T09:01:59.810Z</time>
      </trkpt>
      <trkpt lat="45.25708" lon="6.12973">
        <ele>2155</ele>
        <time>2015-04-12T09:02:30.810Z</time>
      </trkpt>
      <trkpt lat="45.25706" lon="6.12958">
        <ele>2155</ele>
        <time>2015-04-12T09:02:38.710Z</time>
      </trkpt>
      <trkpt lat="45.25715" lon="6.12968">
        <ele>2155</ele>
        <time>2015-04-12T09:03:02.980Z</time>
      </trkpt>
      <trkpt lat="45.25706" lon="6.12976">
        <ele>2156</ele>
        <time>2015-04-12T09:04:54.980Z</time>
      </trkpt>
      <trkpt lat="45.25718" lon="6.12972">
        <ele>2156</ele>
        <time>2015-04-12T09:05:18.980Z</time>
      </trkpt>
      <trkpt lat="45.25727" lon="6.12967">
        <ele>2156</ele>
        <time>2015-04-12T09:05:39.180Z</time>
      </trkpt>
      <trkpt lat="45.25703" lon="6.12968">
        <ele>2156</ele>
        <time>2015-04-12T09:06:02.980Z</time>
      </trkpt>
      <trkpt lat="45.25725" lon="6.1297">
        <ele>2156</ele>
        <time>2015-04-12T09:06:26.980Z</time>
      </trkpt>
      <trkpt lat="45.2579" lon="6.12984">
        <ele>2156</ele>
        <time>2015-04-12T09:06:34.980Z</time>
      </trkpt>
      <trkpt lat="45.25859" lon="6.12995">
        <ele>2150.41600512</ele>
        <time>2015-04-12T09:06:42.980Z</time>
      </trkpt>
      <trkpt lat="45.25914" lon="6.12964">
        <ele>2138.95700224</ele>
        <time>2015-04-12T09:06:50.980Z</time>
      </trkpt>
      <trkpt lat="45.25968" lon="6.12928">
        <ele>2133.35700224</ele>
        <time>2015-04-12T09:06:58.980Z</time>
      </trkpt>
      <trkpt lat="45.25987" lon="6.12902">
        <ele>2132.85100032</ele>
        <time>2015-04-12T09:07:10.980Z</time>
      </trkpt>
      <trkpt lat="45.26002" lon="6.12882">
        <ele>2132.05100032</ele>
        <time>2015-04-12T09:07:18.980Z</time>
      </trkpt>
      <trkpt lat="45.26011" lon="6.12875">
        <ele>2132.05100032</ele>
        <time>2015-04-12T09:07:38.980Z</time>
      </trkpt>
      <trkpt lat="45.26024" lon="6.12864">
        <ele>2135.45100032</ele>
        <time>2015-04-12T09:09:54.980Z</time>
      </trkpt>
      <trkpt lat="45.26037" lon="6.1286">
        <ele>2136.5495497573</ele>
        <time>2015-04-12T09:10:14.990Z</time>
      </trkpt>
      <trkpt lat="45.26051" lon="6.12861">
        <ele>2141.15000064</ele>
        <time>2015-04-12T09:10:30.990Z</time>
      </trkpt>
      <trkpt lat="45.26063" lon="6.1285">
        <ele>2141.95000064</ele>
        <time>2015-04-12T09:10:38.990Z</time>
      </trkpt>
      <trkpt lat="45.26074" lon="6.12839">
        <ele>2144.59599872</ele>
        <time>2015-04-12T09:10:50.980Z</time>
      </trkpt>
      <trkpt lat="45.26075" lon="6.12825">
        <ele>2150.24699904</ele>
        <time>2015-04-12T09:11:06.980Z</time>
      </trkpt>
      <trkpt lat="45.26082" lon="6.12816">
        <ele>2155.44699904</ele>
        <time>2015-04-12T09:11:30.980Z</time>
      </trkpt>
      <trkpt lat="45.26082" lon="6.12834">
        <ele>2158.70000128</ele>
        <time>2015-04-12T09:11:42.990Z</time>
      </trkpt>
      <trkpt lat="45.26087" lon="6.12851">
        <ele>2161.90000128</ele>
        <time>2015-04-12T09:11:58.990Z</time>
      </trkpt>
      <trkpt lat="45.2609" lon="6.12865">
        <ele>2166.29799936</ele>
        <time>2015-04-12T09:12:10.980Z</time>
      </trkpt>
      <trkpt lat="45.26083" lon="6.12877">
        <ele>2169.49799936</ele>
        <time>2015-04-12T09:12:26.980Z</time>
      </trkpt>
      <trkpt lat="45.26098" lon="6.12877">
        <ele>2176.79599872</ele>
        <time>2015-04-12T09:12:58.980Z</time>
      </trkpt>
      <trkpt lat="45.26108" lon="6.12883">
        <ele>2184.65000192</ele>
        <time>2015-04-12T09:13:34.990Z</time>
      </trkpt>
      <trkpt lat="45.26117" lon="6.12871">
        <ele>2186</ele>
        <time>2015-04-12T09:13:46.980Z</time>
      </trkpt>
      <trkpt lat="45.26121" lon="6.12853">
        <ele>2188.78700288</ele>
        <time>2015-04-12T09:13:58.780Z</time>
      </trkpt>
      <trkpt lat="45.26124" lon="6.12836">
        <ele>2192.93000064</ele>
        <time>2015-04-12T09:14:18.790Z</time>
      </trkpt>
      <trkpt lat="45.26126" lon="6.12854">
        <ele>2198.06000128</ele>
        <time>2015-04-12T09:14:34.790Z</time>
      </trkpt>
      <trkpt lat="45.26118" lon="6.12872">
        <ele>2199.72900096</ele>
        <time>2015-04-12T09:14:46.780Z</time>
      </trkpt>
      <trkpt lat="45.26122" lon="6.12856">
        <ele>2202.10700288</ele>
        <time>2015-04-12T09:15:03.180Z</time>
      </trkpt>
      <trkpt lat="45.26128" lon="6.12843">
        <ele>2204</ele>
        <time>2015-04-12T09:15:18.780Z</time>
      </trkpt>
      <trkpt lat="45.2614" lon="6.12837">
        <ele>2208</ele>
        <time>2015-04-12T09:15:30.790Z</time>
      </trkpt>
      <trkpt lat="45.26152" lon="6.12836">
        <ele>2209.6450048</ele>
        <time>2015-04-12T09:15:42.780Z</time>
      </trkpt>
      <trkpt lat="45.26164" lon="6.1283">
        <ele>2222.87600384</ele>
        <time>2015-04-12T09:16:39.180Z</time>
      </trkpt>
      <trkpt lat="45.26171" lon="6.1284">
        <ele>2226.90700288</ele>
        <time>2015-04-12T09:16:59.180Z</time>
      </trkpt>
      <trkpt lat="45.26174" lon="6.12856">
        <ele>2229.33800192</ele>
        <time>2015-04-12T09:17:11.180Z</time>
      </trkpt>
      <trkpt lat="45.2618" lon="6.12837">
        <ele>2235.71600384</ele>
        <time>2015-04-12T09:17:38.780Z</time>
      </trkpt>
      <trkpt lat="45.26189" lon="6.12827">
        <ele>2239.58700288</ele>
        <time>2015-04-12T09:17:54.780Z</time>
      </trkpt>
      <trkpt lat="45.26206" lon="6.12834">
        <ele>2241.72900096</ele>
        <time>2015-04-12T09:18:06.780Z</time>
      </trkpt>
      <trkpt lat="45.26217" lon="6.12834">
        <ele>2243.85800192</ele>
        <time>2015-04-12T09:18:18.780Z</time>
      </trkpt>
      <trkpt lat="45.26229" lon="6.12828">
        <ele>2245.45800192</ele>
        <time>2015-04-12T09:18:26.780Z</time>
      </trkpt>
      <trkpt lat="45.26243" lon="6.12816">
        <ele>2246.9271460745</ele>
        <time>2015-04-12T09:18:38.780Z</time>
      </trkpt>
      <trkpt lat="45.26254" lon="6.12812">
        <ele>2249.3056136629</ele>
        <time>2015-04-12T09:18:47.180Z</time>
      </trkpt>
      <trkpt lat="45.26263" lon="6.12801">
        <ele>2252.98700288</ele>
        <time>2015-04-12T09:19:02.780Z</time>
      </trkpt>
      <trkpt lat="45.26273" lon="6.12791">
        <ele>2255.16900096</ele>
        <time>2015-04-12T09:19:11.180Z</time>
      </trkpt>
      <trkpt lat="45.26291" lon="6.12773">
        <ele>2260.38700288</ele>
        <time>2015-04-12T09:19:30.780Z</time>
      </trkpt>
      <trkpt lat="45.26303" lon="6.12773">
        <ele>2263.65800192</ele>
        <time>2015-04-12T09:19:42.780Z</time>
      </trkpt>
      <trkpt lat="45.26313" lon="6.12775">
        <ele>2265.25800192</ele>
        <time>2015-04-12T09:19:50.780Z</time>
      </trkpt>
      <trkpt lat="45.26321" lon="6.12764">
        <ele>2269.19000192</ele>
        <time>2015-04-12T09:20:06.790Z</time>
      </trkpt>
      <trkpt lat="45.2633" lon="6.12755">
        <ele>2275.18700288</ele>
        <time>2015-04-12T09:20:26.780Z</time>
      </trkpt>
      <trkpt lat="45.2634" lon="6.12752">
        <ele>2276</ele>
        <time>2015-04-12T09:20:35.180Z</time>
      </trkpt>
      <trkpt lat="45.26348" lon="6.12769">
        <ele>2287</ele>
        <time>2015-04-12T09:21:14.780Z</time>
      </trkpt>
      <trkpt lat="45.26354" lon="6.12756">
        <ele>2288.47600384</ele>
        <time>2015-04-12T09:21:23.180Z</time>
      </trkpt>
      <trkpt lat="45.26356" lon="6.12741">
        <ele>2291.25800192</ele>
        <time>2015-04-12T09:21:30.780Z</time>
      </trkpt>
      <trkpt lat="45.26368" lon="6.12733">
        <ele>2292.85800192</ele>
        <time>2015-04-12T09:21:38.780Z</time>
      </trkpt>
      <trkpt lat="45.26379" lon="6.12737">
        <ele>2298.11600384</ele>
        <time>2015-04-12T09:21:54.780Z</time>
      </trkpt>
      <trkpt lat="45.2639" lon="6.12733">
        <ele>2300.98700288</ele>
        <time>2015-04-12T09:22:02.780Z</time>
      </trkpt>
      <trkpt lat="45.26401" lon="6.12733">
        <ele>2304.85800192</ele>
        <time>2015-04-12T09:22:18.780Z</time>
      </trkpt>
      <trkpt lat="45.26414" lon="6.12741">
        <ele>2308</ele>
        <time>2015-04-12T09:22:30.790Z</time>
      </trkpt>
      <trkpt lat="45.26423" lon="6.12747">
        <ele>2308</ele>
        <time>2015-04-12T09:22:38.790Z</time>
      </trkpt>
      <trkpt lat="45.26433" lon="6.12753">
        <ele>2314.25800192</ele>
        <time>2015-04-12T09:22:50.780Z</time>
      </trkpt>
      <trkpt lat="45.2645" lon="6.12751">
        <ele>2317.45800192</ele>
        <time>2015-04-12T09:23:06.780Z</time>
      </trkpt>
      <trkpt lat="45.26459" lon="6.12737">
        <ele>2322.46000128</ele>
        <time>2015-04-12T09:23:26.790Z</time>
      </trkpt>
      <trkpt lat="45.26472" lon="6.12732">
        <ele>2324.71000192</ele>
        <time>2015-04-12T09:23:35.190Z</time>
      </trkpt>
      <trkpt lat="45.26481" lon="6.12715">
        <ele>2330.9069097003</ele>
        <time>2015-04-12T09:23:59.180Z</time>
      </trkpt>
      <trkpt lat="45.26488" lon="6.12703">
        <ele>2334</ele>
        <time>2015-04-12T09:24:11.180Z</time>
      </trkpt>
      <trkpt lat="45.26518" lon="6.12702">
        <ele>2335.478522618</ele>
        <time>2015-04-12T09:24:23.190Z</time>
      </trkpt>
      <trkpt lat="45.26528" lon="6.12693">
        <ele>2338.3873867987</ele>
        <time>2015-04-12T09:24:30.790Z</time>
      </trkpt>
      <trkpt lat="45.26535" lon="6.1268">
        <ele>2340.7897915097</ele>
        <time>2015-04-12T09:24:38.790Z</time>
      </trkpt>
      <trkpt lat="45.26535" lon="6.12662">
        <ele>2345.59000192</ele>
        <time>2015-04-12T09:24:54.790Z</time>
      </trkpt>
      <trkpt lat="45.26546" lon="6.12664">
        <ele>2349.51300096</ele>
        <time>2015-04-12T09:25:11.200Z</time>
      </trkpt>
      <trkpt lat="45.26556" lon="6.12654">
        <ele>2353.10700288</ele>
        <time>2015-04-12T09:25:23.180Z</time>
      </trkpt>
      <trkpt lat="45.26565" lon="6.12665">
        <ele>2362.27600384</ele>
        <time>2015-04-12T09:25:55.180Z</time>
      </trkpt>
      <trkpt lat="45.2657" lon="6.1268">
        <ele>2364.3016986517</ele>
        <time>2015-04-12T09:26:02.510Z</time>
      </trkpt>
      <trkpt lat="45.26566" lon="6.12664">
        <ele>2366.5855871093</ele>
        <time>2015-04-12T09:26:14.780Z</time>
      </trkpt>
      <trkpt lat="45.26564" lon="6.12647">
        <ele>2368.98700288</ele>
        <time>2015-04-12T09:26:22.780Z</time>
      </trkpt>
      <trkpt lat="45.26575" lon="6.12634">
        <ele>2372.06000128</ele>
        <time>2015-04-12T09:26:34.790Z</time>
      </trkpt>
      <trkpt lat="45.26587" lon="6.12642">
        <ele>2374.10700288</ele>
        <time>2015-04-12T09:26:43.180Z</time>
      </trkpt>
      <trkpt lat="45.26598" lon="6.12652">
        <ele>2377.70700288</ele>
        <time>2015-04-12T09:26:55.180Z</time>
      </trkpt>
      <trkpt lat="45.26598" lon="6.12636">
        <ele>2384.98700288</ele>
        <time>2015-04-12T09:27:22.780Z</time>
      </trkpt>
      <trkpt lat="45.26608" lon="6.12639">
        <ele>2387.33800192</ele>
        <time>2015-04-12T09:27:31.180Z</time>
      </trkpt>
      <trkpt lat="45.26629" lon="6.12652">
        <ele>2389.72900096</ele>
        <time>2015-04-12T09:27:46.780Z</time>
      </trkpt>
      <trkpt lat="45.26626" lon="6.12635">
        <ele>2397.51600384</ele>
        <time>2015-04-12T09:28:10.780Z</time>
      </trkpt>
      <trkpt lat="45.2664" lon="6.12647">
        <ele>2401.32900096</ele>
        <time>2015-04-12T09:28:22.780Z</time>
      </trkpt>
      <trkpt lat="45.26652" lon="6.1266">
        <ele>2405.7354720548</ele>
        <time>2015-04-12T09:28:43.180Z</time>
      </trkpt>
      <trkpt lat="45.26653" lon="6.12676">
        <ele>2410.71600384</ele>
        <time>2015-04-12T09:28:58.780Z</time>
      </trkpt>
      <trkpt lat="45.26663" lon="6.12662">
        <ele>2414.05800192</ele>
        <time>2015-04-12T09:29:14.780Z</time>
      </trkpt>
      <trkpt lat="45.26664" lon="6.12641">
        <ele>2417.19000192</ele>
        <time>2015-04-12T09:29:26.790Z</time>
      </trkpt>
      <trkpt lat="45.26672" lon="6.12623">
        <ele>2421.37000064</ele>
        <time>2015-04-12T09:29:43.190Z</time>
      </trkpt>
      <trkpt lat="45.26682" lon="6.12635">
        <ele>2422.39000192</ele>
        <time>2015-04-12T09:29:50.790Z</time>
      </trkpt>
      <trkpt lat="45.26692" lon="6.12644">
        <ele>2425.98700288</ele>
        <time>2015-04-12T09:30:02.780Z</time>
      </trkpt>
      <trkpt lat="45.26701" lon="6.12658">
        <ele>2429.93800192</ele>
        <time>2015-04-12T09:30:19.180Z</time>
      </trkpt>
      <trkpt lat="45.26708" lon="6.12678">
        <ele>2435.0570580728</ele>
        <time>2015-04-12T09:30:34.780Z</time>
      </trkpt>
      <trkpt lat="45.26721" lon="6.12674">
        <ele>2444.26000128</ele>
        <time>2015-04-12T09:31:10.790Z</time>
      </trkpt>
      <trkpt lat="45.26731" lon="6.12666">
        <ele>2447.04699904</ele>
        <time>2015-04-12T09:31:22.980Z</time>
      </trkpt>
      <trkpt lat="45.2674" lon="6.1266">
        <ele>2451.90700288</ele>
        <time>2015-04-12T09:31:39.180Z</time>
      </trkpt>
      <trkpt lat="45.26755" lon="6.12685">
        <ele>2455.70700288</ele>
        <time>2015-04-12T09:31:55.180Z</time>
      </trkpt>
      <trkpt lat="45.26762" lon="6.12694">
        <ele>2460.07600384</ele>
        <time>2015-04-12T09:32:07.180Z</time>
      </trkpt>
      <trkpt lat="45.26766" lon="6.12706">
        <ele>2462.93800192</ele>
        <time>2015-04-12T09:32:19.180Z</time>
      </trkpt>
      <trkpt lat="45.26765" lon="6.12722">
        <ele>2467.13800192</ele>
        <time>2015-04-12T09:32:35.180Z</time>
      </trkpt>
      <trkpt lat="45.26774" lon="6.12732">
        <ele>2470.24699904</ele>
        <time>2015-04-12T09:32:46.980Z</time>
      </trkpt>
      <trkpt lat="45.26784" lon="6.1273">
        <ele>2475.28</ele>
        <time>2015-04-12T09:33:00.890Z</time>
      </trkpt>
      <trkpt lat="45.26794" lon="6.12734">
        <ele>2478.51800064</ele>
        <time>2015-04-12T09:33:17.080Z</time>
      </trkpt>
      <trkpt lat="45.26803" lon="6.12733">
        <ele>2481.88</ele>
        <time>2015-04-12T09:33:29.090Z</time>
      </trkpt>
      <trkpt lat="45.26811" lon="6.12729">
        <ele>2485.47700096</ele>
        <time>2015-04-12T09:33:41.080Z</time>
      </trkpt>
      <trkpt lat="45.2682" lon="6.12727">
        <ele>2488.72</ele>
        <time>2015-04-12T09:33:53.090Z</time>
      </trkpt>
      <trkpt lat="45.26828" lon="6.12723">
        <ele>2491.67700096</ele>
        <time>2015-04-12T09:34:05.080Z</time>
      </trkpt>
      <trkpt lat="45.26833" lon="6.12734">
        <ele>2493.76</ele>
        <time>2015-04-12T09:34:17.090Z</time>
      </trkpt>
      <trkpt lat="45.26836" lon="6.12749">
        <ele>2496.87700096</ele>
        <time>2015-04-12T09:34:29.080Z</time>
      </trkpt>
      <trkpt lat="45.26837" lon="6.12758">
        <ele>2498.51800064</ele>
        <time>2015-04-12T09:34:37.080Z</time>
      </trkpt>
      <trkpt lat="45.26837" lon="6.12767">
        <ele>2500.67700096</ele>
        <time>2015-04-12T09:34:45.080Z</time>
      </trkpt>
      <trkpt lat="45.26837" lon="6.12778">
        <ele>2503.43600128</ele>
        <time>2015-04-12T09:34:53.080Z</time>
      </trkpt>
      <trkpt lat="45.26837" lon="6.1279">
        <ele>2505.44099968</ele>
        <time>2015-04-12T09:35:05.080Z</time>
      </trkpt>
      <trkpt lat="45.26838" lon="6.12802">
        <ele>2506.7950016</ele>
        <time>2015-04-12T09:35:13.080Z</time>
      </trkpt>
      <trkpt lat="45.2684" lon="6.12815">
        <ele>2512.23600128</ele>
        <time>2015-04-12T09:35:25.080Z</time>
      </trkpt>
      <trkpt lat="45.26841" lon="6.12826">
        <ele>2514.72</ele>
        <time>2015-04-12T09:35:33.090Z</time>
      </trkpt>
      <trkpt lat="45.26843" lon="6.12837">
        <ele>2517.67700096</ele>
        <time>2015-04-12T09:35:45.080Z</time>
      </trkpt>
      <trkpt lat="45.26852" lon="6.12832">
        <ele>2521.28</ele>
        <time>2015-04-12T09:35:57.090Z</time>
      </trkpt>
      <trkpt lat="45.26861" lon="6.12828">
        <ele>2523.91800064</ele>
        <time>2015-04-12T09:36:09.080Z</time>
      </trkpt>
      <trkpt lat="45.26862" lon="6.12838">
        <ele>2527.03600128</ele>
        <time>2015-04-12T09:36:17.080Z</time>
      </trkpt>
      <trkpt lat="45.26862" lon="6.12846">
        <ele>2529.67700096</ele>
        <time>2015-04-12T09:36:25.080Z</time>
      </trkpt>
      <trkpt lat="45.26865" lon="6.1286">
        <ele>2532.52</ele>
        <time>2015-04-12T09:36:37.090Z</time>
      </trkpt>
      <trkpt lat="45.26872" lon="6.12864">
        <ele>2537.44</ele>
        <time>2015-04-12T09:36:53.090Z</time>
      </trkpt>
      <trkpt lat="45.2688" lon="6.12851">
        <ele>2541.13800192</ele>
        <time>2015-04-12T09:37:05.180Z</time>
      </trkpt>
      <trkpt lat="45.26892" lon="6.12849">
        <ele>2543.53800192</ele>
        <time>2015-04-12T09:37:17.180Z</time>
      </trkpt>
      <trkpt lat="45.269" lon="6.12839">
        <ele>2545.93800192</ele>
        <time>2015-04-12T09:37:29.180Z</time>
      </trkpt>
      <trkpt lat="45.26908" lon="6.12848">
        <ele>2549.67600384</ele>
        <time>2015-04-12T09:37:41.180Z</time>
      </trkpt>
      <trkpt lat="45.26914" lon="6.12864">
        <ele>2555.30700288</ele>
        <time>2015-04-12T09:37:57.180Z</time>
      </trkpt>
      <trkpt lat="45.26922" lon="6.12872">
        <ele>2566.30700288</ele>
        <time>2015-04-12T09:38:37.180Z</time>
      </trkpt>
      <trkpt lat="45.26926" lon="6.12888">
        <ele>2569</ele>
        <time>2015-04-12T09:38:57.180Z</time>
      </trkpt>
      <trkpt lat="45.26935" lon="6.12873">
        <ele>2578.70700288</ele>
        <time>2015-04-12T09:39:25.180Z</time>
      </trkpt>
      <trkpt lat="45.2695" lon="6.1288">
        <ele>2583.70700288</ele>
        <time>2015-04-12T09:39:45.180Z</time>
      </trkpt>
      <trkpt lat="45.26948" lon="6.12896">
        <ele>2585</ele>
        <time>2015-04-12T09:39:57.190Z</time>
      </trkpt>
      <trkpt lat="45.26946" lon="6.12911">
        <ele>2590.81400576</ele>
        <time>2015-04-12T09:40:09.180Z</time>
      </trkpt>
      <trkpt lat="45.26955" lon="6.129">
        <ele>2592.34000128</ele>
        <time>2015-04-12T09:40:21.190Z</time>
      </trkpt>
      <trkpt lat="45.26962" lon="6.12886">
        <ele>2597.67600384</ele>
        <time>2015-04-12T09:40:41.180Z</time>
      </trkpt>
      <trkpt lat="45.26976" lon="6.12877">
        <ele>2601.73800192</ele>
        <time>2015-04-12T09:40:53.180Z</time>
      </trkpt>
      <trkpt lat="45.26986" lon="6.12862">
        <ele>2607.10700288</ele>
        <time>2015-04-12T09:41:13.180Z</time>
      </trkpt>
      <trkpt lat="45.26988" lon="6.12878">
        <ele>2611.90700288</ele>
        <time>2015-04-12T09:41:29.180Z</time>
      </trkpt>
      <trkpt lat="45.27" lon="6.12872">
        <ele>2618.07600384</ele>
        <time>2015-04-12T09:41:57.180Z</time>
      </trkpt>
      <trkpt lat="45.27007" lon="6.12862">
        <ele>2620.93800192</ele>
        <time>2015-04-12T09:42:09.180Z</time>
      </trkpt>
      <trkpt lat="45.27017" lon="6.12873">
        <ele>2628</ele>
        <time>2015-04-12T09:42:33.190Z</time>
      </trkpt>
      <trkpt lat="45.27026" lon="6.12864">
        <ele>2635.71000192</ele>
        <time>2015-04-12T09:43:05.190Z</time>
      </trkpt>
      <trkpt lat="45.27035" lon="6.12877">
        <ele>2640.3366735626</ele>
        <time>2015-04-12T09:43:21.190Z</time>
      </trkpt>
      <trkpt lat="45.27046" lon="6.12887">
        <ele>2648.41400576</ele>
        <time>2015-04-12T09:43:55.180Z</time>
      </trkpt>
      <trkpt lat="45.27058" lon="6.12895">
        <ele>2651.68400128</ele>
        <time>2015-04-12T09:44:02.910Z</time>
      </trkpt>
      <trkpt lat="45.27075" lon="6.12898">
        <ele>2654</ele>
        <time>2015-04-12T09:44:21.910Z</time>
      </trkpt>
      <trkpt lat="45.2709" lon="6.12899">
        <ele>2655.68400128</ele>
        <time>2015-04-12T09:44:37.910Z</time>
      </trkpt>
      <trkpt lat="45.27101" lon="6.12902">
        <ele>2658.67599872</ele>
        <time>2015-04-12T09:44:46.180Z</time>
      </trkpt>
      <trkpt lat="45.27114" lon="6.12907">
        <ele>2660.26899968</ele>
        <time>2015-04-12T09:45:02.180Z</time>
      </trkpt>
      <trkpt lat="45.27125" lon="6.12908">
        <ele>2661.06899968</ele>
        <time>2015-04-12T09:45:10.180Z</time>
      </trkpt>
      <trkpt lat="45.27139" lon="6.12911">
        <ele>2662</ele>
        <time>2015-04-12T09:45:22.180Z</time>
      </trkpt>
      <trkpt lat="45.27149" lon="6.12914">
        <ele>2662.13799936</ele>
        <time>2015-04-12T09:45:30.180Z</time>
      </trkpt>
      <trkpt lat="45.2716" lon="6.12916">
        <ele>2664</ele>
        <time>2015-04-12T09:45:46.190Z</time>
      </trkpt>
      <trkpt lat="45.27172" lon="6.12917">
        <ele>2664.47000064</ele>
        <time>2015-04-12T09:45:54.190Z</time>
      </trkpt>
      <trkpt lat="45.27184" lon="6.12922">
        <ele>2665</ele>
        <time>2015-04-12T09:46:02.190Z</time>
      </trkpt>
      <trkpt lat="45.27205" lon="6.1294">
        <ele>2665</ele>
        <time>2015-04-12T09:46:10.190Z</time>
      </trkpt>
      <trkpt lat="45.27213" lon="6.12946">
        <ele>2665</ele>
        <time>2015-04-12T09:46:18.190Z</time>
      </trkpt>
      <trkpt lat="45.2723" lon="6.12945">
        <ele>2665.47000064</ele>
        <time>2015-04-12T09:46:34.190Z</time>
      </trkpt>
      <trkpt lat="45.27245" lon="6.12944">
        <ele>2667.41399808</ele>
        <time>2015-04-12T09:46:50.180Z</time>
      </trkpt>
      <trkpt lat="45.27251" lon="6.12955">
        <ele>2673.26</ele>
        <time>2015-04-12T09:47:02.090Z</time>
      </trkpt>
      <trkpt lat="45.27263" lon="6.12966">
        <ele>2674</ele>
        <time>2015-04-12T09:47:10.280Z</time>
      </trkpt>
      <trkpt lat="45.27273" lon="6.12974">
        <ele>2674</ele>
        <time>2015-04-12T09:47:18.280Z</time>
      </trkpt>
      <trkpt lat="45.27282" lon="6.12982">
        <ele>2674.67900032</ele>
        <time>2015-04-12T09:47:26.280Z</time>
      </trkpt>
      <trkpt lat="45.27291" lon="6.12988">
        <ele>2676.91600128</ele>
        <time>2015-04-12T09:47:34.280Z</time>
      </trkpt>
      <trkpt lat="45.27299" lon="6.12988">
        <ele>2679.67900032</ele>
        <time>2015-04-12T09:47:46.280Z</time>
      </trkpt>
      <trkpt lat="45.27309" lon="6.12985">
        <ele>2681.91600128</ele>
        <time>2015-04-12T09:47:54.280Z</time>
      </trkpt>
      <trkpt lat="45.27318" lon="6.12989">
        <ele>2684.5574426622</ele>
        <time>2015-04-12T09:48:02.280Z</time>
      </trkpt>
      <trkpt lat="45.27335" lon="6.13006">
        <ele>2686</ele>
        <time>2015-04-12T09:48:14.180Z</time>
      </trkpt>
      <trkpt lat="45.27346" lon="6.13022">
        <ele>2686.54000128</ele>
        <time>2015-04-12T09:48:22.190Z</time>
      </trkpt>
      <trkpt lat="45.27359" lon="6.13031">
        <ele>2688</ele>
        <time>2015-04-12T09:48:34.080Z</time>
      </trkpt>
      <trkpt lat="45.27396" lon="6.13038">
        <ele>2685.66899712</ele>
        <time>2015-04-12T09:48:42.080Z</time>
      </trkpt>
      <trkpt lat="45.27432" lon="6.13054">
        <ele>2678.88</ele>
        <time>2015-04-12T09:48:50.090Z</time>
      </trkpt>
      <trkpt lat="45.27445" lon="6.13053">
        <ele>2677.51800064</ele>
        <time>2015-04-12T09:49:02.080Z</time>
      </trkpt>
      <trkpt lat="45.27443" lon="6.13072">
        <ele>2680.84</ele>
        <time>2015-04-12T09:49:14.090Z</time>
      </trkpt>
      <trkpt lat="45.27444" lon="6.13087">
        <ele>2683.65900032</ele>
        <time>2015-04-12T09:49:26.080Z</time>
      </trkpt>
      <trkpt lat="45.2744" lon="6.131">
        <ele>2687.51600128</ele>
        <time>2015-04-12T09:49:38.280Z</time>
      </trkpt>
      <trkpt lat="45.27455" lon="6.13116">
        <ele>2691.68</ele>
        <time>2015-04-12T09:49:57.890Z</time>
      </trkpt>
      <trkpt lat="45.27465" lon="6.13124">
        <ele>2695.03900032</ele>
        <time>2015-04-12T09:50:09.880Z</time>
      </trkpt>
      <trkpt lat="45.27472" lon="6.13134">
        <ele>2696.23900032</ele>
        <time>2015-04-12T09:50:21.880Z</time>
      </trkpt>
      <trkpt lat="45.27483" lon="6.13151">
        <ele>2697.03900032</ele>
        <time>2015-04-12T09:50:29.880Z</time>
      </trkpt>
      <trkpt lat="45.27491" lon="6.13165">
        <ele>2697.87900032</ele>
        <time>2015-04-12T09:50:38.280Z</time>
      </trkpt>
      <trkpt lat="45.27504" lon="6.13179">
        <ele>2698.63900032</ele>
        <time>2015-04-12T09:50:45.880Z</time>
      </trkpt>
      <trkpt lat="45.27514" lon="6.13182">
        <ele>2699</ele>
        <time>2015-04-12T09:50:57.330Z</time>
      </trkpt>
      <trkpt lat="45.27537" lon="6.1319">
        <ele>2701.47900032</ele>
        <time>2015-04-12T09:51:14.280Z</time>
      </trkpt>
      <trkpt lat="45.27552" lon="6.13191">
        <ele>2702.23900032</ele>
        <time>2015-04-12T09:51:21.880Z</time>
      </trkpt>
      <trkpt lat="45.27561" lon="6.13179">
        <ele>2704.75600128</ele>
        <time>2015-04-12T09:51:33.880Z</time>
      </trkpt>
      <trkpt lat="45.27572" lon="6.13187">
        <ele>2707</ele>
        <time>2015-04-12T09:51:41.880Z</time>
      </trkpt>
      <trkpt lat="45.27584" lon="6.13188">
        <ele>2708.31700096</ele>
        <time>2015-04-12T09:51:53.880Z</time>
      </trkpt>
      <trkpt lat="45.27592" lon="6.13205">
        <ele>2713.03900032</ele>
        <time>2015-04-12T09:52:09.880Z</time>
      </trkpt>
      <trkpt lat="45.27607" lon="6.13207">
        <ele>2713.83900032</ele>
        <time>2015-04-12T09:52:17.880Z</time>
      </trkpt>
      <trkpt lat="45.27618" lon="6.13214">
        <ele>2714</ele>
        <time>2015-04-12T09:52:26.290Z</time>
      </trkpt>
      <trkpt lat="45.27635" lon="6.13224">
        <ele>2714</ele>
        <time>2015-04-12T09:52:33.890Z</time>
      </trkpt>
      <trkpt lat="45.2765" lon="6.13226">
        <ele>2713.28</ele>
        <time>2015-04-12T09:52:41.890Z</time>
      </trkpt>
      <trkpt lat="45.27661" lon="6.13229">
        <ele>2710.76</ele>
        <time>2015-04-12T09:52:50.290Z</time>
      </trkpt>
      <trkpt lat="45.27676" lon="6.13236">
        <ele>2708.48</ele>
        <time>2015-04-12T09:52:57.890Z</time>
      </trkpt>
      <trkpt lat="45.27709" lon="6.13253">
        <ele>2701.96099968</ele>
        <time>2015-04-12T09:53:09.880Z</time>
      </trkpt>
      <trkpt lat="45.27733" lon="6.13253">
        <ele>2700.76</ele>
        <time>2015-04-12T09:53:21.890Z</time>
      </trkpt>
      <trkpt lat="45.27742" lon="6.13263">
        <ele>2700.03900032</ele>
        <time>2015-04-12T09:53:29.880Z</time>
      </trkpt>
      <trkpt lat="45.27755" lon="6.13259">
        <ele>2700.87900032</ele>
        <time>2015-04-12T09:53:38.280Z</time>
      </trkpt>
      <trkpt lat="45.27782" lon="6.13263">
        <ele>2706.67800064</ele>
        <time>2015-04-12T09:53:57.880Z</time>
      </trkpt>
      <trkpt lat="45.27799" lon="6.13264">
        <ele>2707</ele>
        <time>2015-04-12T09:54:05.880Z</time>
      </trkpt>
      <trkpt lat="45.278" lon="6.13283">
        <ele>2713.03700096</ele>
        <time>2015-04-12T09:54:26.280Z</time>
      </trkpt>
      <trkpt lat="45.2781" lon="6.13291">
        <ele>2717.51600128</ele>
        <time>2015-04-12T09:54:38.280Z</time>
      </trkpt>
      <trkpt lat="45.27821" lon="6.13299">
        <ele>2721.15800064</ele>
        <time>2015-04-12T09:54:50.280Z</time>
      </trkpt>
      <trkpt lat="45.27825" lon="6.13311">
        <ele>2723.84</ele>
        <time>2015-04-12T09:55:02.290Z</time>
      </trkpt>
      <trkpt lat="45.27816" lon="6.13316">
        <ele>2725.47900032</ele>
        <time>2015-04-12T09:58:34.280Z</time>
      </trkpt>
      <trkpt lat="45.27831" lon="6.13331">
        <ele>2726</ele>
        <time>2015-04-12T09:58:46.280Z</time>
      </trkpt>
      <trkpt lat="45.27869" lon="6.13396">
        <ele>2704.92798464</ele>
        <time>2015-04-12T09:58:53.880Z</time>
      </trkpt>
      <trkpt lat="45.2792" lon="6.13468">
        <ele>2672.74199296</ele>
        <time>2015-04-12T09:59:01.880Z</time>
      </trkpt>
      <trkpt lat="45.27977" lon="6.13478">
        <ele>2654.49899392</ele>
        <time>2015-04-12T09:59:10.280Z</time>
      </trkpt>
      <trkpt lat="45.28038" lon="6.13474">
        <ele>2640.05899392</ele>
        <time>2015-04-12T09:59:17.880Z</time>
      </trkpt>
      <trkpt lat="45.28096" lon="6.13513">
        <ele>2624.85899392</ele>
        <time>2015-04-12T09:59:25.880Z</time>
      </trkpt>
      <trkpt lat="45.28175" lon="6.13567">
        <ele>2615.6049984</ele>
        <time>2015-04-12T09:59:34.280Z</time>
      </trkpt>
      <trkpt lat="45.28214" lon="6.13601">
        <ele>2612.04399872</ele>
        <time>2015-04-12T09:59:41.880Z</time>
      </trkpt>
      <trkpt lat="45.28221" lon="6.13659">
        <ele>2608.64899712</ele>
        <time>2015-04-12T09:59:49.880Z</time>
      </trkpt>
      <trkpt lat="45.28218" lon="6.13705">
        <ele>2601.08899712</ele>
        <time>2015-04-12T09:59:58.280Z</time>
      </trkpt>
      <trkpt lat="45.28225" lon="6.1375">
        <ele>2596.8049984</ele>
        <time>2015-04-12T10:00:05.880Z</time>
      </trkpt>
      <trkpt lat="45.28227" lon="6.13787">
        <ele>2594.12199936</ele>
        <time>2015-04-12T10:00:13.880Z</time>
      </trkpt>
      <trkpt lat="45.28233" lon="6.13836">
        <ele>2591.6049984</ele>
        <time>2015-04-12T10:00:22.280Z</time>
      </trkpt>
      <trkpt lat="45.28233" lon="6.13866">
        <ele>2588</ele>
        <time>2015-04-12T10:00:29.880Z</time>
      </trkpt>
      <trkpt lat="45.28244" lon="6.1386">
        <ele>2588.74</ele>
        <time>2015-04-12T10:02:02.090Z</time>
      </trkpt>
      <trkpt lat="45.28253" lon="6.13867">
        <ele>2588.05900032</ele>
        <time>2015-04-12T10:02:30.080Z</time>
      </trkpt>
      <trkpt lat="45.28255" lon="6.13882">
        <ele>2588.85900032</ele>
        <time>2015-04-12T10:02:38.080Z</time>
      </trkpt>
      <trkpt lat="45.28256" lon="6.13902">
        <ele>2593.91800064</ele>
        <time>2015-04-12T10:02:54.080Z</time>
      </trkpt>
      <trkpt lat="45.28252" lon="6.13916">
        <ele>2595.25900032</ele>
        <time>2015-04-12T10:03:02.080Z</time>
      </trkpt>
      <trkpt lat="45.28266" lon="6.13923">
        <ele>2597.37700096</ele>
        <time>2015-04-12T10:03:14.080Z</time>
      </trkpt>
      <trkpt lat="45.28273" lon="6.13938">
        <ele>2600.97700096</ele>
        <time>2015-04-12T10:03:26.080Z</time>
      </trkpt>
      <trkpt lat="45.28276" lon="6.13955">
        <ele>2602</ele>
        <time>2015-04-12T10:03:37.080Z</time>
      </trkpt>
      <trkpt lat="45.28281" lon="6.13973">
        <ele>2605.83600128</ele>
        <time>2015-04-12T10:03:49.080Z</time>
      </trkpt>
      <trkpt lat="45.28294" lon="6.13992">
        <ele>2608.75900032</ele>
        <time>2015-04-12T10:04:37.080Z</time>
      </trkpt>
      <trkpt lat="45.28323" lon="6.1399">
        <ele>2608.44099968</ele>
        <time>2015-04-12T10:04:45.080Z</time>
      </trkpt>
      <trkpt lat="45.28377" lon="6.1394">
        <ele>2591.48598528</ele>
        <time>2015-04-12T10:04:53.080Z</time>
      </trkpt>
      <trkpt lat="45.28466" lon="6.13912">
        <ele>2553.2549824</ele>
        <time>2015-04-12T10:05:01.080Z</time>
      </trkpt>
      <trkpt lat="45.28614" lon="6.13959">
        <ele>2509.2549824</ele>
        <time>2015-04-12T10:05:09.080Z</time>
      </trkpt>
      <trkpt lat="45.28691" lon="6.13933">
        <ele>2494.85599488</ele>
        <time>2015-04-12T10:05:17.080Z</time>
      </trkpt>
      <trkpt lat="45.28765" lon="6.13884">
        <ele>2477</ele>
        <time>2015-04-12T10:05:25.090Z</time>
      </trkpt>
      <trkpt lat="45.28846" lon="6.13974">
        <ele>2464.48399872</ele>
        <time>2015-04-12T10:05:33.280Z</time>
      </trkpt>
      <trkpt lat="45.28856" lon="6.14043">
        <ele>2461.52</ele>
        <time>2015-04-12T10:05:41.090Z</time>
      </trkpt>
      <trkpt lat="45.28871" lon="6.14123">
        <ele>2459.12</ele>
        <time>2015-04-12T10:05:49.090Z</time>
      </trkpt>
      <trkpt lat="45.28876" lon="6.14169">
        <ele>2453.68</ele>
        <time>2015-04-12T10:05:57.090Z</time>
      </trkpt>
      <trkpt lat="45.28881" lon="6.14215">
        <ele>2450.32</ele>
        <time>2015-04-12T10:06:05.090Z</time>
      </trkpt>
      <trkpt lat="45.28887" lon="6.14264">
        <ele>2444.44599808</ele>
        <time>2015-04-12T10:06:17.080Z</time>
      </trkpt>
      <trkpt lat="45.28896" lon="6.14299">
        <ele>2441.88199936</ele>
        <time>2015-04-12T10:06:25.080Z</time>
      </trkpt>
      <trkpt lat="45.289" lon="6.14312">
        <ele>2441</ele>
        <time>2015-04-12T10:06:45.090Z</time>
      </trkpt>
      <trkpt lat="45.28909" lon="6.14326">
        <ele>2444.11800064</ele>
        <time>2015-04-12T10:07:50.080Z</time>
      </trkpt>
      <trkpt lat="45.28915" lon="6.14343">
        <ele>2446.78</ele>
        <time>2015-04-12T10:08:02.090Z</time>
      </trkpt>
      <trkpt lat="45.28912" lon="6.14358">
        <ele>2451.58</ele>
        <time>2015-04-12T10:08:18.090Z</time>
      </trkpt>
      <trkpt lat="45.2892" lon="6.14366">
        <ele>2461.32</ele>
        <time>2015-04-12T10:09:06.090Z</time>
      </trkpt>
      <trkpt lat="45.28927" lon="6.14384">
        <ele>2464.63600128</ele>
        <time>2015-04-12T10:09:26.080Z</time>
      </trkpt>
      <trkpt lat="45.28929" lon="6.14398">
        <ele>2467.71800064</ele>
        <time>2015-04-12T10:09:38.080Z</time>
      </trkpt>
      <trkpt lat="45.28933" lon="6.14409">
        <ele>2469.9750240399</ele>
        <time>2015-04-12T10:09:46.080Z</time>
      </trkpt>
      <trkpt lat="45.28941" lon="6.14421">
        <ele>2471</ele>
        <time>2015-04-12T10:09:58.080Z</time>
      </trkpt>
      <trkpt lat="45.28952" lon="6.14426">
        <ele>2477</ele>
        <time>2015-04-12T10:10:10.080Z</time>
      </trkpt>
      <trkpt lat="45.28967" lon="6.1444">
        <ele>2477</ele>
        <time>2015-04-12T10:10:18.080Z</time>
      </trkpt>
      <trkpt lat="45.28978" lon="6.14447">
        <ele>2475.02299904</ele>
        <time>2015-04-12T10:10:26.080Z</time>
      </trkpt>
      <trkpt lat="45.2899" lon="6.14453">
        <ele>2474.77700096</ele>
        <time>2015-04-12T10:10:42.080Z</time>
      </trkpt>
      <trkpt lat="45.29" lon="6.14455">
        <ele>2477.05900032</ele>
        <time>2015-04-12T10:10:50.080Z</time>
      </trkpt>
      <trkpt lat="45.29009" lon="6.1446">
        <ele>2477.95900032</ele>
        <time>2015-04-12T10:10:59.080Z</time>
      </trkpt>
      <trkpt lat="45.29025" lon="6.14466">
        <ele>2482.42600192</ele>
        <time>2015-04-12T10:11:10.910Z</time>
      </trkpt>
      <trkpt lat="45.29036" lon="6.14473">
        <ele>2484.82600192</ele>
        <time>2015-04-12T10:11:18.910Z</time>
      </trkpt>
      <trkpt lat="45.29045" lon="6.14473">
        <ele>2485</ele>
        <time>2015-04-12T10:11:27.190Z</time>
      </trkpt>
      <trkpt lat="45.29057" lon="6.14476">
        <ele>2491.73800192</ele>
        <time>2015-04-12T10:11:43.180Z</time>
      </trkpt>
      <trkpt lat="45.29065" lon="6.14483">
        <ele>2494.13800192</ele>
        <time>2015-04-12T10:11:55.180Z</time>
      </trkpt>
      <trkpt lat="45.29077" lon="6.1448">
        <ele>2498.07600384</ele>
        <time>2015-04-12T10:12:07.180Z</time>
      </trkpt>
      <trkpt lat="45.29085" lon="6.1447">
        <ele>2501.88</ele>
        <time>2015-04-12T10:12:19.090Z</time>
      </trkpt>
      <trkpt lat="45.29096" lon="6.1446">
        <ele>2506.47700096</ele>
        <time>2015-04-12T10:12:31.080Z</time>
      </trkpt>
      <trkpt lat="45.29108" lon="6.14461">
        <ele>2510.08</ele>
        <time>2015-04-12T10:12:43.090Z</time>
      </trkpt>
      <trkpt lat="45.29124" lon="6.14455">
        <ele>2512.6393600262</ele>
        <time>2015-04-12T10:12:51.090Z</time>
      </trkpt>
      <trkpt lat="45.2914" lon="6.14464">
        <ele>2519.0831695315</ele>
        <time>2015-04-12T10:13:09.910Z</time>
      </trkpt>
      <trkpt lat="45.29151" lon="6.14471">
        <ele>2520.8851473203</ele>
        <time>2015-04-12T10:13:19.010Z</time>
      </trkpt>
      <trkpt lat="45.29146" lon="6.14459">
        <ele>2526.26200064</ele>
        <time>2015-04-12T10:13:30.800Z</time>
      </trkpt>
      <trkpt lat="45.2916" lon="6.14455">
        <ele>2527.86200064</ele>
        <time>2015-04-12T10:13:38.800Z</time>
      </trkpt>
      <trkpt lat="45.29161" lon="6.14438">
        <ele>2529.55800064</ele>
        <time>2015-04-12T10:13:47.280Z</time>
      </trkpt>
      <trkpt lat="45.29176" lon="6.14438">
        <ele>2535.08</ele>
        <time>2015-04-12T10:14:03.090Z</time>
      </trkpt>
      <trkpt lat="45.29178" lon="6.14456">
        <ele>2537.47700096</ele>
        <time>2015-04-12T10:14:11.080Z</time>
      </trkpt>
      <trkpt lat="45.29188" lon="6.14459">
        <ele>2540.832</ele>
        <time>2015-04-12T10:14:27.810Z</time>
      </trkpt>
      <trkpt lat="45.29198" lon="6.14453">
        <ele>2542.9366963603</ele>
        <time>2015-04-12T10:14:39.280Z</time>
      </trkpt>
      <trkpt lat="45.29206" lon="6.14464">
        <ele>2545.2689592781</ele>
        <time>2015-04-12T10:14:47.080Z</time>
      </trkpt>
      <trkpt lat="45.29212" lon="6.14451">
        <ele>2549.652346707</ele>
        <time>2015-04-12T10:15:04.800Z</time>
      </trkpt>
      <trkpt lat="45.29209" lon="6.14424">
        <ele>2555.68300288</ele>
        <time>2015-04-12T10:15:25.100Z</time>
      </trkpt>
      <trkpt lat="45.29213" lon="6.14401">
        <ele>2559.7950016</ele>
        <time>2015-04-12T10:15:41.080Z</time>
      </trkpt>
      <trkpt lat="45.29226" lon="6.14399">
        <ele>2565.51800064</ele>
        <time>2015-04-12T10:15:57.080Z</time>
      </trkpt>
      <trkpt lat="45.29237" lon="6.14393">
        <ele>2566.95900032</ele>
        <time>2015-04-12T10:16:09.080Z</time>
      </trkpt>
      <trkpt lat="45.29248" lon="6.14387">
        <ele>2568.55800064</ele>
        <time>2015-04-12T10:16:17.280Z</time>
      </trkpt>
      <trkpt lat="45.29251" lon="6.14401">
        <ele>2571.7950016</ele>
        <time>2015-04-12T10:16:25.080Z</time>
      </trkpt>
      <trkpt lat="45.29252" lon="6.14419">
        <ele>2575.132</ele>
        <time>2015-04-12T10:16:40.810Z</time>
      </trkpt>
      <trkpt lat="45.29255" lon="6.14437">
        <ele>2577.08</ele>
        <time>2015-04-12T10:16:53.090Z</time>
      </trkpt>
      <trkpt lat="45.29256" lon="6.1442">
        <ele>2580.67700096</ele>
        <time>2015-04-12T10:17:05.080Z</time>
      </trkpt>
      <trkpt lat="45.29259" lon="6.14405">
        <ele>2583.52</ele>
        <time>2015-04-12T10:17:17.090Z</time>
      </trkpt>
      <trkpt lat="45.29271" lon="6.14403">
        <ele>2584</ele>
        <time>2015-04-12T10:17:29.080Z</time>
      </trkpt>
      <trkpt lat="45.29289" lon="6.14433">
        <ele>2590.23600128</ele>
        <time>2015-04-12T10:17:45.080Z</time>
      </trkpt>
      <trkpt lat="45.293" lon="6.14416">
        <ele>2595.35900032</ele>
        <time>2015-04-12T10:18:13.080Z</time>
      </trkpt>
      <trkpt lat="45.29299" lon="6.144">
        <ele>2598.23600128</ele>
        <time>2015-04-12T10:18:25.080Z</time>
      </trkpt>
      <trkpt lat="45.293" lon="6.14384">
        <ele>2601.51800064</ele>
        <time>2015-04-12T10:18:37.080Z</time>
      </trkpt>
      <trkpt lat="45.29308" lon="6.144">
        <ele>2603.73700096</ele>
        <time>2015-04-12T10:18:45.280Z</time>
      </trkpt>
      <trkpt lat="45.29315" lon="6.14411">
        <ele>2605</ele>
        <time>2015-04-12T10:18:57.080Z</time>
      </trkpt>
      <trkpt lat="45.29323" lon="6.14422">
        <ele>2607.8</ele>
        <time>2015-04-12T10:19:05.090Z</time>
      </trkpt>
      <trkpt lat="45.2932" lon="6.14436">
        <ele>2611.51800064</ele>
        <time>2015-04-12T10:19:17.080Z</time>
      </trkpt>
      <trkpt lat="45.2933" lon="6.14425">
        <ele>2616.04</ele>
        <time>2015-04-12T10:19:37.090Z</time>
      </trkpt>
      <trkpt lat="45.29341" lon="6.14422">
        <ele>2618.12</ele>
        <time>2015-04-12T10:19:45.090Z</time>
      </trkpt>
      <trkpt lat="45.29347" lon="6.14404">
        <ele>2619.75900032</ele>
        <time>2015-04-12T10:19:57.080Z</time>
      </trkpt>
      <trkpt lat="45.29353" lon="6.14391">
        <ele>2623.83600128</ele>
        <time>2015-04-12T10:20:09.080Z</time>
      </trkpt>
      <trkpt lat="45.29359" lon="6.14377">
        <ele>2624</ele>
        <time>2015-04-12T10:20:17.080Z</time>
      </trkpt>
      <trkpt lat="45.29363" lon="6.14363">
        <ele>2626.7950016</ele>
        <time>2015-04-12T10:20:25.080Z</time>
      </trkpt>
      <trkpt lat="45.29362" lon="6.14379">
        <ele>2629.75800064</ele>
        <time>2015-04-12T10:20:33.280Z</time>
      </trkpt>
      <trkpt lat="45.29371" lon="6.14394">
        <ele>2633.31600128</ele>
        <time>2015-04-12T10:20:45.280Z</time>
      </trkpt>
      <trkpt lat="45.29377" lon="6.14407">
        <ele>2635.35900032</ele>
        <time>2015-04-12T10:20:53.080Z</time>
      </trkpt>
      <trkpt lat="45.29388" lon="6.14408">
        <ele>2638.87700096</ele>
        <time>2015-04-12T10:21:09.080Z</time>
      </trkpt>
      <trkpt lat="45.29397" lon="6.14396">
        <ele>2642.15900032</ele>
        <time>2015-04-12T10:21:21.080Z</time>
      </trkpt>
      <trkpt lat="45.29402" lon="6.14379">
        <ele>2642.95900032</ele>
        <time>2015-04-12T10:21:29.080Z</time>
      </trkpt>
      <trkpt lat="45.2941" lon="6.14369">
        <ele>2644.51800064</ele>
        <time>2015-04-12T10:21:37.080Z</time>
      </trkpt>
      <trkpt lat="45.29408" lon="6.14387">
        <ele>2646.16</ele>
        <time>2015-04-12T10:21:45.290Z</time>
      </trkpt>
      <trkpt lat="45.29408" lon="6.14401">
        <ele>2648.52</ele>
        <time>2015-04-12T10:21:53.290Z</time>
      </trkpt>
      <trkpt lat="45.29421" lon="6.14397">
        <ele>2652.44</ele>
        <time>2015-04-12T10:22:13.090Z</time>
      </trkpt>
      <trkpt lat="45.29426" lon="6.14383">
        <ele>2657.87700096</ele>
        <time>2015-04-12T10:22:29.080Z</time>
      </trkpt>
      <trkpt lat="45.29438" lon="6.14378">
        <ele>2661.97900032</ele>
        <time>2015-04-12T10:22:49.280Z</time>
      </trkpt>
      <trkpt lat="45.29442" lon="6.14359">
        <ele>2661.0410407602</ele>
        <time>2015-04-12T10:23:09.080Z</time>
      </trkpt>
      <trkpt lat="45.2945" lon="6.1435">
        <ele>2665.35800064</ele>
        <time>2015-04-12T10:23:21.280Z</time>
      </trkpt>
      <trkpt lat="45.29454" lon="6.1437">
        <ele>2667.71800064</ele>
        <time>2015-04-12T10:23:33.080Z</time>
      </trkpt>
      <trkpt lat="45.29466" lon="6.14374">
        <ele>2678.4604256371</ele>
        <time>2015-04-12T10:24:21.080Z</time>
      </trkpt>
      <trkpt lat="45.29471" lon="6.14388">
        <ele>2680.8378378378</ele>
        <time>2015-04-12T10:24:29.290Z</time>
      </trkpt>
      <trkpt lat="45.29478" lon="6.144">
        <ele>2682.4439834025</ele>
        <time>2015-04-12T10:24:36.810Z</time>
      </trkpt>
      <trkpt lat="45.29488" lon="6.14386">
        <ele>2689</ele>
        <time>2015-04-12T10:25:06.080Z</time>
      </trkpt>
      <trkpt lat="45.29496" lon="6.14376">
        <ele>2693.3</ele>
        <time>2015-04-12T10:25:18.090Z</time>
      </trkpt>
      <trkpt lat="45.29498" lon="6.1439">
        <ele>2695.98</ele>
        <time>2015-04-12T10:25:26.090Z</time>
      </trkpt>
      <trkpt lat="45.29503" lon="6.14376">
        <ele>2701.12199936</ele>
        <time>2015-04-12T10:25:50.100Z</time>
      </trkpt>
      <trkpt lat="45.29507" lon="6.14363">
        <ele>2702.71800064</ele>
        <time>2015-04-12T10:25:58.080Z</time>
      </trkpt>
      <trkpt lat="45.29512" lon="6.14346">
        <ele>2703.6783213475</ele>
        <time>2015-04-12T10:26:06.280Z</time>
      </trkpt>
      <trkpt lat="45.29525" lon="6.14353">
        <ele>2704.8588590436</ele>
        <time>2015-04-12T10:26:18.080Z</time>
      </trkpt>
      <trkpt lat="45.29533" lon="6.14386">
        <ele>2711.45900032</ele>
        <time>2015-04-12T10:26:34.080Z</time>
      </trkpt>
      <trkpt lat="45.29519" lon="6.14396">
        <ele>2713.956</ele>
        <time>2015-04-12T10:26:46.010Z</time>
      </trkpt>
      <trkpt lat="45.2953" lon="6.14398">
        <ele>2719.23600128</ele>
        <time>2015-04-12T10:27:10.080Z</time>
      </trkpt>
      <trkpt lat="45.29533" lon="6.14383">
        <ele>2722.52</ele>
        <time>2015-04-12T10:27:18.290Z</time>
      </trkpt>
      <trkpt lat="45.29534" lon="6.14366">
        <ele>2725.04</ele>
        <time>2015-04-12T10:27:26.290Z</time>
      </trkpt>
      <trkpt lat="45.29543" lon="6.14359">
        <ele>2726.96</ele>
        <time>2015-04-12T10:27:34.290Z</time>
      </trkpt>
      <trkpt lat="45.29553" lon="6.14354">
        <ele>2728.51800064</ele>
        <time>2015-04-12T10:27:42.080Z</time>
      </trkpt>
      <trkpt lat="45.29553" lon="6.14337">
        <ele>2733.52</ele>
        <time>2015-04-12T10:27:58.290Z</time>
      </trkpt>
      <trkpt lat="45.29559" lon="6.14319">
        <ele>2736.47900032</ele>
        <time>2015-04-12T10:28:14.280Z</time>
      </trkpt>
      <trkpt lat="45.29556" lon="6.14306">
        <ele>2739.7132853899</ele>
        <time>2015-04-12T10:28:26.280Z</time>
      </trkpt>
      <trkpt lat="45.29566" lon="6.14316">
        <ele>2745</ele>
        <time>2015-04-12T10:28:46.280Z</time>
      </trkpt>
      <trkpt lat="45.29579" lon="6.14313">
        <ele>2751.03700096</ele>
        <time>2015-04-12T10:29:06.280Z</time>
      </trkpt>
      <trkpt lat="45.29582" lon="6.143">
        <ele>2755.84</ele>
        <time>2015-04-12T10:29:22.290Z</time>
      </trkpt>
      <trkpt lat="45.29593" lon="6.14301">
        <ele>2762.55800064</ele>
        <time>2015-04-12T10:29:42.280Z</time>
      </trkpt>
      <trkpt lat="45.29593" lon="6.14322">
        <ele>2765</ele>
        <time>2015-04-12T10:30:10.280Z</time>
      </trkpt>
      <trkpt lat="45.29615" lon="6.14344">
        <ele>2762.91099648</ele>
        <time>2015-04-12T10:34:10.480Z</time>
      </trkpt>
      <trkpt lat="45.29641" lon="6.14368">
        <ele>2754.33099648</ele>
        <time>2015-04-12T10:34:18.280Z</time>
      </trkpt>
      <trkpt lat="45.29658" lon="6.14379">
        <ele>2735.34599168</ele>
        <time>2015-04-12T10:34:26.280Z</time>
      </trkpt>
      <trkpt lat="45.29673" lon="6.1435">
        <ele>2728.27900032</ele>
        <time>2015-04-12T10:34:42.280Z</time>
      </trkpt>
      <trkpt lat="45.29685" lon="6.14335">
        <ele>2729.07900032</ele>
        <time>2015-04-12T10:34:50.280Z</time>
      </trkpt>
      <trkpt lat="45.29695" lon="6.14323">
        <ele>2729.87900032</ele>
        <time>2015-04-12T10:34:58.280Z</time>
      </trkpt>
      <trkpt lat="45.29702" lon="6.1431">
        <ele>2731.4945066187</ele>
        <time>2015-04-12T10:35:10.480Z</time>
      </trkpt>
      <trkpt lat="45.29709" lon="6.14298">
        <ele>2737.3373360599</ele>
        <time>2015-04-12T10:35:26.180Z</time>
      </trkpt>
      <trkpt lat="45.29706" lon="6.14284">
        <ele>2742.87900032</ele>
        <time>2015-04-12T10:35:58.280Z</time>
      </trkpt>
      <trkpt lat="45.2972" lon="6.14288">
        <ele>2747</ele>
        <time>2015-04-12T10:36:22.180Z</time>
      </trkpt>
      <trkpt lat="45.29729" lon="6.14282">
        <ele>2750.47599872</ele>
        <time>2015-04-12T10:36:38.180Z</time>
      </trkpt>
      <trkpt lat="45.2974" lon="6.14275">
        <ele>2753.03700096</ele>
        <time>2015-04-12T10:36:46.280Z</time>
      </trkpt>
      <trkpt lat="45.29739" lon="6.14258">
        <ele>2754.47900032</ele>
        <time>2015-04-12T10:36:54.280Z</time>
      </trkpt>
      <trkpt lat="45.29751" lon="6.14255">
        <ele>2756.304</ele>
        <time>2015-04-12T10:37:06.010Z</time>
      </trkpt>
      <trkpt lat="45.2976" lon="6.14248">
        <ele>2757.47900032</ele>
        <time>2015-04-12T10:37:14.280Z</time>
      </trkpt>
      <trkpt lat="45.29773" lon="6.1424">
        <ele>2762.07400192</ele>
        <time>2015-04-12T10:37:26.280Z</time>
      </trkpt>
      <trkpt lat="45.29782" lon="6.14236">
        <ele>2765.76</ele>
        <time>2015-04-12T10:37:38.290Z</time>
      </trkpt>
      <trkpt lat="45.29773" lon="6.14229">
        <ele>2768.63700096</ele>
        <time>2015-04-12T10:37:58.280Z</time>
      </trkpt>
      <trkpt lat="45.29767" lon="6.14219">
        <ele>2776.3903875623</ele>
        <time>2015-04-12T10:38:50.280Z</time>
      </trkpt>
      <trkpt lat="45.29772" lon="6.14211">
        <ele>2783.03700096</ele>
        <time>2015-04-12T10:39:26.280Z</time>
      </trkpt>
      <trkpt lat="45.29774" lon="6.14198">
        <ele>2793.63700096</ele>
        <time>2015-04-12T10:40:38.280Z</time>
      </trkpt>
      <trkpt lat="45.29779" lon="6.14192">
        <ele>2799.53799936</ele>
        <time>2015-04-12T10:41:02.180Z</time>
      </trkpt>
      <trkpt lat="45.29787" lon="6.14178">
        <ele>2804.27000064</ele>
        <time>2015-04-12T10:41:42.190Z</time>
      </trkpt>
      <trkpt lat="45.29799" lon="6.14177">
        <ele>2805.46899968</ele>
        <time>2015-04-12T10:41:54.180Z</time>
      </trkpt>
      <trkpt lat="45.29814" lon="6.14181">
        <ele>2807.27599872</ele>
        <time>2015-04-12T10:42:30.180Z</time>
      </trkpt>
      <trkpt lat="45.29826" lon="6.14185">
        <ele>2811.80699904</ele>
        <time>2015-04-12T10:42:42.180Z</time>
      </trkpt>
      <trkpt lat="45.29839" lon="6.14179">
        <ele>2815.40699904</ele>
        <time>2015-04-12T10:42:54.180Z</time>
      </trkpt>
      <trkpt lat="45.29852" lon="6.14175">
        <ele>2819.20699904</ele>
        <time>2015-04-12T10:43:10.180Z</time>
      </trkpt>
      <trkpt lat="45.2986" lon="6.14165">
        <ele>2821.60699904</ele>
        <time>2015-04-12T10:43:18.180Z</time>
      </trkpt>
      <trkpt lat="45.29871" lon="6.1416">
        <ele>2822.17200128</ele>
        <time>2015-04-12T10:43:29.920Z</time>
      </trkpt>
      <trkpt lat="45.29879" lon="6.14172">
        <ele>2828.20699904</ele>
        <time>2015-04-12T10:43:50.180Z</time>
      </trkpt>
      <trkpt lat="45.29891" lon="6.14166">
        <ele>2833</ele>
        <time>2015-04-12T10:44:12.100Z</time>
      </trkpt>
      <trkpt lat="45.29904" lon="6.14168">
        <ele>2840.13799936</ele>
        <time>2015-04-12T10:45:00.180Z</time>
      </trkpt>
      <trkpt lat="45.29905" lon="6.14149">
        <ele>2848.60699904</ele>
        <time>2015-04-12T10:45:28.180Z</time>
      </trkpt>
      <trkpt lat="45.29894" lon="6.14145">
        <ele>2861.40699904</ele>
        <time>2015-04-12T10:46:24.180Z</time>
      </trkpt>
      <trkpt lat="45.29895" lon="6.14128">
        <ele>2867.73799936</ele>
        <time>2015-04-12T10:46:48.180Z</time>
      </trkpt>
      <trkpt lat="45.29896" lon="6.14143">
        <ele>2868</ele>
        <time>2015-04-12T10:47:36.190Z</time>
      </trkpt>
      <trkpt lat="45.29893" lon="6.14127">
        <ele>2868</ele>
        <time>2015-04-12T10:48:00.190Z</time>
      </trkpt>
      <trkpt lat="45.29897" lon="6.14107">
        <ele>2870.42999936</ele>
        <time>2015-04-12T10:54:05.190Z</time>
      </trkpt>
      <trkpt lat="45.29908" lon="6.14112">
        <ele>2863.84799232</ele>
        <time>2015-04-12T10:54:17.180Z</time>
      </trkpt>
      <trkpt lat="45.29923" lon="6.14118">
        <ele>2850.6199808</ele>
        <time>2015-04-12T10:54:25.180Z</time>
      </trkpt>
      <trkpt lat="45.29941" lon="6.14127">
        <ele>2828.4649856</ele>
        <time>2015-04-12T10:54:41.180Z</time>
      </trkpt>
      <trkpt lat="45.29957" lon="6.14104">
        <ele>2816.4649856</ele>
        <time>2015-04-12T10:54:49.180Z</time>
      </trkpt>
      <trkpt lat="45.29966" lon="6.14126">
        <ele>2804.80599552</ele>
        <time>2015-04-12T10:55:33.200Z</time>
      </trkpt>
      <trkpt lat="45.29991" lon="6.14163">
        <ele>2786.5949824</ele>
        <time>2015-04-12T10:55:41.200Z</time>
      </trkpt>
      <trkpt lat="45.30015" lon="6.14195">
        <ele>2742.6499648</ele>
        <time>2015-04-12T10:55:49.190Z</time>
      </trkpt>
      <trkpt lat="45.30048" lon="6.1425">
        <ele>2716.35997952</ele>
        <time>2015-04-12T10:55:57.190Z</time>
      </trkpt>
      <trkpt lat="45.30078" lon="6.14291">
        <ele>2691.32998016</ele>
        <time>2015-04-12T10:56:05.190Z</time>
      </trkpt>
      <trkpt lat="45.30101" lon="6.14303">
        <ele>2665.41997824</ele>
        <time>2015-04-12T10:56:13.190Z</time>
      </trkpt>
      <trkpt lat="45.30119" lon="6.14329">
        <ele>2638.8999808</ele>
        <time>2015-04-12T10:56:21.190Z</time>
      </trkpt>
      <trkpt lat="45.30153" lon="6.14343">
        <ele>2614.8999808</ele>
        <time>2015-04-12T10:56:29.190Z</time>
      </trkpt>
      <trkpt lat="45.30191" lon="6.144">
        <ele>2583.1999744</ele>
        <time>2015-04-12T10:56:37.190Z</time>
      </trkpt>
      <trkpt lat="45.30268" lon="6.14455">
        <ele>2559.17998336</ele>
        <time>2015-04-12T10:56:45.190Z</time>
      </trkpt>
      <trkpt lat="45.30351" lon="6.14513">
        <ele>2540.5999872</ele>
        <time>2015-04-12T10:56:53.190Z</time>
      </trkpt>
      <trkpt lat="45.30395" lon="6.14583">
        <ele>2523.06998144</ele>
        <time>2015-04-12T10:57:01.190Z</time>
      </trkpt>
      <trkpt lat="45.30411" lon="6.14656">
        <ele>2499.86998144</ele>
        <time>2015-04-12T10:57:09.190Z</time>
      </trkpt>
      <trkpt lat="45.30439" lon="6.14682">
        <ele>2480.51998464</ele>
        <time>2015-04-12T10:57:17.190Z</time>
      </trkpt>
      <trkpt lat="45.30452" lon="6.14642">
        <ele>2456.75997952</ele>
        <time>2015-04-12T10:57:25.190Z</time>
      </trkpt>
      <trkpt lat="45.30467" lon="6.14583">
        <ele>2431.52998016</ele>
        <time>2015-04-12T10:57:33.190Z</time>
      </trkpt>
      <trkpt lat="45.30499" lon="6.14574">
        <ele>2406.72998016</ele>
        <time>2015-04-12T10:57:41.190Z</time>
      </trkpt>
      <trkpt lat="45.30571" lon="6.14594">
        <ele>2381.92998016</ele>
        <time>2015-04-12T10:57:49.190Z</time>
      </trkpt>
      <trkpt lat="45.30623" lon="6.14622">
        <ele>2368.69598464</ele>
        <time>2015-04-12T10:57:57.180Z</time>
      </trkpt>
      <trkpt lat="45.30687" lon="6.14602">
        <ele>2348.49897216</ele>
        <time>2015-04-12T10:58:05.180Z</time>
      </trkpt>
      <trkpt lat="45.30743" lon="6.14596">
        <ele>2318.28795392</ele>
        <time>2015-04-12T10:58:13.180Z</time>
      </trkpt>
      <trkpt lat="45.30786" lon="6.14545">
        <ele>2281.2399616</ele>
        <time>2015-04-12T10:58:21.180Z</time>
      </trkpt>
      <trkpt lat="45.3084" lon="6.14546">
        <ele>2249.2399616</ele>
        <time>2015-04-12T10:58:29.180Z</time>
      </trkpt>
      <trkpt lat="45.30871" lon="6.14529">
        <ele>2238.77198848</ele>
        <time>2015-04-12T10:58:37.180Z</time>
      </trkpt>
      <trkpt lat="45.30915" lon="6.14527">
        <ele>2229.1099904</ele>
        <time>2015-04-12T10:58:46.380Z</time>
      </trkpt>
      <trkpt lat="45.30975" lon="6.14514">
        <ele>2222.27399424</ele>
        <time>2015-04-12T10:58:53.630Z</time>
      </trkpt>
      <trkpt lat="45.31022" lon="6.14512">
        <ele>2217.57800192</ele>
        <time>2015-04-12T10:59:02.380Z</time>
      </trkpt>
      <trkpt lat="45.31022" lon="6.14526">
        <ele>2217</ele>
        <time>2015-04-12T10:59:42.190Z</time>
      </trkpt>
      <trkpt lat="45.31014" lon="6.14535">
        <ele>2217</ele>
        <time>2015-04-12T10:59:58.190Z</time>
      </trkpt>
      <trkpt lat="45.31021" lon="6.14519">
        <ele>2218.84100096</ele>
        <time>2015-04-12T11:00:57.900Z</time>
      </trkpt>
      <trkpt lat="45.31023" lon="6.14535">
        <ele>2219</ele>
        <time>2015-04-12T11:02:14.180Z</time>
      </trkpt>
      <trkpt lat="45.31029" lon="6.14546">
        <ele>2226.33799936</ele>
        <time>2015-04-12T11:03:06.180Z</time>
      </trkpt>
      <trkpt lat="45.31034" lon="6.14563">
        <ele>2231.80699904</ele>
        <time>2015-04-12T11:03:22.180Z</time>
      </trkpt>
      <trkpt lat="45.31043" lon="6.1457">
        <ele>2234.94000128</ele>
        <time>2015-04-12T11:03:34.190Z</time>
      </trkpt>
      <trkpt lat="45.31047" lon="6.14586">
        <ele>2238.14000128</ele>
        <time>2015-04-12T11:03:50.190Z</time>
      </trkpt>
      <trkpt lat="45.31058" lon="6.14595">
        <ele>2239.17799936</ele>
        <time>2015-04-12T11:03:55.380Z</time>
      </trkpt>
      <trkpt lat="45.31065" lon="6.14612">
        <ele>2242.22299904</ele>
        <time>2015-04-12T11:04:06.900Z</time>
      </trkpt>
      <trkpt lat="45.31073" lon="6.1462">
        <ele>2244.13800192</ele>
        <time>2015-04-12T11:04:15.180Z</time>
      </trkpt>
      <trkpt lat="45.31079" lon="6.14632">
        <ele>2249.90700288</ele>
        <time>2015-04-12T11:04:39.180Z</time>
      </trkpt>
      <trkpt lat="45.31092" lon="6.14646">
        <ele>2252.33800192</ele>
        <time>2015-04-12T11:04:51.180Z</time>
      </trkpt>
      <trkpt lat="45.31102" lon="6.14656">
        <ele>2256.30700288</ele>
        <time>2015-04-12T11:05:07.180Z</time>
      </trkpt>
      <trkpt lat="45.31107" lon="6.14669">
        <ele>2258.70700288</ele>
        <time>2015-04-12T11:05:15.180Z</time>
      </trkpt>
      <trkpt lat="45.31113" lon="6.1469">
        <ele>2268.33800192</ele>
        <time>2015-04-12T11:05:51.180Z</time>
      </trkpt>
      <trkpt lat="45.31114" lon="6.1471">
        <ele>2271.53800192</ele>
        <time>2015-04-12T11:06:07.180Z</time>
      </trkpt>
      <trkpt lat="45.31122" lon="6.14721">
        <ele>2273.93800192</ele>
        <time>2015-04-12T11:06:19.180Z</time>
      </trkpt>
      <trkpt lat="45.31134" lon="6.14733">
        <ele>2277.96900096</ele>
        <time>2015-04-12T11:06:39.180Z</time>
      </trkpt>
      <trkpt lat="45.31144" lon="6.14745">
        <ele>2284.13800192</ele>
        <time>2015-04-12T11:06:55.180Z</time>
      </trkpt>
      <trkpt lat="45.31149" lon="6.14765">
        <ele>2288.33800192</ele>
        <time>2015-04-12T11:07:11.180Z</time>
      </trkpt>
      <trkpt lat="45.3115" lon="6.14779">
        <ele>2292.33800192</ele>
        <time>2015-04-12T11:07:31.180Z</time>
      </trkpt>
      <trkpt lat="45.31158" lon="6.148">
        <ele>2295.53800192</ele>
        <time>2015-04-12T11:07:47.180Z</time>
      </trkpt>
      <trkpt lat="45.31166" lon="6.14814">
        <ele>2298.73800192</ele>
        <time>2015-04-12T11:08:03.180Z</time>
      </trkpt>
      <trkpt lat="45.31172" lon="6.14826">
        <ele>2300.24100096</ele>
        <time>2015-04-12T11:08:11.900Z</time>
      </trkpt>
      <trkpt lat="45.31169" lon="6.14845">
        <ele>2301.44100096</ele>
        <time>2015-04-12T11:08:23.900Z</time>
      </trkpt>
      <trkpt lat="45.31179" lon="6.1486">
        <ele>2302.26899968</ele>
        <time>2015-04-12T11:08:32.180Z</time>
      </trkpt>
      <trkpt lat="45.31189" lon="6.14874">
        <ele>2304.40699904</ele>
        <time>2015-04-12T11:08:44.180Z</time>
      </trkpt>
      <trkpt lat="45.31198" lon="6.14891">
        <ele>2310.73799936</ele>
        <time>2015-04-12T11:09:08.180Z</time>
      </trkpt>
      <trkpt lat="45.31203" lon="6.14905">
        <ele>2313.20699904</ele>
        <time>2015-04-12T11:09:20.180Z</time>
      </trkpt>
      <trkpt lat="45.31214" lon="6.14912">
        <ele>2318.67599872</ele>
        <time>2015-04-12T11:09:36.180Z</time>
      </trkpt>
      <trkpt lat="45.31226" lon="6.14923">
        <ele>2322.53799936</ele>
        <time>2015-04-12T11:09:52.180Z</time>
      </trkpt>
      <trkpt lat="45.31235" lon="6.1493">
        <ele>2324.13799936</ele>
        <time>2015-04-12T11:10:00.180Z</time>
      </trkpt>
      <trkpt lat="45.31247" lon="6.14935">
        <ele>2329.4055920985</ele>
        <time>2015-04-12T11:10:24.180Z</time>
      </trkpt>
      <trkpt lat="45.31244" lon="6.14951">
        <ele>2334.52699904</ele>
        <time>2015-04-12T11:10:44.580Z</time>
      </trkpt>
      <trkpt lat="45.31252" lon="6.14963">
        <ele>2336.8450048</ele>
        <time>2015-04-12T11:11:01.180Z</time>
      </trkpt>
      <trkpt lat="45.31262" lon="6.14979">
        <ele>2343.27600384</ele>
        <time>2015-04-12T11:11:25.180Z</time>
      </trkpt>
      <trkpt lat="45.31267" lon="6.14992">
        <ele>2347.30700288</ele>
        <time>2015-04-12T11:11:37.180Z</time>
      </trkpt>
      <trkpt lat="45.31278" lon="6.14994">
        <ele>2349.94000128</ele>
        <time>2015-04-12T11:11:49.190Z</time>
      </trkpt>
      <trkpt lat="45.31293" lon="6.15007">
        <ele>2355.8450048</ele>
        <time>2015-04-12T11:12:09.180Z</time>
      </trkpt>
      <trkpt lat="45.31304" lon="6.15009">
        <ele>2358.50700288</ele>
        <time>2015-04-12T11:12:21.180Z</time>
      </trkpt>
      <trkpt lat="45.31315" lon="6.15011">
        <ele>2361</ele>
        <time>2015-04-12T11:12:33.180Z</time>
      </trkpt>
      <trkpt lat="45.31313" lon="6.15029">
        <ele>2363.8450048</ele>
        <time>2015-04-12T11:12:45.180Z</time>
      </trkpt>
      <trkpt lat="45.31306" lon="6.15045">
        <ele>2368.30700288</ele>
        <time>2015-04-12T11:12:57.180Z</time>
      </trkpt>
      <trkpt lat="45.31317" lon="6.15049">
        <ele>2370.36900096</ele>
        <time>2015-04-12T11:13:13.180Z</time>
      </trkpt>
      <trkpt lat="45.31331" lon="6.15051">
        <ele>2375.8450048</ele>
        <time>2015-04-12T11:13:29.180Z</time>
      </trkpt>
      <trkpt lat="45.3133" lon="6.15067">
        <ele>2380.44000256</ele>
        <time>2015-04-12T11:13:45.590Z</time>
      </trkpt>
      <trkpt lat="45.31339" lon="6.15081">
        <ele>2387.13799936</ele>
        <time>2015-04-12T11:14:10.180Z</time>
      </trkpt>
      <trkpt lat="45.31345" lon="6.151">
        <ele>2391.00699904</ele>
        <time>2015-04-12T11:14:26.180Z</time>
      </trkpt>
      <trkpt lat="45.3134" lon="6.15117">
        <ele>2396.00699904</ele>
        <time>2015-04-12T11:14:46.180Z</time>
      </trkpt>
      <trkpt lat="45.31344" lon="6.15133">
        <ele>2398.73799936</ele>
        <time>2015-04-12T11:14:58.180Z</time>
      </trkpt>
      <trkpt lat="45.31356" lon="6.15138">
        <ele>2400.35600384</ele>
        <time>2015-04-12T11:15:10.380Z</time>
      </trkpt>
      <trkpt lat="45.31367" lon="6.15136">
        <ele>2406.75600384</ele>
        <time>2015-04-12T11:15:26.380Z</time>
      </trkpt>
      <trkpt lat="45.31364" lon="6.1515">
        <ele>2409.61800192</ele>
        <time>2015-04-12T11:15:37.580Z</time>
      </trkpt>
      <trkpt lat="45.31361" lon="6.15166">
        <ele>2413.93799936</ele>
        <time>2015-04-12T11:15:54.180Z</time>
      </trkpt>
      <trkpt lat="45.31367" lon="6.15177">
        <ele>2415.57800192</ele>
        <time>2015-04-12T11:16:02.380Z</time>
      </trkpt>
      <trkpt lat="45.31378" lon="6.15185">
        <ele>2418.73799936</ele>
        <time>2015-04-12T11:16:18.180Z</time>
      </trkpt>
      <trkpt lat="45.31388" lon="6.1518">
        <ele>2422.86899968</ele>
        <time>2015-04-12T11:16:38.180Z</time>
      </trkpt>
      <trkpt lat="45.31387" lon="6.15196">
        <ele>2426.17800192</ele>
        <time>2015-04-12T11:16:50.380Z</time>
      </trkpt>
      <trkpt lat="45.31387" lon="6.15215">
        <ele>2430.2722674088</ele>
        <time>2015-04-12T11:17:10.180Z</time>
      </trkpt>
      <trkpt lat="45.31391" lon="6.15229">
        <ele>2437.93799936</ele>
        <time>2015-04-12T11:17:34.180Z</time>
      </trkpt>
      <trkpt lat="45.31399" lon="6.15244">
        <ele>2440.17799936</ele>
        <time>2015-04-12T11:17:45.380Z</time>
      </trkpt>
      <trkpt lat="45.31403" lon="6.15257">
        <ele>2442.08300288</ele>
        <time>2015-04-12T11:17:53.100Z</time>
      </trkpt>
      <trkpt lat="45.31392" lon="6.15262">
        <ele>2445.17799936</ele>
        <time>2015-04-12T11:18:05.380Z</time>
      </trkpt>
      <trkpt lat="45.31399" lon="6.15279">
        <ele>2446.843317625</ele>
        <time>2015-04-12T11:18:21.180Z</time>
      </trkpt>
      <trkpt lat="45.314" lon="6.15295">
        <ele>2454.38000128</ele>
        <time>2015-04-12T11:18:41.390Z</time>
      </trkpt>
      <trkpt lat="45.314" lon="6.15311">
        <ele>2460.18899968</ele>
        <time>2015-04-12T11:19:01.380Z</time>
      </trkpt>
      <trkpt lat="45.31395" lon="6.15325">
        <ele>2461.73800192</ele>
        <time>2015-04-12T11:19:13.180Z</time>
      </trkpt>
      <trkpt lat="45.31406" lon="6.1533">
        <ele>2463.58899968</ele>
        <time>2015-04-12T11:19:25.380Z</time>
      </trkpt>
      <trkpt lat="45.31412" lon="6.15319">
        <ele>2465.04399872</ele>
        <time>2015-04-12T11:19:32.100Z</time>
      </trkpt>
      <trkpt lat="45.31422" lon="6.15324">
        <ele>2468.12199936</ele>
        <time>2015-04-12T11:19:40.100Z</time>
      </trkpt>
      <trkpt lat="45.31436" lon="6.15326">
        <ele>2477.5765771306</ele>
        <time>2015-04-12T11:20:22.380Z</time>
      </trkpt>
      <trkpt lat="45.31429" lon="6.1534">
        <ele>2481.86700288</ele>
        <time>2015-04-12T11:20:42.380Z</time>
      </trkpt>
      <trkpt lat="45.31435" lon="6.15353">
        <ele>2488.8480376471</ele>
        <time>2015-04-12T11:21:09.380Z</time>
      </trkpt>
      <trkpt lat="45.31441" lon="6.15368">
        <ele>2497.80900096</ele>
        <time>2015-04-12T11:21:57.580Z</time>
      </trkpt>
      <trkpt lat="45.31452" lon="6.15366">
        <ele>2499.97800192</ele>
        <time>2015-04-12T11:22:14.380Z</time>
      </trkpt>
      <trkpt lat="45.31461" lon="6.15374">
        <ele>2507</ele>
        <time>2015-04-12T11:23:22.380Z</time>
      </trkpt>
      <trkpt lat="45.31451" lon="6.15375">
        <ele>2506.11099904</ele>
        <time>2015-04-12T11:23:38.380Z</time>
      </trkpt>
      <trkpt lat="45.31459" lon="6.15365">
        <ele>2506</ele>
        <time>2015-04-12T11:24:35.100Z</time>
      </trkpt>
      <trkpt lat="45.31451" lon="6.15375">
        <ele>2507</ele>
        <time>2015-04-12T11:25:55.110Z</time>
      </trkpt>
      <trkpt lat="45.31439" lon="6.15371">
        <ele>2507</ele>
        <time>2015-04-12T11:27:05.380Z</time>
      </trkpt>
      <trkpt lat="45.31423" lon="6.15409">
        <ele>2506.0300973794</ele>
        <time>2015-04-12T11:27:29.480Z</time>
      </trkpt>
      <trkpt lat="45.31407" lon="6.15502">
        <ele>2477.0102901511</ele>
        <time>2015-04-12T11:27:37.390Z</time>
      </trkpt>
      <trkpt lat="45.31487" lon="6.15556">
        <ele>2449.31398912</ele>
        <time>2015-04-12T11:27:45.280Z</time>
      </trkpt>
      <trkpt lat="45.31551" lon="6.15704">
        <ele>2423.3300096</ele>
        <time>2015-04-12T11:27:53.380Z</time>
      </trkpt>
      <trkpt lat="45.31558" lon="6.15743">
        <ele>2400.46400768</ele>
        <time>2015-04-12T11:28:01.380Z</time>
      </trkpt>
      <trkpt lat="45.31625" lon="6.15813">
        <ele>2380.48699136</ele>
        <time>2015-04-12T11:28:09.680Z</time>
      </trkpt>
      <trkpt lat="45.31668" lon="6.1581">
        <ele>2357.26699136</ele>
        <time>2015-04-12T11:28:18.280Z</time>
      </trkpt>
      <trkpt lat="45.31628" lon="6.15848">
        <ele>2335.3805561009</ele>
        <time>2015-04-12T11:28:27.380Z</time>
      </trkpt>
      <trkpt lat="45.31597" lon="6.15797">
        <ele>2323.6826039627</ele>
        <time>2015-04-12T11:28:33.110Z</time>
      </trkpt>
      <trkpt lat="45.31648" lon="6.15758">
        <ele>2314.7100738572</ele>
        <time>2015-04-12T11:28:38.010Z</time>
      </trkpt>
      <trkpt lat="45.31843" lon="6.15783">
        <ele>2280.8764498823</ele>
        <time>2015-04-12T11:28:49.110Z</time>
      </trkpt>
      <trkpt lat="45.31932" lon="6.15814">
        <ele>2250.624458449</ele>
        <time>2015-04-12T11:28:58.380Z</time>
      </trkpt>
      <trkpt lat="45.31955" lon="6.15904">
        <ele>2232.53097984</ele>
        <time>2015-04-12T11:29:06.380Z</time>
      </trkpt>
      <trkpt lat="45.31887" lon="6.15887">
        <ele>2213.974976</ele>
        <time>2015-04-12T11:29:14.300Z</time>
      </trkpt>
      <trkpt lat="45.31877" lon="6.15891">
        <ele>2193.74599168</ele>
        <time>2015-04-12T11:29:22.280Z</time>
      </trkpt>
      <trkpt lat="45.31944" lon="6.15944">
        <ele>2172.86699136</ele>
        <time>2015-04-12T11:29:30.280Z</time>
      </trkpt>
      <trkpt lat="45.31979" lon="6.15997">
        <ele>2150.96998272</ele>
        <time>2015-04-12T11:29:38.390Z</time>
      </trkpt>
      <trkpt lat="45.32028" lon="6.1601">
        <ele>2141.0999936</ele>
        <time>2015-04-12T11:29:46.390Z</time>
      </trkpt>
      <trkpt lat="45.32092" lon="6.16054">
        <ele>2125.25998336</ele>
        <time>2015-04-12T11:29:54.390Z</time>
      </trkpt>
      <trkpt lat="45.32172" lon="6.16126">
        <ele>2106.69899392</ele>
        <time>2015-04-12T11:30:02.280Z</time>
      </trkpt>
      <trkpt lat="45.32263" lon="6.16207">
        <ele>2091.10998656</ele>
        <time>2015-04-12T11:30:10.390Z</time>
      </trkpt>
      <trkpt lat="45.32256" lon="6.16236">
        <ele>2054.05998336</ele>
        <time>2015-04-12T11:30:26.390Z</time>
      </trkpt>
      <trkpt lat="45.32274" lon="6.16224">
        <ele>2032.10899072</ele>
        <time>2015-04-12T11:30:34.280Z</time>
      </trkpt>
      <trkpt lat="45.32251" lon="6.16231">
        <ele>2016.72099968</ele>
        <time>2015-04-12T11:30:42.280Z</time>
      </trkpt>
      <trkpt lat="45.32233" lon="6.16239">
        <ele>2016</ele>
        <time>2015-04-12T11:31:14.280Z</time>
      </trkpt>
      <trkpt lat="45.32224" lon="6.16198">
        <ele>2015.24899968</ele>
        <time>2015-04-12T11:31:27.000Z</time>
      </trkpt>
      <trkpt lat="45.32219" lon="6.16185">
        <ele>2014.67599872</ele>
        <time>2015-04-12T11:31:41.110Z</time>
      </trkpt>
      <trkpt lat="45.32219" lon="6.16169">
        <ele>2013</ele>
        <time>2015-04-12T11:31:54.000Z</time>
      </trkpt>
      <trkpt lat="45.32222" lon="6.16214">
        <ele>2016</ele>
        <time>2015-04-12T11:32:20.010Z</time>
      </trkpt>
      <trkpt lat="45.32149" lon="6.16205">
        <ele>2016</ele>
        <time>2015-04-12T11:32:28.110Z</time>
      </trkpt>
      <trkpt lat="45.32232" lon="6.16223">
        <ele>2016</ele>
        <time>2015-04-12T11:32:38.480Z</time>
      </trkpt>
      <trkpt lat="45.3225" lon="6.16217">
        <ele>2015.07900032</ele>
        <time>2015-04-12T11:32:50.280Z</time>
      </trkpt>
      <trkpt lat="45.32241" lon="6.16226">
        <ele>2015</ele>
        <time>2015-04-12T11:33:14.680Z</time>
      </trkpt>
      <trkpt lat="45.32233" lon="6.16219">
        <ele>2015</ele>
        <time>2015-04-12T11:33:31.100Z</time>
      </trkpt>
      <trkpt lat="45.32242" lon="6.16226">
        <ele>2016</ele>
        <time>2015-04-12T11:36:55.000Z</time>
      </trkpt>
      <trkpt lat="45.32236" lon="6.16256">
        <ele>2016.79900032</ele>
        <time>2015-04-12T11:37:07.480Z</time>
      </trkpt>
      <trkpt lat="45.32232" lon="6.1632">
        <ele>2010.93899648</ele>
        <time>2015-04-12T11:37:15.000Z</time>
      </trkpt>
      <trkpt lat="45.32254" lon="6.16384">
        <ele>1998.79899392</ele>
        <time>2015-04-12T11:37:23.280Z</time>
      </trkpt>
      <trkpt lat="45.32306" lon="6.16419">
        <ele>1984.9125320622</ele>
        <time>2015-04-12T11:37:31.280Z</time>
      </trkpt>
      <trkpt lat="45.32357" lon="6.16469">
        <ele>1975.3381887932</ele>
        <time>2015-04-12T11:37:39.490Z</time>
      </trkpt>
      <trkpt lat="45.32383" lon="6.16506">
        <ele>1971.9104000295</ele>
        <time>2015-04-12T11:37:47.280Z</time>
      </trkpt>
      <trkpt lat="45.32408" lon="6.1655">
        <ele>1970.4495506578</ele>
        <time>2015-04-12T11:37:55.000Z</time>
      </trkpt>
      <trkpt lat="45.32416" lon="6.16582">
        <ele>1969.2432437973</ele>
        <time>2015-04-12T11:38:03.280Z</time>
      </trkpt>
      <trkpt lat="45.32437" lon="6.1662">
        <ele>1966.74699776</ele>
        <time>2015-04-12T11:38:11.280Z</time>
      </trkpt>
      <trkpt lat="45.32472" lon="6.16648">
        <ele>1961.14699776</ele>
        <time>2015-04-12T11:38:19.280Z</time>
      </trkpt>
      <trkpt lat="45.32518" lon="6.1668">
        <ele>1953.2099968</ele>
        <time>2015-04-12T11:38:27.280Z</time>
      </trkpt>
      <trkpt lat="45.32564" lon="6.16727">
        <ele>1946.36799744</ele>
        <time>2015-04-12T11:38:35.280Z</time>
      </trkpt>
      <trkpt lat="45.32564" lon="6.16799">
        <ele>1939.96799744</ele>
        <time>2015-04-12T11:38:43.280Z</time>
      </trkpt>
      <trkpt lat="45.32584" lon="6.16841">
        <ele>1934.4826583537</ele>
        <time>2015-04-12T11:38:51.280Z</time>
      </trkpt>
      <trkpt lat="45.3263" lon="6.16827">
        <ele>1932.1705210509</ele>
        <time>2015-04-12T11:38:59.280Z</time>
      </trkpt>
      <trkpt lat="45.32649" lon="6.16828">
        <ele>1932</ele>
        <time>2015-04-12T11:39:07.280Z</time>
      </trkpt>
      <trkpt lat="45.32681" lon="6.16878">
        <ele>1932</ele>
        <time>2015-04-12T11:39:15.280Z</time>
      </trkpt>
      <trkpt lat="45.32697" lon="6.1693">
        <ele>1927.83099648</ele>
        <time>2015-04-12T11:39:23.280Z</time>
      </trkpt>
      <trkpt lat="45.3272" lon="6.16936">
        <ele>1919.927072038</ele>
        <time>2015-04-12T11:39:31.280Z</time>
      </trkpt>
      <trkpt lat="45.32756" lon="6.16945">
        <ele>1915.1318718416</ele>
        <time>2015-04-12T11:39:39.280Z</time>
      </trkpt>
      <trkpt lat="45.32777" lon="6.16933">
        <ele>1913.442442227</ele>
        <time>2015-04-12T11:39:47.280Z</time>
      </trkpt>
      <trkpt lat="45.3282" lon="6.16922">
        <ele>1910.68399872</ele>
        <time>2015-04-12T11:39:55.280Z</time>
      </trkpt>
      <trkpt lat="45.32851" lon="6.16924">
        <ele>1907.94699904</ele>
        <time>2015-04-12T11:40:03.000Z</time>
      </trkpt>
      <trkpt lat="45.32891" lon="6.16922">
        <ele>1905.72099968</ele>
        <time>2015-04-12T11:40:12.280Z</time>
      </trkpt>
      <trkpt lat="45.32919" lon="6.16947">
        <ele>1904.6049984</ele>
        <time>2015-04-12T11:40:20.280Z</time>
      </trkpt>
      <trkpt lat="45.32951" lon="6.16953">
        <ele>1900.6049984</ele>
        <time>2015-04-12T11:40:28.280Z</time>
      </trkpt>
      <trkpt lat="45.32988" lon="6.16958">
        <ele>1899.32099968</ele>
        <time>2015-04-12T11:40:36.280Z</time>
      </trkpt>
      <trkpt lat="45.33008" lon="6.16948">
        <ele>1898.52099968</ele>
        <time>2015-04-12T11:40:44.280Z</time>
      </trkpt>
      <trkpt lat="45.33032" lon="6.16942">
        <ele>1897.72099968</ele>
        <time>2015-04-12T11:40:52.280Z</time>
      </trkpt>
      <trkpt lat="45.3304" lon="6.1695">
        <ele>1898</ele>
        <time>2015-04-12T11:43:59.380Z</time>
      </trkpt>
      <trkpt lat="45.3305" lon="6.1695">
        <ele>1899.56699904</ele>
        <time>2015-04-12T11:44:11.380Z</time>
      </trkpt>
      <trkpt lat="45.33057" lon="6.16949">
        <ele>1901.96699904</ele>
        <time>2015-04-12T11:44:19.380Z</time>
      </trkpt>
      <trkpt lat="45.33061" lon="6.16951">
        <ele>1903.57799936</ele>
        <time>2015-04-12T11:44:27.380Z</time>
      </trkpt>
      <trkpt lat="45.33069" lon="6.16953">
        <ele>1905.17799936</ele>
        <time>2015-04-12T11:44:35.380Z</time>
      </trkpt>
      <trkpt lat="45.33076" lon="6.16955">
        <ele>1907.55599872</ele>
        <time>2015-04-12T11:44:43.380Z</time>
      </trkpt>
      <trkpt lat="45.33082" lon="6.16956">
        <ele>1910.18899968</ele>
        <time>2015-04-12T11:44:51.380Z</time>
      </trkpt>
      <trkpt lat="45.33089" lon="6.16955">
        <ele>1910.98899968</ele>
        <time>2015-04-12T11:44:59.380Z</time>
      </trkpt>
      <trkpt lat="45.33107" lon="6.16961">
        <ele>1916.15100032</ele>
        <time>2015-04-12T11:45:11.000Z</time>
      </trkpt>
      <trkpt lat="45.33118" lon="6.16959">
        <ele>1917.76</ele>
        <time>2015-04-12T11:45:23.290Z</time>
      </trkpt>
      <trkpt lat="45.3313" lon="6.16962">
        <ele>1919.57900032</ele>
        <time>2015-04-12T11:45:35.280Z</time>
      </trkpt>
      <trkpt lat="45.33144" lon="6.16968">
        <ele>1920</ele>
        <time>2015-04-12T11:45:47.280Z</time>
      </trkpt>
      <trkpt lat="45.3316" lon="6.16983">
        <ele>1920.57900032</ele>
        <time>2015-04-12T11:45:55.280Z</time>
      </trkpt>
      <trkpt lat="45.33174" lon="6.1699">
        <ele>1921.37900032</ele>
        <time>2015-04-12T11:46:03.280Z</time>
      </trkpt>
      <trkpt lat="45.33197" lon="6.17002">
        <ele>1922</ele>
        <time>2015-04-12T11:46:15.280Z</time>
      </trkpt>
      <trkpt lat="45.33208" lon="6.1701">
        <ele>1922</ele>
        <time>2015-04-12T11:46:23.280Z</time>
      </trkpt>
      <trkpt lat="45.33221" lon="6.17013">
        <ele>1922</ele>
        <time>2015-04-12T11:46:31.280Z</time>
      </trkpt>
      <trkpt lat="45.33241" lon="6.17017">
        <ele>1922.77900032</ele>
        <time>2015-04-12T11:46:47.280Z</time>
      </trkpt>
      <trkpt lat="45.33258" lon="6.17017">
        <ele>1924.95800064</ele>
        <time>2015-04-12T11:46:59.280Z</time>
      </trkpt>
      <trkpt lat="45.3327" lon="6.17028">
        <ele>1929.57900032</ele>
        <time>2015-04-12T11:47:15.280Z</time>
      </trkpt>
      <trkpt lat="45.33285" lon="6.1703">
        <ele>1930.78</ele>
        <time>2015-04-12T11:47:27.290Z</time>
      </trkpt>
      <trkpt lat="45.33296" lon="6.17032">
        <ele>1932.95800064</ele>
        <time>2015-04-12T11:47:39.280Z</time>
      </trkpt>
      <trkpt lat="45.3331" lon="6.17038">
        <ele>1933.77900032</ele>
        <time>2015-04-12T11:47:47.280Z</time>
      </trkpt>
      <trkpt lat="45.33331" lon="6.17057">
        <ele>1934</ele>
        <time>2015-04-12T11:47:59.280Z</time>
      </trkpt>
      <trkpt lat="45.33344" lon="6.17057">
        <ele>1934</ele>
        <time>2015-04-12T11:48:07.280Z</time>
      </trkpt>
      <trkpt lat="45.33354" lon="6.17061">
        <ele>1934.97900032</ele>
        <time>2015-04-12T11:48:19.280Z</time>
      </trkpt>
      <trkpt lat="45.33363" lon="6.17067">
        <ele>1935</ele>
        <time>2015-04-12T11:48:27.280Z</time>
      </trkpt>
      <trkpt lat="45.33378" lon="6.1708">
        <ele>1936.73700096</ele>
        <time>2015-04-12T11:48:35.280Z</time>
      </trkpt>
      <trkpt lat="45.33394" lon="6.17092">
        <ele>1939.1781777088</ele>
        <time>2015-04-12T11:48:51.280Z</time>
      </trkpt>
      <trkpt lat="45.33404" lon="6.17097">
        <ele>1940</ele>
        <time>2015-04-12T11:49:03.280Z</time>
      </trkpt>
      <trkpt lat="45.33416" lon="6.17094">
        <ele>1940.35800064</ele>
        <time>2015-04-12T11:49:11.280Z</time>
      </trkpt>
      <trkpt lat="45.33432" lon="6.17098">
        <ele>1941.95800064</ele>
        <time>2015-04-12T11:49:19.280Z</time>
      </trkpt>
      <trkpt lat="45.33444" lon="6.17114">
        <ele>1944.33700096</ele>
        <time>2015-04-12T11:49:27.280Z</time>
      </trkpt>
      <trkpt lat="45.33445" lon="6.17137">
        <ele>1945</ele>
        <time>2015-04-12T11:49:39.290Z</time>
      </trkpt>
      <trkpt lat="45.33453" lon="6.17157">
        <ele>1948.35800064</ele>
        <time>2015-04-12T11:49:51.280Z</time>
      </trkpt>
      <trkpt lat="45.33457" lon="6.17175">
        <ele>1949.95800064</ele>
        <time>2015-04-12T11:49:59.280Z</time>
      </trkpt>
      <trkpt lat="45.33464" lon="6.17193">
        <ele>1951.57900032</ele>
        <time>2015-04-12T11:50:15.280Z</time>
      </trkpt>
      <trkpt lat="45.33472" lon="6.17205">
        <ele>1952.75800064</ele>
        <time>2015-04-12T11:50:23.280Z</time>
      </trkpt>
      <trkpt lat="45.33482" lon="6.17194">
        <ele>1956.12199936</ele>
        <time>2015-04-12T11:50:40.100Z</time>
      </trkpt>
      <trkpt lat="45.33489" lon="6.17178">
        <ele>1959.39800064</ele>
        <time>2015-04-12T11:50:56.480Z</time>
      </trkpt>
      <trkpt lat="45.33495" lon="6.1719">
        <ele>1961.74200064</ele>
        <time>2015-04-12T11:51:08.200Z</time>
      </trkpt>
      <trkpt lat="45.33501" lon="6.17203">
        <ele>1963.36</ele>
        <time>2015-04-12T11:51:16.290Z</time>
      </trkpt>
      <trkpt lat="45.33495" lon="6.17221">
        <ele>1969.55800064</ele>
        <time>2015-04-12T11:51:32.280Z</time>
      </trkpt>
      <trkpt lat="45.33498" lon="6.17241">
        <ele>1972.356</ele>
        <time>2015-04-12T11:51:44.010Z</time>
      </trkpt>
      <trkpt lat="45.33506" lon="6.17257">
        <ele>1974.67900032</ele>
        <time>2015-04-12T11:51:56.280Z</time>
      </trkpt>
      <trkpt lat="45.33517" lon="6.1726">
        <ele>1977.93700096</ele>
        <time>2015-04-12T11:52:09.280Z</time>
      </trkpt>
      <trkpt lat="45.33525" lon="6.1725">
        <ele>1980.156</ele>
        <time>2015-04-12T11:52:20.010Z</time>
      </trkpt>
      <trkpt lat="45.33534" lon="6.1724">
        <ele>1984.36</ele>
        <time>2015-04-12T11:52:36.290Z</time>
      </trkpt>
      <trkpt lat="45.33544" lon="6.17228">
        <ele>1986.44</ele>
        <time>2015-04-12T11:52:44.290Z</time>
      </trkpt>
      <trkpt lat="45.33553" lon="6.17235">
        <ele>1992.76</ele>
        <time>2015-04-12T11:53:08.290Z</time>
      </trkpt>
      <trkpt lat="45.33554" lon="6.17251">
        <ele>1996</ele>
        <time>2015-04-12T11:53:20.280Z</time>
      </trkpt>
      <trkpt lat="45.33563" lon="6.17261">
        <ele>1996</ele>
        <time>2015-04-12T11:53:28.280Z</time>
      </trkpt>
      <trkpt lat="45.33573" lon="6.17257">
        <ele>1999.3950016</ele>
        <time>2015-04-12T11:53:36.280Z</time>
      </trkpt>
      <trkpt lat="45.33586" lon="6.17253">
        <ele>2001.47900032</ele>
        <time>2015-04-12T11:53:44.280Z</time>
      </trkpt>
      <trkpt lat="45.33591" lon="6.17239">
        <ele>2002.61900032</ele>
        <time>2015-04-12T11:53:55.680Z</time>
      </trkpt>
      <trkpt lat="45.33591" lon="6.17223">
        <ele>2005.79600128</ele>
        <time>2015-04-12T11:54:06.480Z</time>
      </trkpt>
      <trkpt lat="45.33594" lon="6.17238">
        <ele>2011.55800064</ele>
        <time>2015-04-12T11:54:22.280Z</time>
      </trkpt>
      <trkpt lat="45.33606" lon="6.17247">
        <ele>2014.44</ele>
        <time>2015-04-12T11:54:34.290Z</time>
      </trkpt>
      <trkpt lat="45.33607" lon="6.17265">
        <ele>2018.33700096</ele>
        <time>2015-04-12T11:54:47.280Z</time>
      </trkpt>
      <trkpt lat="45.33606" lon="6.17281">
        <ele>2021.75700096</ele>
        <time>2015-04-12T11:54:58.680Z</time>
      </trkpt>
      <trkpt lat="45.33617" lon="6.17289">
        <ele>2024.36</ele>
        <time>2015-04-12T11:55:11.290Z</time>
      </trkpt>
      <trkpt lat="45.33621" lon="6.17273">
        <ele>2029.35800064</ele>
        <time>2015-04-12T11:55:31.280Z</time>
      </trkpt>
      <trkpt lat="45.33628" lon="6.17262">
        <ele>2031</ele>
        <time>2015-04-12T11:55:39.510Z</time>
      </trkpt>
      <trkpt lat="45.33634" lon="6.17273">
        <ele>2035.8810679427</ele>
        <time>2015-04-12T11:56:09.280Z</time>
      </trkpt>
      <trkpt lat="45.33648" lon="6.17267">
        <ele>2038.48600192</ele>
        <time>2015-04-12T11:56:31.110Z</time>
      </trkpt>
      <trkpt lat="45.3366" lon="6.17266">
        <ele>2045.17900032</ele>
        <time>2015-04-12T11:56:51.280Z</time>
      </trkpt>
      <trkpt lat="45.33663" lon="6.17251">
        <ele>2048.34</ele>
        <time>2015-04-12T11:57:07.290Z</time>
      </trkpt>
      <trkpt lat="45.33671" lon="6.17237">
        <ele>2049</ele>
        <time>2015-04-12T11:57:19.280Z</time>
      </trkpt>
      <trkpt lat="45.33661" lon="6.17235">
        <ele>2053.54</ele>
        <time>2015-04-12T11:57:31.290Z</time>
      </trkpt>
      <trkpt lat="45.33678" lon="6.17242">
        <ele>2056.78</ele>
        <time>2015-04-12T11:57:47.290Z</time>
      </trkpt>
      <trkpt lat="45.33686" lon="6.1723">
        <ele>2060.972</ele>
        <time>2015-04-12T11:59:19.210Z</time>
      </trkpt>
      <trkpt lat="45.33701" lon="6.17222">
        <ele>2064.17900032</ele>
        <time>2015-04-12T11:59:31.280Z</time>
      </trkpt>
      <trkpt lat="45.33709" lon="6.17209">
        <ele>2067.256</ele>
        <time>2015-04-12T11:59:47.010Z</time>
      </trkpt>
      <trkpt lat="45.33721" lon="6.17202">
        <ele>2068.57900032</ele>
        <time>2015-04-12T11:59:55.280Z</time>
      </trkpt>
      <trkpt lat="45.33739" lon="6.17207">
        <ele>2071.608</ele>
        <time>2015-04-12T12:00:11.010Z</time>
      </trkpt>
      <trkpt lat="45.33751" lon="6.17204">
        <ele>2075.38</ele>
        <time>2015-04-12T12:00:23.290Z</time>
      </trkpt>
      <trkpt lat="45.33764" lon="6.172">
        <ele>2077.79700096</ele>
        <time>2015-04-12T12:00:35.480Z</time>
      </trkpt>
      <trkpt lat="45.33773" lon="6.17198">
        <ele>2081.39800064</ele>
        <time>2015-04-12T12:00:51.480Z</time>
      </trkpt>
      <trkpt lat="45.33777" lon="6.17178">
        <ele>2082.95800064</ele>
        <time>2015-04-12T12:00:59.280Z</time>
      </trkpt>
      <trkpt lat="45.33784" lon="6.17165">
        <ele>2084.59800064</ele>
        <time>2015-04-12T12:01:07.480Z</time>
      </trkpt>
      <trkpt lat="45.33789" lon="6.17146">
        <ele>2089.8911067578</ele>
        <time>2015-04-12T12:01:27.280Z</time>
      </trkpt>
      <trkpt lat="45.338" lon="6.17138">
        <ele>2092.1571569879</ele>
        <time>2015-04-12T12:01:35.280Z</time>
      </trkpt>
      <trkpt lat="45.33806" lon="6.17124">
        <ele>2098.14</ele>
        <time>2015-04-12T12:02:03.290Z</time>
      </trkpt>
      <trkpt lat="45.33804" lon="6.17108">
        <ele>2101.15800064</ele>
        <time>2015-04-12T12:02:15.280Z</time>
      </trkpt>
      <trkpt lat="45.33807" lon="6.17091">
        <ele>2103.55800064</ele>
        <time>2015-04-12T12:02:27.280Z</time>
      </trkpt>
      <trkpt lat="45.3382" lon="6.17077">
        <ele>2108.77900032</ele>
        <time>2015-04-12T12:02:47.280Z</time>
      </trkpt>
      <trkpt lat="45.33832" lon="6.1707">
        <ele>2112</ele>
        <time>2015-04-12T12:03:07.280Z</time>
      </trkpt>
      <trkpt lat="45.33834" lon="6.1709">
        <ele>2120.35800064</ele>
        <time>2015-04-12T12:03:31.280Z</time>
      </trkpt>
      <trkpt lat="45.33844" lon="6.171">
        <ele>2122.37900032</ele>
        <time>2015-04-12T12:03:43.280Z</time>
      </trkpt>
      <trkpt lat="45.33847" lon="6.17114">
        <ele>2126.91600128</ele>
        <time>2015-04-12T12:03:59.280Z</time>
      </trkpt>
      <trkpt lat="45.33857" lon="6.17108">
        <ele>2131.156</ele>
        <time>2015-04-12T12:04:20.010Z</time>
      </trkpt>
      <trkpt lat="45.3386" lon="6.17095">
        <ele>2133.556</ele>
        <time>2015-04-12T12:04:28.010Z</time>
      </trkpt>
      <trkpt lat="45.33866" lon="6.1711">
        <ele>2139.76</ele>
        <time>2015-04-12T12:05:01.010Z</time>
      </trkpt>
      <trkpt lat="45.33875" lon="6.17122">
        <ele>2144.456</ele>
        <time>2015-04-12T12:05:11.010Z</time>
      </trkpt>
      <trkpt lat="45.33878" lon="6.17137">
        <ele>2147</ele>
        <time>2015-04-12T12:05:23.290Z</time>
      </trkpt>
      <trkpt lat="45.3388" lon="6.1712">
        <ele>2149.99700096</ele>
        <time>2015-04-12T12:05:39.480Z</time>
      </trkpt>
      <trkpt lat="45.33889" lon="6.17132">
        <ele>2154.37900032</ele>
        <time>2015-04-12T12:06:03.280Z</time>
      </trkpt>
      <trkpt lat="45.33889" lon="6.17146">
        <ele>2159</ele>
        <time>2015-04-12T12:06:19.490Z</time>
      </trkpt>
      <trkpt lat="45.339" lon="6.17137">
        <ele>2164.8971001187</ele>
        <time>2015-04-12T12:06:55.290Z</time>
      </trkpt>
      <trkpt lat="45.33904" lon="6.17122">
        <ele>2172.472</ele>
        <time>2015-04-12T12:07:24.210Z</time>
      </trkpt>
      <trkpt lat="45.33914" lon="6.17125">
        <ele>2174.104</ele>
        <time>2015-04-12T12:07:45.010Z</time>
      </trkpt>
      <trkpt lat="45.33925" lon="6.17135">
        <ele>2175.37900032</ele>
        <time>2015-04-12T12:07:53.280Z</time>
      </trkpt>
      <trkpt lat="45.33921" lon="6.17153">
        <ele>2177.808</ele>
        <time>2015-04-12T12:08:04.010Z</time>
      </trkpt>
      <trkpt lat="45.33916" lon="6.1714">
        <ele>2182</ele>
        <time>2015-04-12T12:08:29.480Z</time>
      </trkpt>
      <trkpt lat="45.3392" lon="6.17127">
        <ele>2185.55300096</ele>
        <time>2015-04-12T12:08:45.020Z</time>
      </trkpt>
      <trkpt lat="45.33924" lon="6.17113">
        <ele>2192</ele>
        <time>2015-04-12T12:09:13.480Z</time>
      </trkpt>
      <trkpt lat="45.33929" lon="6.171">
        <ele>2192.97100032</ele>
        <time>2015-04-12T12:09:29.200Z</time>
      </trkpt>
      <trkpt lat="45.33929" lon="6.17079">
        <ele>2196</ele>
        <time>2015-04-12T12:09:41.280Z</time>
      </trkpt>
      <trkpt lat="45.3392" lon="6.17073">
        <ele>2196</ele>
        <time>2015-04-12T12:09:49.490Z</time>
      </trkpt>
      <trkpt lat="45.33931" lon="6.17081">
        <ele>2204.072</ele>
        <time>2015-04-12T12:10:20.210Z</time>
      </trkpt>
      <trkpt lat="45.33942" lon="6.17077">
        <ele>2208</ele>
        <time>2015-04-12T12:10:44.480Z</time>
      </trkpt>
      <trkpt lat="45.33952" lon="6.17083">
        <ele>2212.95800064</ele>
        <time>2015-04-12T12:11:04.280Z</time>
      </trkpt>
      <trkpt lat="45.33961" lon="6.17092">
        <ele>2220.96</ele>
        <time>2015-04-12T12:11:44.290Z</time>
      </trkpt>
      <trkpt lat="45.33955" lon="6.17104">
        <ele>2223.8</ele>
        <time>2015-04-12T12:12:15.490Z</time>
      </trkpt>
      <trkpt lat="45.33961" lon="6.17116">
        <ele>2232.19900032</ele>
        <time>2015-04-12T12:12:51.480Z</time>
      </trkpt>
      <trkpt lat="45.33971" lon="6.17109">
        <ele>2236</ele>
        <time>2015-04-12T12:13:15.210Z</time>
      </trkpt>
      <trkpt lat="45.33975" lon="6.17124">
        <ele>2240.01100032</ele>
        <time>2015-04-12T12:14:59.380Z</time>
      </trkpt>
      <trkpt lat="45.33979" lon="6.17144">
        <ele>2239.0535372521</ele>
        <time>2015-04-12T12:15:09.390Z</time>
      </trkpt>
      <trkpt lat="45.33995" lon="6.17163">
        <ele>2239</ele>
        <time>2015-04-12T12:15:17.200Z</time>
      </trkpt>
      <trkpt lat="45.34009" lon="6.17173">
        <ele>2239</ele>
        <time>2015-04-12T12:15:29.380Z</time>
      </trkpt>
      <trkpt lat="45.34019" lon="6.17174">
        <ele>2239.78899968</ele>
        <time>2015-04-12T12:15:37.380Z</time>
      </trkpt>
      <trkpt lat="45.34031" lon="6.17186">
        <ele>2240</ele>
        <time>2015-04-12T12:15:45.480Z</time>
      </trkpt>
      <trkpt lat="45.34042" lon="6.17186">
        <ele>2239.61100032</ele>
        <time>2015-04-12T12:15:53.380Z</time>
      </trkpt>
      <trkpt lat="45.34052" lon="6.17196">
        <ele>2239.58899968</ele>
        <time>2015-04-12T12:16:05.380Z</time>
      </trkpt>
      <trkpt lat="45.34054" lon="6.17218">
        <ele>2240</ele>
        <time>2015-04-12T12:17:33.110Z</time>
      </trkpt>
      <trkpt lat="45.34052" lon="6.17278">
        <ele>2238.86600192</ele>
        <time>2015-04-12T12:17:41.380Z</time>
      </trkpt>
      <trkpt lat="45.34057" lon="6.17326">
        <ele>2234.06600192</ele>
        <time>2015-04-12T12:17:49.380Z</time>
      </trkpt>
      <trkpt lat="45.34059" lon="6.17381">
        <ele>2227.68800256</ele>
        <time>2015-04-12T12:17:57.380Z</time>
      </trkpt>
      <trkpt lat="45.34055" lon="6.17458">
        <ele>2218.13199104</ele>
        <time>2015-04-12T12:18:05.110Z</time>
      </trkpt>
      <trkpt lat="45.34068" lon="6.17552">
        <ele>2207.58099712</ele>
        <time>2015-04-12T12:18:14.400Z</time>
      </trkpt>
      <trkpt lat="45.3411" lon="6.17597">
        <ele>2200.95999744</ele>
        <time>2015-04-12T12:18:24.590Z</time>
      </trkpt>
      <trkpt lat="45.34099" lon="6.17604">
        <ele>2202.59600128</ele>
        <time>2015-04-12T12:19:03.480Z</time>
      </trkpt>
      <trkpt lat="45.34101" lon="6.17618">
        <ele>2206.30899968</ele>
        <time>2015-04-12T12:19:22.580Z</time>
      </trkpt>
      <trkpt lat="45.341" lon="6.17633">
        <ele>2214.33000192</ele>
        <time>2015-04-12T12:20:00.590Z</time>
      </trkpt>
      <trkpt lat="45.34112" lon="6.17635">
        <ele>2217</ele>
        <time>2015-04-12T12:20:16.310Z</time>
      </trkpt>
      <trkpt lat="45.3411" lon="6.17651">
        <ele>2217.072</ele>
        <time>2015-04-12T12:20:30.210Z</time>
      </trkpt>
      <trkpt lat="45.3412" lon="6.1767">
        <ele>2218</ele>
        <time>2015-04-12T12:20:41.110Z</time>
      </trkpt>
      <trkpt lat="45.34128" lon="6.17689">
        <ele>2217.99899904</ele>
        <time>2015-04-12T12:20:49.500Z</time>
      </trkpt>
      <trkpt lat="45.34136" lon="6.17702">
        <ele>2217</ele>
        <time>2015-04-12T12:21:01.110Z</time>
      </trkpt>
      <trkpt lat="45.34149" lon="6.17712">
        <ele>2217</ele>
        <time>2015-04-12T12:21:09.110Z</time>
      </trkpt>
      <trkpt lat="45.34161" lon="6.17739">
        <ele>2218</ele>
        <time>2015-04-12T12:21:20.210Z</time>
      </trkpt>
      <trkpt lat="45.34167" lon="6.17791">
        <ele>2218</ele>
        <time>2015-04-12T12:21:28.110Z</time>
      </trkpt>
      <trkpt lat="45.34182" lon="6.17861">
        <ele>2204.4199936</ele>
        <time>2015-04-12T12:21:36.280Z</time>
      </trkpt>
      <trkpt lat="45.34221" lon="6.179">
        <ele>2194.52</ele>
        <time>2015-04-12T12:21:45.290Z</time>
      </trkpt>
      <trkpt lat="45.34281" lon="6.17947">
        <ele>2189.12599808</ele>
        <time>2015-04-12T12:21:54.280Z</time>
      </trkpt>
      <trkpt lat="45.34269" lon="6.17944">
        <ele>2185</ele>
        <time>2015-04-12T12:22:28.110Z</time>
      </trkpt>
      <trkpt lat="45.34259" lon="6.17938">
        <ele>2185</ele>
        <time>2015-04-12T12:22:50.210Z</time>
      </trkpt>
      <trkpt lat="45.34266" lon="6.17953">
        <ele>2184.33799936</ele>
        <time>2015-04-12T12:23:06.110Z</time>
      </trkpt>
      <trkpt lat="45.34275" lon="6.17944">
        <ele>2186</ele>
        <time>2015-04-12T12:23:20.110Z</time>
      </trkpt>
      <trkpt lat="45.34285" lon="6.17945">
        <ele>2186</ele>
        <time>2015-04-12T12:23:28.110Z</time>
      </trkpt>
      <trkpt lat="45.34271" lon="6.1795">
        <ele>2186</ele>
        <time>2015-04-12T12:23:38.110Z</time>
      </trkpt>
      <trkpt lat="45.34261" lon="6.17948">
        <ele>2184.31799936</ele>
        <time>2015-04-12T12:24:06.310Z</time>
      </trkpt>
      <trkpt lat="45.34273" lon="6.17958">
        <ele>2185</ele>
        <time>2015-04-12T12:24:29.380Z</time>
      </trkpt>
      <trkpt lat="45.34283" lon="6.17971">
        <ele>2188.3166140571</ele>
        <time>2015-04-12T12:24:45.380Z</time>
      </trkpt>
      <trkpt lat="45.34288" lon="6.17985">
        <ele>2193.68600192</ele>
        <time>2015-04-12T12:25:05.110Z</time>
      </trkpt>
      <trkpt lat="45.34301" lon="6.18002">
        <ele>2201.00300288</ele>
        <time>2015-04-12T12:25:39.500Z</time>
      </trkpt>
      <trkpt lat="45.34311" lon="6.18014">
        <ele>2204.16200064</ele>
        <time>2015-04-12T12:25:51.110Z</time>
      </trkpt>
      <trkpt lat="45.34321" lon="6.18018">
        <ele>2209.44800256</ele>
        <time>2015-04-12T12:26:18.110Z</time>
      </trkpt>
      <trkpt lat="45.34331" lon="6.18027">
        <ele>2212.144</ele>
        <time>2015-04-12T12:26:30.210Z</time>
      </trkpt>
      <trkpt lat="45.34341" lon="6.18024">
        <ele>2218.072</ele>
        <time>2015-04-12T12:26:50.210Z</time>
      </trkpt>
      <trkpt lat="45.34352" lon="6.18022">
        <ele>2220.14600192</ele>
        <time>2015-04-12T12:27:03.310Z</time>
      </trkpt>
      <trkpt lat="45.34364" lon="6.18022">
        <ele>2222</ele>
        <time>2015-04-12T12:27:19.110Z</time>
      </trkpt>
      <trkpt lat="45.3438" lon="6.18025">
        <ele>2226.5615617809</ele>
        <time>2015-04-12T12:27:55.110Z</time>
      </trkpt>
      <trkpt lat="45.34395" lon="6.18025">
        <ele>2228.44800256</ele>
        <time>2015-04-12T12:28:03.110Z</time>
      </trkpt>
      <trkpt lat="45.34407" lon="6.1803">
        <ele>2237.2492369474</ele>
        <time>2015-04-12T12:28:42.110Z</time>
      </trkpt>
      <trkpt lat="45.3442" lon="6.18025">
        <ele>2239.12400128</ele>
        <time>2015-04-12T12:28:55.110Z</time>
      </trkpt>
      <trkpt lat="45.34427" lon="6.18039">
        <ele>2244.78600192</ele>
        <time>2015-04-12T12:29:22.110Z</time>
      </trkpt>
      <trkpt lat="45.34432" lon="6.18052">
        <ele>2253.60900096</ele>
        <time>2015-04-12T12:30:05.580Z</time>
      </trkpt>
      <trkpt lat="45.34426" lon="6.18067">
        <ele>2259.22200064</ele>
        <time>2015-04-12T12:30:25.600Z</time>
      </trkpt>
      <trkpt lat="45.34429" lon="6.18084">
        <ele>2261.4450048</ele>
        <time>2015-04-12T12:30:42.380Z</time>
      </trkpt>
      <trkpt lat="45.34431" lon="6.18101">
        <ele>2267.66700288</ele>
        <time>2015-04-12T12:30:58.380Z</time>
      </trkpt>
      <trkpt lat="45.3444" lon="6.18121">
        <ele>2269.8897801297</ele>
        <time>2015-04-12T12:31:18.390Z</time>
      </trkpt>
      <trkpt lat="45.34444" lon="6.18136">
        <ele>2276.77800192</ele>
        <time>2015-04-12T12:31:38.380Z</time>
      </trkpt>
      <trkpt lat="45.34448" lon="6.18151">
        <ele>2281.95600384</ele>
        <time>2015-04-12T12:31:54.380Z</time>
      </trkpt>
      <trkpt lat="45.34457" lon="6.18165">
        <ele>2284.68900096</ele>
        <time>2015-04-12T12:32:06.380Z</time>
      </trkpt>
      <trkpt lat="45.34446" lon="6.18174">
        <ele>2286.78000128</ele>
        <time>2015-04-12T12:32:18.390Z</time>
      </trkpt>
      <trkpt lat="45.34448" lon="6.18187">
        <ele>2288.38000128</ele>
        <time>2015-04-12T12:32:26.390Z</time>
      </trkpt>
      <trkpt lat="45.34444" lon="6.182">
        <ele>2291.4500032</ele>
        <time>2015-04-12T12:32:42.390Z</time>
      </trkpt>
      <trkpt lat="45.34454" lon="6.18218">
        <ele>2299.2622816426</ele>
        <time>2015-04-12T12:33:10.380Z</time>
      </trkpt>
      <trkpt lat="45.34468" lon="6.18226">
        <ele>2303.5152759366</ele>
        <time>2015-04-12T12:33:27.110Z</time>
      </trkpt>
      <trkpt lat="45.34469" lon="6.18245">
        <ele>2307.04800256</ele>
        <time>2015-04-12T12:33:42.110Z</time>
      </trkpt>
      <trkpt lat="45.34477" lon="6.18261">
        <ele>2317.28200064</ele>
        <time>2015-04-12T12:34:22.310Z</time>
      </trkpt>
      <trkpt lat="45.34477" lon="6.1828">
        <ele>2318.32400128</ele>
        <time>2015-04-12T12:34:31.110Z</time>
      </trkpt>
      <trkpt lat="45.34479" lon="6.18298">
        <ele>2319.21100032</ele>
        <time>2015-04-12T12:34:47.380Z</time>
      </trkpt>
      <trkpt lat="45.34482" lon="6.18311">
        <ele>2322</ele>
        <time>2015-04-12T12:35:01.310Z</time>
      </trkpt>
      <trkpt lat="45.34474" lon="6.18296">
        <ele>2324</ele>
        <time>2015-04-12T12:36:36.310Z</time>
      </trkpt>
      <trkpt lat="45.34477" lon="6.1832">
        <ele>2324</ele>
        <time>2015-04-12T12:36:47.210Z</time>
      </trkpt>
      <trkpt lat="45.34489" lon="6.18307">
        <ele>2325</ele>
        <time>2015-04-12T12:37:35.110Z</time>
      </trkpt>
      <trkpt lat="45.34502" lon="6.18314">
        <ele>2329.4500032</ele>
        <time>2015-04-12T12:37:48.390Z</time>
      </trkpt>
      <trkpt lat="45.34511" lon="6.18319">
        <ele>2334.23000192</ele>
        <time>2015-04-12T12:38:03.590Z</time>
      </trkpt>
      <trkpt lat="45.34503" lon="6.18333">
        <ele>2341.46700288</ele>
        <time>2015-04-12T12:38:24.380Z</time>
      </trkpt>
      <trkpt lat="45.34513" lon="6.18339">
        <ele>2344.48300288</ele>
        <time>2015-04-12T12:38:41.100Z</time>
      </trkpt>
      <trkpt lat="45.34517" lon="6.18358">
        <ele>2350.74600192</ele>
        <time>2015-04-12T12:39:05.310Z</time>
      </trkpt>
      <trkpt lat="45.34529" lon="6.18359">
        <ele>2355.92400128</ele>
        <time>2015-04-12T12:39:34.110Z</time>
      </trkpt>
      <trkpt lat="45.34539" lon="6.18354">
        <ele>2362</ele>
        <time>2015-04-12T12:39:55.580Z</time>
      </trkpt>
      <trkpt lat="45.34549" lon="6.18349">
        <ele>2363.92800256</ele>
        <time>2015-04-12T12:40:04.310Z</time>
      </trkpt>
      <trkpt lat="45.3456" lon="6.1835">
        <ele>2366.7232773084</ele>
        <time>2015-04-12T12:40:13.110Z</time>
      </trkpt>
      <trkpt lat="45.34568" lon="6.18344">
        <ele>2369.0190193576</ele>
        <time>2015-04-12T12:40:24.590Z</time>
      </trkpt>
      <trkpt lat="45.34575" lon="6.1837">
        <ele>2372.50899968</ele>
        <time>2015-04-12T12:40:44.580Z</time>
      </trkpt>
      <trkpt lat="45.34583" lon="6.18382">
        <ele>2375.12699904</ele>
        <time>2015-04-12T12:40:56.580Z</time>
      </trkpt>
      <trkpt lat="45.3459" lon="6.18394">
        <ele>2377.81799936</ele>
        <time>2015-04-12T12:41:08.580Z</time>
      </trkpt>
      <trkpt lat="45.34598" lon="6.18404">
        <ele>2380.21799936</ele>
        <time>2015-04-12T12:41:20.580Z</time>
      </trkpt>
      <trkpt lat="45.34607" lon="6.18416">
        <ele>2383.41799936</ele>
        <time>2015-04-12T12:41:36.580Z</time>
      </trkpt>
      <trkpt lat="45.34617" lon="6.18419">
        <ele>2387.33399808</ele>
        <time>2015-04-12T12:41:53.380Z</time>
      </trkpt>
      <trkpt lat="45.34627" lon="6.18425">
        <ele>2391.28900096</ele>
        <time>2015-04-12T12:42:02.380Z</time>
      </trkpt>
      <trkpt lat="45.34635" lon="6.18437">
        <ele>2396.06700288</ele>
        <time>2015-04-12T12:42:26.380Z</time>
      </trkpt>
      <trkpt lat="45.34641" lon="6.18449">
        <ele>2397.57800192</ele>
        <time>2015-04-12T12:42:42.380Z</time>
      </trkpt>
      <trkpt lat="45.3464" lon="6.18463">
        <ele>2399.88900096</ele>
        <time>2015-04-12T12:42:58.380Z</time>
      </trkpt>
      <trkpt lat="45.34641" lon="6.18483">
        <ele>2404.21799936</ele>
        <time>2015-04-12T12:43:10.580Z</time>
      </trkpt>
      <trkpt lat="45.34646" lon="6.18496">
        <ele>2406.77799936</ele>
        <time>2015-04-12T12:43:23.380Z</time>
      </trkpt>
      <trkpt lat="45.34639" lon="6.1851">
        <ele>2409.38899968</ele>
        <time>2015-04-12T12:43:43.380Z</time>
      </trkpt>
      <trkpt lat="45.34652" lon="6.18517">
        <ele>2413.96000256</ele>
        <time>2015-04-12T12:43:59.390Z</time>
      </trkpt>
      <trkpt lat="45.34656" lon="6.18535">
        <ele>2417.92400128</ele>
        <time>2015-04-12T12:44:19.110Z</time>
      </trkpt>
      <trkpt lat="45.34672" lon="6.18545">
        <ele>2422.58899968</ele>
        <time>2015-04-12T12:44:35.380Z</time>
      </trkpt>
      <trkpt lat="45.34681" lon="6.18554">
        <ele>2426.3747478155</ele>
        <time>2015-04-12T12:44:51.380Z</time>
      </trkpt>
      <trkpt lat="45.34693" lon="6.18559">
        <ele>2429.61800192</ele>
        <time>2015-04-12T12:45:07.580Z</time>
      </trkpt>
      <trkpt lat="45.34698" lon="6.18568">
        <ele>2432.83599872</ele>
        <time>2015-04-12T12:45:16.580Z</time>
      </trkpt>
      <trkpt lat="45.34694" lon="6.18576">
        <ele>2435.81800192</ele>
        <time>2015-04-12T12:45:33.580Z</time>
      </trkpt>
      <trkpt lat="45.34696" lon="6.18585">
        <ele>2437.60900096</ele>
        <time>2015-04-12T12:45:45.580Z</time>
      </trkpt>
      <trkpt lat="45.347" lon="6.18594">
        <ele>2439.22700288</ele>
        <time>2015-04-12T12:45:53.580Z</time>
      </trkpt>
      <trkpt lat="45.34705" lon="6.18605">
        <ele>2441.41800192</ele>
        <time>2015-04-12T12:46:01.580Z</time>
      </trkpt>
      <trkpt lat="45.34699" lon="6.18616">
        <ele>2443</ele>
        <time>2015-04-12T12:46:13.580Z</time>
      </trkpt>
      <trkpt lat="45.34702" lon="6.18635">
        <ele>2443.01800192</ele>
        <time>2015-04-12T12:46:29.580Z</time>
      </trkpt>
      <trkpt lat="45.34706" lon="6.18645">
        <ele>2444.61800192</ele>
        <time>2015-04-12T12:46:37.580Z</time>
      </trkpt>
      <trkpt lat="45.3471" lon="6.18656">
        <ele>2444.39099904</ele>
        <time>2015-04-12T12:46:45.580Z</time>
      </trkpt>
      <trkpt lat="45.34713" lon="6.18665">
        <ele>2444</ele>
        <time>2015-04-12T12:46:53.580Z</time>
      </trkpt>
      <trkpt lat="45.34718" lon="6.18726">
        <ele>2441.07398656</ele>
        <time>2015-04-12T12:47:01.580Z</time>
      </trkpt>
      <trkpt lat="45.3472" lon="6.18737">
        <ele>2431</ele>
        <time>2015-04-12T12:47:25.580Z</time>
      </trkpt>
      <trkpt lat="45.34725" lon="6.18745">
        <ele>2431.81800192</ele>
        <time>2015-04-12T12:47:33.580Z</time>
      </trkpt>
      <trkpt lat="45.34726" lon="6.18753">
        <ele>2433.20900096</ele>
        <time>2015-04-12T12:47:41.580Z</time>
      </trkpt>
      <trkpt lat="45.34734" lon="6.18767">
        <ele>2434.40900096</ele>
        <time>2015-04-12T12:47:53.580Z</time>
      </trkpt>
      <trkpt lat="45.34738" lon="6.18772">
        <ele>2435.60900096</ele>
        <time>2015-04-12T12:48:25.580Z</time>
      </trkpt>
      <trkpt lat="45.34745" lon="6.18784">
        <ele>2435.01800192</ele>
        <time>2015-04-12T12:48:49.580Z</time>
      </trkpt>
      <trkpt lat="45.34752" lon="6.18795">
        <ele>2437.57800192</ele>
        <time>2015-04-12T12:49:02.380Z</time>
      </trkpt>
      <trkpt lat="45.34759" lon="6.18805">
        <ele>2440</ele>
        <time>2015-04-12T12:49:26.390Z</time>
      </trkpt>
      <trkpt lat="45.3477" lon="6.18815">
        <ele>2441.77800192</ele>
        <time>2015-04-12T12:49:38.380Z</time>
      </trkpt>
      <trkpt lat="45.34784" lon="6.18826">
        <ele>2446.5595616989</ele>
        <time>2015-04-12T12:49:58.390Z</time>
      </trkpt>
      <trkpt lat="45.34778" lon="6.18839">
        <ele>2449.28900096</ele>
        <time>2015-04-12T12:50:22.380Z</time>
      </trkpt>
      <trkpt lat="45.34786" lon="6.18851">
        <ele>2454.42000128</ele>
        <time>2015-04-12T12:50:41.590Z</time>
      </trkpt>
      <trkpt lat="45.34794" lon="6.18859">
        <ele>2456.43599872</ele>
        <time>2015-04-12T12:50:50.580Z</time>
      </trkpt>
      <trkpt lat="45.34806" lon="6.18865">
        <ele>2460.95800064</ele>
        <time>2015-04-12T12:51:04.280Z</time>
      </trkpt>
      <trkpt lat="45.3482" lon="6.18866">
        <ele>2466.35800064</ele>
        <time>2015-04-12T12:51:31.280Z</time>
      </trkpt>
      <trkpt lat="45.34833" lon="6.18876">
        <ele>2468.16</ele>
        <time>2015-04-12T12:51:40.290Z</time>
      </trkpt>
      <trkpt lat="45.34845" lon="6.18874">
        <ele>2469.95800064</ele>
        <time>2015-04-12T12:51:49.280Z</time>
      </trkpt>
      <trkpt lat="45.34859" lon="6.18874">
        <ele>2470</ele>
        <time>2015-04-12T12:51:58.580Z</time>
      </trkpt>
      <trkpt lat="45.34872" lon="6.18873">
        <ele>2472.42700288</ele>
        <time>2015-04-12T12:52:07.580Z</time>
      </trkpt>
      <trkpt lat="45.34886" lon="6.18873">
        <ele>2473</ele>
        <time>2015-04-12T12:52:16.600Z</time>
      </trkpt>
      <trkpt lat="45.34896" lon="6.1888">
        <ele>2473</ele>
        <time>2015-04-12T12:52:25.580Z</time>
      </trkpt>
      <trkpt lat="45.34908" lon="6.18878">
        <ele>2473.96400128</ele>
        <time>2015-04-12T12:52:34.310Z</time>
      </trkpt>
      <trkpt lat="45.34922" lon="6.18885">
        <ele>2477.55599872</ele>
        <time>2015-04-12T12:52:53.380Z</time>
      </trkpt>
      <trkpt lat="45.34916" lon="6.18903">
        <ele>2481.16400128</ele>
        <time>2015-04-12T12:53:05.310Z</time>
      </trkpt>
      <trkpt lat="45.34927" lon="6.18916">
        <ele>2486.172</ele>
        <time>2015-04-12T12:53:21.210Z</time>
      </trkpt>
      <trkpt lat="45.34934" lon="6.18902">
        <ele>2490.3571453968</ele>
        <time>2015-04-12T12:53:50.390Z</time>
      </trkpt>
      <trkpt lat="45.34942" lon="6.18891">
        <ele>2494.6784283871</ele>
        <time>2015-04-12T12:54:06.300Z</time>
      </trkpt>
      <trkpt lat="45.34953" lon="6.18903">
        <ele>2497.38200064</ele>
        <time>2015-04-12T12:54:23.310Z</time>
      </trkpt>
      <trkpt lat="45.34967" lon="6.18909">
        <ele>2499.98600192</ele>
        <time>2015-04-12T12:54:36.110Z</time>
      </trkpt>
      <trkpt lat="45.34982" lon="6.18916">
        <ele>2505.12</ele>
        <time>2015-04-12T12:54:57.290Z</time>
      </trkpt>
      <trkpt lat="45.34995" lon="6.18933">
        <ele>2509.48200064</ele>
        <time>2015-04-12T12:55:14.310Z</time>
      </trkpt>
      <trkpt lat="45.35006" lon="6.18946">
        <ele>2513.12699904</ele>
        <time>2015-04-12T12:55:36.580Z</time>
      </trkpt>
      <trkpt lat="45.35016" lon="6.18954">
        <ele>2517.52800256</ele>
        <time>2015-04-12T12:55:48.310Z</time>
      </trkpt>
      <trkpt lat="45.35026" lon="6.18963">
        <ele>2519.68200064</ele>
        <time>2015-04-12T12:56:06.310Z</time>
      </trkpt>
      <trkpt lat="45.35038" lon="6.18967">
        <ele>2523.23700096</ele>
        <time>2015-04-12T12:56:20.280Z</time>
      </trkpt>
      <trkpt lat="45.35046" lon="6.18974">
        <ele>2528.2837160116</ele>
        <time>2015-04-12T12:56:37.110Z</time>
      </trkpt>
      <trkpt lat="45.35042" lon="6.18992">
        <ele>2531.96</ele>
        <time>2015-04-12T12:56:54.290Z</time>
      </trkpt>
      <trkpt lat="45.35054" lon="6.18995">
        <ele>2535.70899968</ele>
        <time>2015-04-12T12:57:16.580Z</time>
      </trkpt>
      <trkpt lat="45.35065" lon="6.18981">
        <ele>2541.19800064</ele>
        <time>2015-04-12T12:57:30.480Z</time>
      </trkpt>
      <trkpt lat="45.35071" lon="6.18968">
        <ele>2543.54600192</ele>
        <time>2015-04-12T12:57:41.310Z</time>
      </trkpt>
      <trkpt lat="45.35075" lon="6.18953">
        <ele>2546</ele>
        <time>2015-04-12T12:57:58.310Z</time>
      </trkpt>
      <trkpt lat="45.35084" lon="6.18966">
        <ele>2555.96200192</ele>
        <time>2015-04-12T12:58:34.300Z</time>
      </trkpt>
      <trkpt lat="45.35089" lon="6.18982">
        <ele>2559.12699904</ele>
        <time>2015-04-12T12:58:46.580Z</time>
      </trkpt>
      <trkpt lat="45.35087" lon="6.18997">
        <ele>2560.90899968</ele>
        <time>2015-04-12T12:58:58.580Z</time>
      </trkpt>
      <trkpt lat="45.35096" lon="6.19006">
        <ele>2563.63000192</ele>
        <time>2015-04-12T12:59:11.590Z</time>
      </trkpt>
      <trkpt lat="45.35107" lon="6.19015">
        <ele>2566</ele>
        <time>2015-04-12T12:59:25.580Z</time>
      </trkpt>
      <trkpt lat="45.35119" lon="6.19024">
        <ele>2568.04600192</ele>
        <time>2015-04-12T12:59:36.310Z</time>
      </trkpt>
      <trkpt lat="45.35134" lon="6.19028">
        <ele>2571.64600192</ele>
        <time>2015-04-12T12:59:48.310Z</time>
      </trkpt>
      <trkpt lat="45.35145" lon="6.19035">
        <ele>2574.91799936</ele>
        <time>2015-04-12T13:00:00.310Z</time>
      </trkpt>
      <trkpt lat="45.35158" lon="6.19042">
        <ele>2576.83599872</ele>
        <time>2015-04-12T13:00:16.580Z</time>
      </trkpt>
      <trkpt lat="45.35168" lon="6.19052">
        <ele>2578</ele>
        <time>2015-04-12T13:00:24.580Z</time>
      </trkpt>
      <trkpt lat="45.35178" lon="6.19062">
        <ele>2581.4999993713</ele>
        <time>2015-04-12T13:00:44.580Z</time>
      </trkpt>
      <trkpt lat="45.3519" lon="6.19085">
        <ele>2583.3523430402</ele>
        <time>2015-04-12T13:00:56.310Z</time>
      </trkpt>
      <trkpt lat="45.352" lon="6.19093">
        <ele>2586.4050048</ele>
        <time>2015-04-12T13:01:12.300Z</time>
      </trkpt>
      <trkpt lat="45.3521" lon="6.19093">
        <ele>2590.76400128</ele>
        <time>2015-04-12T13:01:23.310Z</time>
      </trkpt>
      <trkpt lat="45.35226" lon="6.19088">
        <ele>2594.00100096</ele>
        <time>2015-04-12T13:01:39.500Z</time>
      </trkpt>
      <trkpt lat="45.35235" lon="6.19094">
        <ele>2595.54600192</ele>
        <time>2015-04-12T13:01:51.310Z</time>
      </trkpt>
      <trkpt lat="45.35242" lon="6.19108">
        <ele>2599.63600384</ele>
        <time>2015-04-12T13:02:03.580Z</time>
      </trkpt>
      <trkpt lat="45.35247" lon="6.19121">
        <ele>2603.00900096</ele>
        <time>2015-04-12T13:02:19.580Z</time>
      </trkpt>
      <trkpt lat="45.35248" lon="6.19137">
        <ele>2605.82700288</ele>
        <time>2015-04-12T13:02:35.580Z</time>
      </trkpt>
      <trkpt lat="45.35258" lon="6.19132">
        <ele>2611.72800256</ele>
        <time>2015-04-12T13:03:01.310Z</time>
      </trkpt>
      <trkpt lat="45.35266" lon="6.19142">
        <ele>2616.36400128</ele>
        <time>2015-04-12T13:03:16.310Z</time>
      </trkpt>
      <trkpt lat="45.35274" lon="6.19158">
        <ele>2619.00100096</ele>
        <time>2015-04-12T13:03:29.500Z</time>
      </trkpt>
      <trkpt lat="45.35273" lon="6.19172">
        <ele>2620.9</ele>
        <time>2015-04-12T13:03:42.490Z</time>
      </trkpt>
      <trkpt lat="45.35276" lon="6.19186">
        <ele>2624.63600384</ele>
        <time>2015-04-12T13:03:53.580Z</time>
      </trkpt>
      <trkpt lat="45.35268" lon="6.19201">
        <ele>2629.34600192</ele>
        <time>2015-04-12T13:04:07.310Z</time>
      </trkpt>
      <trkpt lat="45.35277" lon="6.19211">
        <ele>2630.78200064</ele>
        <time>2015-04-12T13:04:17.310Z</time>
      </trkpt>
      <trkpt lat="45.35268" lon="6.19193">
        <ele>2631.40900096</ele>
        <time>2015-04-12T13:04:23.580Z</time>
      </trkpt>
      <trkpt lat="45.35261" lon="6.19179">
        <ele>2633.12800256</ele>
        <time>2015-04-12T13:04:32.310Z</time>
      </trkpt>
      <trkpt lat="45.35272" lon="6.19179">
        <ele>2636.24600192</ele>
        <time>2015-04-12T13:04:40.310Z</time>
      </trkpt>
      <trkpt lat="45.35292" lon="6.19187">
        <ele>2639.576</ele>
        <time>2015-04-12T13:04:51.410Z</time>
      </trkpt>
      <trkpt lat="45.35295" lon="6.1919">
        <ele>2642.012</ele>
        <time>2015-04-12T13:04:59.530Z</time>
      </trkpt>
      <trkpt lat="45.35298" lon="6.19205">
        <ele>2645.292</ele>
        <time>2015-04-12T13:05:12.410Z</time>
      </trkpt>
      <trkpt lat="45.35307" lon="6.19235">
        <ele>2647.92800256</ele>
        <time>2015-04-12T13:05:24.310Z</time>
      </trkpt>
      <trkpt lat="45.35284" lon="6.19193">
        <ele>2652.61799936</ele>
        <time>2015-04-12T13:05:42.580Z</time>
      </trkpt>
      <trkpt lat="45.35263" lon="6.19165">
        <ele>2654.32800256</ele>
        <time>2015-04-12T13:05:50.310Z</time>
      </trkpt>
      <trkpt lat="45.35267" lon="6.19181">
        <ele>2658.56400128</ele>
        <time>2015-04-12T13:06:02.310Z</time>
      </trkpt>
      <trkpt lat="45.35248" lon="6.19161">
        <ele>2663</ele>
        <time>2015-04-12T13:06:19.580Z</time>
      </trkpt>
      <trkpt lat="45.35234" lon="6.19144">
        <ele>2663</ele>
        <time>2015-04-12T13:06:27.580Z</time>
      </trkpt>
      <trkpt lat="45.35223" lon="6.19133">
        <ele>2665.79600128</ele>
        <time>2015-04-12T13:06:36.480Z</time>
      </trkpt>
      <trkpt lat="45.35215" lon="6.19126">
        <ele>2667.82000128</ele>
        <time>2015-04-12T13:06:43.590Z</time>
      </trkpt>
      <trkpt lat="45.3524" lon="6.19157">
        <ele>2669.00200192</ele>
        <time>2015-04-12T13:06:49.500Z</time>
      </trkpt>
      <trkpt lat="45.35214" lon="6.19144">
        <ele>2670.744</ele>
        <time>2015-04-12T13:06:58.210Z</time>
      </trkpt>
      <trkpt lat="45.35248" lon="6.19156">
        <ele>2673</ele>
        <time>2015-04-12T13:07:13.680Z</time>
      </trkpt>
      <trkpt lat="45.35235" lon="6.1914">
        <ele>2677.984</ele>
        <time>2015-04-12T13:07:34.410Z</time>
      </trkpt>
      <trkpt lat="45.35193" lon="6.191">
        <ele>2679</ele>
        <time>2015-04-12T13:07:45.300Z</time>
      </trkpt>
      <trkpt lat="45.35208" lon="6.19124">
        <ele>2679.56400128</ele>
        <time>2015-04-12T13:07:52.310Z</time>
      </trkpt>
      <trkpt lat="45.35195" lon="6.19122">
        <ele>2681.58099968</ele>
        <time>2015-04-12T13:08:05.300Z</time>
      </trkpt>
      <trkpt lat="45.35174" lon="6.19098">
        <ele>2682.4950016</ele>
        <time>2015-04-12T13:08:10.480Z</time>
      </trkpt>
      <trkpt lat="45.35182" lon="6.19128">
        <ele>2687.28100096</ele>
        <time>2015-04-12T13:08:22.300Z</time>
      </trkpt>
      <trkpt lat="45.35192" lon="6.19161">
        <ele>2688</ele>
        <time>2015-04-12T13:08:39.200Z</time>
      </trkpt>
      <trkpt lat="45.35207" lon="6.19177">
        <ele>2690.46</ele>
        <time>2015-04-12T13:08:47.690Z</time>
      </trkpt>
      <trkpt lat="45.35189" lon="6.19162">
        <ele>2693</ele>
        <time>2015-04-12T13:09:00.410Z</time>
      </trkpt>
      <trkpt lat="45.35172" lon="6.19128">
        <ele>2695.8338201233</ele>
        <time>2015-04-12T13:09:19.210Z</time>
      </trkpt>
      <trkpt lat="45.3516" lon="6.19112">
        <ele>2697.5169932797</ele>
        <time>2015-04-12T13:09:24.690Z</time>
      </trkpt>
      <trkpt lat="45.35128" lon="6.19082">
        <ele>2699.7412586697</ele>
        <time>2015-04-12T13:09:33.200Z</time>
      </trkpt>
      <trkpt lat="45.35104" lon="6.1907">
        <ele>2701</ele>
        <time>2015-04-12T13:09:45.490Z</time>
      </trkpt>
      <trkpt lat="45.35117" lon="6.19088">
        <ele>2703.968</ele>
        <time>2015-04-12T13:10:04.410Z</time>
      </trkpt>
      <trkpt lat="45.35104" lon="6.19074">
        <ele>2706</ele>
        <time>2015-04-12T13:10:13.410Z</time>
      </trkpt>
      <trkpt lat="45.35072" lon="6.19043">
        <ele>2707.1</ele>
        <time>2015-04-12T13:10:30.490Z</time>
      </trkpt>
      <trkpt lat="45.35047" lon="6.19018">
        <ele>2707.9</ele>
        <time>2015-04-12T13:10:38.490Z</time>
      </trkpt>
      <trkpt lat="45.35058" lon="6.19028">
        <ele>2710.4950016</ele>
        <time>2015-04-12T13:10:44.480Z</time>
      </trkpt>
      <trkpt lat="45.35077" lon="6.19041">
        <ele>2714.544</ele>
        <time>2015-04-12T13:10:57.210Z</time>
      </trkpt>
      <trkpt lat="45.35184" lon="6.19136">
        <ele>2715.492</ele>
        <time>2015-04-12T13:11:04.410Z</time>
      </trkpt>
      <trkpt lat="45.35334" lon="6.19282">
        <ele>2716.39900032</ele>
        <time>2015-04-12T13:11:13.480Z</time>
      </trkpt>
      <trkpt lat="45.35352" lon="6.19306">
        <ele>2717</ele>
        <time>2015-04-12T13:11:22.310Z</time>
      </trkpt>
      <trkpt lat="45.35369" lon="6.19317">
        <ele>2716.608</ele>
        <time>2015-04-12T13:11:33.410Z</time>
      </trkpt>
      <trkpt lat="45.35373" lon="6.19321">
        <ele>2716</ele>
        <time>2015-04-12T13:12:58.580Z</time>
      </trkpt>
      <trkpt lat="45.35383" lon="6.19314">
        <ele>2717</ele>
        <time>2015-04-12T13:16:28.480Z</time>
      </trkpt>
      <trkpt lat="45.35373" lon="6.19321">
        <ele>2716</ele>
        <time>2015-04-12T13:17:15.490Z</time>
      </trkpt>
      <trkpt lat="45.35363" lon="6.19323">
        <ele>2718</ele>
        <time>2015-04-12T13:20:59.480Z</time>
      </trkpt>
      <trkpt lat="45.35374" lon="6.1932">
        <ele>2718.9019024483</ele>
        <time>2015-04-12T13:22:20.480Z</time>
      </trkpt>
      <trkpt lat="45.35377" lon="6.19337">
        <ele>2719</ele>
        <time>2015-04-12T13:24:09.480Z</time>
      </trkpt>
      <trkpt lat="45.35385" lon="6.19352">
        <ele>2710.21099648</ele>
        <time>2015-04-12T13:24:17.480Z</time>
      </trkpt>
      <trkpt lat="45.35424" lon="6.19356">
        <ele>2697.81699456</ele>
        <time>2015-04-12T13:24:25.480Z</time>
      </trkpt>
      <trkpt lat="45.35437" lon="6.19343">
        <ele>2690.12899968</ele>
        <time>2015-04-12T13:25:08.200Z</time>
      </trkpt>
      <trkpt lat="45.35452" lon="6.19342">
        <ele>2690.88100096</ele>
        <time>2015-04-12T13:25:18.300Z</time>
      </trkpt>
      <trkpt lat="45.35445" lon="6.19351">
        <ele>2691</ele>
        <time>2015-04-12T13:25:32.400Z</time>
      </trkpt>
      <trkpt lat="45.35445" lon="6.19332">
        <ele>2690.80899968</ele>
        <time>2015-04-12T13:25:41.400Z</time>
      </trkpt>
      <trkpt lat="45.35432" lon="6.19337">
        <ele>2690</ele>
        <time>2015-04-12T13:26:07.400Z</time>
      </trkpt>
      <trkpt lat="45.35442" lon="6.19341">
        <ele>2691.5555551285</ele>
        <time>2015-04-12T13:26:24.680Z</time>
      </trkpt>
      <trkpt lat="45.35454" lon="6.19329">
        <ele>2694.184</ele>
        <time>2015-04-12T13:26:35.410Z</time>
      </trkpt>
      <trkpt lat="45.35461" lon="6.1934">
        <ele>2695.772</ele>
        <time>2015-04-12T13:26:47.210Z</time>
      </trkpt>
      <trkpt lat="45.35462" lon="6.19321">
        <ele>2703.36400128</ele>
        <time>2015-04-12T13:27:21.310Z</time>
      </trkpt>
      <trkpt lat="45.35472" lon="6.19331">
        <ele>2707.19800064</ele>
        <time>2015-04-12T13:27:45.480Z</time>
      </trkpt>
      <trkpt lat="45.3546" lon="6.19317">
        <ele>2709</ele>
        <time>2015-04-12T13:28:10.310Z</time>
      </trkpt>
      <trkpt lat="45.35473" lon="6.19327">
        <ele>2712.492</ele>
        <time>2015-04-12T13:28:34.410Z</time>
      </trkpt>
      <trkpt lat="45.35471" lon="6.1931">
        <ele>2717.744</ele>
        <time>2015-04-12T13:29:23.210Z</time>
      </trkpt>
      <trkpt lat="45.35478" lon="6.19325">
        <ele>2719</ele>
        <time>2015-04-12T13:29:46.210Z</time>
      </trkpt>
      <trkpt lat="45.35488" lon="6.19332">
        <ele>2717.10099968</ele>
        <time>2015-04-12T13:33:08.480Z</time>
      </trkpt>
      <trkpt lat="45.35499" lon="6.19331">
        <ele>2701.81799936</ele>
        <time>2015-04-12T13:35:31.310Z</time>
      </trkpt>
      <trkpt lat="45.35516" lon="6.1934">
        <ele>2689.77099392</ele>
        <time>2015-04-12T13:35:45.400Z</time>
      </trkpt>
      <trkpt lat="45.35526" lon="6.19342">
        <ele>2682</ele>
        <time>2015-04-12T13:35:58.200Z</time>
      </trkpt>
      <trkpt lat="45.3554" lon="6.1934">
        <ele>2672.04</ele>
        <time>2015-04-12T13:36:25.690Z</time>
      </trkpt>
      <trkpt lat="45.35559" lon="6.19334">
        <ele>2659.65799424</ele>
        <time>2015-04-12T13:36:34.680Z</time>
      </trkpt>
      <trkpt lat="45.35567" lon="6.19311">
        <ele>2642.62099328</ele>
        <time>2015-04-12T13:36:43.480Z</time>
      </trkpt>
      <trkpt lat="45.35592" lon="6.19296">
        <ele>2624.62699136</ele>
        <time>2015-04-12T13:36:51.480Z</time>
      </trkpt>
      <trkpt lat="45.35632" lon="6.19286">
        <ele>2602.65799424</ele>
        <time>2015-04-12T13:36:59.680Z</time>
      </trkpt>
      <trkpt lat="45.35614" lon="6.19268">
        <ele>2584.08100096</ele>
        <time>2015-04-12T13:37:20.300Z</time>
      </trkpt>
      <trkpt lat="45.35621" lon="6.19282">
        <ele>2584.57100032</ele>
        <time>2015-04-12T13:37:25.200Z</time>
      </trkpt>
      <trkpt lat="45.35632" lon="6.19292">
        <ele>2580.20599808</ele>
        <time>2015-04-12T13:37:37.480Z</time>
      </trkpt>
      <trkpt lat="45.35638" lon="6.19311">
        <ele>2579</ele>
        <time>2015-04-12T13:37:58.480Z</time>
      </trkpt>
      <trkpt lat="45.35645" lon="6.19329">
        <ele>2565.52699136</ele>
        <time>2015-04-12T13:38:04.480Z</time>
      </trkpt>
      <trkpt lat="45.35658" lon="6.19355">
        <ele>2548.3636270638</ele>
        <time>2015-04-12T13:38:11.310Z</time>
      </trkpt>
      <trkpt lat="45.35677" lon="6.19353">
        <ele>2531.7357585449</ele>
        <time>2015-04-12T13:38:19.610Z</time>
      </trkpt>
      <trkpt lat="45.35705" lon="6.19342">
        <ele>2511.0750780301</ele>
        <time>2015-04-12T13:38:28.210Z</time>
      </trkpt>
      <trkpt lat="45.35703" lon="6.19331">
        <ele>2497.29100032</ele>
        <time>2015-04-12T13:38:52.400Z</time>
      </trkpt>
      <trkpt lat="45.35711" lon="6.19322">
        <ele>2488</ele>
        <time>2015-04-12T13:39:14.200Z</time>
      </trkpt>
      <trkpt lat="45.35736" lon="6.19276">
        <ele>2473.3349888</ele>
        <time>2015-04-12T13:39:23.680Z</time>
      </trkpt>
      <trkpt lat="45.35764" lon="6.19296">
        <ele>2445.932</ele>
        <time>2015-04-12T13:39:33.210Z</time>
      </trkpt>
      <trkpt lat="45.35785" lon="6.19263">
        <ele>2429.65600768</ele>
        <time>2015-04-12T13:39:41.300Z</time>
      </trkpt>
      <trkpt lat="45.35799" lon="6.19254">
        <ele>2417.89599232</ele>
        <time>2015-04-12T13:39:46.200Z</time>
      </trkpt>
      <trkpt lat="45.35839" lon="6.19278">
        <ele>2392.32398848</ele>
        <time>2015-04-12T13:39:54.400Z</time>
      </trkpt>
      <trkpt lat="45.35878" lon="6.19303">
        <ele>2364.115882726</ele>
        <time>2015-04-12T13:40:02.400Z</time>
      </trkpt>
      <trkpt lat="45.35937" lon="6.19315">
        <ele>2333.8558698114</ele>
        <time>2015-04-12T13:40:11.480Z</time>
      </trkpt>
      <trkpt lat="45.35961" lon="6.1934">
        <ele>2309.0310211309</ele>
        <time>2015-04-12T13:40:19.480Z</time>
      </trkpt>
      <trkpt lat="45.35993" lon="6.19436">
        <ele>2283.43198976</ele>
        <time>2015-04-12T13:40:27.480Z</time>
      </trkpt>
      <trkpt lat="45.36015" lon="6.1955">
        <ele>2256.0349888</ele>
        <time>2015-04-12T13:40:35.480Z</time>
      </trkpt>
      <trkpt lat="45.36025" lon="6.196">
        <ele>2231.22699136</ele>
        <time>2015-04-12T13:40:43.480Z</time>
      </trkpt>
      <trkpt lat="45.3607" lon="6.19665">
        <ele>2204.85098368</ele>
        <time>2015-04-12T13:40:51.480Z</time>
      </trkpt>
      <trkpt lat="45.36162" lon="6.19554">
        <ele>2164.05098368</ele>
        <time>2015-04-12T13:40:59.480Z</time>
      </trkpt>
      <trkpt lat="45.36295" lon="6.19529">
        <ele>2118.45698176</ele>
        <time>2015-04-12T13:41:07.480Z</time>
      </trkpt>
      <trkpt lat="45.36348" lon="6.19458">
        <ele>2086.0349888</ele>
        <time>2015-04-12T13:41:15.480Z</time>
      </trkpt>
      <trkpt lat="45.36365" lon="6.19431">
        <ele>2055.64098688</ele>
        <time>2015-04-12T13:41:23.480Z</time>
      </trkpt>
      <trkpt lat="45.36386" lon="6.1936">
        <ele>2022.9599616</ele>
        <time>2015-04-12T13:41:31.500Z</time>
      </trkpt>
      <trkpt lat="45.36425" lon="6.19329">
        <ele>2003.0399872</ele>
        <time>2015-04-12T13:41:36.480Z</time>
      </trkpt>
      <trkpt lat="45.36506" lon="6.19256">
        <ele>1979.02399232</ele>
        <time>2015-04-12T13:41:44.480Z</time>
      </trkpt>
      <trkpt lat="45.36587" lon="6.19254">
        <ele>1963.41199616</ele>
        <time>2015-04-12T13:41:52.480Z</time>
      </trkpt>
      <trkpt lat="45.36621" lon="6.19252">
        <ele>1954.10899712</ele>
        <time>2015-04-12T13:42:00.480Z</time>
      </trkpt>
      <trkpt lat="45.36684" lon="6.19264">
        <ele>1946.90899712</ele>
        <time>2015-04-12T13:42:08.480Z</time>
      </trkpt>
      <trkpt lat="45.3673" lon="6.1929">
        <ele>1941.8</ele>
        <time>2015-04-12T13:42:16.490Z</time>
      </trkpt>
      <trkpt lat="45.36769" lon="6.19315">
        <ele>1937</ele>
        <time>2015-04-12T13:42:24.490Z</time>
      </trkpt>
      <trkpt lat="45.36834" lon="6.19349">
        <ele>1929.8</ele>
        <time>2015-04-12T13:42:32.490Z</time>
      </trkpt>
      <trkpt lat="45.36863" lon="6.19343">
        <ele>1920</ele>
        <time>2015-04-12T13:42:44.480Z</time>
      </trkpt>
      <trkpt lat="45.36876" lon="6.19343">
        <ele>1920.29900032</ele>
        <time>2015-04-12T13:42:52.480Z</time>
      </trkpt>
      <trkpt lat="45.36886" lon="6.19336">
        <ele>1921</ele>
        <time>2015-04-12T13:43:08.480Z</time>
      </trkpt>
      <trkpt lat="45.36898" lon="6.19333">
        <ele>1922</ele>
        <time>2015-04-12T13:43:37.480Z</time>
      </trkpt>
      <trkpt lat="45.3691" lon="6.19338">
        <ele>1923</ele>
        <time>2015-04-12T13:43:49.680Z</time>
      </trkpt>
      <trkpt lat="45.3692" lon="6.19342">
        <ele>1923</ele>
        <time>2015-04-12T13:43:58.480Z</time>
      </trkpt>
      <trkpt lat="45.36931" lon="6.19343">
        <ele>1924</ele>
        <time>2015-04-12T13:44:10.490Z</time>
      </trkpt>
      <trkpt lat="45.36948" lon="6.19337">
        <ele>1924</ele>
        <time>2015-04-12T13:44:21.680Z</time>
      </trkpt>
      <trkpt lat="45.37027" lon="6.19329">
        <ele>1921.92099328</ele>
        <time>2015-04-12T13:44:30.480Z</time>
      </trkpt>
      <trkpt lat="45.37065" lon="6.19332">
        <ele>1905.12099328</ele>
        <time>2015-04-12T13:44:38.480Z</time>
      </trkpt>
      <trkpt lat="45.37085" lon="6.19358">
        <ele>1903.41900032</ele>
        <time>2015-04-12T13:44:53.680Z</time>
      </trkpt>
      <trkpt lat="45.37096" lon="6.19358">
        <ele>1904.51900032</ele>
        <time>2015-04-12T13:45:14.680Z</time>
      </trkpt>
      <trkpt lat="45.37105" lon="6.19367">
        <ele>1906.44</ele>
        <time>2015-04-12T13:45:26.690Z</time>
      </trkpt>
      <trkpt lat="45.37117" lon="6.19368">
        <ele>1907</ele>
        <time>2015-04-12T13:45:34.690Z</time>
      </trkpt>
      <trkpt lat="45.37135" lon="6.19362">
        <ele>1906.92</ele>
        <time>2015-04-12T13:45:58.690Z</time>
      </trkpt>
      <trkpt lat="45.37147" lon="6.19371">
        <ele>1907</ele>
        <time>2015-04-12T13:46:06.690Z</time>
      </trkpt>
      <trkpt lat="45.37161" lon="6.19375">
        <ele>1907.29900032</ele>
        <time>2015-04-12T13:46:32.480Z</time>
      </trkpt>
      <trkpt lat="45.37181" lon="6.1939">
        <ele>1908</ele>
        <time>2015-04-12T13:46:41.480Z</time>
      </trkpt>
      <trkpt lat="45.37196" lon="6.194">
        <ele>1907</ele>
        <time>2015-04-12T13:47:02.690Z</time>
      </trkpt>
      <trkpt lat="45.37206" lon="6.19391">
        <ele>1910</ele>
        <time>2015-04-12T13:47:30.680Z</time>
      </trkpt>
      <trkpt lat="45.37204" lon="6.1941">
        <ele>1912.51900032</ele>
        <time>2015-04-12T13:47:54.680Z</time>
      </trkpt>
      <trkpt lat="45.37199" lon="6.19411">
        <ele>1912.01900032</ele>
        <time>2015-04-12T13:50:39.680Z</time>
      </trkpt>
      <trkpt lat="45.37198" lon="6.19397">
        <ele>1915</ele>
        <time>2015-04-12T13:54:35.680Z</time>
      </trkpt>
      <trkpt lat="45.37198" lon="6.19411">
        <ele>1914.9810376169</ele>
        <time>2015-04-12T13:55:19.680Z</time>
      </trkpt>
      <trkpt lat="45.37203" lon="6.194">
        <ele>1914</ele>
        <time>2015-04-12T13:56:47.680Z</time>
      </trkpt>
      <trkpt lat="45.37202" lon="6.19415">
        <ele>1914</ele>
        <time>2015-04-12T13:57:07.680Z</time>
      </trkpt>
      <trkpt lat="45.37197" lon="6.19403">
        <ele>1914</ele>
        <time>2015-04-12T13:57:43.690Z</time>
      </trkpt>
      <trkpt lat="45.37198" lon="6.19417">
        <ele>1916</ele>
        <time>2015-04-12T14:01:19.580Z</time>
      </trkpt>
      <trkpt lat="45.37202" lon="6.19403">
        <ele>1916</ele>
        <time>2015-04-12T14:03:39.580Z</time>
      </trkpt>
      <trkpt lat="45.37211" lon="6.19412">
        <ele>1916</ele>
        <time>2015-04-12T14:08:49.480Z</time>
      </trkpt>
      <trkpt lat="45.37221" lon="6.19415">
        <ele>1916</ele>
        <time>2015-04-12T14:09:07.480Z</time>
      </trkpt>
      <trkpt lat="45.37237" lon="6.1943">
        <ele>1918.69700096</ele>
        <time>2015-04-12T14:09:20.500Z</time>
      </trkpt>
      <trkpt lat="45.3728" lon="6.19453">
        <ele>1915.73900288</ele>
        <time>2015-04-12T14:09:29.780Z</time>
      </trkpt>
      <trkpt lat="45.37347" lon="6.19481">
        <ele>1907.62999424</ele>
        <time>2015-04-12T14:09:38.790Z</time>
      </trkpt>
      <trkpt lat="45.37385" lon="6.19503">
        <ele>1899.53900288</ele>
        <time>2015-04-12T14:09:47.780Z</time>
      </trkpt>
      <trkpt lat="45.37391" lon="6.19486">
        <ele>1898</ele>
        <time>2015-04-12T14:09:56.780Z</time>
      </trkpt>
      <trkpt lat="45.37421" lon="6.19477">
        <ele>1896</ele>
        <time>2015-04-12T14:10:10.480Z</time>
      </trkpt>
      <trkpt lat="45.37433" lon="6.19471">
        <ele>1896</ele>
        <time>2015-04-12T14:10:23.780Z</time>
      </trkpt>
      <trkpt lat="45.37453" lon="6.19469">
        <ele>1895.6703293471</ele>
        <time>2015-04-12T14:10:32.790Z</time>
      </trkpt>
      <trkpt lat="45.37475" lon="6.19473">
        <ele>1894.7717728337</ele>
        <time>2015-04-12T14:10:41.780Z</time>
      </trkpt>
      <trkpt lat="45.37485" lon="6.19474">
        <ele>1894</ele>
        <time>2015-04-12T14:10:55.480Z</time>
      </trkpt>
      <trkpt lat="45.37504" lon="6.19482">
        <ele>1893.00199936</ele>
        <time>2015-04-12T14:11:04.480Z</time>
      </trkpt>
      <trkpt lat="45.37523" lon="6.1948">
        <ele>1892</ele>
        <time>2015-04-12T14:11:13.480Z</time>
      </trkpt>
      <trkpt lat="45.37542" lon="6.19475">
        <ele>1891.40199936</ele>
        <time>2015-04-12T14:11:22.480Z</time>
      </trkpt>
      <trkpt lat="45.37566" lon="6.19478">
        <ele>1889.79899904</ele>
        <time>2015-04-12T14:11:31.500Z</time>
      </trkpt>
      <trkpt lat="45.37586" lon="6.19487">
        <ele>1888.5049984</ele>
        <time>2015-04-12T14:11:40.480Z</time>
      </trkpt>
      <trkpt lat="45.37607" lon="6.19487">
        <ele>1882.71300096</ele>
        <time>2015-04-12T14:11:53.780Z</time>
      </trkpt>
      <trkpt lat="45.37607" lon="6.19489">
        <ele>1882</ele>
        <time>2015-04-12T14:12:29.790Z</time>
      </trkpt>
      <trkpt lat="45.37618" lon="6.19491">
        <ele>1881.3281883128</ele>
        <time>2015-04-12T14:12:46.300Z</time>
      </trkpt>
      <trkpt lat="45.37621" lon="6.19506">
        <ele>1881</ele>
        <time>2015-04-12T14:13:31.580Z</time>
      </trkpt>
      <trkpt lat="45.37632" lon="6.19508">
        <ele>1881</ele>
        <time>2015-04-12T14:13:39.580Z</time>
      </trkpt>
      <trkpt lat="45.37641" lon="6.19503">
        <ele>1881.42000128</ele>
        <time>2015-04-12T14:13:51.590Z</time>
      </trkpt>
      <trkpt lat="45.37651" lon="6.19495">
        <ele>1883.81800192</ele>
        <time>2015-04-12T14:14:03.580Z</time>
      </trkpt>
      <trkpt lat="45.37658" lon="6.19481">
        <ele>1886.81800192</ele>
        <time>2015-04-12T14:14:23.580Z</time>
      </trkpt>
      <trkpt lat="45.37667" lon="6.19475">
        <ele>1889.00900096</ele>
        <time>2015-04-12T14:14:39.580Z</time>
      </trkpt>
      <trkpt lat="45.37677" lon="6.19482">
        <ele>1891.81800192</ele>
        <time>2015-04-12T14:15:03.580Z</time>
      </trkpt>
      <trkpt lat="45.3769" lon="6.19483">
        <ele>1893.61000064</ele>
        <time>2015-04-12T14:15:15.590Z</time>
      </trkpt>
      <trkpt lat="45.37699" lon="6.19491">
        <ele>1894</ele>
        <time>2015-04-12T14:15:23.590Z</time>
      </trkpt>
      <trkpt lat="45.3771" lon="6.19495">
        <ele>1895.21800192</ele>
        <time>2015-04-12T14:15:35.580Z</time>
      </trkpt>
      <trkpt lat="45.3772" lon="6.19485">
        <ele>1896</ele>
        <time>2015-04-12T14:15:43.790Z</time>
      </trkpt>
      <trkpt lat="45.37728" lon="6.19477">
        <ele>1896.61000064</ele>
        <time>2015-04-12T14:15:55.590Z</time>
      </trkpt>
      <trkpt lat="45.3774" lon="6.19468">
        <ele>1897.21000064</ele>
        <time>2015-04-12T14:16:11.590Z</time>
      </trkpt>
      <trkpt lat="45.37744" lon="6.19455">
        <ele>1898.81800192</ele>
        <time>2015-04-12T14:16:23.580Z</time>
      </trkpt>
      <trkpt lat="45.37755" lon="6.19461">
        <ele>1901.01800192</ele>
        <time>2015-04-12T14:16:39.580Z</time>
      </trkpt>
      <trkpt lat="45.37759" lon="6.19474">
        <ele>1906.61800192</ele>
        <time>2015-04-12T14:17:07.580Z</time>
      </trkpt>
      <trkpt lat="45.3777" lon="6.19477">
        <ele>1913.16199936</ele>
        <time>2015-04-12T14:17:45.300Z</time>
      </trkpt>
      <trkpt lat="45.37781" lon="6.19482">
        <ele>1917.40900096</ele>
        <time>2015-04-12T14:18:13.580Z</time>
      </trkpt>
      <trkpt lat="45.37791" lon="6.19492">
        <ele>1922.02700288</ele>
        <time>2015-04-12T14:18:29.580Z</time>
      </trkpt>
      <trkpt lat="45.37798" lon="6.19503">
        <ele>1924.42700288</ele>
        <time>2015-04-12T14:18:37.580Z</time>
      </trkpt>
      <trkpt lat="45.37795" lon="6.19516">
        <ele>1933</ele>
        <time>2015-04-12T14:19:24.590Z</time>
      </trkpt>
      <trkpt lat="45.37809" lon="6.19519">
        <ele>1937.03599872</ele>
        <time>2015-04-12T14:19:44.580Z</time>
      </trkpt>
      <trkpt lat="45.37814" lon="6.19532">
        <ele>1939.30899968</ele>
        <time>2015-04-12T14:19:52.580Z</time>
      </trkpt>
      <trkpt lat="45.37824" lon="6.19536">
        <ele>1940.90899968</ele>
        <time>2015-04-12T14:20:08.580Z</time>
      </trkpt>
      <trkpt lat="45.37836" lon="6.19537">
        <ele>1943.43599872</ele>
        <time>2015-04-12T14:20:20.580Z</time>
      </trkpt>
      <trkpt lat="45.37846" lon="6.19539">
        <ele>1946.63599872</ele>
        <time>2015-04-12T14:20:28.580Z</time>
      </trkpt>
      <trkpt lat="45.37838" lon="6.19549">
        <ele>1950.96200192</ele>
        <time>2015-04-12T14:20:54.300Z</time>
      </trkpt>
      <trkpt lat="45.37847" lon="6.19557">
        <ele>1953.65799936</ele>
        <time>2015-04-12T14:21:07.780Z</time>
      </trkpt>
      <trkpt lat="45.37858" lon="6.19558">
        <ele>1956.0160160314</ele>
        <time>2015-04-12T14:21:19.580Z</time>
      </trkpt>
      <trkpt lat="45.37871" lon="6.19562">
        <ele>1958.41800192</ele>
        <time>2015-04-12T14:21:31.580Z</time>
      </trkpt>
      <trkpt lat="45.37858" lon="6.19573">
        <ele>1960.82000128</ele>
        <time>2015-04-12T14:21:43.590Z</time>
      </trkpt>
      <trkpt lat="45.37847" lon="6.19577">
        <ele>1963.65799936</ele>
        <time>2015-04-12T14:21:57.780Z</time>
      </trkpt>
      <trkpt lat="45.37859" lon="6.19589">
        <ele>1969.01800192</ele>
        <time>2015-04-12T14:22:29.580Z</time>
      </trkpt>
      <trkpt lat="45.3787" lon="6.19591">
        <ele>1970.61800192</ele>
        <time>2015-04-12T14:22:37.580Z</time>
      </trkpt>
      <trkpt lat="45.37881" lon="6.19594">
        <ele>1973.40900096</ele>
        <time>2015-04-12T14:22:53.580Z</time>
      </trkpt>
      <trkpt lat="45.37892" lon="6.19604">
        <ele>1976.01800192</ele>
        <time>2015-04-12T14:23:09.580Z</time>
      </trkpt>
      <trkpt lat="45.37903" lon="6.1961">
        <ele>1977.61800192</ele>
        <time>2015-04-12T14:23:17.580Z</time>
      </trkpt>
      <trkpt lat="45.37912" lon="6.1962">
        <ele>1980.61800192</ele>
        <time>2015-04-12T14:23:37.580Z</time>
      </trkpt>
      <trkpt lat="45.37923" lon="6.19626">
        <ele>1988.20900096</ele>
        <time>2015-04-12T14:24:01.580Z</time>
      </trkpt>
      <trkpt lat="45.37926" lon="6.19642">
        <ele>1990.22700288</ele>
        <time>2015-04-12T14:24:13.580Z</time>
      </trkpt>
      <trkpt lat="45.37941" lon="6.19649">
        <ele>1997.23600384</ele>
        <time>2015-04-12T14:24:37.580Z</time>
      </trkpt>
      <trkpt lat="45.37952" lon="6.19654">
        <ele>2001</ele>
        <time>2015-04-12T14:24:57.590Z</time>
      </trkpt>
      <trkpt lat="45.37967" lon="6.1965">
        <ele>2003.44000256</ele>
        <time>2015-04-12T14:25:05.590Z</time>
      </trkpt>
      <trkpt lat="45.37974" lon="6.19663">
        <ele>2005.57300096</ele>
        <time>2015-04-12T14:25:21.400Z</time>
      </trkpt>
      <trkpt lat="45.37983" lon="6.19672">
        <ele>2008.0039998363</ele>
        <time>2015-04-12T14:25:29.500Z</time>
      </trkpt>
      <trkpt lat="45.37988" lon="6.19686">
        <ele>2013.2172183869</ele>
        <time>2015-04-12T14:25:45.580Z</time>
      </trkpt>
      <trkpt lat="45.37996" lon="6.19695">
        <ele>2015.20900096</ele>
        <time>2015-04-12T14:26:01.580Z</time>
      </trkpt>
      <trkpt lat="45.38006" lon="6.19701">
        <ele>2016.08699904</ele>
        <time>2015-04-12T14:26:09.780Z</time>
      </trkpt>
      <trkpt lat="45.38019" lon="6.19704">
        <ele>2019.60900096</ele>
        <time>2015-04-12T14:26:25.580Z</time>
      </trkpt>
      <trkpt lat="45.38029" lon="6.19698">
        <ele>2022.0500032</ele>
        <time>2015-04-12T14:26:41.590Z</time>
      </trkpt>
      <trkpt lat="45.38036" lon="6.19683">
        <ele>2027.62000128</ele>
        <time>2015-04-12T14:26:57.590Z</time>
      </trkpt>
      <trkpt lat="45.38046" lon="6.19685">
        <ele>2032.9000987172</ele>
        <time>2015-04-12T14:27:38.500Z</time>
      </trkpt>
      <trkpt lat="45.38053" lon="6.19701">
        <ele>2037.74299904</ele>
        <time>2015-04-12T14:27:55.300Z</time>
      </trkpt>
      <trkpt lat="45.38057" lon="6.19685">
        <ele>2040</ele>
        <time>2015-04-12T14:28:15.510Z</time>
      </trkpt>
      <trkpt lat="45.38067" lon="6.19683">
        <ele>2047</ele>
        <time>2015-04-12T14:29:03.690Z</time>
      </trkpt>
      <trkpt lat="45.38074" lon="6.19675">
        <ele>2055</ele>
        <time>2015-04-12T14:29:35.680Z</time>
      </trkpt>
      <trkpt lat="45.38081" lon="6.19669">
        <ele>2059.03800064</ele>
        <time>2015-04-12T14:29:59.680Z</time>
      </trkpt>
      <trkpt lat="45.38086" lon="6.1966">
        <ele>2062.03800064</ele>
        <time>2015-04-12T14:30:19.680Z</time>
      </trkpt>
      <trkpt lat="45.38094" lon="6.19676">
        <ele>2071.49100032</ele>
        <time>2015-04-12T14:31:24.580Z</time>
      </trkpt>
      <trkpt lat="45.38114" lon="6.19698">
        <ele>2070.01299712</ele>
        <time>2015-04-12T14:31:32.780Z</time>
      </trkpt>
      <trkpt lat="45.38137" lon="6.19722">
        <ele>2068</ele>
        <time>2015-04-12T14:31:40.580Z</time>
      </trkpt>
      <trkpt lat="45.38149" lon="6.19714">
        <ele>2068</ele>
        <time>2015-04-12T14:31:56.580Z</time>
      </trkpt>
      <trkpt lat="45.38162" lon="6.19716">
        <ele>2070.70899968</ele>
        <time>2015-04-12T14:32:16.580Z</time>
      </trkpt>
      <trkpt lat="45.38175" lon="6.19726">
        <ele>2071.50899968</ele>
        <time>2015-04-12T14:32:24.580Z</time>
      </trkpt>
      <trkpt lat="45.38187" lon="6.19733">
        <ele>2074.13000192</ele>
        <time>2015-04-12T14:32:36.590Z</time>
      </trkpt>
      <trkpt lat="45.38182" lon="6.19749">
        <ele>2076.31000064</ele>
        <time>2015-04-12T14:32:52.590Z</time>
      </trkpt>
      <trkpt lat="45.38193" lon="6.1975">
        <ele>2077.10200064</ele>
        <time>2015-04-12T14:33:00.510Z</time>
      </trkpt>
      <trkpt lat="45.38203" lon="6.19743">
        <ele>2077.38200064</ele>
        <time>2015-04-12T14:34:13.310Z</time>
      </trkpt>
      <trkpt lat="45.3823" lon="6.19739">
        <ele>2074.13699328</ele>
        <time>2015-04-12T14:34:53.580Z</time>
      </trkpt>
      <trkpt lat="45.38274" lon="6.19708">
        <ele>2066.10700544</ele>
        <time>2015-04-12T14:35:01.780Z</time>
      </trkpt>
      <trkpt lat="45.38324" lon="6.19678">
        <ele>2052.9099904</ele>
        <time>2015-04-12T14:35:09.580Z</time>
      </trkpt>
      <trkpt lat="45.38369" lon="6.19639">
        <ele>2044.7100032</ele>
        <time>2015-04-12T14:35:17.780Z</time>
      </trkpt>
      <trkpt lat="45.38409" lon="6.19612">
        <ele>2038.7412561123</ele>
        <time>2015-04-12T14:35:25.580Z</time>
      </trkpt>
      <trkpt lat="45.3842" lon="6.19607">
        <ele>2036</ele>
        <time>2015-04-12T14:35:33.580Z</time>
      </trkpt>
      <trkpt lat="45.38442" lon="6.19592">
        <ele>2034.8499968</ele>
        <time>2015-04-12T14:35:41.790Z</time>
      </trkpt>
      <trkpt lat="45.38465" lon="6.196">
        <ele>2028.42000128</ele>
        <time>2015-04-12T14:36:01.590Z</time>
      </trkpt>
      <trkpt lat="45.38476" lon="6.19598">
        <ele>2034.68699904</ele>
        <time>2015-04-12T14:37:31.780Z</time>
      </trkpt>
      <trkpt lat="45.38487" lon="6.19599">
        <ele>2037</ele>
        <time>2015-04-12T14:37:39.580Z</time>
      </trkpt>
      <trkpt lat="45.385" lon="6.19598">
        <ele>2037</ele>
        <time>2015-04-12T14:37:47.780Z</time>
      </trkpt>
      <trkpt lat="45.38503" lon="6.19615">
        <ele>2037.62899968</ele>
        <time>2015-04-12T14:37:55.780Z</time>
      </trkpt>
      <trkpt lat="45.38511" lon="6.19626">
        <ele>2040.48699904</ele>
        <time>2015-04-12T14:38:07.780Z</time>
      </trkpt>
      <trkpt lat="45.38522" lon="6.19629">
        <ele>2044</ele>
        <time>2015-04-12T14:38:19.790Z</time>
      </trkpt>
      <trkpt lat="45.38533" lon="6.1963">
        <ele>2044</ele>
        <time>2015-04-12T14:38:27.580Z</time>
      </trkpt>
      <trkpt lat="45.38544" lon="6.19633">
        <ele>2046.43600384</ele>
        <time>2015-04-12T14:38:35.580Z</time>
      </trkpt>
      <trkpt lat="45.38552" lon="6.19641">
        <ele>2054.0619386419</ele>
        <time>2015-04-12T14:38:59.800Z</time>
      </trkpt>
      <trkpt lat="45.38557" lon="6.1966">
        <ele>2058.224</ele>
        <time>2015-04-12T14:39:20.610Z</time>
      </trkpt>
      <trkpt lat="45.38554" lon="6.19676">
        <ele>2060.80300032</ele>
        <time>2015-04-12T14:39:37.520Z</time>
      </trkpt>
      <trkpt lat="45.38544" lon="6.19688">
        <ele>2066</ele>
        <time>2015-04-12T14:39:56.510Z</time>
      </trkpt>
      <trkpt lat="45.38533" lon="6.19695">
        <ele>2071.624</ele>
        <time>2015-04-12T14:40:17.610Z</time>
      </trkpt>
      <trkpt lat="45.38525" lon="6.19708">
        <ele>2074.86000128</ele>
        <time>2015-04-12T14:40:33.790Z</time>
      </trkpt>
      <trkpt lat="45.38529" lon="6.19725">
        <ele>2076</ele>
        <time>2015-04-12T14:40:45.590Z</time>
      </trkpt>
      <trkpt lat="45.38538" lon="6.19732">
        <ele>2079.51600384</ele>
        <time>2015-04-12T14:41:20.780Z</time>
      </trkpt>
      <trkpt lat="45.3854" lon="6.19748">
        <ele>2087.58700288</ele>
        <time>2015-04-12T14:41:44.780Z</time>
      </trkpt>
      <trkpt lat="45.38556" lon="6.19769">
        <ele>2092.40400128</ele>
        <time>2015-04-12T14:42:01.510Z</time>
      </trkpt>
      <trkpt lat="45.38558" lon="6.19788">
        <ele>2094.86000128</ele>
        <time>2015-04-12T14:42:13.790Z</time>
      </trkpt>
      <trkpt lat="45.38562" lon="6.19803">
        <ele>2097.65799936</ele>
        <time>2015-04-12T14:42:27.780Z</time>
      </trkpt>
      <trkpt lat="45.38576" lon="6.19814">
        <ele>2099.88699904</ele>
        <time>2015-04-12T14:42:35.780Z</time>
      </trkpt>
      <trkpt lat="45.38587" lon="6.19823">
        <ele>2101</ele>
        <time>2015-04-12T14:42:43.780Z</time>
      </trkpt>
      <trkpt lat="45.38597" lon="6.1982">
        <ele>2111.29000192</ele>
        <time>2015-04-12T14:43:23.790Z</time>
      </trkpt>
      <trkpt lat="45.38599" lon="6.19804">
        <ele>2113.46000128</ele>
        <time>2015-04-12T14:43:31.790Z</time>
      </trkpt>
      <trkpt lat="45.38603" lon="6.19791">
        <ele>2115.85799936</ele>
        <time>2015-04-12T14:43:43.780Z</time>
      </trkpt>
      <trkpt lat="45.38615" lon="6.19787">
        <ele>2120.85799936</ele>
        <time>2015-04-12T14:44:03.780Z</time>
      </trkpt>
      <trkpt lat="45.38625" lon="6.19801">
        <ele>2124.39000192</ele>
        <time>2015-04-12T14:44:20.790Z</time>
      </trkpt>
      <trkpt lat="45.38636" lon="6.198">
        <ele>2133</ele>
        <time>2015-04-12T14:44:59.780Z</time>
      </trkpt>
      <trkpt lat="45.38646" lon="6.19792">
        <ele>2133.62899968</ele>
        <time>2015-04-12T14:45:15.780Z</time>
      </trkpt>
      <trkpt lat="45.38638" lon="6.19778">
        <ele>2135.28699904</ele>
        <time>2015-04-12T14:45:23.780Z</time>
      </trkpt>
      <trkpt lat="45.38649" lon="6.19777">
        <ele>2137.45799936</ele>
        <time>2015-04-12T14:45:31.780Z</time>
      </trkpt>
      <trkpt lat="45.38651" lon="6.19763">
        <ele>2141.49000192</ele>
        <time>2015-04-12T14:45:47.790Z</time>
      </trkpt>
      <trkpt lat="45.38659" lon="6.19752">
        <ele>2143.43000064</ele>
        <time>2015-04-12T14:46:03.790Z</time>
      </trkpt>
      <trkpt lat="45.38656" lon="6.19769">
        <ele>2148.80200064</ele>
        <time>2015-04-12T14:46:27.510Z</time>
      </trkpt>
      <trkpt lat="45.38667" lon="6.19761">
        <ele>2162.12000256</ele>
        <time>2015-04-12T14:47:44.790Z</time>
      </trkpt>
      <trkpt lat="45.38673" lon="6.19773">
        <ele>2165.45800192</ele>
        <time>2015-04-12T14:47:56.780Z</time>
      </trkpt>
      <trkpt lat="45.38684" lon="6.1978">
        <ele>2170.584</ele>
        <time>2015-04-12T14:48:27.410Z</time>
      </trkpt>
      <trkpt lat="45.38698" lon="6.19787">
        <ele>2191.24</ele>
        <time>2015-04-12T14:49:50.690Z</time>
      </trkpt>
      <trkpt lat="45.38709" lon="6.19798">
        <ele>2193.31900032</ele>
        <time>2015-04-12T14:50:02.680Z</time>
      </trkpt>
      <trkpt lat="45.38719" lon="6.19792">
        <ele>2205</ele>
        <time>2015-04-12T14:51:10.680Z</time>
      </trkpt>
      <trkpt lat="45.38724" lon="6.19805">
        <ele>2212.31900032</ele>
        <time>2015-04-12T14:52:02.680Z</time>
      </trkpt>
      <trkpt lat="45.38733" lon="6.1982">
        <ele>2218.43800064</ele>
        <time>2015-04-12T14:52:26.680Z</time>
      </trkpt>
      <trkpt lat="45.38738" lon="6.19807">
        <ele>2220.47600128</ele>
        <time>2015-04-12T14:52:50.680Z</time>
      </trkpt>
      <trkpt lat="45.38739" lon="6.19792">
        <ele>2223.37100032</ele>
        <time>2015-04-12T14:53:25.780Z</time>
      </trkpt>
      <trkpt lat="45.3875" lon="6.19798">
        <ele>2232.62899968</ele>
        <time>2015-04-12T14:54:05.780Z</time>
      </trkpt>
      <trkpt lat="45.38757" lon="6.19802">
        <ele>2236.11599872</ele>
        <time>2015-04-12T14:54:29.780Z</time>
      </trkpt>
      <trkpt lat="45.38766" lon="6.19811">
        <ele>2246.43000064</ele>
        <time>2015-04-12T14:55:13.790Z</time>
      </trkpt>
      <trkpt lat="45.38778" lon="6.19817">
        <ele>2251.2572559029</ele>
        <time>2015-04-12T14:55:45.780Z</time>
      </trkpt>
      <trkpt lat="45.3879" lon="6.19818">
        <ele>2254.88699904</ele>
        <time>2015-04-12T14:56:05.780Z</time>
      </trkpt>
      <trkpt lat="45.38802" lon="6.19819">
        <ele>2258</ele>
        <time>2015-04-12T14:56:21.780Z</time>
      </trkpt>
      <trkpt lat="45.38811" lon="6.19825">
        <ele>2260.1082126546</ele>
        <time>2015-04-12T14:56:49.780Z</time>
      </trkpt>
      <trkpt lat="45.38804" lon="6.19837">
        <ele>2266</ele>
        <time>2015-04-12T14:57:09.530Z</time>
      </trkpt>
      <trkpt lat="45.38802" lon="6.19852">
        <ele>2276</ele>
        <time>2015-04-12T14:58:12.680Z</time>
      </trkpt>
      <trkpt lat="45.38798" lon="6.19868">
        <ele>2280</ele>
        <time>2015-04-12T14:58:32.680Z</time>
      </trkpt>
      <trkpt lat="45.38786" lon="6.19875">
        <ele>2280.64</ele>
        <time>2015-04-12T14:58:52.690Z</time>
      </trkpt>
      <trkpt lat="45.38796" lon="6.19871">
        <ele>2282.31900032</ele>
        <time>2015-04-12T14:59:12.680Z</time>
      </trkpt>
      <trkpt lat="45.38807" lon="6.19864">
        <ele>2282</ele>
        <time>2015-04-12T15:00:04.680Z</time>
      </trkpt>
      <trkpt lat="45.38797" lon="6.19863">
        <ele>2283</ele>
        <time>2015-04-12T15:00:24.690Z</time>
      </trkpt>
      <trkpt lat="45.38806" lon="6.1988">
        <ele>2280.68</ele>
        <time>2015-04-12T15:01:32.690Z</time>
      </trkpt>
      <trkpt lat="45.38815" lon="6.19895">
        <ele>2269.13699456</ele>
        <time>2015-04-12T15:01:45.880Z</time>
      </trkpt>
      <trkpt lat="45.38852" lon="6.19927">
        <ele>2253.272</ele>
        <time>2015-04-12T15:01:54.610Z</time>
      </trkpt>
      <trkpt lat="45.38884" lon="6.19938">
        <ele>2238.24599552</ele>
        <time>2015-04-12T15:02:03.600Z</time>
      </trkpt>
      <trkpt lat="45.38914" lon="6.19956">
        <ele>2228.77599232</ele>
        <time>2015-04-12T15:02:10.510Z</time>
      </trkpt>
      <trkpt lat="45.38921" lon="6.19979">
        <ele>2222.896</ele>
        <time>2015-04-12T15:02:15.410Z</time>
      </trkpt>
      <trkpt lat="45.38944" lon="6.19995">
        <ele>2212.156</ele>
        <time>2015-04-12T15:02:36.410Z</time>
      </trkpt>
      <trkpt lat="45.38983" lon="6.2002">
        <ele>2205.32899712</ele>
        <time>2015-04-12T15:02:44.680Z</time>
      </trkpt>
      <trkpt lat="45.39001" lon="6.20013">
        <ele>2200.192</ele>
        <time>2015-04-12T15:03:01.410Z</time>
      </trkpt>
      <trkpt lat="45.39003" lon="6.19996">
        <ele>2201</ele>
        <time>2015-04-12T15:03:09.530Z</time>
      </trkpt>
      <trkpt lat="45.39013" lon="6.19983">
        <ele>2201.40200064</ele>
        <time>2015-04-12T15:04:33.510Z</time>
      </trkpt>
      <trkpt lat="45.39024" lon="6.1998">
        <ele>2202</ele>
        <time>2015-04-12T15:04:45.510Z</time>
      </trkpt>
      <trkpt lat="45.39034" lon="6.19981">
        <ele>2202.392</ele>
        <time>2015-04-12T15:04:53.410Z</time>
      </trkpt>
      <trkpt lat="45.39047" lon="6.19996">
        <ele>2203.792</ele>
        <time>2015-04-12T15:05:17.410Z</time>
      </trkpt>
      <trkpt lat="45.39057" lon="6.1999">
        <ele>2205.184</ele>
        <time>2015-04-12T15:05:25.410Z</time>
      </trkpt>
      <trkpt lat="45.39067" lon="6.19987">
        <ele>2208.492</ele>
        <time>2015-04-12T15:05:44.410Z</time>
      </trkpt>
      <trkpt lat="45.39079" lon="6.19987">
        <ele>2212.46</ele>
        <time>2015-04-12T15:05:56.410Z</time>
      </trkpt>
      <trkpt lat="45.39087" lon="6.19996">
        <ele>2212.16199936</ele>
        <time>2015-04-12T15:06:08.680Z</time>
      </trkpt>
      <trkpt lat="45.39097" lon="6.19992">
        <ele>2217.40400128</ele>
        <time>2015-04-12T15:06:31.510Z</time>
      </trkpt>
      <trkpt lat="45.39108" lon="6.19995">
        <ele>2220.568</ele>
        <time>2015-04-12T15:06:53.410Z</time>
      </trkpt>
      <trkpt lat="45.39115" lon="6.20004">
        <ele>2223.40800256</ele>
        <time>2015-04-12T15:07:10.510Z</time>
      </trkpt>
      <trkpt lat="45.39127" lon="6.20006">
        <ele>2229.23800064</ele>
        <time>2015-04-12T15:07:30.680Z</time>
      </trkpt>
      <trkpt lat="45.39137" lon="6.20006">
        <ele>2231.012</ele>
        <time>2015-04-12T15:07:39.530Z</time>
      </trkpt>
      <trkpt lat="45.39148" lon="6.20001">
        <ele>2235.89000192</ele>
        <time>2015-04-12T15:07:55.790Z</time>
      </trkpt>
      <trkpt lat="45.39159" lon="6.2">
        <ele>2240.012</ele>
        <time>2015-04-12T15:08:09.530Z</time>
      </trkpt>
      <trkpt lat="45.39168" lon="6.20012">
        <ele>2246.25700096</ele>
        <time>2015-04-12T15:08:33.680Z</time>
      </trkpt>
      <trkpt lat="45.39178" lon="6.20015">
        <ele>2248.43800064</ele>
        <time>2015-04-12T15:08:41.680Z</time>
      </trkpt>
      <trkpt lat="45.39194" lon="6.20017">
        <ele>2252.51700096</ele>
        <time>2015-04-12T15:08:57.880Z</time>
      </trkpt>
      <trkpt lat="45.39206" lon="6.20019">
        <ele>2255.01900032</ele>
        <time>2015-04-12T15:09:09.680Z</time>
      </trkpt>
      <trkpt lat="45.39216" lon="6.20015">
        <ele>2263.0950016</ele>
        <time>2015-04-12T15:09:41.680Z</time>
      </trkpt>
      <trkpt lat="45.39224" lon="6.20006">
        <ele>2267</ele>
        <time>2015-04-12T15:10:05.680Z</time>
      </trkpt>
      <trkpt lat="45.3923" lon="6.20017">
        <ele>2271.65700096</ele>
        <time>2015-04-12T15:10:21.680Z</time>
      </trkpt>
      <trkpt lat="45.39243" lon="6.20014">
        <ele>2270.51900032</ele>
        <time>2015-04-12T15:15:44.680Z</time>
      </trkpt>
      <trkpt lat="45.39279" lon="6.20032">
        <ele>2256.96398592</ele>
        <time>2015-04-12T15:15:52.680Z</time>
      </trkpt>
      <trkpt lat="45.39345" lon="6.20058">
        <ele>2224.024992</ele>
        <time>2015-04-12T15:16:00.680Z</time>
      </trkpt>
      <trkpt lat="45.39398" lon="6.20074">
        <ele>2204.024992</ele>
        <time>2015-04-12T15:16:08.680Z</time>
      </trkpt>
      <trkpt lat="45.39443" lon="6.20044">
        <ele>2189.05799424</ele>
        <time>2015-04-12T15:16:16.680Z</time>
      </trkpt>
      <trkpt lat="45.39493" lon="6.19973">
        <ele>2175.17699456</ele>
        <time>2015-04-12T15:16:24.680Z</time>
      </trkpt>
      <trkpt lat="45.39518" lon="6.19893">
        <ele>2164.12899712</ele>
        <time>2015-04-12T15:16:32.680Z</time>
      </trkpt>
      <trkpt lat="45.39532" lon="6.19897">
        <ele>2158</ele>
        <time>2015-04-12T15:16:44.690Z</time>
      </trkpt>
      <trkpt lat="45.39539" lon="6.19913">
        <ele>2158</ele>
        <time>2015-04-12T15:17:02.880Z</time>
      </trkpt>
      <trkpt lat="45.3953" lon="6.19904">
        <ele>2157.68</ele>
        <time>2015-04-12T15:17:22.690Z</time>
      </trkpt>
      <trkpt lat="45.39537" lon="6.19915">
        <ele>2158</ele>
        <time>2015-04-12T15:17:42.680Z</time>
      </trkpt>
      <trkpt lat="45.39547" lon="6.19913">
        <ele>2158.91900032</ele>
        <time>2015-04-12T15:17:58.680Z</time>
      </trkpt>
      <trkpt lat="45.3956" lon="6.19904">
        <ele>2163.41700096</ele>
        <time>2015-04-12T15:18:10.880Z</time>
      </trkpt>
      <trkpt lat="45.3957" lon="6.19893">
        <ele>2167.47800064</ele>
        <time>2015-04-12T15:18:26.880Z</time>
      </trkpt>
      <trkpt lat="45.39579" lon="6.19887">
        <ele>2170.75700096</ele>
        <time>2015-04-12T15:18:38.680Z</time>
      </trkpt>
      <trkpt lat="45.39594" lon="6.19893">
        <ele>2173.5554440228</ele>
        <time>2015-04-12T15:18:54.680Z</time>
      </trkpt>
      <trkpt lat="45.39584" lon="6.19902">
        <ele>2178.1018986435</ele>
        <time>2015-04-12T15:19:20.510Z</time>
      </trkpt>
      <trkpt lat="45.3958" lon="6.19916">
        <ele>2180.91900032</ele>
        <time>2015-04-12T15:19:48.680Z</time>
      </trkpt>
      <trkpt lat="45.39582" lon="6.19932">
        <ele>2186.55700096</ele>
        <time>2015-04-12T15:20:04.680Z</time>
      </trkpt>
      <trkpt lat="45.39592" lon="6.19927">
        <ele>2191.15700096</ele>
        <time>2015-04-12T15:20:36.680Z</time>
      </trkpt>
      <trkpt lat="45.39599" lon="6.19916">
        <ele>2195.27600128</ele>
        <time>2015-04-12T15:20:52.680Z</time>
      </trkpt>
      <trkpt lat="45.39609" lon="6.19922">
        <ele>2203.04</ele>
        <time>2015-04-12T15:21:24.690Z</time>
      </trkpt>
      <trkpt lat="45.39619" lon="6.19926">
        <ele>2207</ele>
        <time>2015-04-12T15:21:56.690Z</time>
      </trkpt>
      <trkpt lat="45.39627" lon="6.19916">
        <ele>2210.67600128</ele>
        <time>2015-04-12T15:22:08.680Z</time>
      </trkpt>
      <trkpt lat="45.39626" lon="6.19935">
        <ele>2213.12</ele>
        <time>2015-04-12T15:22:20.690Z</time>
      </trkpt>
      <trkpt lat="45.39635" lon="6.19927">
        <ele>2219.55700096</ele>
        <time>2015-04-12T15:22:44.680Z</time>
      </trkpt>
      <trkpt lat="45.39645" lon="6.19922">
        <ele>2229.88</ele>
        <time>2015-04-12T15:23:26.690Z</time>
      </trkpt>
      <trkpt lat="45.39648" lon="6.19908">
        <ele>2234.96</ele>
        <time>2015-04-12T15:23:42.690Z</time>
      </trkpt>
      <trkpt lat="45.39659" lon="6.19902">
        <ele>2241</ele>
        <time>2015-04-12T15:24:22.880Z</time>
      </trkpt>
      <trkpt lat="45.39651" lon="6.19912">
        <ele>2241</ele>
        <time>2015-04-12T15:26:22.880Z</time>
      </trkpt>
      <trkpt lat="45.39658" lon="6.19901">
        <ele>2240</ele>
        <time>2015-04-12T15:26:46.600Z</time>
      </trkpt>
      <trkpt lat="45.3965" lon="6.19911">
        <ele>2240</ele>
        <time>2015-04-12T15:28:12.880Z</time>
      </trkpt>
      <trkpt lat="45.39656" lon="6.19904">
        <ele>2240.66099968</ele>
        <time>2015-04-12T15:28:52.880Z</time>
      </trkpt>
      <trkpt lat="45.39684" lon="6.19904">
        <ele>2239.64399872</ele>
        <time>2015-04-12T15:30:12.880Z</time>
      </trkpt>
      <trkpt lat="45.39707" lon="6.19926">
        <ele>2236.26099968</ele>
        <time>2015-04-12T15:30:36.880Z</time>
      </trkpt>
      <trkpt lat="45.39775" lon="6.19944">
        <ele>2203.30297984</ele>
        <time>2015-04-12T15:30:44.680Z</time>
      </trkpt>
      <trkpt lat="45.39837" lon="6.19949">
        <ele>2166.53597952</ele>
        <time>2015-04-12T15:30:51.510Z</time>
      </trkpt>
      <trkpt lat="45.39849" lon="6.19937">
        <ele>2150.216</ele>
        <time>2015-04-12T15:30:56.610Z</time>
      </trkpt>
      <trkpt lat="45.39904" lon="6.1989">
        <ele>2131.032</ele>
        <time>2015-04-12T15:31:06.610Z</time>
      </trkpt>
      <trkpt lat="45.39936" lon="6.19862">
        <ele>2121.88</ele>
        <time>2015-04-12T15:31:14.610Z</time>
      </trkpt>
      <trkpt lat="45.39946" lon="6.19865">
        <ele>2115</ele>
        <time>2015-04-12T15:31:42.880Z</time>
      </trkpt>
      <trkpt lat="45.39932" lon="6.19855">
        <ele>2115</ele>
        <time>2015-04-12T15:32:31.610Z</time>
      </trkpt>
      <trkpt lat="45.39922" lon="6.19867">
        <ele>2115</ele>
        <time>2015-04-12T15:32:54.880Z</time>
      </trkpt>
      <trkpt lat="45.39935" lon="6.19864">
        <ele>2115</ele>
        <time>2015-04-12T15:33:04.610Z</time>
      </trkpt>
      <trkpt lat="45.39954" lon="6.19825">
        <ele>2112.192</ele>
        <time>2015-04-12T15:33:12.610Z</time>
      </trkpt>
      <trkpt lat="45.39971" lon="6.1978">
        <ele>2103.08099328</ele>
        <time>2015-04-12T15:33:20.880Z</time>
      </trkpt>
      <trkpt lat="45.39966" lon="6.19719">
        <ele>2086.28099328</ele>
        <time>2015-04-12T15:33:28.880Z</time>
      </trkpt>
      <trkpt lat="45.39971" lon="6.19698">
        <ele>2077</ele>
        <time>2015-04-12T15:33:49.710Z</time>
      </trkpt>
      <trkpt lat="45.3997" lon="6.19714">
        <ele>2076.516</ele>
        <time>2015-04-12T15:34:04.330Z</time>
      </trkpt>
      <trkpt lat="45.39982" lon="6.19719">
        <ele>2076</ele>
        <time>2015-04-12T15:34:17.880Z</time>
      </trkpt>
      <trkpt lat="45.39992" lon="6.19723">
        <ele>2076.68</ele>
        <time>2015-04-12T15:34:57.890Z</time>
      </trkpt>
      <trkpt lat="45.39985" lon="6.19711">
        <ele>2076.36</ele>
        <time>2015-04-12T15:36:05.890Z</time>
      </trkpt>
      <trkpt lat="45.39988" lon="6.19697">
        <ele>2078.31700096</ele>
        <time>2015-04-12T15:36:33.880Z</time>
      </trkpt>
      <trkpt lat="45.4" lon="6.19687">
        <ele>2083.43000064</ele>
        <time>2015-04-12T15:36:53.790Z</time>
      </trkpt>
      <trkpt lat="45.40011" lon="6.19705">
        <ele>2089.22899968</ele>
        <time>2015-04-12T15:37:21.780Z</time>
      </trkpt>
      <trkpt lat="45.4002" lon="6.197">
        <ele>2090.44</ele>
        <time>2015-04-12T15:37:33.890Z</time>
      </trkpt>
      <trkpt lat="45.40023" lon="6.19687">
        <ele>2098</ele>
        <time>2015-04-12T15:38:17.780Z</time>
      </trkpt>
      <trkpt lat="45.40029" lon="6.19699">
        <ele>2106</ele>
        <time>2015-04-12T15:38:49.500Z</time>
      </trkpt>
      <trkpt lat="45.40038" lon="6.19714">
        <ele>2111.92000256</ele>
        <time>2015-04-12T15:39:36.790Z</time>
      </trkpt>
      <trkpt lat="45.40041" lon="6.1973">
        <ele>2120.12900096</ele>
        <time>2015-04-12T15:40:20.780Z</time>
      </trkpt>
      <trkpt lat="45.40052" lon="6.19729">
        <ele>2121.98700288</ele>
        <time>2015-04-12T15:40:32.780Z</time>
      </trkpt>
      <trkpt lat="45.40062" lon="6.19732">
        <ele>2125.05800192</ele>
        <time>2015-04-12T15:40:44.780Z</time>
      </trkpt>
      <trkpt lat="45.40071" lon="6.19738">
        <ele>2127.45800192</ele>
        <time>2015-04-12T15:40:56.780Z</time>
      </trkpt>
      <trkpt lat="45.40081" lon="6.19733">
        <ele>2129.32900096</ele>
        <time>2015-04-12T15:41:12.780Z</time>
      </trkpt>
      <trkpt lat="45.4009" lon="6.19728">
        <ele>2133.99000192</ele>
        <time>2015-04-12T15:41:32.790Z</time>
      </trkpt>
      <trkpt lat="45.40096" lon="6.19709">
        <ele>2138.79000192</ele>
        <time>2015-04-12T15:41:48.790Z</time>
      </trkpt>
      <trkpt lat="45.40107" lon="6.19712">
        <ele>2141.87800064</ele>
        <time>2015-04-12T15:42:08.880Z</time>
      </trkpt>
      <trkpt lat="45.4012" lon="6.19704">
        <ele>2144.58700288</ele>
        <time>2015-04-12T15:42:24.780Z</time>
      </trkpt>
      <trkpt lat="45.40126" lon="6.19722">
        <ele>2145.0719280029</ele>
        <time>2015-04-12T15:42:48.780Z</time>
      </trkpt>
      <trkpt lat="45.40135" lon="6.19707">
        <ele>2149.71600384</ele>
        <time>2015-04-12T15:43:08.780Z</time>
      </trkpt>
      <trkpt lat="45.40144" lon="6.19697">
        <ele>2158.85800192</ele>
        <time>2015-04-12T15:43:48.780Z</time>
      </trkpt>
      <trkpt lat="45.40155" lon="6.19706">
        <ele>2162.5855871093</ele>
        <time>2015-04-12T15:44:04.780Z</time>
      </trkpt>
      <trkpt lat="45.4017" lon="6.19721">
        <ele>2166.58700288</ele>
        <time>2015-04-12T15:44:24.780Z</time>
      </trkpt>
      <trkpt lat="45.40183" lon="6.1972">
        <ele>2168</ele>
        <time>2015-04-12T15:44:32.780Z</time>
      </trkpt>
      <trkpt lat="45.40199" lon="6.19717">
        <ele>2167.74199808</ele>
        <time>2015-04-12T15:44:40.780Z</time>
      </trkpt>
      <trkpt lat="45.40209" lon="6.19717">
        <ele>2166</ele>
        <time>2015-04-12T15:44:56.780Z</time>
      </trkpt>
      <trkpt lat="45.40217" lon="6.19702">
        <ele>2169.71600384</ele>
        <time>2015-04-12T15:45:08.780Z</time>
      </trkpt>
      <trkpt lat="45.40227" lon="6.19697">
        <ele>2171.45800192</ele>
        <time>2015-04-12T15:45:16.780Z</time>
      </trkpt>
      <trkpt lat="45.40236" lon="6.19687">
        <ele>2175.66000128</ele>
        <time>2015-04-12T15:45:32.790Z</time>
      </trkpt>
      <trkpt lat="45.40246" lon="6.19682">
        <ele>2177</ele>
        <time>2015-04-12T15:45:40.790Z</time>
      </trkpt>
      <trkpt lat="45.40255" lon="6.19668">
        <ele>2179.19000192</ele>
        <time>2015-04-12T15:45:56.790Z</time>
      </trkpt>
      <trkpt lat="45.40265" lon="6.19655">
        <ele>2180</ele>
        <time>2015-04-12T15:46:04.790Z</time>
      </trkpt>
      <trkpt lat="45.40271" lon="6.19642">
        <ele>2184.39000192</ele>
        <time>2015-04-12T15:46:20.790Z</time>
      </trkpt>
      <trkpt lat="45.40276" lon="6.19628">
        <ele>2190.25800192</ele>
        <time>2015-04-12T15:46:40.780Z</time>
      </trkpt>
      <trkpt lat="45.40282" lon="6.19616">
        <ele>2193.45800192</ele>
        <time>2015-04-12T15:46:56.780Z</time>
      </trkpt>
      <trkpt lat="45.40287" lon="6.19603">
        <ele>2196.32900096</ele>
        <time>2015-04-12T15:47:12.780Z</time>
      </trkpt>
      <trkpt lat="45.40289" lon="6.19584">
        <ele>2198.50600192</ele>
        <time>2015-04-12T15:47:24.510Z</time>
      </trkpt>
      <trkpt lat="45.40294" lon="6.1957">
        <ele>2201.46000128</ele>
        <time>2015-04-12T15:47:36.790Z</time>
      </trkpt>
      <trkpt lat="45.40302" lon="6.19562">
        <ele>2203.59000192</ele>
        <time>2015-04-12T15:47:44.790Z</time>
      </trkpt>
      <trkpt lat="45.40309" lon="6.19552">
        <ele>2206.52900096</ele>
        <time>2015-04-12T15:48:04.780Z</time>
      </trkpt>
      <trkpt lat="45.40324" lon="6.19558">
        <ele>2215</ele>
        <time>2015-04-12T15:48:44.780Z</time>
      </trkpt>
      <trkpt lat="45.40334" lon="6.19555">
        <ele>2219.52900096</ele>
        <time>2015-04-12T15:49:04.780Z</time>
      </trkpt>
      <trkpt lat="45.40326" lon="6.19542">
        <ele>2220.55000064</ele>
        <time>2015-04-12T15:49:44.990Z</time>
      </trkpt>
      <trkpt lat="45.40339" lon="6.19542">
        <ele>2223.85800192</ele>
        <time>2015-04-12T15:51:08.780Z</time>
      </trkpt>
      <trkpt lat="45.40346" lon="6.19554">
        <ele>2228.05800192</ele>
        <time>2015-04-12T15:51:24.780Z</time>
      </trkpt>
      <trkpt lat="45.40357" lon="6.19556">
        <ele>2236.79000192</ele>
        <time>2015-04-12T15:52:08.790Z</time>
      </trkpt>
      <trkpt lat="45.40348" lon="6.19563">
        <ele>2244.51600384</ele>
        <time>2015-04-12T15:52:40.780Z</time>
      </trkpt>
      <trkpt lat="45.4036" lon="6.19577">
        <ele>2249.1288719643</ele>
        <time>2015-04-12T15:53:00.780Z</time>
      </trkpt>
      <trkpt lat="45.4037" lon="6.19582">
        <ele>2251.3133145754</ele>
        <time>2015-04-12T15:53:12.780Z</time>
      </trkpt>
      <trkpt lat="45.40379" lon="6.19598">
        <ele>2264.80300032</ele>
        <time>2015-04-12T15:54:17.520Z</time>
      </trkpt>
      <trkpt lat="45.40378" lon="6.19615">
        <ele>2271.68699904</ele>
        <time>2015-04-12T15:54:41.780Z</time>
      </trkpt>
      <trkpt lat="45.40387" lon="6.19625">
        <ele>2275.62899968</ele>
        <time>2015-04-12T15:55:05.780Z</time>
      </trkpt>
      <trkpt lat="45.40382" lon="6.19612">
        <ele>2281.60800256</ele>
        <time>2015-04-12T15:55:33.510Z</time>
      </trkpt>
      <trkpt lat="45.40393" lon="6.19613">
        <ele>2284.40200064</ele>
        <time>2015-04-12T15:55:53.510Z</time>
      </trkpt>
      <trkpt lat="45.40386" lon="6.19625">
        <ele>2285.91599872</ele>
        <time>2015-04-12T15:56:01.780Z</time>
      </trkpt>
      <trkpt lat="45.40396" lon="6.19628">
        <ele>2290.59000192</ele>
        <time>2015-04-12T15:56:14.790Z</time>
      </trkpt>
      <trkpt lat="45.40404" lon="6.19649">
        <ele>2293.40400128</ele>
        <time>2015-04-12T15:56:26.510Z</time>
      </trkpt>
      <trkpt lat="45.40413" lon="6.19655">
        <ele>2312.99000192</ele>
        <time>2015-04-12T15:57:52.790Z</time>
      </trkpt>
      <trkpt lat="45.40424" lon="6.1966">
        <ele>2321.64699904</ele>
        <time>2015-04-12T15:58:24.980Z</time>
      </trkpt>
      <trkpt lat="45.40431" lon="6.1967">
        <ele>2328.74899968</ele>
        <time>2015-04-12T15:58:56.980Z</time>
      </trkpt>
      <trkpt lat="45.40439" lon="6.1968">
        <ele>2337.55000064</ele>
        <time>2015-04-12T15:59:44.990Z</time>
      </trkpt>
      <trkpt lat="45.40448" lon="6.19688">
        <ele>2347.27800064</ele>
        <time>2015-04-12T16:00:40.880Z</time>
      </trkpt>
      <trkpt lat="45.4046" lon="6.19695">
        <ele>2353.02200064</ele>
        <time>2015-04-12T16:01:09.600Z</time>
      </trkpt>
      <trkpt lat="45.40474" lon="6.19706">
        <ele>2355.14700288</ele>
        <time>2015-04-12T16:01:29.980Z</time>
      </trkpt>
      <trkpt lat="45.40481" lon="6.1972">
        <ele>2373.85000192</ele>
        <time>2015-04-12T16:02:48.990Z</time>
      </trkpt>
      <trkpt lat="45.40488" lon="6.19733">
        <ele>2379.30200064</ele>
        <time>2015-04-12T16:03:12.510Z</time>
      </trkpt>
      <trkpt lat="45.40493" lon="6.19746">
        <ele>2385.50200064</ele>
        <time>2015-04-12T16:04:54.510Z</time>
      </trkpt>
      <trkpt lat="45.40504" lon="6.19745">
        <ele>2389.11600384</ele>
        <time>2015-04-12T16:05:14.780Z</time>
      </trkpt>
      <trkpt lat="45.40494" lon="6.19747">
        <ele>2394.13000064</ele>
        <time>2015-04-12T16:05:50.790Z</time>
      </trkpt>
      <trkpt lat="45.40504" lon="6.19759">
        <ele>2395.51600384</ele>
        <time>2015-04-12T16:06:10.780Z</time>
      </trkpt>
      <trkpt lat="45.40515" lon="6.19771">
        <ele>2399.33100032</ele>
        <time>2015-04-12T16:06:22.800Z</time>
      </trkpt>
      <trkpt lat="45.40525" lon="6.1978">
        <ele>2409.18700288</ele>
        <time>2015-04-12T16:07:06.780Z</time>
      </trkpt>
      <trkpt lat="45.40536" lon="6.19795">
        <ele>2419.38700288</ele>
        <time>2015-04-12T16:07:50.780Z</time>
      </trkpt>
      <trkpt lat="45.40546" lon="6.19789">
        <ele>2427.11600384</ele>
        <time>2015-04-12T16:08:24.780Z</time>
      </trkpt>
      <trkpt lat="45.40556" lon="6.19804">
        <ele>2439.03000064</ele>
        <time>2015-04-12T16:09:19.790Z</time>
      </trkpt>
      <trkpt lat="45.40557" lon="6.19823">
        <ele>2444.05199872</ele>
        <time>2015-04-12T16:09:49.620Z</time>
      </trkpt>
      <trkpt lat="45.40565" lon="6.19834">
        <ele>2448.604791949</ele>
        <time>2015-04-12T16:10:01.510Z</time>
      </trkpt>
      <trkpt lat="45.40556" lon="6.19847">
        <ele>2452.38000384</ele>
        <time>2015-04-12T16:10:21.790Z</time>
      </trkpt>
      <trkpt lat="45.40562" lon="6.19863">
        <ele>2457.85799936</ele>
        <time>2015-04-12T16:10:33.780Z</time>
      </trkpt>
      <trkpt lat="45.40567" lon="6.19877">
        <ele>2461.05799936</ele>
        <time>2015-04-12T16:10:49.780Z</time>
      </trkpt>
      <trkpt lat="45.40578" lon="6.19873">
        <ele>2466.09000192</ele>
        <time>2015-04-12T16:11:09.790Z</time>
      </trkpt>
      <trkpt lat="45.40586" lon="6.19865">
        <ele>2468.49000192</ele>
        <time>2015-04-12T16:11:17.790Z</time>
      </trkpt>
      <trkpt lat="45.40589" lon="6.19848">
        <ele>2471.02899968</ele>
        <time>2015-04-12T16:11:29.780Z</time>
      </trkpt>
      <trkpt lat="45.40597" lon="6.19856">
        <ele>2472.74700288</ele>
        <time>2015-04-12T16:11:41.980Z</time>
      </trkpt>
      <trkpt lat="45.40596" lon="6.19871">
        <ele>2475.89800192</ele>
        <time>2015-04-12T16:11:53.980Z</time>
      </trkpt>
      <trkpt lat="45.40613" lon="6.19865">
        <ele>2478.60400128</ele>
        <time>2015-04-12T16:12:07.510Z</time>
      </trkpt>
      <trkpt lat="45.40628" lon="6.19865">
        <ele>2479</ele>
        <time>2015-04-12T16:12:15.780Z</time>
      </trkpt>
      <trkpt lat="45.40648" lon="6.19861">
        <ele>2478.99600384</ele>
        <time>2015-04-12T16:12:31.980Z</time>
      </trkpt>
      <trkpt lat="45.40658" lon="6.19848">
        <ele>2483.28699904</ele>
        <time>2015-04-12T16:12:43.780Z</time>
      </trkpt>
      <trkpt lat="45.40668" lon="6.19858">
        <ele>2488.79600384</ele>
        <time>2015-04-12T16:13:03.980Z</time>
      </trkpt>
      <trkpt lat="45.40675" lon="6.19868">
        <ele>2493</ele>
        <time>2015-04-12T16:16:12.980Z</time>
      </trkpt>
      <trkpt lat="45.40682" lon="6.19856">
        <ele>2492</ele>
        <time>2015-04-12T16:17:37.780Z</time>
      </trkpt>
      <trkpt lat="45.40674" lon="6.19866">
        <ele>2492.92900096</ele>
        <time>2015-04-12T16:17:48.780Z</time>
      </trkpt>
      <trkpt lat="45.40676" lon="6.19883">
        <ele>2490.80800256</ele>
        <time>2015-04-12T16:19:50.980Z</time>
      </trkpt>
      <trkpt lat="45.40672" lon="6.19932">
        <ele>2484.40800256</ele>
        <time>2015-04-12T16:19:58.980Z</time>
      </trkpt>
      <trkpt lat="45.40674" lon="6.19955">
        <ele>2471.05100032</ele>
        <time>2015-04-12T16:20:18.980Z</time>
      </trkpt>
      <trkpt lat="45.40682" lon="6.1997">
        <ele>2458.26700544</ele>
        <time>2015-04-12T16:20:26.980Z</time>
      </trkpt>
      <trkpt lat="45.40691" lon="6.19989">
        <ele>2444.66700544</ele>
        <time>2015-04-12T16:20:34.980Z</time>
      </trkpt>
      <trkpt lat="45.40703" lon="6.20014">
        <ele>2431.41600512</ele>
        <time>2015-04-12T16:20:42.980Z</time>
      </trkpt>
      <trkpt lat="45.40711" lon="6.20036">
        <ele>2418.91400448</ele>
        <time>2015-04-12T16:20:50.980Z</time>
      </trkpt>
      <trkpt lat="45.40725" lon="6.20037">
        <ele>2406.0249708452</ele>
        <time>2015-04-12T16:21:00.710Z</time>
      </trkpt>
      <trkpt lat="45.40732" lon="6.20065">
        <ele>2392.7297467673</ele>
        <time>2015-04-12T16:21:12.980Z</time>
      </trkpt>
      <trkpt lat="45.40752" lon="6.20084">
        <ele>2378.7650048</ele>
        <time>2015-04-12T16:21:20.980Z</time>
      </trkpt>
      <trkpt lat="45.40761" lon="6.20089">
        <ele>2361.49199104</ele>
        <time>2015-04-12T16:21:32.710Z</time>
      </trkpt>
      <trkpt lat="45.40769" lon="6.20138">
        <ele>2348.72200704</ele>
        <time>2015-04-12T16:21:40.980Z</time>
      </trkpt>
      <trkpt lat="45.40784" lon="6.20144">
        <ele>2331.12200704</ele>
        <time>2015-04-12T16:21:48.980Z</time>
      </trkpt>
      <trkpt lat="45.40807" lon="6.20166">
        <ele>2308.2803172769</ele>
        <time>2015-04-12T16:21:58.990Z</time>
      </trkpt>
      <trkpt lat="45.40889" lon="6.20208">
        <ele>2292.5935520924</ele>
        <time>2015-04-12T16:22:06.710Z</time>
      </trkpt>
      <trkpt lat="45.40906" lon="6.20226">
        <ele>2285.35300096</ele>
        <time>2015-04-12T16:22:14.980Z</time>
      </trkpt>
      <trkpt lat="45.4092" lon="6.20225">
        <ele>2281.55700224</ele>
        <time>2015-04-12T16:22:22.980Z</time>
      </trkpt>
      <trkpt lat="45.40964" lon="6.2023">
        <ele>2271.18901248</ele>
        <time>2015-04-12T16:22:30.980Z</time>
      </trkpt>
      <trkpt lat="45.41016" lon="6.20215">
        <ele>2239.98901248</ele>
        <time>2015-04-12T16:22:38.980Z</time>
      </trkpt>
      <trkpt lat="45.41066" lon="6.20251">
        <ele>2214.78100992</ele>
        <time>2015-04-12T16:22:46.980Z</time>
      </trkpt>
      <trkpt lat="45.41142" lon="6.20312">
        <ele>2197.66700544</ele>
        <time>2015-04-12T16:22:54.980Z</time>
      </trkpt>
      <trkpt lat="45.41203" lon="6.20394">
        <ele>2185.79999232</ele>
        <time>2015-04-12T16:23:02.990Z</time>
      </trkpt>
      <trkpt lat="45.4124" lon="6.20456">
        <ele>2177.2550016</ele>
        <time>2015-04-12T16:23:10.980Z</time>
      </trkpt>
      <trkpt lat="45.41264" lon="6.20483">
        <ele>2173.2550016</ele>
        <time>2015-04-12T16:23:18.980Z</time>
      </trkpt>
      <trkpt lat="45.4127" lon="6.20507">
        <ele>2174</ele>
        <time>2015-04-12T16:23:38.990Z</time>
      </trkpt>
      <trkpt lat="45.41272" lon="6.20549">
        <ele>2173.25100032</ele>
        <time>2015-04-12T16:23:46.980Z</time>
      </trkpt>
      <trkpt lat="45.41296" lon="6.20617">
        <ele>2163.11800576</ele>
        <time>2015-04-12T16:23:54.980Z</time>
      </trkpt>
      <trkpt lat="45.41312" lon="6.20647">
        <ele>2149.7650048</ele>
        <time>2015-04-12T16:24:02.980Z</time>
      </trkpt>
      <trkpt lat="45.41364" lon="6.20645">
        <ele>2136.72200704</ele>
        <time>2015-04-12T16:24:10.980Z</time>
      </trkpt>
      <trkpt lat="45.41391" lon="6.20751">
        <ele>2119.12200704</ele>
        <time>2015-04-12T16:24:18.980Z</time>
      </trkpt>
      <trkpt lat="45.41437" lon="6.20813">
        <ele>2102.27100672</ele>
        <time>2015-04-12T16:24:26.980Z</time>
      </trkpt>
      <trkpt lat="45.41475" lon="6.20795">
        <ele>2081.07900928</ele>
        <time>2015-04-12T16:24:34.980Z</time>
      </trkpt>
      <trkpt lat="45.4159" lon="6.20829">
        <ele>2060.32200704</ele>
        <time>2015-04-12T16:24:42.980Z</time>
      </trkpt>
      <trkpt lat="45.41674" lon="6.20859">
        <ele>2044.6899968</ele>
        <time>2015-04-12T16:24:50.800Z</time>
      </trkpt>
      <trkpt lat="45.41716" lon="6.20868">
        <ele>2036.5100032</ele>
        <time>2015-04-12T16:24:58.980Z</time>
      </trkpt>
      <trkpt lat="45.41725" lon="6.20876">
        <ele>2034</ele>
        <time>2015-04-12T16:25:10.600Z</time>
      </trkpt>
      <trkpt lat="45.41721" lon="6.2089">
        <ele>2034</ele>
        <time>2015-04-12T16:25:22.710Z</time>
      </trkpt>
      <trkpt lat="45.4174" lon="6.20883">
        <ele>2034</ele>
        <time>2015-04-12T16:25:35.980Z</time>
      </trkpt>
      <trkpt lat="45.41726" lon="6.20884">
        <ele>2034</ele>
        <time>2015-04-12T16:25:43.700Z</time>
      </trkpt>
      <trkpt lat="45.41756" lon="6.20863">
        <ele>2034</ele>
        <time>2015-04-12T16:25:55.980Z</time>
      </trkpt>
      <trkpt lat="45.4179" lon="6.20869">
        <ele>2027</ele>
        <time>2015-04-12T16:26:23.980Z</time>
      </trkpt>
      <trkpt lat="45.41801" lon="6.20868">
        <ele>2028</ele>
        <time>2015-04-12T16:26:51.980Z</time>
      </trkpt>
      <trkpt lat="45.41813" lon="6.20877">
        <ele>2030.31700096</ele>
        <time>2015-04-12T16:28:43.880Z</time>
      </trkpt>
      <trkpt lat="45.41823" lon="6.20877">
        <ele>2032.0380374339</ele>
        <time>2015-04-12T16:28:59.880Z</time>
      </trkpt>
      <trkpt lat="45.41834" lon="6.20878">
        <ele>2034.03900032</ele>
        <time>2015-04-12T16:29:19.880Z</time>
      </trkpt>
      <trkpt lat="45.41845" lon="6.20886">
        <ele>2035.212</ele>
        <time>2015-04-12T16:29:31.610Z</time>
      </trkpt>
      <trkpt lat="45.41859" lon="6.20878">
        <ele>2037</ele>
        <time>2015-04-12T16:29:55.880Z</time>
      </trkpt>
      <trkpt lat="45.41897" lon="6.2088">
        <ele>2034.8049984</ele>
        <time>2015-04-12T16:30:03.880Z</time>
      </trkpt>
      <trkpt lat="45.4191" lon="6.20883">
        <ele>2031.76099968</ele>
        <time>2015-04-12T16:30:11.880Z</time>
      </trkpt>
      <trkpt lat="45.41924" lon="6.20881">
        <ele>2031</ele>
        <time>2015-04-12T16:30:27.880Z</time>
      </trkpt>
      <trkpt lat="45.41935" lon="6.20882">
        <ele>2030.56099968</ele>
        <time>2015-04-12T16:30:43.880Z</time>
      </trkpt>
      <trkpt lat="45.41975" lon="6.20875">
        <ele>2027.84899712</ele>
        <time>2015-04-12T16:30:51.880Z</time>
      </trkpt>
      <trkpt lat="45.42023" lon="6.20854">
        <ele>2019.47898752</ele>
        <time>2015-04-12T16:30:59.880Z</time>
      </trkpt>
      <trkpt lat="45.42055" lon="6.20802">
        <ele>1988.27898752</ele>
        <time>2015-04-12T16:31:07.880Z</time>
      </trkpt>
      <trkpt lat="45.42086" lon="6.20748">
        <ele>1960.91298944</ele>
        <time>2015-04-12T16:31:15.880Z</time>
      </trkpt>
      <trkpt lat="45.4215" lon="6.20757">
        <ele>1943.29299584</ele>
        <time>2015-04-12T16:31:23.880Z</time>
      </trkpt>
      <trkpt lat="45.42188" lon="6.20763">
        <ele>1932.17599488</ele>
        <time>2015-04-12T16:31:31.880Z</time>
      </trkpt>
      <trkpt lat="45.42224" lon="6.20745">
        <ele>1919.29799424</ele>
        <time>2015-04-12T16:31:39.880Z</time>
      </trkpt>
      <trkpt lat="45.42286" lon="6.20733">
        <ele>1904.89799424</ele>
        <time>2015-04-12T16:31:47.880Z</time>
      </trkpt>
      <trkpt lat="45.42329" lon="6.2073">
        <ele>1893.05399552</ele>
        <time>2015-04-12T16:31:55.880Z</time>
      </trkpt>
      <trkpt lat="45.42348" lon="6.20713">
        <ele>1882.61198848</ele>
        <time>2015-04-12T16:32:03.980Z</time>
      </trkpt>
      <trkpt lat="45.42389" lon="6.20696">
        <ele>1873.84899712</ele>
        <time>2015-04-12T16:32:11.880Z</time>
      </trkpt>
      <trkpt lat="45.4241" lon="6.20682">
        <ele>1866.68799744</ele>
        <time>2015-04-12T16:32:19.880Z</time>
      </trkpt>
      <trkpt lat="45.42437" lon="6.20652">
        <ele>1860.28799744</ele>
        <time>2015-04-12T16:32:27.880Z</time>
      </trkpt>
      <trkpt lat="45.42446" lon="6.20653">
        <ele>1857.23900032</ele>
        <time>2015-04-12T16:32:51.880Z</time>
      </trkpt>
      <trkpt lat="45.42455" lon="6.20662">
        <ele>1857.83900032</ele>
        <time>2015-04-12T16:34:17.880Z</time>
      </trkpt>
      <trkpt lat="45.42467" lon="6.20677">
        <ele>1858.63900032</ele>
        <time>2015-04-12T16:34:25.880Z</time>
      </trkpt>
      <trkpt lat="45.42472" lon="6.20693">
        <ele>1860.67800064</ele>
        <time>2015-04-12T16:34:37.880Z</time>
      </trkpt>
      <trkpt lat="45.42484" lon="6.20691">
        <ele>1868</ele>
        <time>2015-04-12T16:35:05.880Z</time>
      </trkpt>
      <trkpt lat="45.42494" lon="6.20694">
        <ele>1869.67800064</ele>
        <time>2015-04-12T16:35:17.880Z</time>
      </trkpt>
      <trkpt lat="45.42506" lon="6.20691">
        <ele>1874.12</ele>
        <time>2015-04-12T16:35:29.890Z</time>
      </trkpt>
      <trkpt lat="45.42503" lon="6.20704">
        <ele>1878.07800064</ele>
        <time>2015-04-12T16:35:49.880Z</time>
      </trkpt>
      <trkpt lat="45.42503" lon="6.20721">
        <ele>1880.96</ele>
        <time>2015-04-12T16:36:01.890Z</time>
      </trkpt>
      <trkpt lat="45.42499" lon="6.20739">
        <ele>1884.87800064</ele>
        <time>2015-04-12T16:36:13.880Z</time>
      </trkpt>
      <trkpt lat="45.425" lon="6.20755">
        <ele>1886.47800064</ele>
        <time>2015-04-12T16:36:21.880Z</time>
      </trkpt>
      <trkpt lat="45.42488" lon="6.20753">
        <ele>1888.08</ele>
        <time>2015-04-12T16:36:29.890Z</time>
      </trkpt>
      <trkpt lat="45.42498" lon="6.20766">
        <ele>1892.87800064</ele>
        <time>2015-04-12T16:36:53.880Z</time>
      </trkpt>
      <trkpt lat="45.42509" lon="6.20761">
        <ele>1898.03900032</ele>
        <time>2015-04-12T16:37:09.880Z</time>
      </trkpt>
      <trkpt lat="45.42516" lon="6.20769">
        <ele>1899.47800064</ele>
        <time>2015-04-12T16:37:21.880Z</time>
      </trkpt>
      <trkpt lat="45.42527" lon="6.20778">
        <ele>1905.1950016</ele>
        <time>2015-04-12T16:37:37.880Z</time>
      </trkpt>
      <trkpt lat="45.42537" lon="6.20791">
        <ele>1909</ele>
        <time>2015-04-12T16:37:49.890Z</time>
      </trkpt>
      <trkpt lat="45.42554" lon="6.20802">
        <ele>1909.95600128</ele>
        <time>2015-04-12T16:38:01.880Z</time>
      </trkpt>
      <trkpt lat="45.42558" lon="6.2082">
        <ele>1913.24</ele>
        <time>2015-04-12T16:38:21.890Z</time>
      </trkpt>
      <trkpt lat="45.42569" lon="6.2083">
        <ele>1914.08</ele>
        <time>2015-04-12T16:38:29.890Z</time>
      </trkpt>
      <trkpt lat="45.42577" lon="6.20848">
        <ele>1917.27800064</ele>
        <time>2015-04-12T16:38:45.880Z</time>
      </trkpt>
      <trkpt lat="45.42582" lon="6.20872">
        <ele>1918.43900032</ele>
        <time>2015-04-12T16:38:53.880Z</time>
      </trkpt>
      <trkpt lat="45.42602" lon="6.20905">
        <ele>1915.8049984</ele>
        <time>2015-04-12T16:39:05.880Z</time>
      </trkpt>
      <trkpt lat="45.42611" lon="6.20919">
        <ele>1914</ele>
        <time>2015-04-12T16:39:13.880Z</time>
      </trkpt>
      <trkpt lat="45.42619" lon="6.2093">
        <ele>1914.23900032</ele>
        <time>2015-04-12T16:39:21.880Z</time>
      </trkpt>
      <trkpt lat="45.42629" lon="6.2094">
        <ele>1915.87800064</ele>
        <time>2015-04-12T16:39:33.880Z</time>
      </trkpt>
      <trkpt lat="45.42638" lon="6.20936">
        <ele>1918.27800064</ele>
        <time>2015-04-12T16:39:45.880Z</time>
      </trkpt>
      <trkpt lat="45.42651" lon="6.20944">
        <ele>1923.24</ele>
        <time>2015-04-12T16:40:01.890Z</time>
      </trkpt>
      <trkpt lat="45.42658" lon="6.20959">
        <ele>1924.87800064</ele>
        <time>2015-04-12T16:40:13.880Z</time>
      </trkpt>
      <trkpt lat="45.42667" lon="6.20976">
        <ele>1927.28</ele>
        <time>2015-04-12T16:40:25.890Z</time>
      </trkpt>
      <trkpt lat="45.42672" lon="6.20993">
        <ele>1928.83900032</ele>
        <time>2015-04-12T16:40:37.880Z</time>
      </trkpt>
      <trkpt lat="45.42684" lon="6.21028">
        <ele>1930.04</ele>
        <time>2015-04-12T16:40:49.890Z</time>
      </trkpt>
      <trkpt lat="45.42711" lon="6.21043">
        <ele>1933.55600128</ele>
        <time>2015-04-12T16:41:05.880Z</time>
      </trkpt>
      <trkpt lat="45.4272" lon="6.21039">
        <ele>1936.71700096</ele>
        <time>2015-04-12T16:41:21.880Z</time>
      </trkpt>
      <trkpt lat="45.4273" lon="6.2105">
        <ele>1942.27800064</ele>
        <time>2015-04-12T16:41:45.880Z</time>
      </trkpt>
      <trkpt lat="45.42741" lon="6.21049">
        <ele>1943.87800064</ele>
        <time>2015-04-12T16:41:53.880Z</time>
      </trkpt>
      <trkpt lat="45.42752" lon="6.21053">
        <ele>1947.07800064</ele>
        <time>2015-04-12T16:42:09.880Z</time>
      </trkpt>
      <trkpt lat="45.42762" lon="6.21054">
        <ele>1949.47800064</ele>
        <time>2015-04-12T16:42:21.880Z</time>
      </trkpt>
      <trkpt lat="45.42774" lon="6.21052">
        <ele>1951.44199936</ele>
        <time>2015-04-12T16:42:31.700Z</time>
      </trkpt>
      <trkpt lat="45.42782" lon="6.21065">
        <ele>1953.08800256</ele>
        <time>2015-04-12T16:42:39.710Z</time>
      </trkpt>
      <trkpt lat="45.42772" lon="6.21075">
        <ele>1957</ele>
        <time>2015-04-12T16:42:51.880Z</time>
      </trkpt>
      <trkpt lat="45.4278" lon="6.21093">
        <ele>1962.91700096</ele>
        <time>2015-04-12T16:43:15.880Z</time>
      </trkpt>
      <trkpt lat="45.42779" lon="6.21109">
        <ele>1967.2947066105</ele>
        <time>2015-04-12T16:43:40.080Z</time>
      </trkpt>
      <trkpt lat="45.42788" lon="6.21119">
        <ele>1972</ele>
        <time>2015-04-12T16:43:56.080Z</time>
      </trkpt>
      <trkpt lat="45.42798" lon="6.21124">
        <ele>1977.16</ele>
        <time>2015-04-12T16:44:08.090Z</time>
      </trkpt>
      <trkpt lat="45.42799" lon="6.21135">
        <ele>1983</ele>
        <time>2015-04-12T16:44:39.880Z</time>
      </trkpt>
      <trkpt lat="45.42808" lon="6.2114">
        <ele>1983.06099968</ele>
        <time>2015-04-12T16:45:58.880Z</time>
      </trkpt>
      <trkpt lat="45.42798" lon="6.21149">
        <ele>1982.36099968</ele>
        <time>2015-04-12T16:47:45.880Z</time>
      </trkpt>
      <trkpt lat="45.42809" lon="6.21136">
        <ele>1982</ele>
        <time>2015-04-12T16:48:21.880Z</time>
      </trkpt>
      <trkpt lat="45.42798" lon="6.21136">
        <ele>1980</ele>
        <time>2015-04-12T16:49:11.810Z</time>
      </trkpt>
      <trkpt lat="45.42811" lon="6.21141">
        <ele>1982</ele>
        <time>2015-04-12T16:49:46.600Z</time>
      </trkpt>
      <trkpt lat="45.42802" lon="6.21136">
        <ele>1982</ele>
        <time>2015-04-12T16:50:10.880Z</time>
      </trkpt>
      <trkpt lat="45.42795" lon="6.21146">
        <ele>1982</ele>
        <time>2015-04-12T16:51:34.880Z</time>
      </trkpt>
      <trkpt lat="45.42807" lon="6.21155">
        <ele>1982</ele>
        <time>2015-04-12T16:52:02.900Z</time>
      </trkpt>
      <trkpt lat="45.42819" lon="6.2115">
        <ele>1982</ele>
        <time>2015-04-12T16:52:10.890Z</time>
      </trkpt>
      <trkpt lat="45.42854" lon="6.21158">
        <ele>1982</ele>
        <time>2015-04-12T16:52:18.880Z</time>
      </trkpt>
      <trkpt lat="45.4289" lon="6.21189">
        <ele>1974.6099968</ele>
        <time>2015-04-12T16:52:26.880Z</time>
      </trkpt>
      <trkpt lat="45.42906" lon="6.21204">
        <ele>1970.92199936</ele>
        <time>2015-04-12T16:52:34.880Z</time>
      </trkpt>
      <trkpt lat="45.42917" lon="6.21212">
        <ele>1970</ele>
        <time>2015-04-12T16:52:42.880Z</time>
      </trkpt>
      <trkpt lat="45.42928" lon="6.21216">
        <ele>1970</ele>
        <time>2015-04-12T16:52:54.880Z</time>
      </trkpt>
      <trkpt lat="45.42962" lon="6.21226">
        <ele>1968.98299904</ele>
        <time>2015-04-12T16:53:02.880Z</time>
      </trkpt>
      <trkpt lat="45.42989" lon="6.21244">
        <ele>1966.58299904</ele>
        <time>2015-04-12T16:53:10.880Z</time>
      </trkpt>
      <trkpt lat="45.42989" lon="6.21261">
        <ele>1964</ele>
        <time>2015-04-12T16:53:22.880Z</time>
      </trkpt>
      <trkpt lat="45.43017" lon="6.21267">
        <ele>1963.72199936</ele>
        <time>2015-04-12T16:53:30.880Z</time>
      </trkpt>
      <trkpt lat="45.43045" lon="6.21285">
        <ele>1962</ele>
        <time>2015-04-12T16:53:42.880Z</time>
      </trkpt>
      <trkpt lat="45.4307" lon="6.2129">
        <ele>1961.72199936</ele>
        <time>2015-04-12T16:53:50.880Z</time>
      </trkpt>
      <trkpt lat="45.43125" lon="6.21298">
        <ele>1960.12199936</ele>
        <time>2015-04-12T16:53:58.880Z</time>
      </trkpt>
      <trkpt lat="45.43198" lon="6.21302">
        <ele>1945.2199936</ele>
        <time>2015-04-12T16:54:06.880Z</time>
      </trkpt>
      <trkpt lat="45.43269" lon="6.21338">
        <ele>1933.29199616</ele>
        <time>2015-04-12T16:54:15.080Z</time>
      </trkpt>
      <trkpt lat="45.43312" lon="6.21364">
        <ele>1924.3405276261</ele>
        <time>2015-04-12T16:54:22.880Z</time>
      </trkpt>
      <trkpt lat="45.4336" lon="6.21357">
        <ele>1917.6476936141</ele>
        <time>2015-04-12T16:54:29.080Z</time>
      </trkpt>
      <trkpt lat="45.43401" lon="6.21378">
        <ele>1914.1783884782</ele>
        <time>2015-04-12T16:54:36.600Z</time>
      </trkpt>
      <trkpt lat="45.43411" lon="6.21392">
        <ele>1913</ele>
        <time>2015-04-12T16:54:48.880Z</time>
      </trkpt>
      <trkpt lat="45.43446" lon="6.21415">
        <ele>1912.26099968</ele>
        <time>2015-04-12T16:54:56.880Z</time>
      </trkpt>
      <trkpt lat="45.43468" lon="6.21444">
        <ele>1904.48799744</ele>
        <time>2015-04-12T16:55:08.880Z</time>
      </trkpt>
      <trkpt lat="45.43481" lon="6.2146">
        <ele>1902.02699776</ele>
        <time>2015-04-12T16:55:20.880Z</time>
      </trkpt>
      <trkpt lat="45.43509" lon="6.21483">
        <ele>1896.42699776</ele>
        <time>2015-04-12T16:55:28.880Z</time>
      </trkpt>
      <trkpt lat="45.4352" lon="6.21496">
        <ele>1892.4449984</ele>
        <time>2015-04-12T16:55:36.600Z</time>
      </trkpt>
      <trkpt lat="45.43543" lon="6.21521">
        <ele>1891</ele>
        <time>2015-04-12T16:55:44.880Z</time>
      </trkpt>
      <trkpt lat="45.43574" lon="6.21555">
        <ele>1890.32199936</ele>
        <time>2015-04-12T16:55:52.880Z</time>
      </trkpt>
      <trkpt lat="45.43598" lon="6.21571">
        <ele>1889.1381376302</ele>
        <time>2015-04-12T16:56:20.880Z</time>
      </trkpt>
      <trkpt lat="45.43609" lon="6.21579">
        <ele>1890.33900032</ele>
        <time>2015-04-12T16:56:32.880Z</time>
      </trkpt>
      <trkpt lat="45.43619" lon="6.21579">
        <ele>1890.72199936</ele>
        <time>2015-04-12T16:56:40.880Z</time>
      </trkpt>
      <trkpt lat="45.4365" lon="6.21592">
        <ele>1889.12199936</ele>
        <time>2015-04-12T16:56:48.880Z</time>
      </trkpt>
      <trkpt lat="45.4366" lon="6.21597">
        <ele>1887.52199936</ele>
        <time>2015-04-12T16:56:56.880Z</time>
      </trkpt>
      <trkpt lat="45.43672" lon="6.21605">
        <ele>1887.53900032</ele>
        <time>2015-04-12T16:57:04.880Z</time>
      </trkpt>
      <trkpt lat="45.4369" lon="6.21618">
        <ele>1887.66099968</ele>
        <time>2015-04-12T16:57:12.880Z</time>
      </trkpt>
      <trkpt lat="45.437" lon="6.21626">
        <ele>1887</ele>
        <time>2015-04-12T16:57:20.880Z</time>
      </trkpt>
      <trkpt lat="45.4371" lon="6.21632">
        <ele>1887.34</ele>
        <time>2015-04-12T16:57:32.890Z</time>
      </trkpt>
      <trkpt lat="45.4372" lon="6.21636">
        <ele>1888.94</ele>
        <time>2015-04-12T16:57:48.890Z</time>
      </trkpt>
      <trkpt lat="45.43739" lon="6.21647">
        <ele>1887.74899712</ele>
        <time>2015-04-12T16:58:00.880Z</time>
      </trkpt>
      <trkpt lat="45.43756" lon="6.21664">
        <ele>1880.54899712</ele>
        <time>2015-04-12T16:58:08.880Z</time>
      </trkpt>
      <trkpt lat="45.4384" lon="6.21687">
        <ele>1869.65399552</ele>
        <time>2015-04-12T16:58:16.880Z</time>
      </trkpt>
      <trkpt lat="45.43874" lon="6.21699">
        <ele>1864.92199936</ele>
        <time>2015-04-12T16:58:24.880Z</time>
      </trkpt>
      <trkpt lat="45.43891" lon="6.2169">
        <ele>1864.33900032</ele>
        <time>2015-04-12T16:58:32.880Z</time>
      </trkpt>
      <trkpt lat="45.43902" lon="6.21693">
        <ele>1865</ele>
        <time>2015-04-12T16:58:40.880Z</time>
      </trkpt>
      <trkpt lat="45.43907" lon="6.21707">
        <ele>1865</ele>
        <time>2015-04-12T16:58:48.880Z</time>
      </trkpt>
      <trkpt lat="45.43914" lon="6.21727">
        <ele>1865.73900032</ele>
        <time>2015-04-12T16:58:56.880Z</time>
      </trkpt>
      <trkpt lat="45.43924" lon="6.21759">
        <ele>1865.46099968</ele>
        <time>2015-04-12T16:59:04.880Z</time>
      </trkpt>
      <trkpt lat="45.43939" lon="6.21787">
        <ele>1865.74</ele>
        <time>2015-04-12T16:59:16.890Z</time>
      </trkpt>
      <trkpt lat="45.43957" lon="6.21815">
        <ele>1865.48899968</ele>
        <time>2015-04-12T16:59:24.600Z</time>
      </trkpt>
      <trkpt lat="45.4398" lon="6.21848">
        <ele>1864.3233530869</ele>
        <time>2015-04-12T16:59:32.880Z</time>
      </trkpt>
      <trkpt lat="45.43991" lon="6.2185">
        <ele>1863</ele>
        <time>2015-04-12T16:59:56.880Z</time>
      </trkpt>
      <trkpt lat="45.44002" lon="6.2186">
        <ele>1866.13900032</ele>
        <time>2015-04-12T17:00:20.880Z</time>
      </trkpt>
      <trkpt lat="45.44006" lon="6.21873">
        <ele>1867</ele>
        <time>2015-04-12T17:00:33.080Z</time>
      </trkpt>
      <trkpt lat="45.44028" lon="6.21878">
        <ele>1867</ele>
        <time>2015-04-12T17:00:44.880Z</time>
      </trkpt>
      <trkpt lat="45.44038" lon="6.21884">
        <ele>1867.5420841953</ele>
        <time>2015-04-12T17:01:04.080Z</time>
      </trkpt>
      <trkpt lat="45.44043" lon="6.21891">
        <ele>1867.44199936</ele>
        <time>2015-04-12T17:01:11.700Z</time>
      </trkpt>
      <trkpt lat="45.44049" lon="6.21894">
        <ele>1869.44900096</ele>
        <time>2015-04-12T17:01:23.980Z</time>
      </trkpt>
      <trkpt lat="45.44054" lon="6.21899">
        <ele>1870.49800192</ele>
        <time>2015-04-12T17:01:31.980Z</time>
      </trkpt>
      <trkpt lat="45.44063" lon="6.21903">
        <ele>1872</ele>
        <time>2015-04-12T17:01:43.990Z</time>
      </trkpt>
      <trkpt lat="45.44073" lon="6.21911">
        <ele>1873.05000064</ele>
        <time>2015-04-12T17:01:59.990Z</time>
      </trkpt>
      <trkpt lat="45.44083" lon="6.21918">
        <ele>1874.45000064</ele>
        <time>2015-04-12T17:02:23.990Z</time>
      </trkpt>
      <trkpt lat="45.44094" lon="6.21928">
        <ele>1876</ele>
        <time>2015-04-12T17:02:43.980Z</time>
      </trkpt>
      <trkpt lat="45.44102" lon="6.21937">
        <ele>1878.09800192</ele>
        <time>2015-04-12T17:02:59.980Z</time>
      </trkpt>
      <trkpt lat="45.44112" lon="6.21939">
        <ele>1880</ele>
        <time>2015-04-12T17:03:11.980Z</time>
      </trkpt>
      <trkpt lat="45.44121" lon="6.2194">
        <ele>1880.04900096</ele>
        <time>2015-04-12T17:03:19.980Z</time>
      </trkpt>
      <trkpt lat="45.44137" lon="6.21951">
        <ele>1880.84900096</ele>
        <time>2015-04-12T17:03:27.980Z</time>
      </trkpt>
      <trkpt lat="45.44158" lon="6.21963">
        <ele>1880.35099904</ele>
        <time>2015-04-12T17:03:35.980Z</time>
      </trkpt>
      <trkpt lat="45.44187" lon="6.21959">
        <ele>1877.7549952</ele>
        <time>2015-04-12T17:03:43.980Z</time>
      </trkpt>
      <trkpt lat="45.44219" lon="6.2196">
        <ele>1873.70199808</ele>
        <time>2015-04-12T17:03:55.980Z</time>
      </trkpt>
      <trkpt lat="45.44235" lon="6.21956">
        <ele>1872</ele>
        <time>2015-04-12T17:04:11.980Z</time>
      </trkpt>
      <trkpt lat="45.44258" lon="6.21956">
        <ele>1871.95099904</ele>
        <time>2015-04-12T17:04:19.980Z</time>
      </trkpt>
      <trkpt lat="45.44264" lon="6.21952">
        <ele>1870.35099904</ele>
        <time>2015-04-12T17:04:35.980Z</time>
      </trkpt>
      <trkpt lat="45.44274" lon="6.21948">
        <ele>1870</ele>
        <time>2015-04-12T17:04:47.980Z</time>
      </trkpt>
      <trkpt lat="45.44283" lon="6.21947">
        <ele>1870.64900096</ele>
        <time>2015-04-12T17:04:55.980Z</time>
      </trkpt>
      <trkpt lat="45.44296" lon="6.21946">
        <ele>1870.16</ele>
        <time>2015-04-12T17:05:07.890Z</time>
      </trkpt>
      <trkpt lat="45.44303" lon="6.2196">
        <ele>1871.06</ele>
        <time>2015-04-12T17:05:20.090Z</time>
      </trkpt>
      <trkpt lat="45.44312" lon="6.21951">
        <ele>1871.86</ele>
        <time>2015-04-12T17:05:28.090Z</time>
      </trkpt>
      <trkpt lat="45.44322" lon="6.21945">
        <ele>1873.56099968</ele>
        <time>2015-04-12T17:05:43.880Z</time>
      </trkpt>
      <trkpt lat="45.44343" lon="6.21924">
        <ele>1872.74</ele>
        <time>2015-04-12T17:05:52.090Z</time>
      </trkpt>
      <trkpt lat="45.44369" lon="6.21918">
        <ele>1871.25900032</ele>
        <time>2015-04-12T17:06:12.080Z</time>
      </trkpt>
      <trkpt lat="45.44387" lon="6.21913">
        <ele>1871.92</ele>
        <time>2015-04-12T17:06:19.890Z</time>
      </trkpt>
      <trkpt lat="45.44412" lon="6.21914">
        <ele>1870.12</ele>
        <time>2015-04-12T17:06:40.090Z</time>
      </trkpt>
      <trkpt lat="45.44426" lon="6.21906">
        <ele>1871.74099968</ele>
        <time>2015-04-12T17:06:52.080Z</time>
      </trkpt>
      <trkpt lat="45.4444" lon="6.21904">
        <ele>1871.45900032</ele>
        <time>2015-04-12T17:07:04.080Z</time>
      </trkpt>
      <trkpt lat="45.44454" lon="6.21886">
        <ele>1872</ele>
        <time>2015-04-12T17:07:11.880Z</time>
      </trkpt>
      <trkpt lat="45.44481" lon="6.21863">
        <ele>1871.88199936</ele>
        <time>2015-04-12T17:07:20.080Z</time>
      </trkpt>
      <trkpt lat="45.44493" lon="6.21862">
        <ele>1870.28199936</ele>
        <time>2015-04-12T17:07:28.080Z</time>
      </trkpt>
      <trkpt lat="45.445" lon="6.21849">
        <ele>1868</ele>
        <time>2015-04-12T17:09:12.080Z</time>
      </trkpt>
      <trkpt lat="45.44514" lon="6.21849">
        <ele>1868.45900032</ele>
        <time>2015-04-12T17:10:04.080Z</time>
      </trkpt>
      <trkpt lat="45.44523" lon="6.21859">
        <ele>1870.31800064</ele>
        <time>2015-04-12T17:10:16.080Z</time>
      </trkpt>
      <trkpt lat="45.44539" lon="6.2185">
        <ele>1872.25900032</ele>
        <time>2015-04-12T17:10:32.080Z</time>
      </trkpt>
      <trkpt lat="45.44551" lon="6.2185">
        <ele>1873.02099968</ele>
        <time>2015-04-12T17:10:39.700Z</time>
      </trkpt>
      <trkpt lat="45.4456" lon="6.21852">
        <ele>1873.83100032</ele>
        <time>2015-04-12T17:10:47.800Z</time>
      </trkpt>
      <trkpt lat="45.44573" lon="6.21843">
        <ele>1876.51800064</ele>
        <time>2015-04-12T17:11:07.080Z</time>
      </trkpt>
      <trkpt lat="45.44585" lon="6.21836">
        <ele>1877.93100032</ele>
        <time>2015-04-12T17:11:18.800Z</time>
      </trkpt>
      <trkpt lat="45.44595" lon="6.21838">
        <ele>1878.75900032</ele>
        <time>2015-04-12T17:11:27.080Z</time>
      </trkpt>
      <trkpt lat="45.44609" lon="6.21843">
        <ele>1880.91800064</ele>
        <time>2015-04-12T17:11:39.080Z</time>
      </trkpt>
      <trkpt lat="45.44618" lon="6.21848">
        <ele>1881.75900032</ele>
        <time>2015-04-12T17:11:47.080Z</time>
      </trkpt>
      <trkpt lat="45.44629" lon="6.21854">
        <ele>1884.71800064</ele>
        <time>2015-04-12T17:12:03.080Z</time>
      </trkpt>
      <trkpt lat="45.44644" lon="6.21857">
        <ele>1887.91800064</ele>
        <time>2015-04-12T17:12:19.080Z</time>
      </trkpt>
      <trkpt lat="45.44651" lon="6.21839">
        <ele>1889.31800064</ele>
        <time>2015-04-12T17:12:31.080Z</time>
      </trkpt>
      <trkpt lat="45.4466" lon="6.2183">
        <ele>1890.91800064</ele>
        <time>2015-04-12T17:12:39.080Z</time>
      </trkpt>
      <trkpt lat="45.4467" lon="6.21822">
        <ele>1892.31800064</ele>
        <time>2015-04-12T17:12:51.080Z</time>
      </trkpt>
      <trkpt lat="45.4468" lon="6.21819">
        <ele>1894.35900032</ele>
        <time>2015-04-12T17:13:03.080Z</time>
      </trkpt>
      <trkpt lat="45.44694" lon="6.21812">
        <ele>1895.15900032</ele>
        <time>2015-04-12T17:13:11.080Z</time>
      </trkpt>
      <trkpt lat="45.44705" lon="6.21813">
        <ele>1895.95900032</ele>
        <time>2015-04-12T17:13:19.080Z</time>
      </trkpt>
      <trkpt lat="45.44717" lon="6.21815">
        <ele>1898.55900032</ele>
        <time>2015-04-12T17:13:35.080Z</time>
      </trkpt>
      <trkpt lat="45.44728" lon="6.21813">
        <ele>1899.35900032</ele>
        <time>2015-04-12T17:13:43.080Z</time>
      </trkpt>
      <trkpt lat="45.44738" lon="6.21808">
        <ele>1900</ele>
        <time>2015-04-12T17:13:59.080Z</time>
      </trkpt>
      <trkpt lat="45.44746" lon="6.21797">
        <ele>1902.27700096</ele>
        <time>2015-04-12T17:14:07.080Z</time>
      </trkpt>
      <trkpt lat="45.44759" lon="6.21793">
        <ele>1903.95900032</ele>
        <time>2015-04-12T17:14:19.080Z</time>
      </trkpt>
      <trkpt lat="45.4477" lon="6.2179">
        <ele>1905</ele>
        <time>2015-04-12T17:14:31.080Z</time>
      </trkpt>
      <trkpt lat="45.44796" lon="6.21775">
        <ele>1904.28199936</ele>
        <time>2015-04-12T17:14:43.080Z</time>
      </trkpt>
      <trkpt lat="45.4482" lon="6.21778">
        <ele>1899.08699776</ele>
        <time>2015-04-12T17:14:55.080Z</time>
      </trkpt>
      <trkpt lat="45.44832" lon="6.21786">
        <ele>1896.71800064</ele>
        <time>2015-04-12T17:15:03.080Z</time>
      </trkpt>
      <trkpt lat="45.44844" lon="6.21773">
        <ele>1898.55900032</ele>
        <time>2015-04-12T17:15:15.080Z</time>
      </trkpt>
      <trkpt lat="45.4485" lon="6.21763">
        <ele>1899.34899968</ele>
        <time>2015-04-12T17:15:22.980Z</time>
      </trkpt>
      <trkpt lat="45.44855" lon="6.21751">
        <ele>1900.31800064</ele>
        <time>2015-04-12T17:15:31.080Z</time>
      </trkpt>
      <trkpt lat="45.44865" lon="6.21742">
        <ele>1901.91800064</ele>
        <time>2015-04-12T17:15:39.080Z</time>
      </trkpt>
      <trkpt lat="45.44871" lon="6.2173">
        <ele>1904.5584413425</ele>
        <time>2015-04-12T17:15:55.080Z</time>
      </trkpt>
      <trkpt lat="45.44885" lon="6.21728">
        <ele>1907.12</ele>
        <time>2015-04-12T17:16:15.090Z</time>
      </trkpt>
      <trkpt lat="45.449" lon="6.21729">
        <ele>1909.51800064</ele>
        <time>2015-04-12T17:16:27.080Z</time>
      </trkpt>
      <trkpt lat="45.44912" lon="6.21729">
        <ele>1911.11800064</ele>
        <time>2015-04-12T17:16:35.080Z</time>
      </trkpt>
      <trkpt lat="45.44925" lon="6.21729">
        <ele>1911.64099968</ele>
        <time>2015-04-12T17:16:43.080Z</time>
      </trkpt>
      <trkpt lat="45.44937" lon="6.21739">
        <ele>1911.56</ele>
        <time>2015-04-12T17:16:55.090Z</time>
      </trkpt>
      <trkpt lat="45.44947" lon="6.21742">
        <ele>1912.72</ele>
        <time>2015-04-12T17:17:03.090Z</time>
      </trkpt>
      <trkpt lat="45.44956" lon="6.21729">
        <ele>1914.96</ele>
        <time>2015-04-12T17:17:19.090Z</time>
      </trkpt>
      <trkpt lat="45.44966" lon="6.21717">
        <ele>1915.76</ele>
        <time>2015-04-12T17:17:27.090Z</time>
      </trkpt>
      <trkpt lat="45.44972" lon="6.21705">
        <ele>1917.91800064</ele>
        <time>2015-04-12T17:17:39.080Z</time>
      </trkpt>
      <trkpt lat="45.44983" lon="6.21692">
        <ele>1920.32</ele>
        <time>2015-04-12T17:17:51.090Z</time>
      </trkpt>
      <trkpt lat="45.44989" lon="6.21678">
        <ele>1921.89799936</ele>
        <time>2015-04-12T17:17:58.980Z</time>
      </trkpt>
      <trkpt lat="45.4499" lon="6.21656">
        <ele>1924</ele>
        <time>2015-04-12T17:18:11.080Z</time>
      </trkpt>
      <trkpt lat="45.45" lon="6.21639">
        <ele>1924</ele>
        <time>2015-04-12T17:18:22.990Z</time>
      </trkpt>
      <trkpt lat="45.45006" lon="6.21625">
        <ele>1924</ele>
        <time>2015-04-12T17:18:30.990Z</time>
      </trkpt>
      <trkpt lat="45.45019" lon="6.21629">
        <ele>1925</ele>
        <time>2015-04-12T17:19:23.080Z</time>
      </trkpt>
      <trkpt lat="45.45041" lon="6.21571">
        <ele>1923.5100032</ele>
        <time>2015-04-12T17:19:30.980Z</time>
      </trkpt>
      <trkpt lat="45.45074" lon="6.21525">
        <ele>1915.5100032</ele>
        <time>2015-04-12T17:19:38.980Z</time>
      </trkpt>
      <trkpt lat="45.45112" lon="6.21526">
        <ele>1908.16899712</ele>
        <time>2015-04-12T17:19:47.080Z</time>
      </trkpt>
      <trkpt lat="45.45163" lon="6.2152">
        <ele>1906</ele>
        <time>2015-04-12T17:19:55.080Z</time>
      </trkpt>
      <trkpt lat="45.45201" lon="6.21516">
        <ele>1901.81200384</ele>
        <time>2015-04-12T17:20:02.980Z</time>
      </trkpt>
      <trkpt lat="45.45224" lon="6.21504">
        <ele>1894</ele>
        <time>2015-04-12T17:20:34.980Z</time>
      </trkpt>
      <trkpt lat="45.45243" lon="6.21509">
        <ele>1895.49799936</ele>
        <time>2015-04-12T17:20:46.980Z</time>
      </trkpt>
      <trkpt lat="45.45273" lon="6.21498">
        <ele>1896</ele>
        <time>2015-04-12T17:21:10.980Z</time>
      </trkpt>
      <trkpt lat="45.45307" lon="6.21487">
        <ele>1896</ele>
        <time>2015-04-12T17:21:18.980Z</time>
      </trkpt>
      <trkpt lat="45.45333" lon="6.21479">
        <ele>1891.10600192</ele>
        <time>2015-04-12T17:21:30.980Z</time>
      </trkpt>
      <trkpt lat="45.45357" lon="6.21466">
        <ele>1886.30600192</ele>
        <time>2015-04-12T17:21:38.980Z</time>
      </trkpt>
      <trkpt lat="45.45371" lon="6.21467">
        <ele>1886</ele>
        <time>2015-04-12T17:21:50.990Z</time>
      </trkpt>
      <trkpt lat="45.45387" lon="6.21457">
        <ele>1886</ele>
        <time>2015-04-12T17:21:58.990Z</time>
      </trkpt>
      <trkpt lat="45.4543" lon="6.21441">
        <ele>1882.2537466497</ele>
        <time>2015-04-12T17:22:06.990Z</time>
      </trkpt>
      <trkpt lat="45.45455" lon="6.21436">
        <ele>1876</ele>
        <time>2015-04-12T17:22:30.990Z</time>
      </trkpt>
      <trkpt lat="45.45464" lon="6.2143">
        <ele>1876.14899968</ele>
        <time>2015-04-12T17:22:50.980Z</time>
      </trkpt>
      <trkpt lat="45.45465" lon="6.21449">
        <ele>1877</ele>
        <time>2015-04-12T17:24:28.700Z</time>
      </trkpt>
      <trkpt lat="45.45475" lon="6.21431">
        <ele>1877.94899968</ele>
        <time>2015-04-12T17:24:48.980Z</time>
      </trkpt>
      <trkpt lat="45.45487" lon="6.21423">
        <ele>1880.54899968</ele>
        <time>2015-04-12T17:25:04.980Z</time>
      </trkpt>
      <trkpt lat="45.45497" lon="6.21424">
        <ele>1881.69799936</ele>
        <time>2015-04-12T17:25:12.980Z</time>
      </trkpt>
      <trkpt lat="45.45509" lon="6.21417">
        <ele>1885.70000128</ele>
        <time>2015-04-12T17:25:32.990Z</time>
      </trkpt>
      <trkpt lat="45.45523" lon="6.2142">
        <ele>1888.93800192</ele>
        <time>2015-04-12T17:25:49.180Z</time>
      </trkpt>
      <trkpt lat="45.45535" lon="6.21424">
        <ele>1891.14899968</ele>
        <time>2015-04-12T17:26:00.980Z</time>
      </trkpt>
      <trkpt lat="45.45545" lon="6.21426">
        <ele>1892.35000064</ele>
        <time>2015-04-12T17:26:12.990Z</time>
      </trkpt>
      <trkpt lat="45.45562" lon="6.21426">
        <ele>1893.30000128</ele>
        <time>2015-04-12T17:26:20.990Z</time>
      </trkpt>
      <trkpt lat="45.45572" lon="6.21434">
        <ele>1895</ele>
        <time>2015-04-12T17:26:36.990Z</time>
      </trkpt>
      <trkpt lat="45.45586" lon="6.21433">
        <ele>1898</ele>
        <time>2015-04-12T17:27:56.980Z</time>
      </trkpt>
      <trkpt lat="45.45598" lon="6.21446">
        <ele>1896.90200064</ele>
        <time>2015-04-12T17:28:04.980Z</time>
      </trkpt>
      <trkpt lat="45.45614" lon="6.21465">
        <ele>1896</ele>
        <time>2015-04-12T17:28:12.980Z</time>
      </trkpt>
      <trkpt lat="45.45631" lon="6.21478">
        <ele>1894.95700224</ele>
        <time>2015-04-12T17:28:20.980Z</time>
      </trkpt>
      <trkpt lat="45.45665" lon="6.21515">
        <ele>1889.35700224</ele>
        <time>2015-04-12T17:28:28.980Z</time>
      </trkpt>
      <trkpt lat="45.4569" lon="6.21537">
        <ele>1887.50200064</ele>
        <time>2015-04-12T17:28:36.980Z</time>
      </trkpt>
      <trkpt lat="45.45705" lon="6.2157">
        <ele>1884.80400128</ele>
        <time>2015-04-12T17:28:44.980Z</time>
      </trkpt>
      <trkpt lat="45.45718" lon="6.21584">
        <ele>1883</ele>
        <time>2015-04-12T17:28:52.980Z</time>
      </trkpt>
      <trkpt lat="45.4574" lon="6.21612">
        <ele>1882.2550016</ele>
        <time>2015-04-12T17:29:00.980Z</time>
      </trkpt>
      <trkpt lat="45.45758" lon="6.21632">
        <ele>1878</ele>
        <time>2015-04-12T17:29:12.980Z</time>
      </trkpt>
      <trkpt lat="45.45807" lon="6.21671">
        <ele>1874.72200704</ele>
        <time>2015-04-12T17:29:20.980Z</time>
      </trkpt>
      <trkpt lat="45.45851" lon="6.21734">
        <ele>1857.12200704</ele>
        <time>2015-04-12T17:29:28.980Z</time>
      </trkpt>
      <trkpt lat="45.45877" lon="6.21758">
        <ele>1852.2550016</ele>
        <time>2015-04-12T17:29:36.980Z</time>
      </trkpt>
      <trkpt lat="45.45909" lon="6.21772">
        <ele>1836.72600832</ele>
        <time>2015-04-12T17:29:44.980Z</time>
      </trkpt>
      <trkpt lat="45.45959" lon="6.21756">
        <ele>1815.57700864</ele>
        <time>2015-04-12T17:29:52.980Z</time>
      </trkpt>
      <trkpt lat="45.45994" lon="6.21711">
        <ele>1796.21200384</ele>
        <time>2015-04-12T17:30:00.980Z</time>
      </trkpt>
      <trkpt lat="45.45993" lon="6.21752">
        <ele>1786.61200384</ele>
        <time>2015-04-12T17:30:08.980Z</time>
      </trkpt>
      <trkpt lat="45.46015" lon="6.21812">
        <ele>1776.26300416</ele>
        <time>2015-04-12T17:30:16.980Z</time>
      </trkpt>
      <trkpt lat="45.46058" lon="6.21803">
        <ele>1758.72600832</ele>
        <time>2015-04-12T17:30:24.980Z</time>
      </trkpt>
      <trkpt lat="45.46106" lon="6.21809">
        <ele>1726.77700864</ele>
        <time>2015-04-12T17:30:36.980Z</time>
      </trkpt>
      <trkpt lat="45.46181" lon="6.21802">
        <ele>1707.92200704</ele>
        <time>2015-04-12T17:30:44.980Z</time>
      </trkpt>
      <trkpt lat="45.46233" lon="6.21823">
        <ele>1694.5100032</ele>
        <time>2015-04-12T17:30:52.980Z</time>
      </trkpt>
      <trkpt lat="45.46266" lon="6.21851">
        <ele>1685.46700544</ele>
        <time>2015-04-12T17:31:00.980Z</time>
      </trkpt>
      <trkpt lat="45.46315" lon="6.21842">
        <ele>1671.86700544</ele>
        <time>2015-04-12T17:31:08.980Z</time>
      </trkpt>
      <trkpt lat="45.4635" lon="6.21815">
        <ele>1661.26300416</ele>
        <time>2015-04-12T17:31:16.980Z</time>
      </trkpt>
      <trkpt lat="45.46335" lon="6.21818">
        <ele>1657.45100032</ele>
        <time>2015-04-12T17:31:24.980Z</time>
      </trkpt>
      <trkpt lat="45.46335" lon="6.21835">
        <ele>1657</ele>
        <time>2015-04-12T17:31:36.990Z</time>
      </trkpt>
      <trkpt lat="45.46346" lon="6.21832">
        <ele>1655.75800064</ele>
        <time>2015-04-12T17:31:55.700Z</time>
      </trkpt>
      <trkpt lat="45.46375" lon="6.21851">
        <ele>1651.85699328</ele>
        <time>2015-04-12T17:32:03.980Z</time>
      </trkpt>
      <trkpt lat="45.46405" lon="6.2186">
        <ele>1646.7549952</ele>
        <time>2015-04-12T17:32:11.980Z</time>
      </trkpt>
      <trkpt lat="45.46422" lon="6.21879">
        <ele>1643</ele>
        <time>2015-04-12T17:32:27.980Z</time>
      </trkpt>
      <trkpt lat="45.46435" lon="6.21887">
        <ele>1643</ele>
        <time>2015-04-12T17:32:43.980Z</time>
      </trkpt>
      <trkpt lat="45.4645" lon="6.21895">
        <ele>1643</ele>
        <time>2015-04-12T17:33:01.420Z</time>
      </trkpt>
      <trkpt lat="45.46473" lon="6.21911">
        <ele>1642.95800064</ele>
        <time>2015-04-12T17:33:09.700Z</time>
      </trkpt>
      <trkpt lat="45.46521" lon="6.21893">
        <ele>1641.33799936</ele>
        <time>2015-04-12T17:33:17.800Z</time>
      </trkpt>
      <trkpt lat="45.46571" lon="6.21891">
        <ele>1626.25697792</ele>
        <time>2015-04-12T17:33:25.900Z</time>
      </trkpt>
      <trkpt lat="45.46588" lon="6.21898">
        <ele>1617.31800064</ele>
        <time>2015-04-12T17:33:32.900Z</time>
      </trkpt>
      <trkpt lat="45.46614" lon="6.2189">
        <ele>1615.61807475</ele>
        <time>2015-04-12T17:33:40.800Z</time>
      </trkpt>
      <trkpt lat="45.46619" lon="6.2187">
        <ele>1613.2565598466</ele>
        <time>2015-04-12T17:33:48.900Z</time>
      </trkpt>
      <trkpt lat="45.46595" lon="6.2187">
        <ele>1610.2638015452</ele>
        <time>2015-04-12T17:33:58.700Z</time>
      </trkpt>
      <trkpt lat="45.46583" lon="6.21857">
        <ele>1606.27799936</ele>
        <time>2015-04-12T17:34:36.710Z</time>
      </trkpt>
      <trkpt lat="45.46591" lon="6.21833">
        <ele>1603.26399488</ele>
        <time>2015-04-12T17:34:42.910Z</time>
      </trkpt>
      <trkpt lat="45.46599" lon="6.21815">
        <ele>1596.51599872</ele>
        <time>2015-04-12T17:34:56.910Z</time>
      </trkpt>
      <trkpt lat="45.46605" lon="6.21803">
        <ele>1595.47799936</ele>
        <time>2015-04-12T17:35:04.710Z</time>
      </trkpt>
      <trkpt lat="45.46614" lon="6.21794">
        <ele>1594.616</ele>
        <time>2015-04-12T17:35:09.810Z</time>
      </trkpt>
      <trkpt lat="45.4663" lon="6.21768">
        <ele>1576.896</ele>
        <time>2015-04-12T17:35:31.810Z</time>
      </trkpt>
      <trkpt lat="45.46646" lon="6.21736">
        <ele>1559.60398848</ele>
        <time>2015-04-12T17:35:39.710Z</time>
      </trkpt>
      <trkpt lat="45.46659" lon="6.21702">
        <ele>1550.24398848</ele>
        <time>2015-04-12T17:35:44.910Z</time>
      </trkpt>
      <trkpt lat="45.46669" lon="6.21684">
        <ele>1540.284</ele>
        <time>2015-04-12T17:35:50.810Z</time>
      </trkpt>
      <trkpt lat="45.4673" lon="6.21705">
        <ele>1528.43199744</ele>
        <time>2015-04-12T17:36:00.910Z</time>
      </trkpt>
      <trkpt lat="45.46765" lon="6.21722">
        <ele>1525.63199744</ele>
        <time>2015-04-12T17:36:07.910Z</time>
      </trkpt>
      <trkpt lat="45.46802" lon="6.21746">
        <ele>1522.51199744</ele>
        <time>2015-04-12T17:36:15.710Z</time>
      </trkpt>
      <trkpt lat="45.46892" lon="6.2178">
        <ele>1510</ele>
        <time>2015-04-12T17:36:42.180Z</time>
      </trkpt>
      <trkpt lat="45.46917" lon="6.21769">
        <ele>1509.4382630453</ele>
        <time>2015-04-12T17:36:50.190Z</time>
      </trkpt>
      <trkpt lat="45.46933" lon="6.2176">
        <ele>1493.6499968</ele>
        <time>2015-04-12T17:37:06.190Z</time>
      </trkpt>
      <trkpt lat="45.46944" lon="6.2176">
        <ele>1491.13100032</ele>
        <time>2015-04-12T17:37:18.180Z</time>
      </trkpt>
      <trkpt lat="45.46948" lon="6.21751">
        <ele>1488.99300096</ele>
        <time>2015-04-12T17:37:26.180Z</time>
      </trkpt>
      <trkpt lat="45.46958" lon="6.21745">
        <ele>1484.43199232</ele>
        <time>2015-04-12T17:38:32.700Z</time>
      </trkpt>
      <trkpt lat="45.46972" lon="6.21736">
        <ele>1477.45300224</ele>
        <time>2015-04-12T17:38:41.700Z</time>
      </trkpt>
      <trkpt lat="45.46987" lon="6.21736">
        <ele>1471.96899968</ele>
        <time>2015-04-12T17:38:49.800Z</time>
      </trkpt>
      <trkpt lat="45.46997" lon="6.21733">
        <ele>1470.25900032</ele>
        <time>2015-04-12T17:39:06.900Z</time>
      </trkpt>
      <trkpt lat="45.47005" lon="6.21717">
        <ele>1461.75199744</ele>
        <time>2015-04-12T17:39:29.800Z</time>
      </trkpt>
      <trkpt lat="45.47026" lon="6.2171">
        <ele>1446.87400192</ele>
        <time>2015-04-12T17:39:49.700Z</time>
      </trkpt>
      <trkpt lat="45.47041" lon="6.21702">
        <ele>1440.67899904</ele>
        <time>2015-04-12T17:40:02.700Z</time>
      </trkpt>
      <trkpt lat="45.47052" lon="6.21698">
        <ele>1439.81399808</ele>
        <time>2015-04-12T17:40:09.800Z</time>
      </trkpt>
      <trkpt lat="45.47054" lon="6.21678">
        <ele>1426.00399616</ele>
        <time>2015-04-12T17:40:41.980Z</time>
      </trkpt>
      <trkpt lat="45.47057" lon="6.21663">
        <ele>1422.90199808</ele>
        <time>2015-04-12T17:40:49.980Z</time>
      </trkpt>
      <trkpt lat="45.47071" lon="6.21654">
        <ele>1421.30199808</ele>
        <time>2015-04-12T17:40:57.980Z</time>
      </trkpt>
      <trkpt lat="45.47068" lon="6.21637">
        <ele>1421.64900096</ele>
        <time>2015-04-12T17:41:05.980Z</time>
      </trkpt>
      <trkpt lat="45.47079" lon="6.21618">
        <ele>1420.55800064</ele>
        <time>2015-04-12T17:41:21.700Z</time>
      </trkpt>
      <trkpt lat="45.47091" lon="6.216">
        <ele>1418.93100032</ele>
        <time>2015-04-12T17:41:30.180Z</time>
      </trkpt>
      <trkpt lat="45.47104" lon="6.21594">
        <ele>1418.13100032</ele>
        <time>2015-04-12T17:41:38.180Z</time>
      </trkpt>
      <trkpt lat="45.47115" lon="6.21586">
        <ele>1416.10200064</ele>
        <time>2015-04-12T17:41:48.980Z</time>
      </trkpt>
      <trkpt lat="45.4713" lon="6.21592">
        <ele>1413.85100032</ele>
        <time>2015-04-12T17:42:00.980Z</time>
      </trkpt>
      <trkpt lat="45.47142" lon="6.21586">
        <ele>1413.05100032</ele>
        <time>2015-04-12T17:42:08.980Z</time>
      </trkpt>
      <trkpt lat="45.47131" lon="6.21578">
        <ele>1406.71599616</ele>
        <time>2015-04-12T17:42:32.700Z</time>
      </trkpt>
      <trkpt lat="45.47125" lon="6.21564">
        <ele>1399.8950016</ele>
        <time>2015-04-12T17:42:49.700Z</time>
      </trkpt>
      <trkpt lat="45.47122" lon="6.21547">
        <ele>1390.2997064059</ele>
        <time>2015-04-12T17:43:08.900Z</time>
      </trkpt>
      <trkpt lat="45.47125" lon="6.21531">
        <ele>1384.944</ele>
        <time>2015-04-12T17:43:20.810Z</time>
      </trkpt>
      <trkpt lat="45.47127" lon="6.21515">
        <ele>1376.904</ele>
        <time>2015-04-12T17:43:39.810Z</time>
      </trkpt>
      <trkpt lat="45.47133" lon="6.21495">
        <ele>1374</ele>
        <time>2015-04-12T17:43:53.910Z</time>
      </trkpt>
      <trkpt lat="45.47123" lon="6.21493">
        <ele>1366.60199424</ele>
        <time>2015-04-12T17:44:07.710Z</time>
      </trkpt>
      <trkpt lat="45.4712" lon="6.21476">
        <ele>1361.55599872</ele>
        <time>2015-04-12T17:44:26.710Z</time>
      </trkpt>
      <trkpt lat="45.47132" lon="6.2146">
        <ele>1356.208</ele>
        <time>2015-04-12T17:44:40.810Z</time>
      </trkpt>
      <trkpt lat="45.47135" lon="6.2144">
        <ele>1350.072</ele>
        <time>2015-04-12T17:44:51.810Z</time>
      </trkpt>
      <trkpt lat="45.47139" lon="6.21417">
        <ele>1344.61999872</ele>
        <time>2015-04-12T17:45:05.440Z</time>
      </trkpt>
      <trkpt lat="45.47149" lon="6.21401">
        <ele>1340.7899968</ele>
        <time>2015-04-12T17:45:13.910Z</time>
      </trkpt>
      <trkpt lat="45.47161" lon="6.21411">
        <ele>1335.03199744</ele>
        <time>2015-04-12T17:45:26.910Z</time>
      </trkpt>
      <trkpt lat="45.47176" lon="6.21411">
        <ele>1331.03199744</ele>
        <time>2015-04-12T17:45:36.910Z</time>
      </trkpt>
      <trkpt lat="45.47187" lon="6.21415">
        <ele>1326.23199744</ele>
        <time>2015-04-12T17:45:48.910Z</time>
      </trkpt>
      <trkpt lat="45.47201" lon="6.21415">
        <ele>1319.98599424</ele>
        <time>2015-04-12T17:46:01.180Z</time>
      </trkpt>
      <trkpt lat="45.47211" lon="6.21409">
        <ele>1314.26199808</ele>
        <time>2015-04-12T17:46:13.180Z</time>
      </trkpt>
      <trkpt lat="45.4722" lon="6.214">
        <ele>1312.1549952</ele>
        <time>2015-04-12T17:46:21.180Z</time>
      </trkpt>
      <trkpt lat="45.47231" lon="6.21389">
        <ele>1305.78599424</ele>
        <time>2015-04-12T17:46:33.180Z</time>
      </trkpt>
      <trkpt lat="45.4724" lon="6.2138">
        <ele>1300.37399808</ele>
        <time>2015-04-12T17:46:44.910Z</time>
      </trkpt>
      <trkpt lat="45.47255" lon="6.21367">
        <ele>1293.06399488</ele>
        <time>2015-04-12T17:46:56.910Z</time>
      </trkpt>
      <trkpt lat="45.47266" lon="6.21367">
        <ele>1286.2947066105</ele>
        <time>2015-04-12T17:47:08.910Z</time>
      </trkpt>
      <trkpt lat="45.47279" lon="6.21363">
        <ele>1282.93700096</ele>
        <time>2015-04-12T17:47:19.700Z</time>
      </trkpt>
      <trkpt lat="45.4729" lon="6.21357">
        <ele>1277.83600128</ele>
        <time>2015-04-12T17:47:34.900Z</time>
      </trkpt>
      <trkpt lat="45.47301" lon="6.21361">
        <ele>1275.03399808</ele>
        <time>2015-04-12T17:47:42.710Z</time>
      </trkpt>
      <trkpt lat="45.47314" lon="6.21347">
        <ele>1272.34999936</ele>
        <time>2015-04-12T17:47:55.990Z</time>
      </trkpt>
      <trkpt lat="45.47323" lon="6.21359">
        <ele>1269.51199744</ele>
        <time>2015-04-12T17:48:05.710Z</time>
      </trkpt>
      <trkpt lat="45.47338" lon="6.21354">
        <ele>1262.8899968</ele>
        <time>2015-04-12T17:48:27.710Z</time>
      </trkpt>
      <trkpt lat="45.47348" lon="6.21349">
        <ele>1259.40399616</ele>
        <time>2015-04-12T17:48:35.980Z</time>
      </trkpt>
      <trkpt lat="45.47358" lon="6.21334">
        <ele>1255.6550016</ele>
        <time>2015-04-12T17:48:44.180Z</time>
      </trkpt>
      <trkpt lat="45.47365" lon="6.21321">
        <ele>1252.25299712</ele>
        <time>2015-04-12T17:48:51.980Z</time>
      </trkpt>
      <trkpt lat="45.47372" lon="6.2131">
        <ele>1247.63199744</ele>
        <time>2015-04-12T17:49:32.910Z</time>
      </trkpt>
      <trkpt lat="45.47382" lon="6.21301">
        <ele>1242.1695874186</ele>
        <time>2015-04-12T17:50:00.910Z</time>
      </trkpt>
      <trkpt lat="45.47381" lon="6.21286">
        <ele>1237.4912277638</ele>
        <time>2015-04-12T17:50:08.910Z</time>
      </trkpt>
      <trkpt lat="45.47378" lon="6.21308">
        <ele>1237.16900096</ele>
        <time>2015-04-12T17:51:01.180Z</time>
      </trkpt>
      <trkpt lat="45.4738" lon="6.21325">
        <ele>1241.8450048</ele>
        <time>2015-04-12T17:51:17.180Z</time>
      </trkpt>
      <trkpt lat="45.47375" lon="6.21338">
        <ele>1244.53800192</ele>
        <time>2015-04-12T17:51:37.180Z</time>
      </trkpt>
      <trkpt lat="45.47375" lon="6.21356">
        <ele>1251.03100032</ele>
        <time>2015-04-12T17:51:59.800Z</time>
      </trkpt>
      <trkpt lat="45.47381" lon="6.21368">
        <ele>1255.2450048</ele>
        <time>2015-04-12T17:52:15.980Z</time>
      </trkpt>
      <trkpt lat="45.47382" lon="6.21384">
        <ele>1257.87000064</ele>
        <time>2015-04-12T17:52:28.190Z</time>
      </trkpt>
      <trkpt lat="45.47388" lon="6.21397">
        <ele>1261.71800064</ele>
        <time>2015-04-12T17:52:48.080Z</time>
      </trkpt>
      <trkpt lat="45.47392" lon="6.21411">
        <ele>1264.23600128</ele>
        <time>2015-04-12T17:53:00.080Z</time>
      </trkpt>
      <trkpt lat="45.47399" lon="6.21425">
        <ele>1269.0588825173</ele>
        <time>2015-04-12T17:53:20.080Z</time>
      </trkpt>
      <trkpt lat="45.47402" lon="6.21438">
        <ele>1270.5150297491</ele>
        <time>2015-04-12T17:53:32.080Z</time>
      </trkpt>
      <trkpt lat="45.47404" lon="6.21455">
        <ele>1273.80000256</ele>
        <time>2015-04-12T17:53:43.990Z</time>
      </trkpt>
      <trkpt lat="45.47414" lon="6.21466">
        <ele>1276.6693306668</ele>
        <time>2015-04-12T17:53:56.190Z</time>
      </trkpt>
      <trkpt lat="45.47414" lon="6.21484">
        <ele>1281.49800192</ele>
        <time>2015-04-12T17:54:11.980Z</time>
      </trkpt>
      <trkpt lat="45.47426" lon="6.21499">
        <ele>1283.46899968</ele>
        <time>2015-04-12T17:54:24.180Z</time>
      </trkpt>
      <trkpt lat="45.47432" lon="6.21512">
        <ele>1284.25000064</ele>
        <time>2015-04-12T17:54:31.990Z</time>
      </trkpt>
      <trkpt lat="45.47444" lon="6.21521">
        <ele>1285</ele>
        <time>2015-04-12T17:54:39.990Z</time>
      </trkpt>
      <trkpt lat="45.47449" lon="6.21544">
        <ele>1285.54000128</ele>
        <time>2015-04-12T17:54:52.190Z</time>
      </trkpt>
      <trkpt lat="45.47452" lon="6.21559">
        <ele>1287.07000064</ele>
        <time>2015-04-12T17:55:00.190Z</time>
      </trkpt>
      <trkpt lat="45.4746" lon="6.21571">
        <ele>1287.87000064</ele>
        <time>2015-04-12T17:55:08.190Z</time>
      </trkpt>
      <trkpt lat="45.47466" lon="6.21584">
        <ele>1286.70199808</ele>
        <time>2015-04-12T17:55:15.980Z</time>
      </trkpt>
      <trkpt lat="45.47476" lon="6.21599">
        <ele>1285.33100032</ele>
        <time>2015-04-12T17:55:26.180Z</time>
      </trkpt>
      <trkpt lat="45.47495" lon="6.21616">
        <ele>1284.25900032</ele>
        <time>2015-04-12T17:55:36.900Z</time>
      </trkpt>
      <trkpt lat="45.4751" lon="6.21627">
        <ele>1282.74899968</ele>
        <time>2015-04-12T17:55:52.000Z</time>
      </trkpt>
      <trkpt lat="45.47522" lon="6.21642">
        <ele>1281.85900032</ele>
        <time>2015-04-12T17:56:00.900Z</time>
      </trkpt>
      <trkpt lat="45.47536" lon="6.21663">
        <ele>1281</ele>
        <time>2015-04-12T17:56:11.900Z</time>
      </trkpt>
      <trkpt lat="45.47548" lon="6.21681">
        <ele>1280.56899968</ele>
        <time>2015-04-12T17:56:23.800Z</time>
      </trkpt>
      <trkpt lat="45.47556" lon="6.21695">
        <ele>1280</ele>
        <time>2015-04-12T17:56:32.090Z</time>
      </trkpt>
      <trkpt lat="45.47565" lon="6.21705">
        <ele>1280</ele>
        <time>2015-04-12T17:56:40.090Z</time>
      </trkpt>
      <trkpt lat="45.47571" lon="6.21721">
        <ele>1280</ele>
        <time>2015-04-12T17:56:52.080Z</time>
      </trkpt>
      <trkpt lat="45.47577" lon="6.21733">
        <ele>1279.95099904</ele>
        <time>2015-04-12T17:56:59.980Z</time>
      </trkpt>
      <trkpt lat="45.47583" lon="6.21749">
        <ele>1279.13100032</ele>
        <time>2015-04-12T17:57:08.180Z</time>
      </trkpt>
      <trkpt lat="45.47588" lon="6.21765">
        <ele>1278.92999936</ele>
        <time>2015-04-12T17:57:20.190Z</time>
      </trkpt>
      <trkpt lat="45.47592" lon="6.2178">
        <ele>1277.73100032</ele>
        <time>2015-04-12T17:57:32.180Z</time>
      </trkpt>
      <trkpt lat="45.47594" lon="6.21801">
        <ele>1277</ele>
        <time>2015-04-12T17:57:44.190Z</time>
      </trkpt>
      <trkpt lat="45.476" lon="6.21818">
        <ele>1277</ele>
        <time>2015-04-12T17:57:50.800Z</time>
      </trkpt>
      <trkpt lat="45.4759" lon="6.21839">
        <ele>1277</ele>
        <time>2015-04-12T17:58:04.800Z</time>
      </trkpt>
      <trkpt lat="45.47599" lon="6.21847">
        <ele>1278.83099904</ele>
        <time>2015-04-12T17:59:11.180Z</time>
      </trkpt>
      <trkpt lat="45.476" lon="6.21877">
        <ele>1275.5899904</ele>
        <time>2015-04-12T17:59:21.900Z</time>
      </trkpt>
      <trkpt lat="45.47586" lon="6.2192">
        <ele>1265.46799616</ele>
        <time>2015-04-12T17:59:33.710Z</time>
      </trkpt>
      <trkpt lat="45.47594" lon="6.21952">
        <ele>1262.11799808</ele>
        <time>2015-04-12T17:59:53.900Z</time>
      </trkpt>
      <trkpt lat="45.47596" lon="6.21969">
        <ele>1259.23599616</ele>
        <time>2015-04-12T18:00:03.900Z</time>
      </trkpt>
      <trkpt lat="45.47607" lon="6.21971">
        <ele>1255.93100032</ele>
        <time>2015-04-12T18:00:20.180Z</time>
      </trkpt>
      <trkpt lat="45.47615" lon="6.21983">
        <ele>1255.26899968</ele>
        <time>2015-04-12T18:00:32.180Z</time>
      </trkpt>
      <trkpt lat="45.47623" lon="6.21995">
        <ele>1256.06899968</ele>
        <time>2015-04-12T18:00:40.180Z</time>
      </trkpt>
      <trkpt lat="45.47629" lon="6.2201">
        <ele>1257.26899968</ele>
        <time>2015-04-12T18:00:52.180Z</time>
      </trkpt>
      <trkpt lat="45.47636" lon="6.22028">
        <ele>1258.46899968</ele>
        <time>2015-04-12T18:01:04.180Z</time>
      </trkpt>
      <trkpt lat="45.47645" lon="6.22042">
        <ele>1259</ele>
        <time>2015-04-12T18:01:16.180Z</time>
      </trkpt>
      <trkpt lat="45.4765" lon="6.22061">
        <ele>1259</ele>
        <time>2015-04-12T18:01:28.180Z</time>
      </trkpt>
      <trkpt lat="45.47654" lon="6.22076">
        <ele>1261</ele>
        <time>2015-04-12T18:01:44.180Z</time>
      </trkpt>
      <trkpt lat="45.47662" lon="6.22091">
        <ele>1262.33799936</ele>
        <time>2015-04-12T18:01:56.180Z</time>
      </trkpt>
      <trkpt lat="45.47663" lon="6.22107">
        <ele>1263.86899968</ele>
        <time>2015-04-12T18:02:08.180Z</time>
      </trkpt>
      <trkpt lat="45.47665" lon="6.22123">
        <ele>1266.13799936</ele>
        <time>2015-04-12T18:02:20.180Z</time>
      </trkpt>
      <trkpt lat="45.47661" lon="6.22137">
        <ele>1268.49800192</ele>
        <time>2015-04-12T18:02:31.980Z</time>
      </trkpt>
      <trkpt lat="45.47661" lon="6.22154">
        <ele>1270.93799936</ele>
        <time>2015-04-12T18:02:44.180Z</time>
      </trkpt>
      <trkpt lat="45.47669" lon="6.22166">
        <ele>1273.54000128</ele>
        <time>2015-04-12T18:02:57.190Z</time>
      </trkpt>
      <trkpt lat="45.47661" lon="6.22183">
        <ele>1274.7550016</ele>
        <time>2015-04-12T18:03:11.000Z</time>
      </trkpt>
      <trkpt lat="45.47661" lon="6.22199">
        <ele>1278.7049984</ele>
        <time>2015-04-12T18:03:18.900Z</time>
      </trkpt>
      <trkpt lat="45.47666" lon="6.22215">
        <ele>1281.17900032</ele>
        <time>2015-04-12T18:03:31.280Z</time>
      </trkpt>
      <trkpt lat="45.47667" lon="6.22231">
        <ele>1282.34899968</ele>
        <time>2015-04-12T18:03:42.980Z</time>
      </trkpt>
      <trkpt lat="45.47669" lon="6.2225">
        <ele>1283</ele>
        <time>2015-04-12T18:03:54.810Z</time>
      </trkpt>
      <trkpt lat="45.47671" lon="6.22264">
        <ele>1283</ele>
        <time>2015-04-12T18:04:03.080Z</time>
      </trkpt>
      <trkpt lat="45.47682" lon="6.22276">
        <ele>1283</ele>
        <time>2015-04-12T18:04:19.080Z</time>
      </trkpt>
      <trkpt lat="45.47691" lon="6.22289">
        <ele>1283.75900032</ele>
        <time>2015-04-12T18:04:27.080Z</time>
      </trkpt>
      <trkpt lat="45.47701" lon="6.22303">
        <ele>1284.55900032</ele>
        <time>2015-04-12T18:04:35.080Z</time>
      </trkpt>
      <trkpt lat="45.47709" lon="6.22317">
        <ele>1285</ele>
        <time>2015-04-12T18:04:43.080Z</time>
      </trkpt>
      <trkpt lat="45.47718" lon="6.2233">
        <ele>1287.27600384</ele>
        <time>2015-04-12T18:04:55.180Z</time>
      </trkpt>
      <trkpt lat="45.47721" lon="6.22351">
        <ele>1288.34099968</ele>
        <time>2015-04-12T18:05:06.080Z</time>
      </trkpt>
      <trkpt lat="45.47734" lon="6.22362">
        <ele>1288.84300032</ele>
        <time>2015-04-12T18:05:17.920Z</time>
      </trkpt>
      <trkpt lat="45.47739" lon="6.22375">
        <ele>1289.13799936</ele>
        <time>2015-04-12T18:05:30.180Z</time>
      </trkpt>
      <trkpt lat="45.47749" lon="6.22387">
        <ele>1291.66899968</ele>
        <time>2015-04-12T18:05:46.180Z</time>
      </trkpt>
      <trkpt lat="45.47753" lon="6.22404">
        <ele>1292.87000064</ele>
        <time>2015-04-12T18:05:58.190Z</time>
      </trkpt>
      <trkpt lat="45.47757" lon="6.2242">
        <ele>1293.06899968</ele>
        <time>2015-04-12T18:06:10.180Z</time>
      </trkpt>
      <trkpt lat="45.47766" lon="6.22435">
        <ele>1294.66899968</ele>
        <time>2015-04-12T18:06:26.180Z</time>
      </trkpt>
      <trkpt lat="45.47775" lon="6.22448">
        <ele>1296.74000128</ele>
        <time>2015-04-12T18:06:38.190Z</time>
      </trkpt>
      <trkpt lat="45.47785" lon="6.22461">
        <ele>1297</ele>
        <time>2015-04-12T18:06:50.180Z</time>
      </trkpt>
      <trkpt lat="45.47793" lon="6.22476">
        <ele>1298.33799936</ele>
        <time>2015-04-12T18:07:06.180Z</time>
      </trkpt>
      <trkpt lat="45.47803" lon="6.22485">
        <ele>1299</ele>
        <time>2015-04-12T18:07:18.190Z</time>
      </trkpt>
      <trkpt lat="45.47813" lon="6.22496">
        <ele>1300.27000064</ele>
        <time>2015-04-12T18:07:42.190Z</time>
      </trkpt>
      <trkpt lat="45.47823" lon="6.22504">
        <ele>1301.46899968</ele>
        <time>2015-04-12T18:07:54.180Z</time>
      </trkpt>
      <trkpt lat="45.47833" lon="6.2251">
        <ele>1302.66899968</ele>
        <time>2015-04-12T18:08:06.180Z</time>
      </trkpt>
      <trkpt lat="45.47843" lon="6.22512">
        <ele>1303</ele>
        <time>2015-04-12T18:08:14.180Z</time>
      </trkpt>
      <trkpt lat="45.47868" lon="6.22513">
        <ele>1300</ele>
        <time>2015-04-12T18:08:30.180Z</time>
      </trkpt>
      <trkpt lat="45.4788" lon="6.22511">
        <ele>1299.46200064</ele>
        <time>2015-04-12T18:08:42.180Z</time>
      </trkpt>
      <trkpt lat="45.47892" lon="6.22511">
        <ele>1297.53100032</ele>
        <time>2015-04-12T18:08:54.180Z</time>
      </trkpt>
      <trkpt lat="45.47902" lon="6.22512">
        <ele>1297</ele>
        <time>2015-04-12T18:09:02.180Z</time>
      </trkpt>
      <trkpt lat="45.47914" lon="6.2252">
        <ele>1296.85799936</ele>
        <time>2015-04-12T18:09:10.910Z</time>
      </trkpt>
      <trkpt lat="45.47926" lon="6.22525">
        <ele>1295.75799936</ele>
        <time>2015-04-12T18:09:21.910Z</time>
      </trkpt>
      <trkpt lat="45.47939" lon="6.22542">
        <ele>1294.65799936</ele>
        <time>2015-04-12T18:09:32.910Z</time>
      </trkpt>
      <trkpt lat="45.47949" lon="6.22546">
        <ele>1293.11599872</ele>
        <time>2015-04-12T18:09:43.910Z</time>
      </trkpt>
      <trkpt lat="45.47963" lon="6.22534">
        <ele>1291.45999872</ele>
        <time>2015-04-12T18:09:52.190Z</time>
      </trkpt>
      <trkpt lat="45.47977" lon="6.22518">
        <ele>1289.7162827097</ele>
        <time>2015-04-12T18:10:00.910Z</time>
      </trkpt>
      <trkpt lat="45.47989" lon="6.22516">
        <ele>1288</ele>
        <time>2015-04-12T18:10:13.020Z</time>
      </trkpt>
      <trkpt lat="45.47998" lon="6.22528">
        <ele>1287.42099968</ele>
        <time>2015-04-12T18:10:25.280Z</time>
      </trkpt>
      <trkpt lat="45.48011" lon="6.22529">
        <ele>1285.48399872</ele>
        <time>2015-04-12T18:10:33.280Z</time>
      </trkpt>
      <trkpt lat="45.48027" lon="6.2253">
        <ele>1282.41900032</ele>
        <time>2015-04-12T18:10:45.300Z</time>
      </trkpt>
      <trkpt lat="45.48039" lon="6.22537">
        <ele>1281.25799936</ele>
        <time>2015-04-12T18:10:56.910Z</time>
      </trkpt>
      <trkpt lat="45.48059" lon="6.22538">
        <ele>1280.25799936</ele>
        <time>2015-04-12T18:11:06.910Z</time>
      </trkpt>
      <trkpt lat="45.48072" lon="6.22538">
        <ele>1279.45799936</ele>
        <time>2015-04-12T18:11:14.910Z</time>
      </trkpt>
      <trkpt lat="45.48084" lon="6.22542">
        <ele>1278.65799936</ele>
        <time>2015-04-12T18:11:22.910Z</time>
      </trkpt>
      <trkpt lat="45.48089" lon="6.22558">
        <ele>1277.82999936</ele>
        <time>2015-04-12T18:11:31.190Z</time>
      </trkpt>
      <trkpt lat="45.48099" lon="6.22564">
        <ele>1277.04099968</ele>
        <time>2015-04-12T18:11:39.080Z</time>
      </trkpt>
      <trkpt lat="45.48107" lon="6.22572">
        <ele>1276.22999936</ele>
        <time>2015-04-12T18:11:47.190Z</time>
      </trkpt>
      <trkpt lat="45.48119" lon="6.22579">
        <ele>1275.06200064</ele>
        <time>2015-04-12T18:11:54.180Z</time>
      </trkpt>
      <trkpt lat="45.48124" lon="6.22597">
        <ele>1273.0972762646</ele>
        <time>2015-04-12T18:12:01.810Z</time>
      </trkpt>
      <trkpt lat="45.48131" lon="6.2261">
        <ele>1270.3346278599</ele>
        <time>2015-04-12T18:12:08.910Z</time>
      </trkpt>
      <trkpt lat="45.48138" lon="6.22622">
        <ele>1268.5308628807</ele>
        <time>2015-04-12T18:12:16.910Z</time>
      </trkpt>
      <trkpt lat="45.48149" lon="6.22634">
        <ele>1268</ele>
        <time>2015-04-12T18:12:25.180Z</time>
      </trkpt>
      <trkpt lat="45.48164" lon="6.22657">
        <ele>1267</ele>
        <time>2015-04-12T18:12:39.910Z</time>
      </trkpt>
      <trkpt lat="45.48168" lon="6.22697">
        <ele>1267</ele>
        <time>2015-04-12T18:12:51.910Z</time>
      </trkpt>
      <trkpt lat="45.48171" lon="6.22729">
        <ele>1266.05999872</ele>
        <time>2015-04-12T18:13:04.190Z</time>
      </trkpt>
      <trkpt lat="45.48182" lon="6.22736">
        <ele>1264.07000064</ele>
        <time>2015-04-12T18:13:20.190Z</time>
      </trkpt>
      <trkpt lat="45.48193" lon="6.22746">
        <ele>1264.73100032</ele>
        <time>2015-04-12T18:13:32.180Z</time>
      </trkpt>
      <trkpt lat="45.48204" lon="6.22757">
        <ele>1264</ele>
        <time>2015-04-12T18:13:40.390Z</time>
      </trkpt>
      <trkpt lat="45.4821" lon="6.22768">
        <ele>1264</ele>
        <time>2015-04-12T18:13:48.180Z</time>
      </trkpt>
      <trkpt lat="45.48216" lon="6.22783">
        <ele>1261.88199936</ele>
        <time>2015-04-12T18:14:00.080Z</time>
      </trkpt>
      <trkpt lat="45.48221" lon="6.22796">
        <ele>1260.25999872</ele>
        <time>2015-04-12T18:14:08.190Z</time>
      </trkpt>
      <trkpt lat="45.48224" lon="6.22811">
        <ele>1259.32999936</ele>
        <time>2015-04-12T18:14:16.190Z</time>
      </trkpt>
      <trkpt lat="45.4823" lon="6.22824">
        <ele>1258.05999872</ele>
        <time>2015-04-12T18:14:24.190Z</time>
      </trkpt>
      <trkpt lat="45.48236" lon="6.22836">
        <ele>1256.72999936</ele>
        <time>2015-04-12T18:14:32.190Z</time>
      </trkpt>
      <trkpt lat="45.48243" lon="6.22849">
        <ele>1256</ele>
        <time>2015-04-12T18:14:40.190Z</time>
      </trkpt>
      <trkpt lat="45.48242" lon="6.22866">
        <ele>1255.73100032</ele>
        <time>2015-04-12T18:14:52.180Z</time>
      </trkpt>
      <trkpt lat="45.48246" lon="6.22882">
        <ele>1254.92099968</ele>
        <time>2015-04-12T18:15:00.280Z</time>
      </trkpt>
      <trkpt lat="45.48255" lon="6.229">
        <ele>1254.13100032</ele>
        <time>2015-04-12T18:15:08.180Z</time>
      </trkpt>
      <trkpt lat="45.48245" lon="6.2292">
        <ele>1254</ele>
        <time>2015-04-12T18:15:16.010Z</time>
      </trkpt>
      <trkpt lat="45.48243" lon="6.22936">
        <ele>1253.14099968</ele>
        <time>2015-04-12T18:15:28.080Z</time>
      </trkpt>
      <trkpt lat="45.4824" lon="6.2295">
        <ele>1253</ele>
        <time>2015-04-12T18:15:36.280Z</time>
      </trkpt>
      <trkpt lat="45.48246" lon="6.22968">
        <ele>1252.22099968</ele>
        <time>2015-04-12T18:15:47.280Z</time>
      </trkpt>
      <trkpt lat="45.48256" lon="6.22981">
        <ele>1251.448</ele>
        <time>2015-04-12T18:15:55.010Z</time>
      </trkpt>
      <trkpt lat="45.48259" lon="6.22999">
        <ele>1251.7766700613</ele>
        <time>2015-04-12T18:16:07.280Z</time>
      </trkpt>
      <trkpt lat="45.4826" lon="6.23003">
        <ele>1252</ele>
        <time>2015-04-12T18:16:13.770Z</time>
      </trkpt>
    </trkseg>
  </trk>
</gpx>